<?xml version="1.0" encoding="UTF-8" standalone="no" ?>
<gpx xmlns="http://www.topografix.com/GPX/1/1" xmlns:xsi="http://www.w3.org/2001/XMLSchema-instance" xsi:schemaLocation="http://www.topografix.com/GPX/1/1 http://www.topografix.com/GPX/1/1/gpx.xsd" version="1.1" creator="VisuGPX - https://www.visugpx.com">
  <metadata>
    <name>Gaillon Port-Mort Tourny Ecos retour</name>
  </metadata>
  <trk>
    <name><![CDATA[Avec Christophe et Pascal]]></name>
    <trkseg>
      <trkpt lat="49.14935" lon="1.35976">
        <ele>21.799999237061</ele>
        <time>2021-03-28T06:37:06.000Z</time>
      </trkpt>
      <trkpt lat="49.14923" lon="1.36056">
        <ele>20.39999961853</ele>
        <time>2021-03-28T06:37:15.000Z</time>
      </trkpt>
      <trkpt lat="49.14918" lon="1.36106">
        <ele>20.200000762939</ele>
        <time>2021-03-28T06:37:21.000Z</time>
      </trkpt>
      <trkpt lat="49.14916" lon="1.36123">
        <ele>20.200000762939</ele>
        <time>2021-03-28T06:37:23.000Z</time>
      </trkpt>
      <trkpt lat="49.14912" lon="1.36191">
        <ele>20.200000762939</ele>
        <time>2021-03-28T06:37:31.000Z</time>
      </trkpt>
      <trkpt lat="49.14911" lon="1.36199">
        <ele>20.200000762939</ele>
        <time>2021-03-28T06:37:32.000Z</time>
      </trkpt>
      <trkpt lat="49.14904" lon="1.36275">
        <ele>20.60000038147</ele>
        <time>2021-03-28T06:37:41.000Z</time>
      </trkpt>
      <trkpt lat="49.14892" lon="1.36359">
        <ele>21</ele>
        <time>2021-03-28T06:37:51.000Z</time>
      </trkpt>
      <trkpt lat="49.14875" lon="1.36432">
        <ele>20.799999237061</ele>
        <time>2021-03-28T06:38:00.000Z</time>
      </trkpt>
      <trkpt lat="49.14873" lon="1.36439">
        <ele>20.799999237061</ele>
        <time>2021-03-28T06:38:01.000Z</time>
      </trkpt>
      <trkpt lat="49.14859" lon="1.36486">
        <ele>20.799999237061</ele>
        <time>2021-03-28T06:38:07.000Z</time>
      </trkpt>
      <trkpt lat="49.14849" lon="1.36507">
        <ele>21</ele>
        <time>2021-03-28T06:38:10.000Z</time>
      </trkpt>
      <trkpt lat="49.14845" lon="1.36512">
        <ele>21</ele>
        <time>2021-03-28T06:38:11.000Z</time>
      </trkpt>
      <trkpt lat="49.14841" lon="1.36517">
        <ele>21</ele>
        <time>2021-03-28T06:38:12.000Z</time>
      </trkpt>
      <trkpt lat="49.14825" lon="1.36537">
        <ele>21.200000762939</ele>
        <time>2021-03-28T06:38:16.000Z</time>
      </trkpt>
      <trkpt lat="49.14821" lon="1.3655">
        <ele>21.39999961853</ele>
        <time>2021-03-28T06:38:18.000Z</time>
      </trkpt>
      <trkpt lat="49.14819" lon="1.36573">
        <ele>21.39999961853</ele>
        <time>2021-03-28T06:38:21.000Z</time>
      </trkpt>
      <trkpt lat="49.14819" lon="1.36589">
        <ele>21.60000038147</ele>
        <time>2021-03-28T06:38:23.000Z</time>
      </trkpt>
      <trkpt lat="49.14817" lon="1.3662">
        <ele>22</ele>
        <time>2021-03-28T06:38:27.000Z</time>
      </trkpt>
      <trkpt lat="49.14816" lon="1.36652">
        <ele>22.200000762939</ele>
        <time>2021-03-28T06:38:31.000Z</time>
      </trkpt>
      <trkpt lat="49.14816" lon="1.36667">
        <ele>22.200000762939</ele>
        <time>2021-03-28T06:38:33.000Z</time>
      </trkpt>
      <trkpt lat="49.14815" lon="1.36731">
        <ele>23</ele>
        <time>2021-03-28T06:38:41.000Z</time>
      </trkpt>
      <trkpt lat="49.14815" lon="1.36739">
        <ele>23</ele>
        <time>2021-03-28T06:38:42.000Z</time>
      </trkpt>
      <trkpt lat="49.14816" lon="1.3677">
        <ele>23.39999961853</ele>
        <time>2021-03-28T06:38:46.000Z</time>
      </trkpt>
      <trkpt lat="49.14818" lon="1.36784">
        <ele>23.60000038147</ele>
        <time>2021-03-28T06:38:48.000Z</time>
      </trkpt>
      <trkpt lat="49.14825" lon="1.36823">
        <ele>24</ele>
        <time>2021-03-28T06:38:53.000Z</time>
      </trkpt>
      <trkpt lat="49.14825" lon="1.36831">
        <ele>24.200000762939</ele>
        <time>2021-03-28T06:38:54.000Z</time>
      </trkpt>
      <trkpt lat="49.14825" lon="1.36887">
        <ele>24.200000762939</ele>
        <time>2021-03-28T06:39:01.000Z</time>
      </trkpt>
      <trkpt lat="49.14827" lon="1.3695">
        <ele>24</ele>
        <time>2021-03-28T06:39:09.000Z</time>
      </trkpt>
      <trkpt lat="49.14828" lon="1.36966">
        <ele>24</ele>
        <time>2021-03-28T06:39:11.000Z</time>
      </trkpt>
      <trkpt lat="49.14828" lon="1.37027">
        <ele>24.39999961853</ele>
        <time>2021-03-28T06:39:19.000Z</time>
      </trkpt>
      <trkpt lat="49.14828" lon="1.37034">
        <ele>24.39999961853</ele>
        <time>2021-03-28T06:39:20.000Z</time>
      </trkpt>
      <trkpt lat="49.14834" lon="1.37055">
        <ele>24.39999961853</ele>
        <time>2021-03-28T06:39:23.000Z</time>
      </trkpt>
      <trkpt lat="49.14842" lon="1.37066">
        <ele>24.60000038147</ele>
        <time>2021-03-28T06:39:25.000Z</time>
      </trkpt>
      <trkpt lat="49.1485" lon="1.37078">
        <ele>25.200000762939</ele>
        <time>2021-03-28T06:39:27.000Z</time>
      </trkpt>
      <trkpt lat="49.14855" lon="1.37084">
        <ele>25.39999961853</ele>
        <time>2021-03-28T06:39:28.000Z</time>
      </trkpt>
      <trkpt lat="49.14881" lon="1.37121">
        <ele>25.799999237061</ele>
        <time>2021-03-28T06:39:34.000Z</time>
      </trkpt>
      <trkpt lat="49.14906" lon="1.37173">
        <ele>25.39999961853</ele>
        <time>2021-03-28T06:39:41.000Z</time>
      </trkpt>
      <trkpt lat="49.14932" lon="1.37246">
        <ele>24.799999237061</ele>
        <time>2021-03-28T06:39:50.000Z</time>
      </trkpt>
      <trkpt lat="49.14935" lon="1.37254">
        <ele>24.799999237061</ele>
        <time>2021-03-28T06:39:51.000Z</time>
      </trkpt>
      <trkpt lat="49.14966" lon="1.37326">
        <ele>25</ele>
        <time>2021-03-28T06:40:00.000Z</time>
      </trkpt>
      <trkpt lat="49.14969" lon="1.37334">
        <ele>25</ele>
        <time>2021-03-28T06:40:01.000Z</time>
      </trkpt>
      <trkpt lat="49.1498" lon="1.3736">
        <ele>25</ele>
        <time>2021-03-28T06:40:04.000Z</time>
      </trkpt>
      <trkpt lat="49.15002" lon="1.37414">
        <ele>24.60000038147</ele>
        <time>2021-03-28T06:40:10.000Z</time>
      </trkpt>
      <trkpt lat="49.1501" lon="1.37432">
        <ele>24.200000762939</ele>
        <time>2021-03-28T06:40:12.000Z</time>
      </trkpt>
      <trkpt lat="49.15031" lon="1.37484">
        <ele>23.60000038147</ele>
        <time>2021-03-28T06:40:18.000Z</time>
      </trkpt>
      <trkpt lat="49.15056" lon="1.37551">
        <ele>23.39999961853</ele>
        <time>2021-03-28T06:40:26.000Z</time>
      </trkpt>
      <trkpt lat="49.15076" lon="1.37608">
        <ele>23.60000038147</ele>
        <time>2021-03-28T06:40:33.000Z</time>
      </trkpt>
      <trkpt lat="49.15079" lon="1.37615">
        <ele>23.60000038147</ele>
        <time>2021-03-28T06:40:34.000Z</time>
      </trkpt>
      <trkpt lat="49.15095" lon="1.37639">
        <ele>23.799999237061</ele>
        <time>2021-03-28T06:40:38.000Z</time>
      </trkpt>
      <trkpt lat="49.15107" lon="1.37652">
        <ele>24</ele>
        <time>2021-03-28T06:40:42.000Z</time>
      </trkpt>
      <trkpt lat="49.15108" lon="1.37655">
        <ele>24.200000762939</ele>
        <time>2021-03-28T06:40:44.000Z</time>
      </trkpt>
      <trkpt lat="49.15108" lon="1.37663">
        <ele>24.200000762939</ele>
        <time>2021-03-28T06:40:46.000Z</time>
      </trkpt>
      <trkpt lat="49.15114" lon="1.3768">
        <ele>24.39999961853</ele>
        <time>2021-03-28T06:40:50.000Z</time>
      </trkpt>
      <trkpt lat="49.15122" lon="1.37687">
        <ele>24.60000038147</ele>
        <time>2021-03-28T06:40:52.000Z</time>
      </trkpt>
      <trkpt lat="49.15136" lon="1.37697">
        <ele>24.60000038147</ele>
        <time>2021-03-28T06:40:55.000Z</time>
      </trkpt>
      <trkpt lat="49.1514" lon="1.37701">
        <ele>24.60000038147</ele>
        <time>2021-03-28T06:40:56.000Z</time>
      </trkpt>
      <trkpt lat="49.1519" lon="1.37737">
        <ele>23.200000762939</ele>
        <time>2021-03-28T06:41:05.000Z</time>
      </trkpt>
      <trkpt lat="49.15201" lon="1.37746">
        <ele>22.799999237061</ele>
        <time>2021-03-28T06:41:07.000Z</time>
      </trkpt>
      <trkpt lat="49.15212" lon="1.37755">
        <ele>22.39999961853</ele>
        <time>2021-03-28T06:41:09.000Z</time>
      </trkpt>
      <trkpt lat="49.15223" lon="1.37764">
        <ele>22</ele>
        <time>2021-03-28T06:41:11.000Z</time>
      </trkpt>
      <trkpt lat="49.15229" lon="1.37768">
        <ele>21.60000038147</ele>
        <time>2021-03-28T06:41:12.000Z</time>
      </trkpt>
      <trkpt lat="49.15267" lon="1.37795">
        <ele>20.60000038147</ele>
        <time>2021-03-28T06:41:19.000Z</time>
      </trkpt>
      <trkpt lat="49.15272" lon="1.37799">
        <ele>20.60000038147</ele>
        <time>2021-03-28T06:41:20.000Z</time>
      </trkpt>
      <trkpt lat="49.15311" lon="1.37826">
        <ele>19.799999237061</ele>
        <time>2021-03-28T06:41:27.000Z</time>
      </trkpt>
      <trkpt lat="49.15322" lon="1.37834">
        <ele>19.60000038147</ele>
        <time>2021-03-28T06:41:29.000Z</time>
      </trkpt>
      <trkpt lat="49.15339" lon="1.37844">
        <ele>19.200000762939</ele>
        <time>2021-03-28T06:41:32.000Z</time>
      </trkpt>
      <trkpt lat="49.15354" lon="1.37855">
        <ele>18.39999961853</ele>
        <time>2021-03-28T06:41:35.000Z</time>
      </trkpt>
      <trkpt lat="49.1537" lon="1.37867">
        <ele>18</ele>
        <time>2021-03-28T06:41:38.000Z</time>
      </trkpt>
      <trkpt lat="49.15416" lon="1.37895">
        <ele>17.799999237061</ele>
        <time>2021-03-28T06:41:46.000Z</time>
      </trkpt>
      <trkpt lat="49.15457" lon="1.37917">
        <ele>17.39999961853</ele>
        <time>2021-03-28T06:41:53.000Z</time>
      </trkpt>
      <trkpt lat="49.15462" lon="1.37921">
        <ele>17</ele>
        <time>2021-03-28T06:41:54.000Z</time>
      </trkpt>
      <trkpt lat="49.15473" lon="1.37929">
        <ele>16.60000038147</ele>
        <time>2021-03-28T06:41:56.000Z</time>
      </trkpt>
      <trkpt lat="49.15488" lon="1.37943">
        <ele>16.39999961853</ele>
        <time>2021-03-28T06:41:59.000Z</time>
      </trkpt>
      <trkpt lat="49.15518" lon="1.3797">
        <ele>16.200000762939</ele>
        <time>2021-03-28T06:42:05.000Z</time>
      </trkpt>
      <trkpt lat="49.15523" lon="1.37974">
        <ele>16.200000762939</ele>
        <time>2021-03-28T06:42:06.000Z</time>
      </trkpt>
      <trkpt lat="49.15543" lon="1.37992">
        <ele>16</ele>
        <time>2021-03-28T06:42:10.000Z</time>
      </trkpt>
      <trkpt lat="49.15551" lon="1.38003">
        <ele>16</ele>
        <time>2021-03-28T06:42:12.000Z</time>
      </trkpt>
      <trkpt lat="49.15555" lon="1.38009">
        <ele>16</ele>
        <time>2021-03-28T06:42:13.000Z</time>
      </trkpt>
      <trkpt lat="49.15576" lon="1.38031">
        <ele>16</ele>
        <time>2021-03-28T06:42:18.000Z</time>
      </trkpt>
      <trkpt lat="49.15611" lon="1.38054">
        <ele>15.800000190735</ele>
        <time>2021-03-28T06:42:25.000Z</time>
      </trkpt>
      <trkpt lat="49.15664" lon="1.3809">
        <ele>15.39999961853</ele>
        <time>2021-03-28T06:42:35.000Z</time>
      </trkpt>
      <trkpt lat="49.15669" lon="1.38094">
        <ele>15.39999961853</ele>
        <time>2021-03-28T06:42:36.000Z</time>
      </trkpt>
      <trkpt lat="49.15685" lon="1.38105">
        <ele>15.39999961853</ele>
        <time>2021-03-28T06:42:39.000Z</time>
      </trkpt>
      <trkpt lat="49.15722" lon="1.38131">
        <ele>15.39999961853</ele>
        <time>2021-03-28T06:42:46.000Z</time>
      </trkpt>
      <trkpt lat="49.15772" lon="1.38166">
        <ele>15.199999809265</ele>
        <time>2021-03-28T06:42:55.000Z</time>
      </trkpt>
      <trkpt lat="49.15777" lon="1.3817">
        <ele>15.199999809265</ele>
        <time>2021-03-28T06:42:56.000Z</time>
      </trkpt>
      <trkpt lat="49.15828" lon="1.38205">
        <ele>15.199999809265</ele>
        <time>2021-03-28T06:43:05.000Z</time>
      </trkpt>
      <trkpt lat="49.15834" lon="1.38209">
        <ele>15.199999809265</ele>
        <time>2021-03-28T06:43:06.000Z</time>
      </trkpt>
      <trkpt lat="49.15884" lon="1.38244">
        <ele>15.60000038147</ele>
        <time>2021-03-28T06:43:15.000Z</time>
      </trkpt>
      <trkpt lat="49.15889" lon="1.38248">
        <ele>15.60000038147</ele>
        <time>2021-03-28T06:43:16.000Z</time>
      </trkpt>
      <trkpt lat="49.15935" lon="1.38279">
        <ele>15.800000190735</ele>
        <time>2021-03-28T06:43:24.000Z</time>
      </trkpt>
      <trkpt lat="49.15986" lon="1.38313">
        <ele>15.800000190735</ele>
        <time>2021-03-28T06:43:33.000Z</time>
      </trkpt>
      <trkpt lat="49.15997" lon="1.38321">
        <ele>15.800000190735</ele>
        <time>2021-03-28T06:43:35.000Z</time>
      </trkpt>
      <trkpt lat="49.16008" lon="1.38328">
        <ele>15.800000190735</ele>
        <time>2021-03-28T06:43:37.000Z</time>
      </trkpt>
      <trkpt lat="49.16059" lon="1.38363">
        <ele>15.60000038147</ele>
        <time>2021-03-28T06:43:46.000Z</time>
      </trkpt>
      <trkpt lat="49.16064" lon="1.38367">
        <ele>15.60000038147</ele>
        <time>2021-03-28T06:43:47.000Z</time>
      </trkpt>
      <trkpt lat="49.16115" lon="1.38403">
        <ele>15.60000038147</ele>
        <time>2021-03-28T06:43:56.000Z</time>
      </trkpt>
      <trkpt lat="49.16121" lon="1.38407">
        <ele>15.60000038147</ele>
        <time>2021-03-28T06:43:57.000Z</time>
      </trkpt>
      <trkpt lat="49.16168" lon="1.38439">
        <ele>15.199999809265</ele>
        <time>2021-03-28T06:44:04.000Z</time>
      </trkpt>
      <trkpt lat="49.1619" lon="1.38455">
        <ele>14.800000190735</ele>
        <time>2021-03-28T06:44:07.000Z</time>
      </trkpt>
      <trkpt lat="49.1621" lon="1.38469">
        <ele>13.60000038147</ele>
        <time>2021-03-28T06:44:10.000Z</time>
      </trkpt>
      <trkpt lat="49.16216" lon="1.38473">
        <ele>13</ele>
        <time>2021-03-28T06:44:11.000Z</time>
      </trkpt>
      <trkpt lat="49.16221" lon="1.38477">
        <ele>12.39999961853</ele>
        <time>2021-03-28T06:44:12.000Z</time>
      </trkpt>
      <trkpt lat="49.16255" lon="1.38502">
        <ele>11.800000190735</ele>
        <time>2021-03-28T06:44:18.000Z</time>
      </trkpt>
      <trkpt lat="49.16294" lon="1.38532">
        <ele>12.800000190735</ele>
        <time>2021-03-28T06:44:26.000Z</time>
      </trkpt>
      <trkpt lat="49.16312" lon="1.3855">
        <ele>13.60000038147</ele>
        <time>2021-03-28T06:44:30.000Z</time>
      </trkpt>
      <trkpt lat="49.16325" lon="1.38564">
        <ele>14.39999961853</ele>
        <time>2021-03-28T06:44:33.000Z</time>
      </trkpt>
      <trkpt lat="49.16335" lon="1.38572">
        <ele>14.800000190735</ele>
        <time>2021-03-28T06:44:35.000Z</time>
      </trkpt>
      <trkpt lat="49.16339" lon="1.38575">
        <ele>15</ele>
        <time>2021-03-28T06:44:36.000Z</time>
      </trkpt>
      <trkpt lat="49.1635" lon="1.38575">
        <ele>15.199999809265</ele>
        <time>2021-03-28T06:44:38.000Z</time>
      </trkpt>
      <trkpt lat="49.16369" lon="1.38558">
        <ele>15.199999809265</ele>
        <time>2021-03-28T06:44:42.000Z</time>
      </trkpt>
      <trkpt lat="49.16377" lon="1.38545">
        <ele>15.39999961853</ele>
        <time>2021-03-28T06:44:44.000Z</time>
      </trkpt>
      <trkpt lat="49.16392" lon="1.38516">
        <ele>15.60000038147</ele>
        <time>2021-03-28T06:44:48.000Z</time>
      </trkpt>
      <trkpt lat="49.16427" lon="1.38447">
        <ele>15.199999809265</ele>
        <time>2021-03-28T06:44:57.000Z</time>
      </trkpt>
      <trkpt lat="49.16461" lon="1.38378">
        <ele>14.800000190735</ele>
        <time>2021-03-28T06:45:06.000Z</time>
      </trkpt>
      <trkpt lat="49.16491" lon="1.38318">
        <ele>15</ele>
        <time>2021-03-28T06:45:14.000Z</time>
      </trkpt>
      <trkpt lat="49.1652" lon="1.38258">
        <ele>15.199999809265</ele>
        <time>2021-03-28T06:45:22.000Z</time>
      </trkpt>
      <trkpt lat="49.16524" lon="1.3825">
        <ele>15.199999809265</ele>
        <time>2021-03-28T06:45:23.000Z</time>
      </trkpt>
      <trkpt lat="49.16555" lon="1.38182">
        <ele>15.199999809265</ele>
        <time>2021-03-28T06:45:32.000Z</time>
      </trkpt>
      <trkpt lat="49.16557" lon="1.38174">
        <ele>15.199999809265</ele>
        <time>2021-03-28T06:45:33.000Z</time>
      </trkpt>
      <trkpt lat="49.16565" lon="1.38118">
        <ele>15.199999809265</ele>
        <time>2021-03-28T06:45:39.000Z</time>
      </trkpt>
      <trkpt lat="49.16569" lon="1.3803">
        <ele>15.199999809265</ele>
        <time>2021-03-28T06:45:48.000Z</time>
      </trkpt>
      <trkpt lat="49.16572" lon="1.37991">
        <ele>14.800000190735</ele>
        <time>2021-03-28T06:45:52.000Z</time>
      </trkpt>
      <trkpt lat="49.16576" lon="1.37902">
        <ele>14.39999961853</ele>
        <time>2021-03-28T06:46:01.000Z</time>
      </trkpt>
      <trkpt lat="49.16576" lon="1.37882">
        <ele>14.39999961853</ele>
        <time>2021-03-28T06:46:03.000Z</time>
      </trkpt>
      <trkpt lat="49.1658" lon="1.37798">
        <ele>14</ele>
        <time>2021-03-28T06:46:11.000Z</time>
      </trkpt>
      <trkpt lat="49.16582" lon="1.37788">
        <ele>13.800000190735</ele>
        <time>2021-03-28T06:46:12.000Z</time>
      </trkpt>
      <trkpt lat="49.16589" lon="1.37777">
        <ele>13.800000190735</ele>
        <time>2021-03-28T06:46:14.000Z</time>
      </trkpt>
      <trkpt lat="49.16607" lon="1.37783">
        <ele>13.800000190735</ele>
        <time>2021-03-28T06:46:17.000Z</time>
      </trkpt>
      <trkpt lat="49.16649" lon="1.37804">
        <ele>13.60000038147</ele>
        <time>2021-03-28T06:46:24.000Z</time>
      </trkpt>
      <trkpt lat="49.16672" lon="1.37816">
        <ele>13</ele>
        <time>2021-03-28T06:46:28.000Z</time>
      </trkpt>
      <trkpt lat="49.16684" lon="1.37822">
        <ele>13</ele>
        <time>2021-03-28T06:46:30.000Z</time>
      </trkpt>
      <trkpt lat="49.16703" lon="1.37831">
        <ele>13</ele>
        <time>2021-03-28T06:46:33.000Z</time>
      </trkpt>
      <trkpt lat="49.16757" lon="1.37857">
        <ele>12.800000190735</ele>
        <time>2021-03-28T06:46:42.000Z</time>
      </trkpt>
      <trkpt lat="49.16763" lon="1.3786">
        <ele>12.800000190735</ele>
        <time>2021-03-28T06:46:43.000Z</time>
      </trkpt>
      <trkpt lat="49.16812" lon="1.37883">
        <ele>12.60000038147</ele>
        <time>2021-03-28T06:46:51.000Z</time>
      </trkpt>
      <trkpt lat="49.16831" lon="1.37891">
        <ele>12.39999961853</ele>
        <time>2021-03-28T06:46:54.000Z</time>
      </trkpt>
      <trkpt lat="49.16886" lon="1.37917">
        <ele>11.800000190735</ele>
        <time>2021-03-28T06:47:03.000Z</time>
      </trkpt>
      <trkpt lat="49.16892" lon="1.3792">
        <ele>11.800000190735</ele>
        <time>2021-03-28T06:47:04.000Z</time>
      </trkpt>
      <trkpt lat="49.16925" lon="1.37934">
        <ele>11.60000038147</ele>
        <time>2021-03-28T06:47:09.000Z</time>
      </trkpt>
      <trkpt lat="49.16956" lon="1.37949">
        <ele>10.60000038147</ele>
        <time>2021-03-28T06:47:14.000Z</time>
      </trkpt>
      <trkpt lat="49.16962" lon="1.37952">
        <ele>10.60000038147</ele>
        <time>2021-03-28T06:47:15.000Z</time>
      </trkpt>
      <trkpt lat="49.16974" lon="1.37955">
        <ele>10.39999961853</ele>
        <time>2021-03-28T06:47:17.000Z</time>
      </trkpt>
      <trkpt lat="49.16985" lon="1.37951">
        <ele>10.39999961853</ele>
        <time>2021-03-28T06:47:19.000Z</time>
      </trkpt>
      <trkpt lat="49.16999" lon="1.37933">
        <ele>10.199999809265</ele>
        <time>2021-03-28T06:47:22.000Z</time>
      </trkpt>
      <trkpt lat="49.17007" lon="1.37918">
        <ele>10.199999809265</ele>
        <time>2021-03-28T06:47:24.000Z</time>
      </trkpt>
      <trkpt lat="49.17025" lon="1.37879">
        <ele>10.60000038147</ele>
        <time>2021-03-28T06:47:29.000Z</time>
      </trkpt>
      <trkpt lat="49.17051" lon="1.37824">
        <ele>11</ele>
        <time>2021-03-28T06:47:36.000Z</time>
      </trkpt>
      <trkpt lat="49.17081" lon="1.37759">
        <ele>11</ele>
        <time>2021-03-28T06:47:44.000Z</time>
      </trkpt>
      <trkpt lat="49.17112" lon="1.37697">
        <ele>11</ele>
        <time>2021-03-28T06:47:52.000Z</time>
      </trkpt>
      <trkpt lat="49.17142" lon="1.37631">
        <ele>11</ele>
        <time>2021-03-28T06:48:00.000Z</time>
      </trkpt>
      <trkpt lat="49.17153" lon="1.37606">
        <ele>11</ele>
        <time>2021-03-28T06:48:03.000Z</time>
      </trkpt>
      <trkpt lat="49.1716" lon="1.37589">
        <ele>10.800000190735</ele>
        <time>2021-03-28T06:48:05.000Z</time>
      </trkpt>
      <trkpt lat="49.17168" lon="1.37574">
        <ele>10.199999809265</ele>
        <time>2021-03-28T06:48:07.000Z</time>
      </trkpt>
      <trkpt lat="49.17181" lon="1.37552">
        <ele>10</ele>
        <time>2021-03-28T06:48:10.000Z</time>
      </trkpt>
      <trkpt lat="49.17196" lon="1.37521">
        <ele>9.8000001907349</ele>
        <time>2021-03-28T06:48:14.000Z</time>
      </trkpt>
      <trkpt lat="49.172" lon="1.37513">
        <ele>9.8000001907349</ele>
        <time>2021-03-28T06:48:15.000Z</time>
      </trkpt>
      <trkpt lat="49.17235" lon="1.37446">
        <ele>9.6000003814697</ele>
        <time>2021-03-28T06:48:24.000Z</time>
      </trkpt>
      <trkpt lat="49.17263" lon="1.37396">
        <ele>9.6000003814697</ele>
        <time>2021-03-28T06:48:31.000Z</time>
      </trkpt>
      <trkpt lat="49.17288" lon="1.37357">
        <ele>9.6000003814697</ele>
        <time>2021-03-28T06:48:37.000Z</time>
      </trkpt>
      <trkpt lat="49.17295" lon="1.37343">
        <ele>9.6000003814697</ele>
        <time>2021-03-28T06:48:39.000Z</time>
      </trkpt>
      <trkpt lat="49.17309" lon="1.37313">
        <ele>9.3999996185303</ele>
        <time>2021-03-28T06:48:43.000Z</time>
      </trkpt>
      <trkpt lat="49.17317" lon="1.373">
        <ele>9.1999998092651</ele>
        <time>2021-03-28T06:48:45.000Z</time>
      </trkpt>
      <trkpt lat="49.17328" lon="1.37282">
        <ele>9.1999998092651</ele>
        <time>2021-03-28T06:48:48.000Z</time>
      </trkpt>
      <trkpt lat="49.17344" lon="1.37247">
        <ele>8.8000001907349</ele>
        <time>2021-03-28T06:48:53.000Z</time>
      </trkpt>
      <trkpt lat="49.17366" lon="1.37207">
        <ele>8.8000001907349</ele>
        <time>2021-03-28T06:48:59.000Z</time>
      </trkpt>
      <trkpt lat="49.17384" lon="1.37165">
        <ele>9</ele>
        <time>2021-03-28T06:49:05.000Z</time>
      </trkpt>
      <trkpt lat="49.17387" lon="1.37157">
        <ele>9.1999998092651</ele>
        <time>2021-03-28T06:49:06.000Z</time>
      </trkpt>
      <trkpt lat="49.17397" lon="1.37127">
        <ele>9.1999998092651</ele>
        <time>2021-03-28T06:49:10.000Z</time>
      </trkpt>
      <trkpt lat="49.17415" lon="1.37073">
        <ele>9.1999998092651</ele>
        <time>2021-03-28T06:49:17.000Z</time>
      </trkpt>
      <trkpt lat="49.17432" lon="1.37011">
        <ele>9.1999998092651</ele>
        <time>2021-03-28T06:49:25.000Z</time>
      </trkpt>
      <trkpt lat="49.17442" lon="1.36972">
        <ele>9.1999998092651</ele>
        <time>2021-03-28T06:49:30.000Z</time>
      </trkpt>
      <trkpt lat="49.17449" lon="1.36932">
        <ele>9.1999998092651</ele>
        <time>2021-03-28T06:49:35.000Z</time>
      </trkpt>
      <trkpt lat="49.17456" lon="1.36876">
        <ele>9.1999998092651</ele>
        <time>2021-03-28T06:49:42.000Z</time>
      </trkpt>
      <trkpt lat="49.17465" lon="1.36812">
        <ele>9.6000003814697</ele>
        <time>2021-03-28T06:49:50.000Z</time>
      </trkpt>
      <trkpt lat="49.17473" lon="1.36765">
        <ele>10</ele>
        <time>2021-03-28T06:49:56.000Z</time>
      </trkpt>
      <trkpt lat="49.17474" lon="1.36758">
        <ele>10</ele>
        <time>2021-03-28T06:49:57.000Z</time>
      </trkpt>
      <trkpt lat="49.17478" lon="1.36734">
        <ele>9.8000001907349</ele>
        <time>2021-03-28T06:50:00.000Z</time>
      </trkpt>
      <trkpt lat="49.17488" lon="1.36674">
        <ele>10</ele>
        <time>2021-03-28T06:50:08.000Z</time>
      </trkpt>
      <trkpt lat="49.17489" lon="1.36666">
        <ele>10</ele>
        <time>2021-03-28T06:50:09.000Z</time>
      </trkpt>
      <trkpt lat="49.17493" lon="1.36636">
        <ele>10.199999809265</ele>
        <time>2021-03-28T06:50:13.000Z</time>
      </trkpt>
      <trkpt lat="49.17494" lon="1.36628">
        <ele>10.199999809265</ele>
        <time>2021-03-28T06:50:14.000Z</time>
      </trkpt>
      <trkpt lat="49.17495" lon="1.3662">
        <ele>10.199999809265</ele>
        <time>2021-03-28T06:50:15.000Z</time>
      </trkpt>
      <trkpt lat="49.175" lon="1.36586">
        <ele>10.199999809265</ele>
        <time>2021-03-28T06:50:19.000Z</time>
      </trkpt>
      <trkpt lat="49.17511" lon="1.36513">
        <ele>9.8000001907349</ele>
        <time>2021-03-28T06:50:27.000Z</time>
      </trkpt>
      <trkpt lat="49.1752" lon="1.36453">
        <ele>9.3999996185303</ele>
        <time>2021-03-28T06:50:34.000Z</time>
      </trkpt>
      <trkpt lat="49.17522" lon="1.36437">
        <ele>9.1999998092651</ele>
        <time>2021-03-28T06:50:36.000Z</time>
      </trkpt>
      <trkpt lat="49.17525" lon="1.36421">
        <ele>9</ele>
        <time>2021-03-28T06:50:38.000Z</time>
      </trkpt>
      <trkpt lat="49.1753" lon="1.36397">
        <ele>9</ele>
        <time>2021-03-28T06:50:41.000Z</time>
      </trkpt>
      <trkpt lat="49.17533" lon="1.36371">
        <ele>9</ele>
        <time>2021-03-28T06:50:44.000Z</time>
      </trkpt>
      <trkpt lat="49.17537" lon="1.36355">
        <ele>9</ele>
        <time>2021-03-28T06:50:46.000Z</time>
      </trkpt>
      <trkpt lat="49.17541" lon="1.3633">
        <ele>9</ele>
        <time>2021-03-28T06:50:49.000Z</time>
      </trkpt>
      <trkpt lat="49.17548" lon="1.36295">
        <ele>9</ele>
        <time>2021-03-28T06:50:53.000Z</time>
      </trkpt>
      <trkpt lat="49.17556" lon="1.36254">
        <ele>9</ele>
        <time>2021-03-28T06:50:58.000Z</time>
      </trkpt>
      <trkpt lat="49.17558" lon="1.3625">
        <ele>9</ele>
        <time>2021-03-28T06:50:59.000Z</time>
      </trkpt>
      <trkpt lat="49.17558" lon="1.36246">
        <ele>8.8000001907349</ele>
        <time>2021-03-28T06:51:03.000Z</time>
      </trkpt>
      <trkpt lat="49.17558" lon="1.36243">
        <ele>8.8000001907349</ele>
        <time>2021-03-28T06:51:06.000Z</time>
      </trkpt>
      <trkpt lat="49.17559" lon="1.36237">
        <ele>9.3999996185303</ele>
        <time>2021-03-28T06:51:08.000Z</time>
      </trkpt>
      <trkpt lat="49.17563" lon="1.36215">
        <ele>9.6000003814697</ele>
        <time>2021-03-28T06:51:12.000Z</time>
      </trkpt>
      <trkpt lat="49.17565" lon="1.36208">
        <ele>9.6000003814697</ele>
        <time>2021-03-28T06:51:13.000Z</time>
      </trkpt>
      <trkpt lat="49.17568" lon="1.36196">
        <ele>9.6000003814697</ele>
        <time>2021-03-28T06:51:15.000Z</time>
      </trkpt>
      <trkpt lat="49.17572" lon="1.36183">
        <ele>9.6000003814697</ele>
        <time>2021-03-28T06:51:17.000Z</time>
      </trkpt>
      <trkpt lat="49.17575" lon="1.3617">
        <ele>9.3999996185303</ele>
        <time>2021-03-28T06:51:19.000Z</time>
      </trkpt>
      <trkpt lat="49.17584" lon="1.36138">
        <ele>9.1999998092651</ele>
        <time>2021-03-28T06:51:24.000Z</time>
      </trkpt>
      <trkpt lat="49.17596" lon="1.36091">
        <ele>9.1999998092651</ele>
        <time>2021-03-28T06:51:31.000Z</time>
      </trkpt>
      <trkpt lat="49.17604" lon="1.36067">
        <ele>9.3999996185303</ele>
        <time>2021-03-28T06:51:36.000Z</time>
      </trkpt>
      <trkpt lat="49.1761" lon="1.3604">
        <ele>10</ele>
        <time>2021-03-28T06:51:41.000Z</time>
      </trkpt>
      <trkpt lat="49.17611" lon="1.36033">
        <ele>10.199999809265</ele>
        <time>2021-03-28T06:51:42.000Z</time>
      </trkpt>
      <trkpt lat="49.17615" lon="1.36001">
        <ele>10.39999961853</ele>
        <time>2021-03-28T06:51:48.000Z</time>
      </trkpt>
      <trkpt lat="49.17616" lon="1.35989">
        <ele>10.39999961853</ele>
        <time>2021-03-28T06:51:50.000Z</time>
      </trkpt>
      <trkpt lat="49.17619" lon="1.35976">
        <ele>10.39999961853</ele>
        <time>2021-03-28T06:51:52.000Z</time>
      </trkpt>
      <trkpt lat="49.17636" lon="1.35917">
        <ele>9.6000003814697</ele>
        <time>2021-03-28T06:52:00.000Z</time>
      </trkpt>
      <trkpt lat="49.17654" lon="1.35852">
        <ele>9.3999996185303</ele>
        <time>2021-03-28T06:52:08.000Z</time>
      </trkpt>
      <trkpt lat="49.17673" lon="1.35793">
        <ele>9</ele>
        <time>2021-03-28T06:52:15.000Z</time>
      </trkpt>
      <trkpt lat="49.17676" lon="1.35785">
        <ele>9</ele>
        <time>2021-03-28T06:52:16.000Z</time>
      </trkpt>
      <trkpt lat="49.17687" lon="1.35752">
        <ele>8.8000001907349</ele>
        <time>2021-03-28T06:52:20.000Z</time>
      </trkpt>
      <trkpt lat="49.17693" lon="1.35736">
        <ele>8.8000001907349</ele>
        <time>2021-03-28T06:52:22.000Z</time>
      </trkpt>
      <trkpt lat="49.17714" lon="1.35676">
        <ele>8.8000001907349</ele>
        <time>2021-03-28T06:52:29.000Z</time>
      </trkpt>
      <trkpt lat="49.17734" lon="1.35619">
        <ele>8.6000003814697</ele>
        <time>2021-03-28T06:52:36.000Z</time>
      </trkpt>
      <trkpt lat="49.17757" lon="1.35553">
        <ele>8.6000003814697</ele>
        <time>2021-03-28T06:52:44.000Z</time>
      </trkpt>
      <trkpt lat="49.17777" lon="1.35494">
        <ele>8.6000003814697</ele>
        <time>2021-03-28T06:52:51.000Z</time>
      </trkpt>
      <trkpt lat="49.1778" lon="1.35486">
        <ele>8.6000003814697</ele>
        <time>2021-03-28T06:52:52.000Z</time>
      </trkpt>
      <trkpt lat="49.17803" lon="1.3542">
        <ele>8.6000003814697</ele>
        <time>2021-03-28T06:53:00.000Z</time>
      </trkpt>
      <trkpt lat="49.17814" lon="1.35387">
        <ele>8.6000003814697</ele>
        <time>2021-03-28T06:53:04.000Z</time>
      </trkpt>
      <trkpt lat="49.17818" lon="1.35371">
        <ele>8.3999996185303</ele>
        <time>2021-03-28T06:53:06.000Z</time>
      </trkpt>
      <trkpt lat="49.17822" lon="1.35354">
        <ele>8.3999996185303</ele>
        <time>2021-03-28T06:53:08.000Z</time>
      </trkpt>
      <trkpt lat="49.17821" lon="1.3534">
        <ele>8.1999998092651</ele>
        <time>2021-03-28T06:53:10.000Z</time>
      </trkpt>
      <trkpt lat="49.17817" lon="1.35331">
        <ele>8.1999998092651</ele>
        <time>2021-03-28T06:53:12.000Z</time>
      </trkpt>
      <trkpt lat="49.17812" lon="1.35326">
        <ele>8.1999998092651</ele>
        <time>2021-03-28T06:53:14.000Z</time>
      </trkpt>
      <trkpt lat="49.17797" lon="1.35318">
        <ele>8.1999998092651</ele>
        <time>2021-03-28T06:53:19.000Z</time>
      </trkpt>
      <trkpt lat="49.17779" lon="1.35301">
        <ele>9.8000001907349</ele>
        <time>2021-03-28T06:53:25.000Z</time>
      </trkpt>
      <trkpt lat="49.17773" lon="1.35291">
        <ele>10.199999809265</ele>
        <time>2021-03-28T06:53:28.000Z</time>
      </trkpt>
      <trkpt lat="49.17772" lon="1.35285">
        <ele>10.60000038147</ele>
        <time>2021-03-28T06:53:30.000Z</time>
      </trkpt>
      <trkpt lat="49.17769" lon="1.3528">
        <ele>11</ele>
        <time>2021-03-28T06:53:32.000Z</time>
      </trkpt>
      <trkpt lat="49.17768" lon="1.35278">
        <ele>11.39999961853</ele>
        <time>2021-03-28T06:53:33.000Z</time>
      </trkpt>
      <trkpt lat="49.17768" lon="1.35276">
        <ele>11.60000038147</ele>
        <time>2021-03-28T06:53:34.000Z</time>
      </trkpt>
      <trkpt lat="49.17772" lon="1.35272">
        <ele>12.199999809265</ele>
        <time>2021-03-28T06:53:37.000Z</time>
      </trkpt>
      <trkpt lat="49.17774" lon="1.35274">
        <ele>12.60000038147</ele>
        <time>2021-03-28T06:53:38.000Z</time>
      </trkpt>
      <trkpt lat="49.17777" lon="1.35276">
        <ele>13</ele>
        <time>2021-03-28T06:53:39.000Z</time>
      </trkpt>
      <trkpt lat="49.17782" lon="1.3528">
        <ele>13.800000190735</ele>
        <time>2021-03-28T06:53:41.000Z</time>
      </trkpt>
      <trkpt lat="49.17793" lon="1.35289">
        <ele>15</ele>
        <time>2021-03-28T06:53:45.000Z</time>
      </trkpt>
      <trkpt lat="49.178" lon="1.35293">
        <ele>15.199999809265</ele>
        <time>2021-03-28T06:53:47.000Z</time>
      </trkpt>
      <trkpt lat="49.17821" lon="1.3531">
        <ele>16.200000762939</ele>
        <time>2021-03-28T06:53:54.000Z</time>
      </trkpt>
      <trkpt lat="49.17843" lon="1.35327">
        <ele>17</ele>
        <time>2021-03-28T06:54:01.000Z</time>
      </trkpt>
      <trkpt lat="49.17851" lon="1.35332">
        <ele>17.39999961853</ele>
        <time>2021-03-28T06:54:03.000Z</time>
      </trkpt>
      <trkpt lat="49.17873" lon="1.35348">
        <ele>17.799999237061</ele>
        <time>2021-03-28T06:54:09.000Z</time>
      </trkpt>
      <trkpt lat="49.17907" lon="1.35373">
        <ele>18.200000762939</ele>
        <time>2021-03-28T06:54:17.000Z</time>
      </trkpt>
      <trkpt lat="49.17951" lon="1.35406">
        <ele>18.200000762939</ele>
        <time>2021-03-28T06:54:26.000Z</time>
      </trkpt>
      <trkpt lat="49.18" lon="1.35443">
        <ele>17.799999237061</ele>
        <time>2021-03-28T06:54:36.000Z</time>
      </trkpt>
      <trkpt lat="49.18024" lon="1.35462">
        <ele>17.39999961853</ele>
        <time>2021-03-28T06:54:41.000Z</time>
      </trkpt>
      <trkpt lat="49.18072" lon="1.35503">
        <ele>16.200000762939</ele>
        <time>2021-03-28T06:54:49.000Z</time>
      </trkpt>
      <trkpt lat="49.18091" lon="1.35521">
        <ele>15.199999809265</ele>
        <time>2021-03-28T06:54:52.000Z</time>
      </trkpt>
      <trkpt lat="49.18108" lon="1.35539">
        <ele>14.199999809265</ele>
        <time>2021-03-28T06:54:55.000Z</time>
      </trkpt>
      <trkpt lat="49.18113" lon="1.35545">
        <ele>13.800000190735</ele>
        <time>2021-03-28T06:54:56.000Z</time>
      </trkpt>
      <trkpt lat="49.18121" lon="1.35559">
        <ele>13</ele>
        <time>2021-03-28T06:54:58.000Z</time>
      </trkpt>
      <trkpt lat="49.18124" lon="1.35567">
        <ele>12.800000190735</ele>
        <time>2021-03-28T06:54:59.000Z</time>
      </trkpt>
      <trkpt lat="49.18126" lon="1.35576">
        <ele>12.39999961853</ele>
        <time>2021-03-28T06:55:00.000Z</time>
      </trkpt>
      <trkpt lat="49.18123" lon="1.35618">
        <ele>12</ele>
        <time>2021-03-28T06:55:04.000Z</time>
      </trkpt>
      <trkpt lat="49.1812" lon="1.3563">
        <ele>12</ele>
        <time>2021-03-28T06:55:05.000Z</time>
      </trkpt>
      <trkpt lat="49.18117" lon="1.35641">
        <ele>12</ele>
        <time>2021-03-28T06:55:06.000Z</time>
      </trkpt>
      <trkpt lat="49.18106" lon="1.35672">
        <ele>11.199999809265</ele>
        <time>2021-03-28T06:55:09.000Z</time>
      </trkpt>
      <trkpt lat="49.18102" lon="1.35681">
        <ele>10.800000190735</ele>
        <time>2021-03-28T06:55:10.000Z</time>
      </trkpt>
      <trkpt lat="49.18095" lon="1.357">
        <ele>9</ele>
        <time>2021-03-28T06:55:12.000Z</time>
      </trkpt>
      <trkpt lat="49.18092" lon="1.35709">
        <ele>8</ele>
        <time>2021-03-28T06:55:13.000Z</time>
      </trkpt>
      <trkpt lat="49.18086" lon="1.35728">
        <ele>6.5999999046326</ele>
        <time>2021-03-28T06:55:15.000Z</time>
      </trkpt>
      <trkpt lat="49.18066" lon="1.35778">
        <ele>5.8000001907349</ele>
        <time>2021-03-28T06:55:21.000Z</time>
      </trkpt>
      <trkpt lat="49.18063" lon="1.35785">
        <ele>5.8000001907349</ele>
        <time>2021-03-28T06:55:22.000Z</time>
      </trkpt>
      <trkpt lat="49.18054" lon="1.35805">
        <ele>5.8000001907349</ele>
        <time>2021-03-28T06:55:25.000Z</time>
      </trkpt>
      <trkpt lat="49.18061" lon="1.35817">
        <ele>6</ele>
        <time>2021-03-28T06:55:28.000Z</time>
      </trkpt>
      <trkpt lat="49.18064" lon="1.3582">
        <ele>6</ele>
        <time>2021-03-28T06:55:29.000Z</time>
      </trkpt>
      <trkpt lat="49.1808" lon="1.35837">
        <ele>6.4000000953674</ele>
        <time>2021-03-28T06:55:34.000Z</time>
      </trkpt>
      <trkpt lat="49.18096" lon="1.35862">
        <ele>7.1999998092651</ele>
        <time>2021-03-28T06:55:40.000Z</time>
      </trkpt>
      <trkpt lat="49.18099" lon="1.35869">
        <ele>7.4000000953674</ele>
        <time>2021-03-28T06:55:42.000Z</time>
      </trkpt>
      <trkpt lat="49.18104" lon="1.35879">
        <ele>8</ele>
        <time>2021-03-28T06:55:45.000Z</time>
      </trkpt>
      <trkpt lat="49.18106" lon="1.35884">
        <ele>8.3999996185303</ele>
        <time>2021-03-28T06:55:47.000Z</time>
      </trkpt>
      <trkpt lat="49.1811" lon="1.35892">
        <ele>9.3999996185303</ele>
        <time>2021-03-28T06:55:50.000Z</time>
      </trkpt>
      <trkpt lat="49.18111" lon="1.35894">
        <ele>9.8000001907349</ele>
        <time>2021-03-28T06:55:51.000Z</time>
      </trkpt>
      <trkpt lat="49.18113" lon="1.35901">
        <ele>11</ele>
        <time>2021-03-28T06:55:54.000Z</time>
      </trkpt>
      <trkpt lat="49.18114" lon="1.35906">
        <ele>11.60000038147</ele>
        <time>2021-03-28T06:55:56.000Z</time>
      </trkpt>
      <trkpt lat="49.18114" lon="1.35909">
        <ele>12</ele>
        <time>2021-03-28T06:55:57.000Z</time>
      </trkpt>
      <trkpt lat="49.18117" lon="1.35917">
        <ele>13</ele>
        <time>2021-03-28T06:56:00.000Z</time>
      </trkpt>
      <trkpt lat="49.18118" lon="1.35921">
        <ele>13.800000190735</ele>
        <time>2021-03-28T06:56:02.000Z</time>
      </trkpt>
      <trkpt lat="49.1812" lon="1.35924">
        <ele>14.39999961853</ele>
        <time>2021-03-28T06:56:04.000Z</time>
      </trkpt>
      <trkpt lat="49.18123" lon="1.35931">
        <ele>15.60000038147</ele>
        <time>2021-03-28T06:56:08.000Z</time>
      </trkpt>
      <trkpt lat="49.18127" lon="1.35939">
        <ele>17</ele>
        <time>2021-03-28T06:56:12.000Z</time>
      </trkpt>
      <trkpt lat="49.18129" lon="1.35945">
        <ele>18.200000762939</ele>
        <time>2021-03-28T06:56:15.000Z</time>
      </trkpt>
      <trkpt lat="49.18134" lon="1.35954">
        <ele>19.39999961853</ele>
        <time>2021-03-28T06:56:19.000Z</time>
      </trkpt>
      <trkpt lat="49.18139" lon="1.3596">
        <ele>20.39999961853</ele>
        <time>2021-03-28T06:56:22.000Z</time>
      </trkpt>
      <trkpt lat="49.18141" lon="1.35962">
        <ele>20.799999237061</ele>
        <time>2021-03-28T06:56:23.000Z</time>
      </trkpt>
      <trkpt lat="49.1815" lon="1.35972">
        <ele>21.799999237061</ele>
        <time>2021-03-28T06:56:28.000Z</time>
      </trkpt>
      <trkpt lat="49.18165" lon="1.35988">
        <ele>22.799999237061</ele>
        <time>2021-03-28T06:56:34.000Z</time>
      </trkpt>
      <trkpt lat="49.18167" lon="1.35991">
        <ele>23</ele>
        <time>2021-03-28T06:56:35.000Z</time>
      </trkpt>
      <trkpt lat="49.18183" lon="1.36013">
        <ele>23.60000038147</ele>
        <time>2021-03-28T06:56:42.000Z</time>
      </trkpt>
      <trkpt lat="49.18189" lon="1.36023">
        <ele>23.799999237061</ele>
        <time>2021-03-28T06:56:45.000Z</time>
      </trkpt>
      <trkpt lat="49.18195" lon="1.36027">
        <ele>24</ele>
        <time>2021-03-28T06:56:47.000Z</time>
      </trkpt>
      <trkpt lat="49.18214" lon="1.36046">
        <ele>24.200000762939</ele>
        <time>2021-03-28T06:56:53.000Z</time>
      </trkpt>
      <trkpt lat="49.18251" lon="1.36078">
        <ele>24.60000038147</ele>
        <time>2021-03-28T06:57:03.000Z</time>
      </trkpt>
      <trkpt lat="49.18255" lon="1.36081">
        <ele>24.60000038147</ele>
        <time>2021-03-28T06:57:04.000Z</time>
      </trkpt>
      <trkpt lat="49.18276" lon="1.36099">
        <ele>25</ele>
        <time>2021-03-28T06:57:10.000Z</time>
      </trkpt>
      <trkpt lat="49.18291" lon="1.36111">
        <ele>25.200000762939</ele>
        <time>2021-03-28T06:57:14.000Z</time>
      </trkpt>
      <trkpt lat="49.183" lon="1.36119">
        <ele>25.39999961853</ele>
        <time>2021-03-28T06:57:16.000Z</time>
      </trkpt>
      <trkpt lat="49.18345" lon="1.36159">
        <ele>25.200000762939</ele>
        <time>2021-03-28T06:57:26.000Z</time>
      </trkpt>
      <trkpt lat="49.18386" lon="1.36196">
        <ele>25.200000762939</ele>
        <time>2021-03-28T06:57:35.000Z</time>
      </trkpt>
      <trkpt lat="49.18409" lon="1.36217">
        <ele>25.799999237061</ele>
        <time>2021-03-28T06:57:40.000Z</time>
      </trkpt>
      <trkpt lat="49.18419" lon="1.36225">
        <ele>25.799999237061</ele>
        <time>2021-03-28T06:57:42.000Z</time>
      </trkpt>
      <trkpt lat="49.18436" lon="1.36241">
        <ele>26.200000762939</ele>
        <time>2021-03-28T06:57:46.000Z</time>
      </trkpt>
      <trkpt lat="49.18437" lon="1.36248">
        <ele>26.200000762939</ele>
        <time>2021-03-28T06:57:47.000Z</time>
      </trkpt>
      <trkpt lat="49.18434" lon="1.3627">
        <ele>26.39999961853</ele>
        <time>2021-03-28T06:57:50.000Z</time>
      </trkpt>
      <trkpt lat="49.18427" lon="1.36315">
        <ele>26.799999237061</ele>
        <time>2021-03-28T06:57:56.000Z</time>
      </trkpt>
      <trkpt lat="49.18426" lon="1.36331">
        <ele>26.799999237061</ele>
        <time>2021-03-28T06:57:58.000Z</time>
      </trkpt>
      <trkpt lat="49.18427" lon="1.36393">
        <ele>27</ele>
        <time>2021-03-28T06:58:06.000Z</time>
      </trkpt>
      <trkpt lat="49.18431" lon="1.36455">
        <ele>27.200000762939</ele>
        <time>2021-03-28T06:58:14.000Z</time>
      </trkpt>
      <trkpt lat="49.18435" lon="1.36501">
        <ele>27.799999237061</ele>
        <time>2021-03-28T06:58:20.000Z</time>
      </trkpt>
      <trkpt lat="49.18438" lon="1.36525">
        <ele>28</ele>
        <time>2021-03-28T06:58:23.000Z</time>
      </trkpt>
      <trkpt lat="49.18447" lon="1.36586">
        <ele>28.799999237061</ele>
        <time>2021-03-28T06:58:31.000Z</time>
      </trkpt>
      <trkpt lat="49.18448" lon="1.36593">
        <ele>29</ele>
        <time>2021-03-28T06:58:32.000Z</time>
      </trkpt>
      <trkpt lat="49.18462" lon="1.36662">
        <ele>29.799999237061</ele>
        <time>2021-03-28T06:58:41.000Z</time>
      </trkpt>
      <trkpt lat="49.18463" lon="1.3667">
        <ele>29.799999237061</ele>
        <time>2021-03-28T06:58:42.000Z</time>
      </trkpt>
      <trkpt lat="49.18477" lon="1.36739">
        <ele>30.200000762939</ele>
        <time>2021-03-28T06:58:51.000Z</time>
      </trkpt>
      <trkpt lat="49.18486" lon="1.36804">
        <ele>30.200000762939</ele>
        <time>2021-03-28T06:58:59.000Z</time>
      </trkpt>
      <trkpt lat="49.18487" lon="1.36812">
        <ele>30.200000762939</ele>
        <time>2021-03-28T06:59:00.000Z</time>
      </trkpt>
      <trkpt lat="49.18484" lon="1.36837">
        <ele>30.39999961853</ele>
        <time>2021-03-28T06:59:03.000Z</time>
      </trkpt>
      <trkpt lat="49.18482" lon="1.36845">
        <ele>30.39999961853</ele>
        <time>2021-03-28T06:59:04.000Z</time>
      </trkpt>
      <trkpt lat="49.18463" lon="1.36905">
        <ele>30.60000038147</ele>
        <time>2021-03-28T06:59:12.000Z</time>
      </trkpt>
      <trkpt lat="49.18444" lon="1.36964">
        <ele>30.799999237061</ele>
        <time>2021-03-28T06:59:20.000Z</time>
      </trkpt>
      <trkpt lat="49.18434" lon="1.36993">
        <ele>31</ele>
        <time>2021-03-28T06:59:24.000Z</time>
      </trkpt>
      <trkpt lat="49.18413" lon="1.37057">
        <ele>31.60000038147</ele>
        <time>2021-03-28T06:59:33.000Z</time>
      </trkpt>
      <trkpt lat="49.18406" lon="1.37078">
        <ele>31.799999237061</ele>
        <time>2021-03-28T06:59:36.000Z</time>
      </trkpt>
      <trkpt lat="49.18393" lon="1.37119">
        <ele>32.799999237061</ele>
        <time>2021-03-28T06:59:42.000Z</time>
      </trkpt>
      <trkpt lat="49.18391" lon="1.37126">
        <ele>33</ele>
        <time>2021-03-28T06:59:43.000Z</time>
      </trkpt>
      <trkpt lat="49.18384" lon="1.37146">
        <ele>33.200000762939</ele>
        <time>2021-03-28T06:59:46.000Z</time>
      </trkpt>
      <trkpt lat="49.18377" lon="1.37166">
        <ele>33.400001525879</ele>
        <time>2021-03-28T06:59:49.000Z</time>
      </trkpt>
      <trkpt lat="49.18359" lon="1.37219">
        <ele>34</ele>
        <time>2021-03-28T06:59:57.000Z</time>
      </trkpt>
      <trkpt lat="49.18336" lon="1.37292">
        <ele>34.799999237061</ele>
        <time>2021-03-28T07:00:08.000Z</time>
      </trkpt>
      <trkpt lat="49.18324" lon="1.37329">
        <ele>35.799999237061</ele>
        <time>2021-03-28T07:00:14.000Z</time>
      </trkpt>
      <trkpt lat="49.18318" lon="1.37347">
        <ele>36</ele>
        <time>2021-03-28T07:00:17.000Z</time>
      </trkpt>
      <trkpt lat="49.18304" lon="1.37387">
        <ele>37</ele>
        <time>2021-03-28T07:00:24.000Z</time>
      </trkpt>
      <trkpt lat="49.18303" lon="1.37393">
        <ele>37</ele>
        <time>2021-03-28T07:00:25.000Z</time>
      </trkpt>
      <trkpt lat="49.18297" lon="1.3741">
        <ele>37.400001525879</ele>
        <time>2021-03-28T07:00:28.000Z</time>
      </trkpt>
      <trkpt lat="49.18289" lon="1.37433">
        <ele>38</ele>
        <time>2021-03-28T07:00:32.000Z</time>
      </trkpt>
      <trkpt lat="49.18282" lon="1.37455">
        <ele>38.799999237061</ele>
        <time>2021-03-28T07:00:36.000Z</time>
      </trkpt>
      <trkpt lat="49.18276" lon="1.37472">
        <ele>39</ele>
        <time>2021-03-28T07:00:39.000Z</time>
      </trkpt>
      <trkpt lat="49.18266" lon="1.37508">
        <ele>39.599998474121</ele>
        <time>2021-03-28T07:00:45.000Z</time>
      </trkpt>
      <trkpt lat="49.18253" lon="1.37547">
        <ele>40.200000762939</ele>
        <time>2021-03-28T07:00:52.000Z</time>
      </trkpt>
      <trkpt lat="49.18249" lon="1.37559">
        <ele>40.599998474121</ele>
        <time>2021-03-28T07:00:54.000Z</time>
      </trkpt>
      <trkpt lat="49.18242" lon="1.37581">
        <ele>41.400001525879</ele>
        <time>2021-03-28T07:00:58.000Z</time>
      </trkpt>
      <trkpt lat="49.18235" lon="1.37603">
        <ele>41.799999237061</ele>
        <time>2021-03-28T07:01:02.000Z</time>
      </trkpt>
      <trkpt lat="49.18228" lon="1.37625">
        <ele>42.400001525879</ele>
        <time>2021-03-28T07:01:06.000Z</time>
      </trkpt>
      <trkpt lat="49.18221" lon="1.37645">
        <ele>42.799999237061</ele>
        <time>2021-03-28T07:01:10.000Z</time>
      </trkpt>
      <trkpt lat="49.18212" lon="1.37672">
        <ele>43.599998474121</ele>
        <time>2021-03-28T07:01:15.000Z</time>
      </trkpt>
      <trkpt lat="49.18209" lon="1.37682">
        <ele>44</ele>
        <time>2021-03-28T07:01:17.000Z</time>
      </trkpt>
      <trkpt lat="49.18194" lon="1.37724">
        <ele>44.599998474121</ele>
        <time>2021-03-28T07:01:25.000Z</time>
      </trkpt>
      <trkpt lat="49.18192" lon="1.37729">
        <ele>44.599998474121</ele>
        <time>2021-03-28T07:01:26.000Z</time>
      </trkpt>
      <trkpt lat="49.18176" lon="1.37775">
        <ele>45.799999237061</ele>
        <time>2021-03-28T07:01:35.000Z</time>
      </trkpt>
      <trkpt lat="49.18164" lon="1.3781">
        <ele>46.799999237061</ele>
        <time>2021-03-28T07:01:42.000Z</time>
      </trkpt>
      <trkpt lat="49.18157" lon="1.37831">
        <ele>47.400001525879</ele>
        <time>2021-03-28T07:01:47.000Z</time>
      </trkpt>
      <trkpt lat="49.18155" lon="1.37845">
        <ele>47.799999237061</ele>
        <time>2021-03-28T07:01:50.000Z</time>
      </trkpt>
      <trkpt lat="49.18154" lon="1.37862">
        <ele>48.400001525879</ele>
        <time>2021-03-28T07:01:53.000Z</time>
      </trkpt>
      <trkpt lat="49.18154" lon="1.37879">
        <ele>48.799999237061</ele>
        <time>2021-03-28T07:01:56.000Z</time>
      </trkpt>
      <trkpt lat="49.1815" lon="1.37902">
        <ele>49.200000762939</ele>
        <time>2021-03-28T07:02:00.000Z</time>
      </trkpt>
      <trkpt lat="49.18142" lon="1.37943">
        <ele>49.599998474121</ele>
        <time>2021-03-28T07:02:07.000Z</time>
      </trkpt>
      <trkpt lat="49.1814" lon="1.37954">
        <ele>49.799999237061</ele>
        <time>2021-03-28T07:02:09.000Z</time>
      </trkpt>
      <trkpt lat="49.18137" lon="1.37976">
        <ele>50.200000762939</ele>
        <time>2021-03-28T07:02:13.000Z</time>
      </trkpt>
      <trkpt lat="49.18136" lon="1.38003">
        <ele>50.400001525879</ele>
        <time>2021-03-28T07:02:18.000Z</time>
      </trkpt>
      <trkpt lat="49.18135" lon="1.38025">
        <ele>50.599998474121</ele>
        <time>2021-03-28T07:02:22.000Z</time>
      </trkpt>
      <trkpt lat="49.18134" lon="1.38035">
        <ele>50.799999237061</ele>
        <time>2021-03-28T07:02:24.000Z</time>
      </trkpt>
      <trkpt lat="49.18131" lon="1.38062">
        <ele>51.400001525879</ele>
        <time>2021-03-28T07:02:29.000Z</time>
      </trkpt>
      <trkpt lat="49.18129" lon="1.38072">
        <ele>51.599998474121</ele>
        <time>2021-03-28T07:02:31.000Z</time>
      </trkpt>
      <trkpt lat="49.18122" lon="1.38089">
        <ele>52.200000762939</ele>
        <time>2021-03-28T07:02:35.000Z</time>
      </trkpt>
      <trkpt lat="49.18118" lon="1.38103">
        <ele>53</ele>
        <time>2021-03-28T07:02:38.000Z</time>
      </trkpt>
      <trkpt lat="49.18112" lon="1.38117">
        <ele>53.599998474121</ele>
        <time>2021-03-28T07:02:41.000Z</time>
      </trkpt>
      <trkpt lat="49.18108" lon="1.38126">
        <ele>54.200000762939</ele>
        <time>2021-03-28T07:02:43.000Z</time>
      </trkpt>
      <trkpt lat="49.18101" lon="1.38141">
        <ele>55</ele>
        <time>2021-03-28T07:02:47.000Z</time>
      </trkpt>
      <trkpt lat="49.18095" lon="1.38159">
        <ele>55.200000762939</ele>
        <time>2021-03-28T07:02:51.000Z</time>
      </trkpt>
      <trkpt lat="49.18092" lon="1.38171">
        <ele>55.599998474121</ele>
        <time>2021-03-28T07:02:54.000Z</time>
      </trkpt>
      <trkpt lat="49.18086" lon="1.38192">
        <ele>56.400001525879</ele>
        <time>2021-03-28T07:03:00.000Z</time>
      </trkpt>
      <trkpt lat="49.18075" lon="1.3822">
        <ele>57.200000762939</ele>
        <time>2021-03-28T07:03:07.000Z</time>
      </trkpt>
      <trkpt lat="49.18073" lon="1.38224">
        <ele>57.200000762939</ele>
        <time>2021-03-28T07:03:08.000Z</time>
      </trkpt>
      <trkpt lat="49.18067" lon="1.38243">
        <ele>57.799999237061</ele>
        <time>2021-03-28T07:03:13.000Z</time>
      </trkpt>
      <trkpt lat="49.18064" lon="1.38255">
        <ele>58.400001525879</ele>
        <time>2021-03-28T07:03:16.000Z</time>
      </trkpt>
      <trkpt lat="49.18058" lon="1.3827">
        <ele>59</ele>
        <time>2021-03-28T07:03:20.000Z</time>
      </trkpt>
      <trkpt lat="49.18053" lon="1.38284">
        <ele>59.599998474121</ele>
        <time>2021-03-28T07:03:24.000Z</time>
      </trkpt>
      <trkpt lat="49.18051" lon="1.38291">
        <ele>60.200000762939</ele>
        <time>2021-03-28T07:03:26.000Z</time>
      </trkpt>
      <trkpt lat="49.18044" lon="1.38306">
        <ele>60.799999237061</ele>
        <time>2021-03-28T07:03:30.000Z</time>
      </trkpt>
      <trkpt lat="49.18041" lon="1.38315">
        <ele>61.200000762939</ele>
        <time>2021-03-28T07:03:32.000Z</time>
      </trkpt>
      <trkpt lat="49.18033" lon="1.38333">
        <ele>61.599998474121</ele>
        <time>2021-03-28T07:03:36.000Z</time>
      </trkpt>
      <trkpt lat="49.18027" lon="1.38347">
        <ele>62</ele>
        <time>2021-03-28T07:03:39.000Z</time>
      </trkpt>
      <trkpt lat="49.18012" lon="1.38374">
        <ele>62.799999237061</ele>
        <time>2021-03-28T07:03:46.000Z</time>
      </trkpt>
      <trkpt lat="49.1801" lon="1.38378">
        <ele>63</ele>
        <time>2021-03-28T07:03:47.000Z</time>
      </trkpt>
      <trkpt lat="49.17996" lon="1.38406">
        <ele>63.799999237061</ele>
        <time>2021-03-28T07:03:54.000Z</time>
      </trkpt>
      <trkpt lat="49.17991" lon="1.38414">
        <ele>64.199996948242</ele>
        <time>2021-03-28T07:03:56.000Z</time>
      </trkpt>
      <trkpt lat="49.17978" lon="1.38441">
        <ele>64.800003051758</ele>
        <time>2021-03-28T07:04:03.000Z</time>
      </trkpt>
      <trkpt lat="49.17973" lon="1.38449">
        <ele>65</ele>
        <time>2021-03-28T07:04:05.000Z</time>
      </trkpt>
      <trkpt lat="49.17964" lon="1.38476">
        <ele>65.800003051758</ele>
        <time>2021-03-28T07:04:11.000Z</time>
      </trkpt>
      <trkpt lat="49.17955" lon="1.38491">
        <ele>66</ele>
        <time>2021-03-28T07:04:15.000Z</time>
      </trkpt>
      <trkpt lat="49.17953" lon="1.38495">
        <ele>66.199996948242</ele>
        <time>2021-03-28T07:04:16.000Z</time>
      </trkpt>
      <trkpt lat="49.17943" lon="1.38514">
        <ele>67</ele>
        <time>2021-03-28T07:04:21.000Z</time>
      </trkpt>
      <trkpt lat="49.17942" lon="1.38518">
        <ele>67.199996948242</ele>
        <time>2021-03-28T07:04:22.000Z</time>
      </trkpt>
      <trkpt lat="49.17934" lon="1.38536">
        <ele>67.599998474121</ele>
        <time>2021-03-28T07:04:26.000Z</time>
      </trkpt>
      <trkpt lat="49.17924" lon="1.38558">
        <ele>67.800003051758</ele>
        <time>2021-03-28T07:04:31.000Z</time>
      </trkpt>
      <trkpt lat="49.17909" lon="1.38588">
        <ele>68</ele>
        <time>2021-03-28T07:04:37.000Z</time>
      </trkpt>
      <trkpt lat="49.17895" lon="1.38618">
        <ele>68.199996948242</ele>
        <time>2021-03-28T07:04:42.000Z</time>
      </trkpt>
      <trkpt lat="49.17881" lon="1.38649">
        <ele>68</ele>
        <time>2021-03-28T07:04:47.000Z</time>
      </trkpt>
      <trkpt lat="49.1787" lon="1.38674">
        <ele>68</ele>
        <time>2021-03-28T07:04:51.000Z</time>
      </trkpt>
      <trkpt lat="49.17867" lon="1.38681">
        <ele>67.800003051758</ele>
        <time>2021-03-28T07:04:52.000Z</time>
      </trkpt>
      <trkpt lat="49.17844" lon="1.38734">
        <ele>67</ele>
        <time>2021-03-28T07:04:59.000Z</time>
      </trkpt>
      <trkpt lat="49.17837" lon="1.38751">
        <ele>66.599998474121</ele>
        <time>2021-03-28T07:05:03.000Z</time>
      </trkpt>
      <trkpt lat="49.17833" lon="1.38762">
        <ele>66.199996948242</ele>
        <time>2021-03-28T07:05:05.000Z</time>
      </trkpt>
      <trkpt lat="49.17831" lon="1.38774">
        <ele>65.599998474121</ele>
        <time>2021-03-28T07:05:07.000Z</time>
      </trkpt>
      <trkpt lat="49.17824" lon="1.38807">
        <ele>65.199996948242</ele>
        <time>2021-03-28T07:05:12.000Z</time>
      </trkpt>
      <trkpt lat="49.17822" lon="1.38813">
        <ele>65</ele>
        <time>2021-03-28T07:05:13.000Z</time>
      </trkpt>
      <trkpt lat="49.17821" lon="1.3882">
        <ele>64.800003051758</ele>
        <time>2021-03-28T07:05:14.000Z</time>
      </trkpt>
      <trkpt lat="49.17816" lon="1.38846">
        <ele>64.400001525879</ele>
        <time>2021-03-28T07:05:18.000Z</time>
      </trkpt>
      <trkpt lat="49.1781" lon="1.38879">
        <ele>64.400001525879</ele>
        <time>2021-03-28T07:05:24.000Z</time>
      </trkpt>
      <trkpt lat="49.17805" lon="1.38918">
        <ele>66</ele>
        <time>2021-03-28T07:05:31.000Z</time>
      </trkpt>
      <trkpt lat="49.17802" lon="1.38926">
        <ele>66.400001525879</ele>
        <time>2021-03-28T07:05:33.000Z</time>
      </trkpt>
      <trkpt lat="49.17797" lon="1.38933">
        <ele>66.599998474121</ele>
        <time>2021-03-28T07:05:35.000Z</time>
      </trkpt>
      <trkpt lat="49.17787" lon="1.38942">
        <ele>67.199996948242</ele>
        <time>2021-03-28T07:05:38.000Z</time>
      </trkpt>
      <trkpt lat="49.17773" lon="1.38955">
        <ele>67.400001525879</ele>
        <time>2021-03-28T07:05:42.000Z</time>
      </trkpt>
      <trkpt lat="49.1775" lon="1.38973">
        <ele>67.199996948242</ele>
        <time>2021-03-28T07:05:48.000Z</time>
      </trkpt>
      <trkpt lat="49.17728" lon="1.38995">
        <ele>66.199996948242</ele>
        <time>2021-03-28T07:05:54.000Z</time>
      </trkpt>
      <trkpt lat="49.17703" lon="1.39023">
        <ele>65</ele>
        <time>2021-03-28T07:06:00.000Z</time>
      </trkpt>
      <trkpt lat="49.17699" lon="1.39029">
        <ele>64.800003051758</ele>
        <time>2021-03-28T07:06:01.000Z</time>
      </trkpt>
      <trkpt lat="49.17679" lon="1.39054">
        <ele>63.400001525879</ele>
        <time>2021-03-28T07:06:05.000Z</time>
      </trkpt>
      <trkpt lat="49.17674" lon="1.39061">
        <ele>62.799999237061</ele>
        <time>2021-03-28T07:06:06.000Z</time>
      </trkpt>
      <trkpt lat="49.17669" lon="1.39067">
        <ele>62</ele>
        <time>2021-03-28T07:06:07.000Z</time>
      </trkpt>
      <trkpt lat="49.17659" lon="1.3908">
        <ele>61</ele>
        <time>2021-03-28T07:06:09.000Z</time>
      </trkpt>
      <trkpt lat="49.17649" lon="1.39093">
        <ele>59.400001525879</ele>
        <time>2021-03-28T07:06:11.000Z</time>
      </trkpt>
      <trkpt lat="49.17639" lon="1.39105">
        <ele>58</ele>
        <time>2021-03-28T07:06:13.000Z</time>
      </trkpt>
      <trkpt lat="49.1763" lon="1.39115">
        <ele>56.400001525879</ele>
        <time>2021-03-28T07:06:15.000Z</time>
      </trkpt>
      <trkpt lat="49.17621" lon="1.39125">
        <ele>55.200000762939</ele>
        <time>2021-03-28T07:06:17.000Z</time>
      </trkpt>
      <trkpt lat="49.17617" lon="1.39131">
        <ele>54</ele>
        <time>2021-03-28T07:06:18.000Z</time>
      </trkpt>
      <trkpt lat="49.17609" lon="1.3914">
        <ele>53</ele>
        <time>2021-03-28T07:06:20.000Z</time>
      </trkpt>
      <trkpt lat="49.17604" lon="1.39145">
        <ele>52.599998474121</ele>
        <time>2021-03-28T07:06:21.000Z</time>
      </trkpt>
      <trkpt lat="49.17588" lon="1.39168">
        <ele>51.400001525879</ele>
        <time>2021-03-28T07:06:25.000Z</time>
      </trkpt>
      <trkpt lat="49.17584" lon="1.39173">
        <ele>51</ele>
        <time>2021-03-28T07:06:26.000Z</time>
      </trkpt>
      <trkpt lat="49.17581" lon="1.39179">
        <ele>50.599998474121</ele>
        <time>2021-03-28T07:06:27.000Z</time>
      </trkpt>
      <trkpt lat="49.17579" lon="1.39184">
        <ele>50.200000762939</ele>
        <time>2021-03-28T07:06:28.000Z</time>
      </trkpt>
      <trkpt lat="49.17576" lon="1.39188">
        <ele>49.799999237061</ele>
        <time>2021-03-28T07:06:29.000Z</time>
      </trkpt>
      <trkpt lat="49.17569" lon="1.39191">
        <ele>48.599998474121</ele>
        <time>2021-03-28T07:06:31.000Z</time>
      </trkpt>
      <trkpt lat="49.1756" lon="1.39195">
        <ele>47.200000762939</ele>
        <time>2021-03-28T07:06:33.000Z</time>
      </trkpt>
      <trkpt lat="49.17555" lon="1.39197">
        <ele>46.599998474121</ele>
        <time>2021-03-28T07:06:34.000Z</time>
      </trkpt>
      <trkpt lat="49.17549" lon="1.39199">
        <ele>46.200000762939</ele>
        <time>2021-03-28T07:06:35.000Z</time>
      </trkpt>
      <trkpt lat="49.17535" lon="1.39208">
        <ele>45.200000762939</ele>
        <time>2021-03-28T07:06:38.000Z</time>
      </trkpt>
      <trkpt lat="49.1753" lon="1.39211">
        <ele>45</ele>
        <time>2021-03-28T07:06:39.000Z</time>
      </trkpt>
      <trkpt lat="49.17516" lon="1.39226">
        <ele>44.200000762939</ele>
        <time>2021-03-28T07:06:43.000Z</time>
      </trkpt>
      <trkpt lat="49.17513" lon="1.39238">
        <ele>44</ele>
        <time>2021-03-28T07:06:46.000Z</time>
      </trkpt>
      <trkpt lat="49.17513" lon="1.39243">
        <ele>44</ele>
        <time>2021-03-28T07:06:47.000Z</time>
      </trkpt>
      <trkpt lat="49.1752" lon="1.39281">
        <ele>43.799999237061</ele>
        <time>2021-03-28T07:06:52.000Z</time>
      </trkpt>
      <trkpt lat="49.17522" lon="1.39289">
        <ele>43.799999237061</ele>
        <time>2021-03-28T07:06:53.000Z</time>
      </trkpt>
      <trkpt lat="49.17525" lon="1.39307">
        <ele>43.799999237061</ele>
        <time>2021-03-28T07:06:55.000Z</time>
      </trkpt>
      <trkpt lat="49.1753" lon="1.39324">
        <ele>43.400001525879</ele>
        <time>2021-03-28T07:06:57.000Z</time>
      </trkpt>
      <trkpt lat="49.17532" lon="1.39332">
        <ele>43.400001525879</ele>
        <time>2021-03-28T07:06:58.000Z</time>
      </trkpt>
      <trkpt lat="49.17535" lon="1.39342">
        <ele>43</ele>
        <time>2021-03-28T07:07:00.000Z</time>
      </trkpt>
      <trkpt lat="49.17537" lon="1.39351">
        <ele>43</ele>
        <time>2021-03-28T07:07:02.000Z</time>
      </trkpt>
      <trkpt lat="49.17538" lon="1.39354">
        <ele>42.799999237061</ele>
        <time>2021-03-28T07:07:03.000Z</time>
      </trkpt>
      <trkpt lat="49.17537" lon="1.39355">
        <ele>42.599998474121</ele>
        <time>2021-03-28T07:07:04.000Z</time>
      </trkpt>
      <trkpt lat="49.17531" lon="1.39348">
        <ele>42.400001525879</ele>
        <time>2021-03-28T07:07:08.000Z</time>
      </trkpt>
      <trkpt lat="49.17523" lon="1.39355">
        <ele>42.200000762939</ele>
        <time>2021-03-28T07:07:11.000Z</time>
      </trkpt>
      <trkpt lat="49.17513" lon="1.39376">
        <ele>42</ele>
        <time>2021-03-28T07:07:14.000Z</time>
      </trkpt>
      <trkpt lat="49.17509" lon="1.39384">
        <ele>41.799999237061</ele>
        <time>2021-03-28T07:07:15.000Z</time>
      </trkpt>
      <trkpt lat="49.17486" lon="1.39427">
        <ele>40.799999237061</ele>
        <time>2021-03-28T07:07:20.000Z</time>
      </trkpt>
      <trkpt lat="49.17481" lon="1.39436">
        <ele>40.400001525879</ele>
        <time>2021-03-28T07:07:21.000Z</time>
      </trkpt>
      <trkpt lat="49.17462" lon="1.39473">
        <ele>39.400001525879</ele>
        <time>2021-03-28T07:07:25.000Z</time>
      </trkpt>
      <trkpt lat="49.17457" lon="1.39482">
        <ele>39</ele>
        <time>2021-03-28T07:07:26.000Z</time>
      </trkpt>
      <trkpt lat="49.17442" lon="1.3951">
        <ele>38.200000762939</ele>
        <time>2021-03-28T07:07:29.000Z</time>
      </trkpt>
      <trkpt lat="49.17425" lon="1.39536">
        <ele>37.599998474121</ele>
        <time>2021-03-28T07:07:32.000Z</time>
      </trkpt>
      <trkpt lat="49.17419" lon="1.39546">
        <ele>37.400001525879</ele>
        <time>2021-03-28T07:07:33.000Z</time>
      </trkpt>
      <trkpt lat="49.17384" lon="1.39597">
        <ele>37</ele>
        <time>2021-03-28T07:07:39.000Z</time>
      </trkpt>
      <trkpt lat="49.17377" lon="1.39605">
        <ele>37</ele>
        <time>2021-03-28T07:07:40.000Z</time>
      </trkpt>
      <trkpt lat="49.17351" lon="1.39635">
        <ele>37.200000762939</ele>
        <time>2021-03-28T07:07:44.000Z</time>
      </trkpt>
      <trkpt lat="49.17314" lon="1.39683">
        <ele>38</ele>
        <time>2021-03-28T07:07:50.000Z</time>
      </trkpt>
      <trkpt lat="49.17296" lon="1.39707">
        <ele>38.599998474121</ele>
        <time>2021-03-28T07:07:53.000Z</time>
      </trkpt>
      <trkpt lat="49.17287" lon="1.39726">
        <ele>39</ele>
        <time>2021-03-28T07:07:55.000Z</time>
      </trkpt>
      <trkpt lat="49.17268" lon="1.39761">
        <ele>39.599998474121</ele>
        <time>2021-03-28T07:07:59.000Z</time>
      </trkpt>
      <trkpt lat="49.17266" lon="1.39771">
        <ele>39.799999237061</ele>
        <time>2021-03-28T07:08:00.000Z</time>
      </trkpt>
      <trkpt lat="49.17268" lon="1.3979">
        <ele>40.200000762939</ele>
        <time>2021-03-28T07:08:02.000Z</time>
      </trkpt>
      <trkpt lat="49.17276" lon="1.398">
        <ele>41</ele>
        <time>2021-03-28T07:08:04.000Z</time>
      </trkpt>
      <trkpt lat="49.17279" lon="1.39801">
        <ele>41.200000762939</ele>
        <time>2021-03-28T07:08:05.000Z</time>
      </trkpt>
      <trkpt lat="49.17288" lon="1.39805">
        <ele>42.200000762939</ele>
        <time>2021-03-28T07:08:08.000Z</time>
      </trkpt>
      <trkpt lat="49.17295" lon="1.39808">
        <ele>42.799999237061</ele>
        <time>2021-03-28T07:08:10.000Z</time>
      </trkpt>
      <trkpt lat="49.17302" lon="1.39811">
        <ele>43.799999237061</ele>
        <time>2021-03-28T07:08:12.000Z</time>
      </trkpt>
      <trkpt lat="49.17312" lon="1.39819">
        <ele>45.200000762939</ele>
        <time>2021-03-28T07:08:15.000Z</time>
      </trkpt>
      <trkpt lat="49.17319" lon="1.39824">
        <ele>46.200000762939</ele>
        <time>2021-03-28T07:08:17.000Z</time>
      </trkpt>
      <trkpt lat="49.17322" lon="1.39826">
        <ele>46.599998474121</ele>
        <time>2021-03-28T07:08:18.000Z</time>
      </trkpt>
      <trkpt lat="49.17333" lon="1.39836">
        <ele>47.799999237061</ele>
        <time>2021-03-28T07:08:21.000Z</time>
      </trkpt>
      <trkpt lat="49.17335" lon="1.39842">
        <ele>48.200000762939</ele>
        <time>2021-03-28T07:08:22.000Z</time>
      </trkpt>
      <trkpt lat="49.17334" lon="1.39855">
        <ele>49</ele>
        <time>2021-03-28T07:08:24.000Z</time>
      </trkpt>
      <trkpt lat="49.17332" lon="1.3986">
        <ele>49.599998474121</ele>
        <time>2021-03-28T07:08:25.000Z</time>
      </trkpt>
      <trkpt lat="49.17328" lon="1.39872">
        <ele>50.599998474121</ele>
        <time>2021-03-28T07:08:27.000Z</time>
      </trkpt>
      <trkpt lat="49.17322" lon="1.39888">
        <ele>51.799999237061</ele>
        <time>2021-03-28T07:08:30.000Z</time>
      </trkpt>
      <trkpt lat="49.17317" lon="1.39906">
        <ele>53.200000762939</ele>
        <time>2021-03-28T07:08:33.000Z</time>
      </trkpt>
      <trkpt lat="49.17311" lon="1.39924">
        <ele>54.400001525879</ele>
        <time>2021-03-28T07:08:36.000Z</time>
      </trkpt>
      <trkpt lat="49.17306" lon="1.39942">
        <ele>55.799999237061</ele>
        <time>2021-03-28T07:08:39.000Z</time>
      </trkpt>
      <trkpt lat="49.17304" lon="1.39949">
        <ele>56.400001525879</ele>
        <time>2021-03-28T07:08:40.000Z</time>
      </trkpt>
      <trkpt lat="49.17302" lon="1.39955">
        <ele>57</ele>
        <time>2021-03-28T07:08:41.000Z</time>
      </trkpt>
      <trkpt lat="49.17293" lon="1.39983">
        <ele>58</ele>
        <time>2021-03-28T07:08:45.000Z</time>
      </trkpt>
      <trkpt lat="49.17288" lon="1.39999">
        <ele>58.599998474121</ele>
        <time>2021-03-28T07:08:47.000Z</time>
      </trkpt>
      <trkpt lat="49.17278" lon="1.40031">
        <ele>59.400001525879</ele>
        <time>2021-03-28T07:08:51.000Z</time>
      </trkpt>
      <trkpt lat="49.17275" lon="1.40039">
        <ele>59.400001525879</ele>
        <time>2021-03-28T07:08:52.000Z</time>
      </trkpt>
      <trkpt lat="49.1726" lon="1.40087">
        <ele>59.799999237061</ele>
        <time>2021-03-28T07:08:58.000Z</time>
      </trkpt>
      <trkpt lat="49.1725" lon="1.40138">
        <ele>59.799999237061</ele>
        <time>2021-03-28T07:09:04.000Z</time>
      </trkpt>
      <trkpt lat="49.17251" lon="1.40197">
        <ele>60</ele>
        <time>2021-03-28T07:09:11.000Z</time>
      </trkpt>
      <trkpt lat="49.17247" lon="1.4025">
        <ele>60.200000762939</ele>
        <time>2021-03-28T07:09:18.000Z</time>
      </trkpt>
      <trkpt lat="49.17234" lon="1.40305">
        <ele>60</ele>
        <time>2021-03-28T07:09:26.000Z</time>
      </trkpt>
      <trkpt lat="49.17216" lon="1.40365">
        <ele>59.200000762939</ele>
        <time>2021-03-28T07:09:35.000Z</time>
      </trkpt>
      <trkpt lat="49.17213" lon="1.40371">
        <ele>59</ele>
        <time>2021-03-28T07:09:36.000Z</time>
      </trkpt>
      <trkpt lat="49.17198" lon="1.4039">
        <ele>58.400001525879</ele>
        <time>2021-03-28T07:09:40.000Z</time>
      </trkpt>
      <trkpt lat="49.17193" lon="1.40393">
        <ele>58.200000762939</ele>
        <time>2021-03-28T07:09:41.000Z</time>
      </trkpt>
      <trkpt lat="49.17172" lon="1.40404">
        <ele>57.799999237061</ele>
        <time>2021-03-28T07:09:45.000Z</time>
      </trkpt>
      <trkpt lat="49.17166" lon="1.40418">
        <ele>57.200000762939</ele>
        <time>2021-03-28T07:09:47.000Z</time>
      </trkpt>
      <trkpt lat="49.17164" lon="1.40425">
        <ele>57</ele>
        <time>2021-03-28T07:09:48.000Z</time>
      </trkpt>
      <trkpt lat="49.17161" lon="1.4044">
        <ele>56.799999237061</ele>
        <time>2021-03-28T07:09:50.000Z</time>
      </trkpt>
      <trkpt lat="49.17156" lon="1.40471">
        <ele>56.799999237061</ele>
        <time>2021-03-28T07:09:54.000Z</time>
      </trkpt>
      <trkpt lat="49.17156" lon="1.4048">
        <ele>56.799999237061</ele>
        <time>2021-03-28T07:09:55.000Z</time>
      </trkpt>
      <trkpt lat="49.17152" lon="1.4052">
        <ele>56.400001525879</ele>
        <time>2021-03-28T07:10:00.000Z</time>
      </trkpt>
      <trkpt lat="49.17149" lon="1.40536">
        <ele>56.200000762939</ele>
        <time>2021-03-28T07:10:02.000Z</time>
      </trkpt>
      <trkpt lat="49.17145" lon="1.4056">
        <ele>56</ele>
        <time>2021-03-28T07:10:05.000Z</time>
      </trkpt>
      <trkpt lat="49.17145" lon="1.40575">
        <ele>55.799999237061</ele>
        <time>2021-03-28T07:10:07.000Z</time>
      </trkpt>
      <trkpt lat="49.17144" lon="1.40582">
        <ele>55.400001525879</ele>
        <time>2021-03-28T07:10:08.000Z</time>
      </trkpt>
      <trkpt lat="49.17139" lon="1.40632">
        <ele>55</ele>
        <time>2021-03-28T07:10:15.000Z</time>
      </trkpt>
      <trkpt lat="49.17136" lon="1.40669">
        <ele>54.599998474121</ele>
        <time>2021-03-28T07:10:20.000Z</time>
      </trkpt>
      <trkpt lat="49.17134" lon="1.40691">
        <ele>54.400001525879</ele>
        <time>2021-03-28T07:10:23.000Z</time>
      </trkpt>
      <trkpt lat="49.17133" lon="1.40697">
        <ele>54.200000762939</ele>
        <time>2021-03-28T07:10:24.000Z</time>
      </trkpt>
      <trkpt lat="49.17138" lon="1.40724">
        <ele>54.200000762939</ele>
        <time>2021-03-28T07:10:28.000Z</time>
      </trkpt>
      <trkpt lat="49.17138" lon="1.40731">
        <ele>54.200000762939</ele>
        <time>2021-03-28T07:10:29.000Z</time>
      </trkpt>
      <trkpt lat="49.17137" lon="1.40752">
        <ele>54</ele>
        <time>2021-03-28T07:10:32.000Z</time>
      </trkpt>
      <trkpt lat="49.17136" lon="1.40759">
        <ele>54</ele>
        <time>2021-03-28T07:10:33.000Z</time>
      </trkpt>
      <trkpt lat="49.17127" lon="1.40785">
        <ele>53.799999237061</ele>
        <time>2021-03-28T07:10:37.000Z</time>
      </trkpt>
      <trkpt lat="49.1712" lon="1.40805">
        <ele>53.599998474121</ele>
        <time>2021-03-28T07:10:40.000Z</time>
      </trkpt>
      <trkpt lat="49.17111" lon="1.40836">
        <ele>53.599998474121</ele>
        <time>2021-03-28T07:10:44.000Z</time>
      </trkpt>
      <trkpt lat="49.17101" lon="1.40877">
        <ele>53</ele>
        <time>2021-03-28T07:10:49.000Z</time>
      </trkpt>
      <trkpt lat="49.17095" lon="1.40903">
        <ele>52.799999237061</ele>
        <time>2021-03-28T07:10:52.000Z</time>
      </trkpt>
      <trkpt lat="49.17084" lon="1.40952">
        <ele>52.200000762939</ele>
        <time>2021-03-28T07:10:58.000Z</time>
      </trkpt>
      <trkpt lat="49.17076" lon="1.40991">
        <ele>51.799999237061</ele>
        <time>2021-03-28T07:11:03.000Z</time>
      </trkpt>
      <trkpt lat="49.17073" lon="1.40996">
        <ele>51.599998474121</ele>
        <time>2021-03-28T07:11:04.000Z</time>
      </trkpt>
      <trkpt lat="49.1706" lon="1.40994">
        <ele>51.400001525879</ele>
        <time>2021-03-28T07:11:07.000Z</time>
      </trkpt>
      <trkpt lat="49.17056" lon="1.40988">
        <ele>51.200000762939</ele>
        <time>2021-03-28T07:11:08.000Z</time>
      </trkpt>
      <trkpt lat="49.1703" lon="1.40957">
        <ele>51</ele>
        <time>2021-03-28T07:11:13.000Z</time>
      </trkpt>
      <trkpt lat="49.17007" lon="1.40933">
        <ele>50.400001525879</ele>
        <time>2021-03-28T07:11:17.000Z</time>
      </trkpt>
      <trkpt lat="49.16989" lon="1.40913">
        <ele>49.599998474121</ele>
        <time>2021-03-28T07:11:20.000Z</time>
      </trkpt>
      <trkpt lat="49.16977" lon="1.40899">
        <ele>49.200000762939</ele>
        <time>2021-03-28T07:11:22.000Z</time>
      </trkpt>
      <trkpt lat="49.16949" lon="1.40866">
        <ele>48.599998474121</ele>
        <time>2021-03-28T07:11:27.000Z</time>
      </trkpt>
      <trkpt lat="49.16938" lon="1.40855">
        <ele>48.400001525879</ele>
        <time>2021-03-28T07:11:29.000Z</time>
      </trkpt>
      <trkpt lat="49.16912" lon="1.40825">
        <ele>47</ele>
        <time>2021-03-28T07:11:34.000Z</time>
      </trkpt>
      <trkpt lat="49.16889" lon="1.40796">
        <ele>46</ele>
        <time>2021-03-28T07:11:39.000Z</time>
      </trkpt>
      <trkpt lat="49.16879" lon="1.40786">
        <ele>45.599998474121</ele>
        <time>2021-03-28T07:11:41.000Z</time>
      </trkpt>
      <trkpt lat="49.1687" lon="1.40776">
        <ele>45</ele>
        <time>2021-03-28T07:11:43.000Z</time>
      </trkpt>
      <trkpt lat="49.16862" lon="1.40767">
        <ele>44.599998474121</ele>
        <time>2021-03-28T07:11:45.000Z</time>
      </trkpt>
      <trkpt lat="49.1686" lon="1.40761">
        <ele>44.200000762939</ele>
        <time>2021-03-28T07:11:46.000Z</time>
      </trkpt>
      <trkpt lat="49.16861" lon="1.40754">
        <ele>44</ele>
        <time>2021-03-28T07:11:47.000Z</time>
      </trkpt>
      <trkpt lat="49.16864" lon="1.40748">
        <ele>43.599998474121</ele>
        <time>2021-03-28T07:11:48.000Z</time>
      </trkpt>
      <trkpt lat="49.16872" lon="1.40737">
        <ele>43.200000762939</ele>
        <time>2021-03-28T07:11:50.000Z</time>
      </trkpt>
      <trkpt lat="49.16881" lon="1.40726">
        <ele>42.799999237061</ele>
        <time>2021-03-28T07:11:52.000Z</time>
      </trkpt>
      <trkpt lat="49.1689" lon="1.40714">
        <ele>42.599998474121</ele>
        <time>2021-03-28T07:11:54.000Z</time>
      </trkpt>
      <trkpt lat="49.16908" lon="1.40688">
        <ele>42</ele>
        <time>2021-03-28T07:11:58.000Z</time>
      </trkpt>
      <trkpt lat="49.1693" lon="1.40653">
        <ele>41.400001525879</ele>
        <time>2021-03-28T07:12:03.000Z</time>
      </trkpt>
      <trkpt lat="49.16971" lon="1.40592">
        <ele>41.200000762939</ele>
        <time>2021-03-28T07:12:12.000Z</time>
      </trkpt>
      <trkpt lat="49.1698" lon="1.40578">
        <ele>41</ele>
        <time>2021-03-28T07:12:14.000Z</time>
      </trkpt>
      <trkpt lat="49.17016" lon="1.40524">
        <ele>40.799999237061</ele>
        <time>2021-03-28T07:12:22.000Z</time>
      </trkpt>
      <trkpt lat="49.17053" lon="1.4047">
        <ele>40.799999237061</ele>
        <time>2021-03-28T07:12:30.000Z</time>
      </trkpt>
      <trkpt lat="49.17077" lon="1.40414">
        <ele>41.200000762939</ele>
        <time>2021-03-28T07:12:37.000Z</time>
      </trkpt>
      <trkpt lat="49.17093" lon="1.40372">
        <ele>41.200000762939</ele>
        <time>2021-03-28T07:12:42.000Z</time>
      </trkpt>
      <trkpt lat="49.17113" lon="1.403">
        <ele>41.599998474121</ele>
        <time>2021-03-28T07:12:50.000Z</time>
      </trkpt>
      <trkpt lat="49.17126" lon="1.40223">
        <ele>41.799999237061</ele>
        <time>2021-03-28T07:12:58.000Z</time>
      </trkpt>
      <trkpt lat="49.17135" lon="1.40146">
        <ele>42.200000762939</ele>
        <time>2021-03-28T07:13:06.000Z</time>
      </trkpt>
      <trkpt lat="49.17148" lon="1.40082">
        <ele>42.200000762939</ele>
        <time>2021-03-28T07:13:13.000Z</time>
      </trkpt>
      <trkpt lat="49.17156" lon="1.40056">
        <ele>42.400001525879</ele>
        <time>2021-03-28T07:13:16.000Z</time>
      </trkpt>
      <trkpt lat="49.17165" lon="1.40043">
        <ele>42.599998474121</ele>
        <time>2021-03-28T07:13:18.000Z</time>
      </trkpt>
      <trkpt lat="49.17182" lon="1.40018">
        <ele>42.599998474121</ele>
        <time>2021-03-28T07:13:22.000Z</time>
      </trkpt>
      <trkpt lat="49.17188" lon="1.40002">
        <ele>42.599998474121</ele>
        <time>2021-03-28T07:13:24.000Z</time>
      </trkpt>
      <trkpt lat="49.17194" lon="1.39986">
        <ele>42.599998474121</ele>
        <time>2021-03-28T07:13:26.000Z</time>
      </trkpt>
      <trkpt lat="49.17209" lon="1.39938">
        <ele>42.599998474121</ele>
        <time>2021-03-28T07:13:32.000Z</time>
      </trkpt>
      <trkpt lat="49.1723" lon="1.3987">
        <ele>43.200000762939</ele>
        <time>2021-03-28T07:13:41.000Z</time>
      </trkpt>
      <trkpt lat="49.17233" lon="1.39863">
        <ele>43.400001525879</ele>
        <time>2021-03-28T07:13:42.000Z</time>
      </trkpt>
      <trkpt lat="49.17253" lon="1.39801">
        <ele>44.400001525879</ele>
        <time>2021-03-28T07:13:50.000Z</time>
      </trkpt>
      <trkpt lat="49.17267" lon="1.39771">
        <ele>45.599998474121</ele>
        <time>2021-03-28T07:13:54.000Z</time>
      </trkpt>
      <trkpt lat="49.17273" lon="1.39758">
        <ele>46.400001525879</ele>
        <time>2021-03-28T07:13:56.000Z</time>
      </trkpt>
      <trkpt lat="49.17277" lon="1.39753">
        <ele>46.799999237061</ele>
        <time>2021-03-28T07:13:57.000Z</time>
      </trkpt>
      <trkpt lat="49.17285" lon="1.39738">
        <ele>48</ele>
        <time>2021-03-28T07:14:00.000Z</time>
      </trkpt>
      <trkpt lat="49.17293" lon="1.39723">
        <ele>49.200000762939</ele>
        <time>2021-03-28T07:14:03.000Z</time>
      </trkpt>
      <trkpt lat="49.17303" lon="1.39705">
        <ele>50.200000762939</ele>
        <time>2021-03-28T07:14:07.000Z</time>
      </trkpt>
      <trkpt lat="49.17315" lon="1.39688">
        <ele>51</ele>
        <time>2021-03-28T07:14:11.000Z</time>
      </trkpt>
      <trkpt lat="49.17321" lon="1.3968">
        <ele>51.599998474121</ele>
        <time>2021-03-28T07:14:13.000Z</time>
      </trkpt>
      <trkpt lat="49.17338" lon="1.3966">
        <ele>52.200000762939</ele>
        <time>2021-03-28T07:14:19.000Z</time>
      </trkpt>
      <trkpt lat="49.17365" lon="1.39625">
        <ele>52.400001525879</ele>
        <time>2021-03-28T07:14:29.000Z</time>
      </trkpt>
      <trkpt lat="49.17391" lon="1.39602">
        <ele>52</ele>
        <time>2021-03-28T07:14:38.000Z</time>
      </trkpt>
      <trkpt lat="49.17414" lon="1.39587">
        <ele>51</ele>
        <time>2021-03-28T07:14:46.000Z</time>
      </trkpt>
      <trkpt lat="49.17414" lon="1.39582">
        <ele>51</ele>
        <time>2021-03-28T07:14:47.000Z</time>
      </trkpt>
      <trkpt lat="49.1741" lon="1.39574">
        <ele>50.599998474121</ele>
        <time>2021-03-28T07:14:49.000Z</time>
      </trkpt>
      <trkpt lat="49.174" lon="1.39576">
        <ele>50.400001525879</ele>
        <time>2021-03-28T07:14:52.000Z</time>
      </trkpt>
      <trkpt lat="49.17394" lon="1.39584">
        <ele>50</ele>
        <time>2021-03-28T07:14:54.000Z</time>
      </trkpt>
      <trkpt lat="49.17383" lon="1.39599">
        <ele>49.400001525879</ele>
        <time>2021-03-28T07:14:57.000Z</time>
      </trkpt>
      <trkpt lat="49.1738" lon="1.39604">
        <ele>49.200000762939</ele>
        <time>2021-03-28T07:14:58.000Z</time>
      </trkpt>
      <trkpt lat="49.17375" lon="1.39608">
        <ele>49</ele>
        <time>2021-03-28T07:14:59.000Z</time>
      </trkpt>
      <trkpt lat="49.17362" lon="1.39623">
        <ele>48.599998474121</ele>
        <time>2021-03-28T07:15:02.000Z</time>
      </trkpt>
      <trkpt lat="49.17343" lon="1.39645">
        <ele>48</ele>
        <time>2021-03-28T07:15:06.000Z</time>
      </trkpt>
      <trkpt lat="49.17334" lon="1.39657">
        <ele>47.599998474121</ele>
        <time>2021-03-28T07:15:08.000Z</time>
      </trkpt>
      <trkpt lat="49.17325" lon="1.3967">
        <ele>47.200000762939</ele>
        <time>2021-03-28T07:15:10.000Z</time>
      </trkpt>
      <trkpt lat="49.17319" lon="1.39675">
        <ele>47</ele>
        <time>2021-03-28T07:15:11.000Z</time>
      </trkpt>
      <trkpt lat="49.1731" lon="1.39688">
        <ele>46.400001525879</ele>
        <time>2021-03-28T07:15:13.000Z</time>
      </trkpt>
      <trkpt lat="49.17301" lon="1.39701">
        <ele>45.799999237061</ele>
        <time>2021-03-28T07:15:15.000Z</time>
      </trkpt>
      <trkpt lat="49.17296" lon="1.39709">
        <ele>45.400001525879</ele>
        <time>2021-03-28T07:15:16.000Z</time>
      </trkpt>
      <trkpt lat="49.17288" lon="1.39723">
        <ele>45</ele>
        <time>2021-03-28T07:15:18.000Z</time>
      </trkpt>
      <trkpt lat="49.1728" lon="1.39738">
        <ele>44.599998474121</ele>
        <time>2021-03-28T07:15:20.000Z</time>
      </trkpt>
      <trkpt lat="49.17266" lon="1.39767">
        <ele>44.599998474121</ele>
        <time>2021-03-28T07:15:24.000Z</time>
      </trkpt>
      <trkpt lat="49.17264" lon="1.39776">
        <ele>44.599998474121</ele>
        <time>2021-03-28T07:15:25.000Z</time>
      </trkpt>
      <trkpt lat="49.17269" lon="1.39791">
        <ele>44.599998474121</ele>
        <time>2021-03-28T07:15:27.000Z</time>
      </trkpt>
      <trkpt lat="49.1728" lon="1.39801">
        <ele>44.599998474121</ele>
        <time>2021-03-28T07:15:30.000Z</time>
      </trkpt>
      <trkpt lat="49.17283" lon="1.39803">
        <ele>44.599998474121</ele>
        <time>2021-03-28T07:15:31.000Z</time>
      </trkpt>
      <trkpt lat="49.17295" lon="1.39808">
        <ele>44.599998474121</ele>
        <time>2021-03-28T07:15:35.000Z</time>
      </trkpt>
      <trkpt lat="49.17315" lon="1.39819">
        <ele>46</ele>
        <time>2021-03-28T07:15:42.000Z</time>
      </trkpt>
      <trkpt lat="49.17318" lon="1.39821">
        <ele>46.200000762939</ele>
        <time>2021-03-28T07:15:43.000Z</time>
      </trkpt>
      <trkpt lat="49.17337" lon="1.39838">
        <ele>47</ele>
        <time>2021-03-28T07:15:49.000Z</time>
      </trkpt>
      <trkpt lat="49.17338" lon="1.39844">
        <ele>47.200000762939</ele>
        <time>2021-03-28T07:15:50.000Z</time>
      </trkpt>
      <trkpt lat="49.17336" lon="1.39855">
        <ele>47.400001525879</ele>
        <time>2021-03-28T07:15:52.000Z</time>
      </trkpt>
      <trkpt lat="49.17334" lon="1.3986">
        <ele>47.599998474121</ele>
        <time>2021-03-28T07:15:53.000Z</time>
      </trkpt>
      <trkpt lat="49.17324" lon="1.39889">
        <ele>48.599998474121</ele>
        <time>2021-03-28T07:15:59.000Z</time>
      </trkpt>
      <trkpt lat="49.1731" lon="1.39931">
        <ele>49.599998474121</ele>
        <time>2021-03-28T07:16:07.000Z</time>
      </trkpt>
      <trkpt lat="49.17308" lon="1.39944">
        <ele>49.799999237061</ele>
        <time>2021-03-28T07:16:10.000Z</time>
      </trkpt>
      <trkpt lat="49.17309" lon="1.39946">
        <ele>50</ele>
        <time>2021-03-28T07:16:11.000Z</time>
      </trkpt>
      <trkpt lat="49.17313" lon="1.3994">
        <ele>50</ele>
        <time>2021-03-28T07:16:14.000Z</time>
      </trkpt>
      <trkpt lat="49.17312" lon="1.39936">
        <ele>50</ele>
        <time>2021-03-28T07:16:15.000Z</time>
      </trkpt>
      <trkpt lat="49.17312" lon="1.39931">
        <ele>50</ele>
        <time>2021-03-28T07:16:16.000Z</time>
      </trkpt>
      <trkpt lat="49.17314" lon="1.39921">
        <ele>50</ele>
        <time>2021-03-28T07:16:18.000Z</time>
      </trkpt>
      <trkpt lat="49.17325" lon="1.39887">
        <ele>48.599998474121</ele>
        <time>2021-03-28T07:16:24.000Z</time>
      </trkpt>
      <trkpt lat="49.17327" lon="1.39881">
        <ele>48.400001525879</ele>
        <time>2021-03-28T07:16:25.000Z</time>
      </trkpt>
      <trkpt lat="49.17333" lon="1.39864">
        <ele>47.599998474121</ele>
        <time>2021-03-28T07:16:28.000Z</time>
      </trkpt>
      <trkpt lat="49.17339" lon="1.39842">
        <ele>47.200000762939</ele>
        <time>2021-03-28T07:16:32.000Z</time>
      </trkpt>
      <trkpt lat="49.17339" lon="1.39835">
        <ele>47.200000762939</ele>
        <time>2021-03-28T07:16:36.000Z</time>
      </trkpt>
      <trkpt lat="49.1734" lon="1.39836">
        <ele>36.400001525879</ele>
        <time>2021-03-28T07:18:07.000Z</time>
      </trkpt>
      <trkpt lat="49.17344" lon="1.39837">
        <ele>35.400001525879</ele>
        <time>2021-03-28T07:18:10.000Z</time>
      </trkpt>
      <trkpt lat="49.17346" lon="1.39837">
        <ele>34.400001525879</ele>
        <time>2021-03-28T07:18:11.000Z</time>
      </trkpt>
      <trkpt lat="49.17349" lon="1.39833">
        <ele>33.400001525879</ele>
        <time>2021-03-28T07:18:13.000Z</time>
      </trkpt>
      <trkpt lat="49.17348" lon="1.3983">
        <ele>33.200000762939</ele>
        <time>2021-03-28T07:18:14.000Z</time>
      </trkpt>
      <trkpt lat="49.17344" lon="1.39826">
        <ele>32.799999237061</ele>
        <time>2021-03-28T07:18:16.000Z</time>
      </trkpt>
      <trkpt lat="49.1733" lon="1.39813">
        <ele>32.200000762939</ele>
        <time>2021-03-28T07:18:20.000Z</time>
      </trkpt>
      <trkpt lat="49.17322" lon="1.39808">
        <ele>32</ele>
        <time>2021-03-28T07:18:22.000Z</time>
      </trkpt>
      <trkpt lat="49.17289" lon="1.39791">
        <ele>31.39999961853</ele>
        <time>2021-03-28T07:18:30.000Z</time>
      </trkpt>
      <trkpt lat="49.17285" lon="1.3979">
        <ele>31.200000762939</ele>
        <time>2021-03-28T07:18:31.000Z</time>
      </trkpt>
      <trkpt lat="49.17267" lon="1.39779">
        <ele>31</ele>
        <time>2021-03-28T07:18:36.000Z</time>
      </trkpt>
      <trkpt lat="49.17256" lon="1.39775">
        <ele>31</ele>
        <time>2021-03-28T07:18:40.000Z</time>
      </trkpt>
      <trkpt lat="49.17254" lon="1.39774">
        <ele>31</ele>
        <time>2021-03-28T07:18:43.000Z</time>
      </trkpt>
      <trkpt lat="49.17256" lon="1.39774">
        <ele>13.800000190735</ele>
        <time>2021-03-28T07:19:42.000Z</time>
      </trkpt>
      <trkpt lat="49.17256" lon="1.39773">
        <ele>13.39999961853</ele>
        <time>2021-03-28T07:19:44.000Z</time>
      </trkpt>
      <trkpt lat="49.17256" lon="1.39775">
        <ele>5.8000001907349</ele>
        <time>2021-03-28T07:22:16.000Z</time>
      </trkpt>
      <trkpt lat="49.17257" lon="1.39776">
        <ele>5.8000001907349</ele>
        <time>2021-03-28T07:22:18.000Z</time>
      </trkpt>
      <trkpt lat="49.17259" lon="1.39778">
        <ele>5.5999999046326</ele>
        <time>2021-03-28T07:22:22.000Z</time>
      </trkpt>
      <trkpt lat="49.17264" lon="1.39782">
        <ele>5.5999999046326</ele>
        <time>2021-03-28T07:22:25.000Z</time>
      </trkpt>
      <trkpt lat="49.17276" lon="1.39796">
        <ele>5.5999999046326</ele>
        <time>2021-03-28T07:22:30.000Z</time>
      </trkpt>
      <trkpt lat="49.17294" lon="1.39804">
        <ele>6.1999998092651</ele>
        <time>2021-03-28T07:22:37.000Z</time>
      </trkpt>
      <trkpt lat="49.173" lon="1.39807">
        <ele>6.8000001907349</ele>
        <time>2021-03-28T07:22:39.000Z</time>
      </trkpt>
      <trkpt lat="49.17311" lon="1.39813">
        <ele>7.8000001907349</ele>
        <time>2021-03-28T07:22:43.000Z</time>
      </trkpt>
      <trkpt lat="49.17317" lon="1.39817">
        <ele>8.1999998092651</ele>
        <time>2021-03-28T07:22:45.000Z</time>
      </trkpt>
      <trkpt lat="49.17322" lon="1.39821">
        <ele>9</ele>
        <time>2021-03-28T07:22:47.000Z</time>
      </trkpt>
      <trkpt lat="49.17331" lon="1.39828">
        <ele>10</ele>
        <time>2021-03-28T07:22:50.000Z</time>
      </trkpt>
      <trkpt lat="49.17339" lon="1.39839">
        <ele>11.39999961853</ele>
        <time>2021-03-28T07:22:53.000Z</time>
      </trkpt>
      <trkpt lat="49.17336" lon="1.39855">
        <ele>12.39999961853</ele>
        <time>2021-03-28T07:22:56.000Z</time>
      </trkpt>
      <trkpt lat="49.17334" lon="1.3986">
        <ele>12.800000190735</ele>
        <time>2021-03-28T07:22:57.000Z</time>
      </trkpt>
      <trkpt lat="49.17331" lon="1.39869">
        <ele>13.39999961853</ele>
        <time>2021-03-28T07:22:59.000Z</time>
      </trkpt>
      <trkpt lat="49.17325" lon="1.39888">
        <ele>14.60000038147</ele>
        <time>2021-03-28T07:23:03.000Z</time>
      </trkpt>
      <trkpt lat="49.1732" lon="1.39902">
        <ele>16</ele>
        <time>2021-03-28T07:23:06.000Z</time>
      </trkpt>
      <trkpt lat="49.17311" lon="1.39929">
        <ele>17</ele>
        <time>2021-03-28T07:23:11.000Z</time>
      </trkpt>
      <trkpt lat="49.173" lon="1.39964">
        <ele>17.60000038147</ele>
        <time>2021-03-28T07:23:17.000Z</time>
      </trkpt>
      <trkpt lat="49.1728" lon="1.40027">
        <ele>17</ele>
        <time>2021-03-28T07:23:27.000Z</time>
      </trkpt>
      <trkpt lat="49.17269" lon="1.4006">
        <ele>15.39999961853</ele>
        <time>2021-03-28T07:23:33.000Z</time>
      </trkpt>
      <trkpt lat="49.17263" lon="1.40078">
        <ele>15.199999809265</ele>
        <time>2021-03-28T07:23:36.000Z</time>
      </trkpt>
      <trkpt lat="49.17256" lon="1.40104">
        <ele>14.39999961853</ele>
        <time>2021-03-28T07:23:40.000Z</time>
      </trkpt>
      <trkpt lat="49.17254" lon="1.4011">
        <ele>14.199999809265</ele>
        <time>2021-03-28T07:23:41.000Z</time>
      </trkpt>
      <trkpt lat="49.17252" lon="1.40124">
        <ele>14</ele>
        <time>2021-03-28T07:23:43.000Z</time>
      </trkpt>
      <trkpt lat="49.1725" lon="1.40172">
        <ele>13.199999809265</ele>
        <time>2021-03-28T07:23:50.000Z</time>
      </trkpt>
      <trkpt lat="49.17251" lon="1.40193">
        <ele>13.199999809265</ele>
        <time>2021-03-28T07:23:53.000Z</time>
      </trkpt>
      <trkpt lat="49.17249" lon="1.40239">
        <ele>12.800000190735</ele>
        <time>2021-03-28T07:24:00.000Z</time>
      </trkpt>
      <trkpt lat="49.17239" lon="1.40289">
        <ele>12.60000038147</ele>
        <time>2021-03-28T07:24:08.000Z</time>
      </trkpt>
      <trkpt lat="49.17221" lon="1.40347">
        <ele>12.60000038147</ele>
        <time>2021-03-28T07:24:18.000Z</time>
      </trkpt>
      <trkpt lat="49.17212" lon="1.40374">
        <ele>12.800000190735</ele>
        <time>2021-03-28T07:24:23.000Z</time>
      </trkpt>
      <trkpt lat="49.17204" lon="1.40387">
        <ele>13</ele>
        <time>2021-03-28T07:24:26.000Z</time>
      </trkpt>
      <trkpt lat="49.17191" lon="1.40394">
        <ele>12.800000190735</ele>
        <time>2021-03-28T07:24:29.000Z</time>
      </trkpt>
      <trkpt lat="49.17186" lon="1.40396">
        <ele>12.800000190735</ele>
        <time>2021-03-28T07:24:30.000Z</time>
      </trkpt>
      <trkpt lat="49.17172" lon="1.40403">
        <ele>12.800000190735</ele>
        <time>2021-03-28T07:24:33.000Z</time>
      </trkpt>
      <trkpt lat="49.17169" lon="1.40408">
        <ele>12.800000190735</ele>
        <time>2021-03-28T07:24:34.000Z</time>
      </trkpt>
      <trkpt lat="49.17164" lon="1.40427">
        <ele>12.800000190735</ele>
        <time>2021-03-28T07:24:37.000Z</time>
      </trkpt>
      <trkpt lat="49.17163" lon="1.40434">
        <ele>12.800000190735</ele>
        <time>2021-03-28T07:24:38.000Z</time>
      </trkpt>
      <trkpt lat="49.17161" lon="1.40441">
        <ele>12.800000190735</ele>
        <time>2021-03-28T07:24:39.000Z</time>
      </trkpt>
      <trkpt lat="49.17156" lon="1.40475">
        <ele>12.800000190735</ele>
        <time>2021-03-28T07:24:44.000Z</time>
      </trkpt>
      <trkpt lat="49.17154" lon="1.40489">
        <ele>13</ele>
        <time>2021-03-28T07:24:46.000Z</time>
      </trkpt>
      <trkpt lat="49.17153" lon="1.40503">
        <ele>13</ele>
        <time>2021-03-28T07:24:48.000Z</time>
      </trkpt>
      <trkpt lat="49.17152" lon="1.40509">
        <ele>13</ele>
        <time>2021-03-28T07:24:49.000Z</time>
      </trkpt>
      <trkpt lat="49.17149" lon="1.40534">
        <ele>13</ele>
        <time>2021-03-28T07:24:53.000Z</time>
      </trkpt>
      <trkpt lat="49.17145" lon="1.40582">
        <ele>13</ele>
        <time>2021-03-28T07:25:00.000Z</time>
      </trkpt>
      <trkpt lat="49.1714" lon="1.40623">
        <ele>13.39999961853</ele>
        <time>2021-03-28T07:25:07.000Z</time>
      </trkpt>
      <trkpt lat="49.17134" lon="1.40678">
        <ele>13.800000190735</ele>
        <time>2021-03-28T07:25:16.000Z</time>
      </trkpt>
      <trkpt lat="49.17134" lon="1.40709">
        <ele>14</ele>
        <time>2021-03-28T07:25:21.000Z</time>
      </trkpt>
      <trkpt lat="49.17135" lon="1.40715">
        <ele>14.199999809265</ele>
        <time>2021-03-28T07:25:22.000Z</time>
      </trkpt>
      <trkpt lat="49.17136" lon="1.40756">
        <ele>14.800000190735</ele>
        <time>2021-03-28T07:25:29.000Z</time>
      </trkpt>
      <trkpt lat="49.17133" lon="1.40767">
        <ele>14.800000190735</ele>
        <time>2021-03-28T07:25:31.000Z</time>
      </trkpt>
      <trkpt lat="49.17127" lon="1.40784">
        <ele>15.199999809265</ele>
        <time>2021-03-28T07:25:34.000Z</time>
      </trkpt>
      <trkpt lat="49.17119" lon="1.40808">
        <ele>15.60000038147</ele>
        <time>2021-03-28T07:25:38.000Z</time>
      </trkpt>
      <trkpt lat="49.17113" lon="1.40828">
        <ele>15.800000190735</ele>
        <time>2021-03-28T07:25:41.000Z</time>
      </trkpt>
      <trkpt lat="49.17106" lon="1.40857">
        <ele>15.800000190735</ele>
        <time>2021-03-28T07:25:45.000Z</time>
      </trkpt>
      <trkpt lat="49.17103" lon="1.40871">
        <ele>15.800000190735</ele>
        <time>2021-03-28T07:25:47.000Z</time>
      </trkpt>
      <trkpt lat="49.17098" lon="1.40899">
        <ele>15.800000190735</ele>
        <time>2021-03-28T07:25:51.000Z</time>
      </trkpt>
      <trkpt lat="49.17095" lon="1.40913">
        <ele>15.800000190735</ele>
        <time>2021-03-28T07:25:53.000Z</time>
      </trkpt>
      <trkpt lat="49.1708" lon="1.40978">
        <ele>15.39999961853</ele>
        <time>2021-03-28T07:26:03.000Z</time>
      </trkpt>
      <trkpt lat="49.17072" lon="1.41021">
        <ele>15.39999961853</ele>
        <time>2021-03-28T07:26:10.000Z</time>
      </trkpt>
      <trkpt lat="49.17067" lon="1.41085">
        <ele>15.60000038147</ele>
        <time>2021-03-28T07:26:20.000Z</time>
      </trkpt>
      <trkpt lat="49.17062" lon="1.41142">
        <ele>15.800000190735</ele>
        <time>2021-03-28T07:26:29.000Z</time>
      </trkpt>
      <trkpt lat="49.17056" lon="1.41172">
        <ele>16.200000762939</ele>
        <time>2021-03-28T07:26:34.000Z</time>
      </trkpt>
      <trkpt lat="49.17055" lon="1.41178">
        <ele>16.200000762939</ele>
        <time>2021-03-28T07:26:35.000Z</time>
      </trkpt>
      <trkpt lat="49.17051" lon="1.4119">
        <ele>16.39999961853</ele>
        <time>2021-03-28T07:26:37.000Z</time>
      </trkpt>
      <trkpt lat="49.17036" lon="1.41231">
        <ele>16.799999237061</ele>
        <time>2021-03-28T07:26:44.000Z</time>
      </trkpt>
      <trkpt lat="49.17021" lon="1.41266">
        <ele>17.200000762939</ele>
        <time>2021-03-28T07:26:51.000Z</time>
      </trkpt>
      <trkpt lat="49.17019" lon="1.41269">
        <ele>17.200000762939</ele>
        <time>2021-03-28T07:26:52.000Z</time>
      </trkpt>
      <trkpt lat="49.17014" lon="1.41282">
        <ele>17.39999961853</ele>
        <time>2021-03-28T07:26:57.000Z</time>
      </trkpt>
      <trkpt lat="49.17002" lon="1.41308">
        <ele>17.200000762939</ele>
        <time>2021-03-28T07:27:04.000Z</time>
      </trkpt>
      <trkpt lat="49.16984" lon="1.41347">
        <ele>17.200000762939</ele>
        <time>2021-03-28T07:27:13.000Z</time>
      </trkpt>
      <trkpt lat="49.16966" lon="1.4139">
        <ele>17.200000762939</ele>
        <time>2021-03-28T07:27:20.000Z</time>
      </trkpt>
      <trkpt lat="49.1696" lon="1.41402">
        <ele>17.200000762939</ele>
        <time>2021-03-28T07:27:22.000Z</time>
      </trkpt>
      <trkpt lat="49.16955" lon="1.41416">
        <ele>17.200000762939</ele>
        <time>2021-03-28T07:27:24.000Z</time>
      </trkpt>
      <trkpt lat="49.1695" lon="1.4143">
        <ele>17.200000762939</ele>
        <time>2021-03-28T07:27:26.000Z</time>
      </trkpt>
      <trkpt lat="49.16942" lon="1.41452">
        <ele>17</ele>
        <time>2021-03-28T07:27:29.000Z</time>
      </trkpt>
      <trkpt lat="49.16918" lon="1.41517">
        <ele>16.799999237061</ele>
        <time>2021-03-28T07:27:38.000Z</time>
      </trkpt>
      <trkpt lat="49.16898" lon="1.4157">
        <ele>16.799999237061</ele>
        <time>2021-03-28T07:27:46.000Z</time>
      </trkpt>
      <trkpt lat="49.1689" lon="1.41589">
        <ele>16.799999237061</ele>
        <time>2021-03-28T07:27:49.000Z</time>
      </trkpt>
      <trkpt lat="49.16874" lon="1.41625">
        <ele>17</ele>
        <time>2021-03-28T07:27:55.000Z</time>
      </trkpt>
      <trkpt lat="49.16845" lon="1.41676">
        <ele>17.39999961853</ele>
        <time>2021-03-28T07:28:04.000Z</time>
      </trkpt>
      <trkpt lat="49.16822" lon="1.41712">
        <ele>17.60000038147</ele>
        <time>2021-03-28T07:28:11.000Z</time>
      </trkpt>
      <trkpt lat="49.16788" lon="1.41767">
        <ele>17</ele>
        <time>2021-03-28T07:28:21.000Z</time>
      </trkpt>
      <trkpt lat="49.16764" lon="1.41804">
        <ele>16.60000038147</ele>
        <time>2021-03-28T07:28:28.000Z</time>
      </trkpt>
      <trkpt lat="49.16727" lon="1.41865">
        <ele>16.39999961853</ele>
        <time>2021-03-28T07:28:39.000Z</time>
      </trkpt>
      <trkpt lat="49.16708" lon="1.41908">
        <ele>16</ele>
        <time>2021-03-28T07:28:46.000Z</time>
      </trkpt>
      <trkpt lat="49.16689" lon="1.41965">
        <ele>15.60000038147</ele>
        <time>2021-03-28T07:28:55.000Z</time>
      </trkpt>
      <trkpt lat="49.16675" lon="1.42011">
        <ele>15.39999961853</ele>
        <time>2021-03-28T07:29:03.000Z</time>
      </trkpt>
      <trkpt lat="49.16669" lon="1.42039">
        <ele>15.60000038147</ele>
        <time>2021-03-28T07:29:09.000Z</time>
      </trkpt>
      <trkpt lat="49.16666" lon="1.42078">
        <ele>15.800000190735</ele>
        <time>2021-03-28T07:29:16.000Z</time>
      </trkpt>
      <trkpt lat="49.16664" lon="1.4212">
        <ele>16</ele>
        <time>2021-03-28T07:29:23.000Z</time>
      </trkpt>
      <trkpt lat="49.16661" lon="1.42179">
        <ele>16.39999961853</ele>
        <time>2021-03-28T07:29:32.000Z</time>
      </trkpt>
      <trkpt lat="49.16656" lon="1.42237">
        <ele>17.200000762939</ele>
        <time>2021-03-28T07:29:41.000Z</time>
      </trkpt>
      <trkpt lat="49.16652" lon="1.42297">
        <ele>18.200000762939</ele>
        <time>2021-03-28T07:29:50.000Z</time>
      </trkpt>
      <trkpt lat="49.16643" lon="1.42369">
        <ele>19.200000762939</ele>
        <time>2021-03-28T07:30:01.000Z</time>
      </trkpt>
      <trkpt lat="49.16633" lon="1.42428">
        <ele>19.799999237061</ele>
        <time>2021-03-28T07:30:10.000Z</time>
      </trkpt>
      <trkpt lat="49.16626" lon="1.42453">
        <ele>20</ele>
        <time>2021-03-28T07:30:14.000Z</time>
      </trkpt>
      <trkpt lat="49.16619" lon="1.42471">
        <ele>20.60000038147</ele>
        <time>2021-03-28T07:30:17.000Z</time>
      </trkpt>
      <trkpt lat="49.16598" lon="1.42515">
        <ele>21.200000762939</ele>
        <time>2021-03-28T07:30:25.000Z</time>
      </trkpt>
      <trkpt lat="49.16592" lon="1.42526">
        <ele>21.200000762939</ele>
        <time>2021-03-28T07:30:27.000Z</time>
      </trkpt>
      <trkpt lat="49.16568" lon="1.42571">
        <ele>21.60000038147</ele>
        <time>2021-03-28T07:30:36.000Z</time>
      </trkpt>
      <trkpt lat="49.16542" lon="1.42622">
        <ele>21.799999237061</ele>
        <time>2021-03-28T07:30:45.000Z</time>
      </trkpt>
      <trkpt lat="49.1651" lon="1.42694">
        <ele>21.39999961853</ele>
        <time>2021-03-28T07:30:57.000Z</time>
      </trkpt>
      <trkpt lat="49.16487" lon="1.4275">
        <ele>21.39999961853</ele>
        <time>2021-03-28T07:31:07.000Z</time>
      </trkpt>
      <trkpt lat="49.16484" lon="1.42758">
        <ele>21.39999961853</ele>
        <time>2021-03-28T07:31:11.000Z</time>
      </trkpt>
      <trkpt lat="49.16484" lon="1.42758">
        <ele>21.39999961853</ele>
        <time>2021-03-28T07:31:12.000Z</time>
      </trkpt>
      <trkpt lat="49.16483" lon="1.4276">
        <ele>19.60000038147</ele>
        <time>2021-03-28T07:32:21.000Z</time>
      </trkpt>
      <trkpt lat="49.1648" lon="1.42766">
        <ele>19.60000038147</ele>
        <time>2021-03-28T07:32:23.000Z</time>
      </trkpt>
      <trkpt lat="49.16468" lon="1.42794">
        <ele>19.799999237061</ele>
        <time>2021-03-28T07:32:29.000Z</time>
      </trkpt>
      <trkpt lat="49.16447" lon="1.42843">
        <ele>19.799999237061</ele>
        <time>2021-03-28T07:32:37.000Z</time>
      </trkpt>
      <trkpt lat="49.16427" lon="1.42878">
        <ele>20.60000038147</ele>
        <time>2021-03-28T07:32:43.000Z</time>
      </trkpt>
      <trkpt lat="49.16419" lon="1.42889">
        <ele>20.799999237061</ele>
        <time>2021-03-28T07:32:45.000Z</time>
      </trkpt>
      <trkpt lat="49.16377" lon="1.42945">
        <ele>21.39999961853</ele>
        <time>2021-03-28T07:32:56.000Z</time>
      </trkpt>
      <trkpt lat="49.16347" lon="1.42983">
        <ele>21.39999961853</ele>
        <time>2021-03-28T07:33:04.000Z</time>
      </trkpt>
      <trkpt lat="49.16332" lon="1.43002">
        <ele>21.39999961853</ele>
        <time>2021-03-28T07:33:08.000Z</time>
      </trkpt>
      <trkpt lat="49.16294" lon="1.43051">
        <ele>21.39999961853</ele>
        <time>2021-03-28T07:33:18.000Z</time>
      </trkpt>
      <trkpt lat="49.1627" lon="1.43081">
        <ele>21.60000038147</ele>
        <time>2021-03-28T07:33:24.000Z</time>
      </trkpt>
      <trkpt lat="49.16264" lon="1.43091">
        <ele>21.60000038147</ele>
        <time>2021-03-28T07:33:26.000Z</time>
      </trkpt>
      <trkpt lat="49.16263" lon="1.43099">
        <ele>21.60000038147</ele>
        <time>2021-03-28T07:33:29.000Z</time>
      </trkpt>
      <trkpt lat="49.16263" lon="1.43099">
        <ele>21.60000038147</ele>
        <time>2021-03-28T07:33:30.000Z</time>
      </trkpt>
      <trkpt lat="49.16266" lon="1.43098">
        <ele>21.799999237061</ele>
        <time>2021-03-28T07:34:43.000Z</time>
      </trkpt>
      <trkpt lat="49.16269" lon="1.43101">
        <ele>21.799999237061</ele>
        <time>2021-03-28T07:34:45.000Z</time>
      </trkpt>
      <trkpt lat="49.16284" lon="1.43119">
        <ele>21.60000038147</ele>
        <time>2021-03-28T07:34:50.000Z</time>
      </trkpt>
      <trkpt lat="49.16307" lon="1.43147">
        <ele>21.60000038147</ele>
        <time>2021-03-28T07:34:57.000Z</time>
      </trkpt>
      <trkpt lat="49.16323" lon="1.43168">
        <ele>22.200000762939</ele>
        <time>2021-03-28T07:35:03.000Z</time>
      </trkpt>
      <trkpt lat="49.16329" lon="1.43174">
        <ele>22.39999961853</ele>
        <time>2021-03-28T07:35:05.000Z</time>
      </trkpt>
      <trkpt lat="49.16336" lon="1.43183">
        <ele>23.200000762939</ele>
        <time>2021-03-28T07:35:08.000Z</time>
      </trkpt>
      <trkpt lat="49.16345" lon="1.43193">
        <ele>24.200000762939</ele>
        <time>2021-03-28T07:35:12.000Z</time>
      </trkpt>
      <trkpt lat="49.1635" lon="1.43198">
        <ele>24.799999237061</ele>
        <time>2021-03-28T07:35:14.000Z</time>
      </trkpt>
      <trkpt lat="49.16355" lon="1.43203">
        <ele>25.39999961853</ele>
        <time>2021-03-28T07:35:16.000Z</time>
      </trkpt>
      <trkpt lat="49.16365" lon="1.43213">
        <ele>26.39999961853</ele>
        <time>2021-03-28T07:35:20.000Z</time>
      </trkpt>
      <trkpt lat="49.16371" lon="1.43221">
        <ele>27.200000762939</ele>
        <time>2021-03-28T07:35:23.000Z</time>
      </trkpt>
      <trkpt lat="49.16373" lon="1.43224">
        <ele>27.39999961853</ele>
        <time>2021-03-28T07:35:24.000Z</time>
      </trkpt>
      <trkpt lat="49.16379" lon="1.4323">
        <ele>28.60000038147</ele>
        <time>2021-03-28T07:35:27.000Z</time>
      </trkpt>
      <trkpt lat="49.16383" lon="1.43234">
        <ele>29</ele>
        <time>2021-03-28T07:35:29.000Z</time>
      </trkpt>
      <trkpt lat="49.16387" lon="1.43237">
        <ele>29.60000038147</ele>
        <time>2021-03-28T07:35:31.000Z</time>
      </trkpt>
      <trkpt lat="49.16391" lon="1.43242">
        <ele>30.799999237061</ele>
        <time>2021-03-28T07:35:34.000Z</time>
      </trkpt>
      <trkpt lat="49.16392" lon="1.43245">
        <ele>31</ele>
        <time>2021-03-28T07:35:35.000Z</time>
      </trkpt>
      <trkpt lat="49.16393" lon="1.43253">
        <ele>31.799999237061</ele>
        <time>2021-03-28T07:35:38.000Z</time>
      </trkpt>
      <trkpt lat="49.16391" lon="1.43258">
        <ele>32.200000762939</ele>
        <time>2021-03-28T07:35:40.000Z</time>
      </trkpt>
      <trkpt lat="49.1639" lon="1.43261">
        <ele>32.799999237061</ele>
        <time>2021-03-28T07:35:42.000Z</time>
      </trkpt>
      <trkpt lat="49.16388" lon="1.43265">
        <ele>33.799999237061</ele>
        <time>2021-03-28T07:35:45.000Z</time>
      </trkpt>
      <trkpt lat="49.16387" lon="1.43266">
        <ele>34</ele>
        <time>2021-03-28T07:35:46.000Z</time>
      </trkpt>
      <trkpt lat="49.16384" lon="1.43275">
        <ele>35</ele>
        <time>2021-03-28T07:35:50.000Z</time>
      </trkpt>
      <trkpt lat="49.16381" lon="1.43283">
        <ele>35.400001525879</ele>
        <time>2021-03-28T07:35:53.000Z</time>
      </trkpt>
      <trkpt lat="49.1637" lon="1.43303">
        <ele>36</ele>
        <time>2021-03-28T07:36:00.000Z</time>
      </trkpt>
      <trkpt lat="49.16369" lon="1.43306">
        <ele>36.200000762939</ele>
        <time>2021-03-28T07:36:01.000Z</time>
      </trkpt>
      <trkpt lat="49.16354" lon="1.43334">
        <ele>36.400001525879</ele>
        <time>2021-03-28T07:36:10.000Z</time>
      </trkpt>
      <trkpt lat="49.16336" lon="1.43365">
        <ele>36.599998474121</ele>
        <time>2021-03-28T07:36:19.000Z</time>
      </trkpt>
      <trkpt lat="49.16311" lon="1.43406">
        <ele>36.200000762939</ele>
        <time>2021-03-28T07:36:28.000Z</time>
      </trkpt>
      <trkpt lat="49.1628" lon="1.43462">
        <ele>35</ele>
        <time>2021-03-28T07:36:39.000Z</time>
      </trkpt>
      <trkpt lat="49.16277" lon="1.43467">
        <ele>34.799999237061</ele>
        <time>2021-03-28T07:36:40.000Z</time>
      </trkpt>
      <trkpt lat="49.16268" lon="1.4349">
        <ele>34.599998474121</ele>
        <time>2021-03-28T07:36:44.000Z</time>
      </trkpt>
      <trkpt lat="49.16265" lon="1.43503">
        <ele>34.599998474121</ele>
        <time>2021-03-28T07:36:46.000Z</time>
      </trkpt>
      <trkpt lat="49.16264" lon="1.43514">
        <ele>34.599998474121</ele>
        <time>2021-03-28T07:36:48.000Z</time>
      </trkpt>
      <trkpt lat="49.1626" lon="1.43538">
        <ele>34.599998474121</ele>
        <time>2021-03-28T07:36:52.000Z</time>
      </trkpt>
      <trkpt lat="49.16255" lon="1.43554">
        <ele>34</ele>
        <time>2021-03-28T07:36:55.000Z</time>
      </trkpt>
      <trkpt lat="49.16252" lon="1.4356">
        <ele>33.799999237061</ele>
        <time>2021-03-28T07:36:56.000Z</time>
      </trkpt>
      <trkpt lat="49.16245" lon="1.43577">
        <ele>33.799999237061</ele>
        <time>2021-03-28T07:36:59.000Z</time>
      </trkpt>
      <trkpt lat="49.16227" lon="1.43621">
        <ele>33.799999237061</ele>
        <time>2021-03-28T07:37:07.000Z</time>
      </trkpt>
      <trkpt lat="49.16222" lon="1.43653">
        <ele>34</ele>
        <time>2021-03-28T07:37:13.000Z</time>
      </trkpt>
      <trkpt lat="49.16226" lon="1.43685">
        <ele>33.799999237061</ele>
        <time>2021-03-28T07:37:19.000Z</time>
      </trkpt>
      <trkpt lat="49.16233" lon="1.43731">
        <ele>34.200000762939</ele>
        <time>2021-03-28T07:37:27.000Z</time>
      </trkpt>
      <trkpt lat="49.16236" lon="1.43747">
        <ele>34.599998474121</ele>
        <time>2021-03-28T07:37:30.000Z</time>
      </trkpt>
      <trkpt lat="49.16241" lon="1.43775">
        <ele>35.400001525879</ele>
        <time>2021-03-28T07:37:35.000Z</time>
      </trkpt>
      <trkpt lat="49.16244" lon="1.43791">
        <ele>35.799999237061</ele>
        <time>2021-03-28T07:37:38.000Z</time>
      </trkpt>
      <trkpt lat="49.1625" lon="1.43812">
        <ele>36.200000762939</ele>
        <time>2021-03-28T07:37:42.000Z</time>
      </trkpt>
      <trkpt lat="49.16257" lon="1.43837">
        <ele>36.799999237061</ele>
        <time>2021-03-28T07:37:47.000Z</time>
      </trkpt>
      <trkpt lat="49.16262" lon="1.43851">
        <ele>37.200000762939</ele>
        <time>2021-03-28T07:37:50.000Z</time>
      </trkpt>
      <trkpt lat="49.16266" lon="1.43864">
        <ele>37.799999237061</ele>
        <time>2021-03-28T07:37:53.000Z</time>
      </trkpt>
      <trkpt lat="49.16274" lon="1.43891">
        <ele>38.799999237061</ele>
        <time>2021-03-28T07:37:59.000Z</time>
      </trkpt>
      <trkpt lat="49.16275" lon="1.43896">
        <ele>38.799999237061</ele>
        <time>2021-03-28T07:38:00.000Z</time>
      </trkpt>
      <trkpt lat="49.16284" lon="1.43929">
        <ele>39.799999237061</ele>
        <time>2021-03-28T07:38:07.000Z</time>
      </trkpt>
      <trkpt lat="49.16292" lon="1.43967">
        <ele>41</ele>
        <time>2021-03-28T07:38:14.000Z</time>
      </trkpt>
      <trkpt lat="49.16302" lon="1.44007">
        <ele>42</ele>
        <time>2021-03-28T07:38:21.000Z</time>
      </trkpt>
      <trkpt lat="49.16304" lon="1.44013">
        <ele>42.200000762939</ele>
        <time>2021-03-28T07:38:22.000Z</time>
      </trkpt>
      <trkpt lat="49.16315" lon="1.44048">
        <ele>43</ele>
        <time>2021-03-28T07:38:28.000Z</time>
      </trkpt>
      <trkpt lat="49.16321" lon="1.44066">
        <ele>43.200000762939</ele>
        <time>2021-03-28T07:38:31.000Z</time>
      </trkpt>
      <trkpt lat="49.16334" lon="1.44099">
        <ele>44</ele>
        <time>2021-03-28T07:38:37.000Z</time>
      </trkpt>
      <trkpt lat="49.16341" lon="1.4412">
        <ele>44.400001525879</ele>
        <time>2021-03-28T07:38:41.000Z</time>
      </trkpt>
      <trkpt lat="49.16355" lon="1.44159">
        <ele>44.400001525879</ele>
        <time>2021-03-28T07:38:47.000Z</time>
      </trkpt>
      <trkpt lat="49.16379" lon="1.44222">
        <ele>44.200000762939</ele>
        <time>2021-03-28T07:38:55.000Z</time>
      </trkpt>
      <trkpt lat="49.16398" lon="1.4427">
        <ele>42.599998474121</ele>
        <time>2021-03-28T07:39:01.000Z</time>
      </trkpt>
      <trkpt lat="49.16409" lon="1.44301">
        <ele>41.799999237061</ele>
        <time>2021-03-28T07:39:05.000Z</time>
      </trkpt>
      <trkpt lat="49.16415" lon="1.44316">
        <ele>41.400001525879</ele>
        <time>2021-03-28T07:39:07.000Z</time>
      </trkpt>
      <trkpt lat="49.16419" lon="1.4433">
        <ele>41.200000762939</ele>
        <time>2021-03-28T07:39:09.000Z</time>
      </trkpt>
      <trkpt lat="49.1642" lon="1.44343">
        <ele>41</ele>
        <time>2021-03-28T07:39:11.000Z</time>
      </trkpt>
      <trkpt lat="49.1641" lon="1.44352">
        <ele>40.799999237061</ele>
        <time>2021-03-28T07:39:14.000Z</time>
      </trkpt>
      <trkpt lat="49.16404" lon="1.4435">
        <ele>40.799999237061</ele>
        <time>2021-03-28T07:39:15.000Z</time>
      </trkpt>
      <trkpt lat="49.16386" lon="1.44346">
        <ele>40.799999237061</ele>
        <time>2021-03-28T07:39:18.000Z</time>
      </trkpt>
      <trkpt lat="49.1636" lon="1.44344">
        <ele>40.200000762939</ele>
        <time>2021-03-28T07:39:22.000Z</time>
      </trkpt>
      <trkpt lat="49.16347" lon="1.44346">
        <ele>39.200000762939</ele>
        <time>2021-03-28T07:39:24.000Z</time>
      </trkpt>
      <trkpt lat="49.16341" lon="1.44348">
        <ele>38.799999237061</ele>
        <time>2021-03-28T07:39:25.000Z</time>
      </trkpt>
      <trkpt lat="49.16323" lon="1.44354">
        <ele>37.599998474121</ele>
        <time>2021-03-28T07:39:28.000Z</time>
      </trkpt>
      <trkpt lat="49.16313" lon="1.44361">
        <ele>37.200000762939</ele>
        <time>2021-03-28T07:39:30.000Z</time>
      </trkpt>
      <trkpt lat="49.16298" lon="1.44374">
        <ele>36.400001525879</ele>
        <time>2021-03-28T07:39:33.000Z</time>
      </trkpt>
      <trkpt lat="49.16276" lon="1.44393">
        <ele>35.400001525879</ele>
        <time>2021-03-28T07:39:38.000Z</time>
      </trkpt>
      <trkpt lat="49.16253" lon="1.444">
        <ele>34.200000762939</ele>
        <time>2021-03-28T07:39:43.000Z</time>
      </trkpt>
      <trkpt lat="49.16244" lon="1.44398">
        <ele>34.200000762939</ele>
        <time>2021-03-28T07:39:45.000Z</time>
      </trkpt>
      <trkpt lat="49.16233" lon="1.4439">
        <ele>34.200000762939</ele>
        <time>2021-03-28T07:39:48.000Z</time>
      </trkpt>
      <trkpt lat="49.16229" lon="1.44388">
        <ele>34.200000762939</ele>
        <time>2021-03-28T07:39:49.000Z</time>
      </trkpt>
      <trkpt lat="49.16216" lon="1.44387">
        <ele>34.200000762939</ele>
        <time>2021-03-28T07:39:52.000Z</time>
      </trkpt>
      <trkpt lat="49.16208" lon="1.44389">
        <ele>34.599998474121</ele>
        <time>2021-03-28T07:39:54.000Z</time>
      </trkpt>
      <trkpt lat="49.162" lon="1.44392">
        <ele>35.200000762939</ele>
        <time>2021-03-28T07:39:56.000Z</time>
      </trkpt>
      <trkpt lat="49.16193" lon="1.44395">
        <ele>35.799999237061</ele>
        <time>2021-03-28T07:39:58.000Z</time>
      </trkpt>
      <trkpt lat="49.16187" lon="1.44399">
        <ele>36.200000762939</ele>
        <time>2021-03-28T07:40:00.000Z</time>
      </trkpt>
      <trkpt lat="49.16171" lon="1.4441">
        <ele>37.400001525879</ele>
        <time>2021-03-28T07:40:05.000Z</time>
      </trkpt>
      <trkpt lat="49.16159" lon="1.44418">
        <ele>38.599998474121</ele>
        <time>2021-03-28T07:40:09.000Z</time>
      </trkpt>
      <trkpt lat="49.16146" lon="1.44423">
        <ele>39.799999237061</ele>
        <time>2021-03-28T07:40:13.000Z</time>
      </trkpt>
      <trkpt lat="49.1614" lon="1.44421">
        <ele>40.400001525879</ele>
        <time>2021-03-28T07:40:15.000Z</time>
      </trkpt>
      <trkpt lat="49.16134" lon="1.44419">
        <ele>40.799999237061</ele>
        <time>2021-03-28T07:40:17.000Z</time>
      </trkpt>
      <trkpt lat="49.16121" lon="1.44412">
        <ele>42</ele>
        <time>2021-03-28T07:40:21.000Z</time>
      </trkpt>
      <trkpt lat="49.16114" lon="1.44408">
        <ele>42.400001525879</ele>
        <time>2021-03-28T07:40:23.000Z</time>
      </trkpt>
      <trkpt lat="49.16108" lon="1.44403">
        <ele>43</ele>
        <time>2021-03-28T07:40:25.000Z</time>
      </trkpt>
      <trkpt lat="49.16091" lon="1.44392">
        <ele>44.200000762939</ele>
        <time>2021-03-28T07:40:30.000Z</time>
      </trkpt>
      <trkpt lat="49.16085" lon="1.44389">
        <ele>44.599998474121</ele>
        <time>2021-03-28T07:40:32.000Z</time>
      </trkpt>
      <trkpt lat="49.16073" lon="1.44381">
        <ele>45.200000762939</ele>
        <time>2021-03-28T07:40:36.000Z</time>
      </trkpt>
      <trkpt lat="49.16066" lon="1.44377">
        <ele>45.200000762939</ele>
        <time>2021-03-28T07:40:38.000Z</time>
      </trkpt>
      <trkpt lat="49.1604" lon="1.44368">
        <ele>45.400001525879</ele>
        <time>2021-03-28T07:40:45.000Z</time>
      </trkpt>
      <trkpt lat="49.1603" lon="1.4437">
        <ele>45.400001525879</ele>
        <time>2021-03-28T07:40:48.000Z</time>
      </trkpt>
      <trkpt lat="49.16028" lon="1.44373">
        <ele>45.400001525879</ele>
        <time>2021-03-28T07:40:49.000Z</time>
      </trkpt>
      <trkpt lat="49.1602" lon="1.44388">
        <ele>45.400001525879</ele>
        <time>2021-03-28T07:40:54.000Z</time>
      </trkpt>
      <trkpt lat="49.16018" lon="1.44391">
        <ele>45.400001525879</ele>
        <time>2021-03-28T07:40:55.000Z</time>
      </trkpt>
      <trkpt lat="49.16008" lon="1.4441">
        <ele>46</ele>
        <time>2021-03-28T07:41:02.000Z</time>
      </trkpt>
      <trkpt lat="49.16007" lon="1.44413">
        <ele>46.200000762939</ele>
        <time>2021-03-28T07:41:03.000Z</time>
      </trkpt>
      <trkpt lat="49.15998" lon="1.44433">
        <ele>47.200000762939</ele>
        <time>2021-03-28T07:41:10.000Z</time>
      </trkpt>
      <trkpt lat="49.15995" lon="1.44437">
        <ele>47.400001525879</ele>
        <time>2021-03-28T07:41:12.000Z</time>
      </trkpt>
      <trkpt lat="49.15991" lon="1.44445">
        <ele>48.400001525879</ele>
        <time>2021-03-28T07:41:16.000Z</time>
      </trkpt>
      <trkpt lat="49.15988" lon="1.44449">
        <ele>49.400001525879</ele>
        <time>2021-03-28T07:41:18.000Z</time>
      </trkpt>
      <trkpt lat="49.15987" lon="1.44451">
        <ele>49.599998474121</ele>
        <time>2021-03-28T07:41:19.000Z</time>
      </trkpt>
      <trkpt lat="49.15979" lon="1.44463">
        <ele>50.799999237061</ele>
        <time>2021-03-28T07:41:24.000Z</time>
      </trkpt>
      <trkpt lat="49.15972" lon="1.44472">
        <ele>51.599998474121</ele>
        <time>2021-03-28T07:41:28.000Z</time>
      </trkpt>
      <trkpt lat="49.15971" lon="1.44474">
        <ele>51.799999237061</ele>
        <time>2021-03-28T07:41:29.000Z</time>
      </trkpt>
      <trkpt lat="49.15962" lon="1.44485">
        <ele>53</ele>
        <time>2021-03-28T07:41:34.000Z</time>
      </trkpt>
      <trkpt lat="49.15958" lon="1.4449">
        <ele>53.599998474121</ele>
        <time>2021-03-28T07:41:36.000Z</time>
      </trkpt>
      <trkpt lat="49.15955" lon="1.44494">
        <ele>54.200000762939</ele>
        <time>2021-03-28T07:41:38.000Z</time>
      </trkpt>
      <trkpt lat="49.15947" lon="1.44501">
        <ele>55.400001525879</ele>
        <time>2021-03-28T07:41:42.000Z</time>
      </trkpt>
      <trkpt lat="49.1594" lon="1.44509">
        <ele>57</ele>
        <time>2021-03-28T07:41:46.000Z</time>
      </trkpt>
      <trkpt lat="49.15935" lon="1.44517">
        <ele>58</ele>
        <time>2021-03-28T07:41:50.000Z</time>
      </trkpt>
      <trkpt lat="49.1593" lon="1.44523">
        <ele>58.799999237061</ele>
        <time>2021-03-28T07:41:53.000Z</time>
      </trkpt>
      <trkpt lat="49.15929" lon="1.44525">
        <ele>59</ele>
        <time>2021-03-28T07:41:54.000Z</time>
      </trkpt>
      <trkpt lat="49.15922" lon="1.44532">
        <ele>60</ele>
        <time>2021-03-28T07:41:58.000Z</time>
      </trkpt>
      <trkpt lat="49.15919" lon="1.44535">
        <ele>60.599998474121</ele>
        <time>2021-03-28T07:42:00.000Z</time>
      </trkpt>
      <trkpt lat="49.15915" lon="1.44539">
        <ele>61.200000762939</ele>
        <time>2021-03-28T07:42:02.000Z</time>
      </trkpt>
      <trkpt lat="49.15907" lon="1.44546">
        <ele>62.400001525879</ele>
        <time>2021-03-28T07:42:07.000Z</time>
      </trkpt>
      <trkpt lat="49.15898" lon="1.44555">
        <ele>63.400001525879</ele>
        <time>2021-03-28T07:42:12.000Z</time>
      </trkpt>
      <trkpt lat="49.1589" lon="1.44561">
        <ele>64.599998474121</ele>
        <time>2021-03-28T07:42:16.000Z</time>
      </trkpt>
      <trkpt lat="49.1588" lon="1.44568">
        <ele>65.599998474121</ele>
        <time>2021-03-28T07:42:21.000Z</time>
      </trkpt>
      <trkpt lat="49.15872" lon="1.44576">
        <ele>66.599998474121</ele>
        <time>2021-03-28T07:42:26.000Z</time>
      </trkpt>
      <trkpt lat="49.1587" lon="1.44578">
        <ele>66.800003051758</ele>
        <time>2021-03-28T07:42:27.000Z</time>
      </trkpt>
      <trkpt lat="49.15861" lon="1.4459">
        <ele>67.800003051758</ele>
        <time>2021-03-28T07:42:33.000Z</time>
      </trkpt>
      <trkpt lat="49.1586" lon="1.44592">
        <ele>68</ele>
        <time>2021-03-28T07:42:34.000Z</time>
      </trkpt>
      <trkpt lat="49.15851" lon="1.44602">
        <ele>69</ele>
        <time>2021-03-28T07:42:39.000Z</time>
      </trkpt>
      <trkpt lat="49.1585" lon="1.44604">
        <ele>69.199996948242</ele>
        <time>2021-03-28T07:42:40.000Z</time>
      </trkpt>
      <trkpt lat="49.15846" lon="1.44611">
        <ele>70</ele>
        <time>2021-03-28T07:42:44.000Z</time>
      </trkpt>
      <trkpt lat="49.15841" lon="1.44619">
        <ele>70.400001525879</ele>
        <time>2021-03-28T07:42:48.000Z</time>
      </trkpt>
      <trkpt lat="49.15837" lon="1.44627">
        <ele>71.199996948242</ele>
        <time>2021-03-28T07:42:52.000Z</time>
      </trkpt>
      <trkpt lat="49.15835" lon="1.44631">
        <ele>71.400001525879</ele>
        <time>2021-03-28T07:42:54.000Z</time>
      </trkpt>
      <trkpt lat="49.15829" lon="1.44643">
        <ele>72.199996948242</ele>
        <time>2021-03-28T07:42:59.000Z</time>
      </trkpt>
      <trkpt lat="49.15827" lon="1.44648">
        <ele>72.599998474121</ele>
        <time>2021-03-28T07:43:01.000Z</time>
      </trkpt>
      <trkpt lat="49.1582" lon="1.4466">
        <ele>73.199996948242</ele>
        <time>2021-03-28T07:43:06.000Z</time>
      </trkpt>
      <trkpt lat="49.15817" lon="1.44665">
        <ele>73.400001525879</ele>
        <time>2021-03-28T07:43:08.000Z</time>
      </trkpt>
      <trkpt lat="49.15816" lon="1.4467">
        <ele>73.800003051758</ele>
        <time>2021-03-28T07:43:10.000Z</time>
      </trkpt>
      <trkpt lat="49.15815" lon="1.44672">
        <ele>74</ele>
        <time>2021-03-28T07:43:11.000Z</time>
      </trkpt>
      <trkpt lat="49.15813" lon="1.44675">
        <ele>74.400001525879</ele>
        <time>2021-03-28T07:43:12.000Z</time>
      </trkpt>
      <trkpt lat="49.15809" lon="1.44684">
        <ele>75.199996948242</ele>
        <time>2021-03-28T07:43:16.000Z</time>
      </trkpt>
      <trkpt lat="49.15808" lon="1.44687">
        <ele>75.199996948242</ele>
        <time>2021-03-28T07:43:17.000Z</time>
      </trkpt>
      <trkpt lat="49.15807" lon="1.44689">
        <ele>75.400001525879</ele>
        <time>2021-03-28T07:43:18.000Z</time>
      </trkpt>
      <trkpt lat="49.15805" lon="1.44698">
        <ele>76</ele>
        <time>2021-03-28T07:43:21.000Z</time>
      </trkpt>
      <trkpt lat="49.15804" lon="1.44701">
        <ele>76.400001525879</ele>
        <time>2021-03-28T07:43:22.000Z</time>
      </trkpt>
      <trkpt lat="49.15802" lon="1.44706">
        <ele>76.800003051758</ele>
        <time>2021-03-28T07:43:24.000Z</time>
      </trkpt>
      <trkpt lat="49.15799" lon="1.44714">
        <ele>77.400001525879</ele>
        <time>2021-03-28T07:43:27.000Z</time>
      </trkpt>
      <trkpt lat="49.15797" lon="1.44726">
        <ele>78.199996948242</ele>
        <time>2021-03-28T07:43:31.000Z</time>
      </trkpt>
      <trkpt lat="49.15797" lon="1.44728">
        <ele>78.599998474121</ele>
        <time>2021-03-28T07:43:32.000Z</time>
      </trkpt>
      <trkpt lat="49.15795" lon="1.44742">
        <ele>79.800003051758</ele>
        <time>2021-03-28T07:43:37.000Z</time>
      </trkpt>
      <trkpt lat="49.15795" lon="1.44744">
        <ele>80</ele>
        <time>2021-03-28T07:43:38.000Z</time>
      </trkpt>
      <trkpt lat="49.15794" lon="1.44752">
        <ele>81</ele>
        <time>2021-03-28T07:43:41.000Z</time>
      </trkpt>
      <trkpt lat="49.15794" lon="1.44755">
        <ele>81.199996948242</ele>
        <time>2021-03-28T07:43:42.000Z</time>
      </trkpt>
      <trkpt lat="49.15793" lon="1.4476">
        <ele>81.800003051758</ele>
        <time>2021-03-28T07:43:44.000Z</time>
      </trkpt>
      <trkpt lat="49.15793" lon="1.44763">
        <ele>82</ele>
        <time>2021-03-28T07:43:45.000Z</time>
      </trkpt>
      <trkpt lat="49.15792" lon="1.44768">
        <ele>82.599998474121</ele>
        <time>2021-03-28T07:43:47.000Z</time>
      </trkpt>
      <trkpt lat="49.1579" lon="1.44776">
        <ele>83.199996948242</ele>
        <time>2021-03-28T07:43:50.000Z</time>
      </trkpt>
      <trkpt lat="49.1579" lon="1.44778">
        <ele>83.599998474121</ele>
        <time>2021-03-28T07:43:51.000Z</time>
      </trkpt>
      <trkpt lat="49.15788" lon="1.44787">
        <ele>84.400001525879</ele>
        <time>2021-03-28T07:43:55.000Z</time>
      </trkpt>
      <trkpt lat="49.15783" lon="1.44796">
        <ele>85.400001525879</ele>
        <time>2021-03-28T07:43:59.000Z</time>
      </trkpt>
      <trkpt lat="49.15783" lon="1.44798">
        <ele>85.599998474121</ele>
        <time>2021-03-28T07:44:00.000Z</time>
      </trkpt>
      <trkpt lat="49.15779" lon="1.44807">
        <ele>86.400001525879</ele>
        <time>2021-03-28T07:44:04.000Z</time>
      </trkpt>
      <trkpt lat="49.15778" lon="1.44809">
        <ele>86.599998474121</ele>
        <time>2021-03-28T07:44:05.000Z</time>
      </trkpt>
      <trkpt lat="49.15773" lon="1.44817">
        <ele>87.800003051758</ele>
        <time>2021-03-28T07:44:09.000Z</time>
      </trkpt>
      <trkpt lat="49.15769" lon="1.44825">
        <ele>89</ele>
        <time>2021-03-28T07:44:13.000Z</time>
      </trkpt>
      <trkpt lat="49.15768" lon="1.4483">
        <ele>89.400001525879</ele>
        <time>2021-03-28T07:44:15.000Z</time>
      </trkpt>
      <trkpt lat="49.15767" lon="1.44835">
        <ele>89.800003051758</ele>
        <time>2021-03-28T07:44:17.000Z</time>
      </trkpt>
      <trkpt lat="49.15766" lon="1.44838">
        <ele>90.199996948242</ele>
        <time>2021-03-28T07:44:18.000Z</time>
      </trkpt>
      <trkpt lat="49.15766" lon="1.44843">
        <ele>90.599998474121</ele>
        <time>2021-03-28T07:44:20.000Z</time>
      </trkpt>
      <trkpt lat="49.15764" lon="1.44851">
        <ele>91.400001525879</ele>
        <time>2021-03-28T07:44:23.000Z</time>
      </trkpt>
      <trkpt lat="49.15764" lon="1.44855">
        <ele>91.599998474121</ele>
        <time>2021-03-28T07:44:24.000Z</time>
      </trkpt>
      <trkpt lat="49.1576" lon="1.44865">
        <ele>92.400001525879</ele>
        <time>2021-03-28T07:44:28.000Z</time>
      </trkpt>
      <trkpt lat="49.15758" lon="1.4487">
        <ele>92.800003051758</ele>
        <time>2021-03-28T07:44:30.000Z</time>
      </trkpt>
      <trkpt lat="49.15757" lon="1.44872">
        <ele>92.800003051758</ele>
        <time>2021-03-28T07:44:31.000Z</time>
      </trkpt>
      <trkpt lat="49.15755" lon="1.44876">
        <ele>93.400001525879</ele>
        <time>2021-03-28T07:44:33.000Z</time>
      </trkpt>
      <trkpt lat="49.15752" lon="1.44879">
        <ele>94</ele>
        <time>2021-03-28T07:44:35.000Z</time>
      </trkpt>
      <trkpt lat="49.1575" lon="1.44882">
        <ele>94.599998474121</ele>
        <time>2021-03-28T07:44:37.000Z</time>
      </trkpt>
      <trkpt lat="49.15749" lon="1.44884">
        <ele>95.400001525879</ele>
        <time>2021-03-28T07:44:39.000Z</time>
      </trkpt>
      <trkpt lat="49.15747" lon="1.4489">
        <ele>96.599998474121</ele>
        <time>2021-03-28T07:47:32.000Z</time>
      </trkpt>
      <trkpt lat="49.15745" lon="1.44895">
        <ele>96.599998474121</ele>
        <time>2021-03-28T07:47:35.000Z</time>
      </trkpt>
      <trkpt lat="49.15738" lon="1.44907">
        <ele>96.599998474121</ele>
        <time>2021-03-28T07:47:39.000Z</time>
      </trkpt>
      <trkpt lat="49.15736" lon="1.44914">
        <ele>96.599998474121</ele>
        <time>2021-03-28T07:47:40.000Z</time>
      </trkpt>
      <trkpt lat="49.15729" lon="1.44931">
        <ele>96.599998474121</ele>
        <time>2021-03-28T07:47:42.000Z</time>
      </trkpt>
      <trkpt lat="49.15724" lon="1.4494">
        <ele>96.599998474121</ele>
        <time>2021-03-28T07:47:43.000Z</time>
      </trkpt>
      <trkpt lat="49.15708" lon="1.44954">
        <ele>96.199996948242</ele>
        <time>2021-03-28T07:47:46.000Z</time>
      </trkpt>
      <trkpt lat="49.157" lon="1.44953">
        <ele>95.800003051758</ele>
        <time>2021-03-28T07:47:48.000Z</time>
      </trkpt>
      <trkpt lat="49.15696" lon="1.44953">
        <ele>95.599998474121</ele>
        <time>2021-03-28T07:47:49.000Z</time>
      </trkpt>
      <trkpt lat="49.15693" lon="1.44953">
        <ele>95.199996948242</ele>
        <time>2021-03-28T07:47:50.000Z</time>
      </trkpt>
      <trkpt lat="49.15676" lon="1.44956">
        <ele>94.199996948242</ele>
        <time>2021-03-28T07:47:55.000Z</time>
      </trkpt>
      <trkpt lat="49.15662" lon="1.44966">
        <ele>94.199996948242</ele>
        <time>2021-03-28T07:48:00.000Z</time>
      </trkpt>
      <trkpt lat="49.15648" lon="1.4498">
        <ele>95.800003051758</ele>
        <time>2021-03-28T07:48:06.000Z</time>
      </trkpt>
      <trkpt lat="49.15645" lon="1.44982">
        <ele>96.199996948242</ele>
        <time>2021-03-28T07:48:07.000Z</time>
      </trkpt>
      <trkpt lat="49.15639" lon="1.4499">
        <ele>97.599998474121</ele>
        <time>2021-03-28T07:48:10.000Z</time>
      </trkpt>
      <trkpt lat="49.15637" lon="1.44992">
        <ele>97.800003051758</ele>
        <time>2021-03-28T07:48:11.000Z</time>
      </trkpt>
      <trkpt lat="49.15631" lon="1.44997">
        <ele>99</ele>
        <time>2021-03-28T07:48:14.000Z</time>
      </trkpt>
      <trkpt lat="49.15624" lon="1.45001">
        <ele>99.800003051758</ele>
        <time>2021-03-28T07:48:17.000Z</time>
      </trkpt>
      <trkpt lat="49.15621" lon="1.45003">
        <ele>100.19999694824</ele>
        <time>2021-03-28T07:48:18.000Z</time>
      </trkpt>
      <trkpt lat="49.1561" lon="1.45008">
        <ele>101.19999694824</ele>
        <time>2021-03-28T07:48:22.000Z</time>
      </trkpt>
      <trkpt lat="49.15607" lon="1.45009">
        <ele>101.40000152588</ele>
        <time>2021-03-28T07:48:23.000Z</time>
      </trkpt>
      <trkpt lat="49.15586" lon="1.45023">
        <ele>101.59999847412</ele>
        <time>2021-03-28T07:48:29.000Z</time>
      </trkpt>
      <trkpt lat="49.15562" lon="1.45036">
        <ele>101.59999847412</ele>
        <time>2021-03-28T07:48:35.000Z</time>
      </trkpt>
      <trkpt lat="49.15545" lon="1.45042">
        <ele>101.19999694824</ele>
        <time>2021-03-28T07:48:38.000Z</time>
      </trkpt>
      <trkpt lat="49.15538" lon="1.45043">
        <ele>101.19999694824</ele>
        <time>2021-03-28T07:48:39.000Z</time>
      </trkpt>
      <trkpt lat="49.15501" lon="1.4505">
        <ele>100.40000152588</ele>
        <time>2021-03-28T07:48:44.000Z</time>
      </trkpt>
      <trkpt lat="49.15492" lon="1.45052">
        <ele>100.19999694824</ele>
        <time>2021-03-28T07:48:45.000Z</time>
      </trkpt>
      <trkpt lat="49.15476" lon="1.45056">
        <ele>99.400001525879</ele>
        <time>2021-03-28T07:48:47.000Z</time>
      </trkpt>
      <trkpt lat="49.15467" lon="1.45055">
        <ele>98.599998474121</ele>
        <time>2021-03-28T07:48:48.000Z</time>
      </trkpt>
      <trkpt lat="49.15451" lon="1.45053">
        <ele>97</ele>
        <time>2021-03-28T07:48:50.000Z</time>
      </trkpt>
      <trkpt lat="49.15443" lon="1.45053">
        <ele>96</ele>
        <time>2021-03-28T07:48:51.000Z</time>
      </trkpt>
      <trkpt lat="49.15435" lon="1.45054">
        <ele>95</ele>
        <time>2021-03-28T07:48:52.000Z</time>
      </trkpt>
      <trkpt lat="49.15428" lon="1.45057">
        <ele>93.800003051758</ele>
        <time>2021-03-28T07:48:53.000Z</time>
      </trkpt>
      <trkpt lat="49.15421" lon="1.45063">
        <ele>92.800003051758</ele>
        <time>2021-03-28T07:48:54.000Z</time>
      </trkpt>
      <trkpt lat="49.15415" lon="1.45072">
        <ele>91.599998474121</ele>
        <time>2021-03-28T07:48:55.000Z</time>
      </trkpt>
      <trkpt lat="49.1541" lon="1.45081">
        <ele>89</ele>
        <time>2021-03-28T07:48:56.000Z</time>
      </trkpt>
      <trkpt lat="49.15404" lon="1.45089">
        <ele>87.599998474121</ele>
        <time>2021-03-28T07:48:57.000Z</time>
      </trkpt>
      <trkpt lat="49.15397" lon="1.45095">
        <ele>86</ele>
        <time>2021-03-28T07:48:58.000Z</time>
      </trkpt>
      <trkpt lat="49.15391" lon="1.45099">
        <ele>84.599998474121</ele>
        <time>2021-03-28T07:48:59.000Z</time>
      </trkpt>
      <trkpt lat="49.15386" lon="1.45103">
        <ele>83.199996948242</ele>
        <time>2021-03-28T07:49:00.000Z</time>
      </trkpt>
      <trkpt lat="49.15382" lon="1.45105">
        <ele>81.800003051758</ele>
        <time>2021-03-28T07:49:01.000Z</time>
      </trkpt>
      <trkpt lat="49.15379" lon="1.45108">
        <ele>80.400001525879</ele>
        <time>2021-03-28T07:49:02.000Z</time>
      </trkpt>
      <trkpt lat="49.15376" lon="1.4511">
        <ele>79.400001525879</ele>
        <time>2021-03-28T07:49:03.000Z</time>
      </trkpt>
      <trkpt lat="49.15374" lon="1.45111">
        <ele>78.199996948242</ele>
        <time>2021-03-28T07:49:04.000Z</time>
      </trkpt>
      <trkpt lat="49.15369" lon="1.45115">
        <ele>77.199996948242</ele>
        <time>2021-03-28T07:49:06.000Z</time>
      </trkpt>
      <trkpt lat="49.15364" lon="1.45119">
        <ele>77</ele>
        <time>2021-03-28T07:49:08.000Z</time>
      </trkpt>
      <trkpt lat="49.1535" lon="1.45129">
        <ele>76.800003051758</ele>
        <time>2021-03-28T07:49:15.000Z</time>
      </trkpt>
      <trkpt lat="49.15343" lon="1.45136">
        <ele>77.800003051758</ele>
        <time>2021-03-28T07:49:19.000Z</time>
      </trkpt>
      <trkpt lat="49.15341" lon="1.45141">
        <ele>78.199996948242</ele>
        <time>2021-03-28T07:49:21.000Z</time>
      </trkpt>
      <trkpt lat="49.15342" lon="1.45146">
        <ele>78.800003051758</ele>
        <time>2021-03-28T07:49:23.000Z</time>
      </trkpt>
      <trkpt lat="49.15342" lon="1.45149">
        <ele>79.199996948242</ele>
        <time>2021-03-28T07:49:24.000Z</time>
      </trkpt>
      <trkpt lat="49.15342" lon="1.45155">
        <ele>79.800003051758</ele>
        <time>2021-03-28T07:49:27.000Z</time>
      </trkpt>
      <trkpt lat="49.15342" lon="1.45159">
        <ele>80.400001525879</ele>
        <time>2021-03-28T07:49:29.000Z</time>
      </trkpt>
      <trkpt lat="49.15343" lon="1.45166">
        <ele>81.400001525879</ele>
        <time>2021-03-28T07:49:32.000Z</time>
      </trkpt>
      <trkpt lat="49.15344" lon="1.45168">
        <ele>81.800003051758</ele>
        <time>2021-03-28T07:49:33.000Z</time>
      </trkpt>
      <trkpt lat="49.15346" lon="1.45174">
        <ele>82.800003051758</ele>
        <time>2021-03-28T07:49:36.000Z</time>
      </trkpt>
      <trkpt lat="49.15348" lon="1.45181">
        <ele>83.800003051758</ele>
        <time>2021-03-28T07:49:40.000Z</time>
      </trkpt>
      <trkpt lat="49.15348" lon="1.45183">
        <ele>84</ele>
        <time>2021-03-28T07:49:41.000Z</time>
      </trkpt>
      <trkpt lat="49.1535" lon="1.45188">
        <ele>84.800003051758</ele>
        <time>2021-03-28T07:49:44.000Z</time>
      </trkpt>
      <trkpt lat="49.15351" lon="1.45195">
        <ele>86.199996948242</ele>
        <time>2021-03-28T07:49:48.000Z</time>
      </trkpt>
      <trkpt lat="49.15353" lon="1.45203">
        <ele>87.400001525879</ele>
        <time>2021-03-28T07:49:53.000Z</time>
      </trkpt>
      <trkpt lat="49.15354" lon="1.45207">
        <ele>87.800003051758</ele>
        <time>2021-03-28T07:49:55.000Z</time>
      </trkpt>
      <trkpt lat="49.15354" lon="1.45213">
        <ele>88.599998474121</ele>
        <time>2021-03-28T07:49:58.000Z</time>
      </trkpt>
      <trkpt lat="49.15356" lon="1.45218">
        <ele>89.400001525879</ele>
        <time>2021-03-28T07:50:01.000Z</time>
      </trkpt>
      <trkpt lat="49.15356" lon="1.45222">
        <ele>89.800003051758</ele>
        <time>2021-03-28T07:50:03.000Z</time>
      </trkpt>
      <trkpt lat="49.15358" lon="1.45229">
        <ele>90.800003051758</ele>
        <time>2021-03-28T07:50:07.000Z</time>
      </trkpt>
      <trkpt lat="49.15359" lon="1.45233">
        <ele>91.400001525879</ele>
        <time>2021-03-28T07:50:09.000Z</time>
      </trkpt>
      <trkpt lat="49.15359" lon="1.45237">
        <ele>92</ele>
        <time>2021-03-28T07:50:11.000Z</time>
      </trkpt>
      <trkpt lat="49.1536" lon="1.45239">
        <ele>92.199996948242</ele>
        <time>2021-03-28T07:50:12.000Z</time>
      </trkpt>
      <trkpt lat="49.15361" lon="1.45244">
        <ele>93.199996948242</ele>
        <time>2021-03-28T07:50:15.000Z</time>
      </trkpt>
      <trkpt lat="49.15361" lon="1.45246">
        <ele>93.400001525879</ele>
        <time>2021-03-28T07:50:16.000Z</time>
      </trkpt>
      <trkpt lat="49.15363" lon="1.4525">
        <ele>94.400001525879</ele>
        <time>2021-03-28T07:50:19.000Z</time>
      </trkpt>
      <trkpt lat="49.15364" lon="1.45255">
        <ele>95.400001525879</ele>
        <time>2021-03-28T07:50:22.000Z</time>
      </trkpt>
      <trkpt lat="49.15365" lon="1.45264">
        <ele>96.599998474121</ele>
        <time>2021-03-28T07:50:27.000Z</time>
      </trkpt>
      <trkpt lat="49.15367" lon="1.45273">
        <ele>97.599998474121</ele>
        <time>2021-03-28T07:50:33.000Z</time>
      </trkpt>
      <trkpt lat="49.15368" lon="1.45278">
        <ele>98.599998474121</ele>
        <time>2021-03-28T07:50:37.000Z</time>
      </trkpt>
      <trkpt lat="49.15369" lon="1.4528">
        <ele>99</ele>
        <time>2021-03-28T07:50:38.000Z</time>
      </trkpt>
      <trkpt lat="49.15371" lon="1.45285">
        <ele>99.800003051758</ele>
        <time>2021-03-28T07:50:42.000Z</time>
      </trkpt>
      <trkpt lat="49.15371" lon="1.45286">
        <ele>100</ele>
        <time>2021-03-28T07:50:43.000Z</time>
      </trkpt>
      <trkpt lat="49.15371" lon="1.45288">
        <ele>100.40000152588</ele>
        <time>2021-03-28T07:50:44.000Z</time>
      </trkpt>
      <trkpt lat="49.15373" lon="1.45291">
        <ele>101.19999694824</ele>
        <time>2021-03-28T07:50:48.000Z</time>
      </trkpt>
      <trkpt lat="49.15373" lon="1.45291">
        <ele>101.40000152588</ele>
        <time>2021-03-28T07:50:49.000Z</time>
      </trkpt>
      <trkpt lat="49.15373" lon="1.45299">
        <ele>104.80000305176</ele>
        <time>2021-03-28T07:51:08.000Z</time>
      </trkpt>
      <trkpt lat="49.15374" lon="1.45299">
        <ele>104.80000305176</ele>
        <time>2021-03-28T07:51:09.000Z</time>
      </trkpt>
      <trkpt lat="49.15376" lon="1.45303">
        <ele>105.80000305176</ele>
        <time>2021-03-28T07:51:15.000Z</time>
      </trkpt>
      <trkpt lat="49.15377" lon="1.45305">
        <ele>106.19999694824</ele>
        <time>2021-03-28T07:51:17.000Z</time>
      </trkpt>
      <trkpt lat="49.15378" lon="1.45307">
        <ele>107</ele>
        <time>2021-03-28T07:51:20.000Z</time>
      </trkpt>
      <trkpt lat="49.15379" lon="1.45311">
        <ele>107.40000152588</ele>
        <time>2021-03-28T07:51:24.000Z</time>
      </trkpt>
      <trkpt lat="49.1538" lon="1.45315">
        <ele>108</ele>
        <time>2021-03-28T07:51:28.000Z</time>
      </trkpt>
      <trkpt lat="49.15381" lon="1.4532">
        <ele>108.80000305176</ele>
        <time>2021-03-28T07:51:33.000Z</time>
      </trkpt>
      <trkpt lat="49.15382" lon="1.45321">
        <ele>108.80000305176</ele>
        <time>2021-03-28T07:51:34.000Z</time>
      </trkpt>
      <trkpt lat="49.15384" lon="1.45325">
        <ele>110</ele>
        <time>2021-03-28T07:51:39.000Z</time>
      </trkpt>
      <trkpt lat="49.15384" lon="1.45327">
        <ele>110.40000152588</ele>
        <time>2021-03-28T07:51:41.000Z</time>
      </trkpt>
      <trkpt lat="49.15384" lon="1.45328">
        <ele>111.19999694824</ele>
        <time>2021-03-28T07:51:44.000Z</time>
      </trkpt>
      <trkpt lat="49.15383" lon="1.45329">
        <ele>111.59999847412</ele>
        <time>2021-03-28T07:51:46.000Z</time>
      </trkpt>
      <trkpt lat="49.15383" lon="1.45328">
        <ele>111.80000305176</ele>
        <time>2021-03-28T07:51:47.000Z</time>
      </trkpt>
      <trkpt lat="49.15383" lon="1.4533">
        <ele>112.59999847412</ele>
        <time>2021-03-28T07:51:51.000Z</time>
      </trkpt>
      <trkpt lat="49.15384" lon="1.45333">
        <ele>113.19999694824</ele>
        <time>2021-03-28T07:51:55.000Z</time>
      </trkpt>
      <trkpt lat="49.15385" lon="1.45335">
        <ele>113.59999847412</ele>
        <time>2021-03-28T07:51:59.000Z</time>
      </trkpt>
      <trkpt lat="49.15386" lon="1.45339">
        <ele>114.80000305176</ele>
        <time>2021-03-28T07:52:58.000Z</time>
      </trkpt>
      <trkpt lat="49.15386" lon="1.4534">
        <ele>115</ele>
        <time>2021-03-28T07:52:59.000Z</time>
      </trkpt>
      <trkpt lat="49.15389" lon="1.45357">
        <ele>114.80000305176</ele>
        <time>2021-03-28T07:53:06.000Z</time>
      </trkpt>
      <trkpt lat="49.15392" lon="1.45368">
        <ele>115</ele>
        <time>2021-03-28T07:53:11.000Z</time>
      </trkpt>
      <trkpt lat="49.15394" lon="1.45376">
        <ele>116.19999694824</ele>
        <time>2021-03-28T07:53:14.000Z</time>
      </trkpt>
      <trkpt lat="49.15397" lon="1.45384">
        <ele>117.19999694824</ele>
        <time>2021-03-28T07:53:18.000Z</time>
      </trkpt>
      <trkpt lat="49.15399" lon="1.45388">
        <ele>118</ele>
        <time>2021-03-28T07:53:20.000Z</time>
      </trkpt>
      <trkpt lat="49.154" lon="1.45392">
        <ele>118.40000152588</ele>
        <time>2021-03-28T07:53:22.000Z</time>
      </trkpt>
      <trkpt lat="49.15401" lon="1.45401">
        <ele>119.80000305176</ele>
        <time>2021-03-28T07:53:26.000Z</time>
      </trkpt>
      <trkpt lat="49.15402" lon="1.45403">
        <ele>120.19999694824</ele>
        <time>2021-03-28T07:53:27.000Z</time>
      </trkpt>
      <trkpt lat="49.15403" lon="1.45408">
        <ele>121</ele>
        <time>2021-03-28T07:53:29.000Z</time>
      </trkpt>
      <trkpt lat="49.15405" lon="1.45415">
        <ele>121.80000305176</ele>
        <time>2021-03-28T07:53:32.000Z</time>
      </trkpt>
      <trkpt lat="49.15407" lon="1.45425">
        <ele>123</ele>
        <time>2021-03-28T07:53:36.000Z</time>
      </trkpt>
      <trkpt lat="49.1541" lon="1.45433">
        <ele>124</ele>
        <time>2021-03-28T07:53:40.000Z</time>
      </trkpt>
      <trkpt lat="49.15411" lon="1.45435">
        <ele>124.40000152588</ele>
        <time>2021-03-28T07:53:41.000Z</time>
      </trkpt>
      <trkpt lat="49.15412" lon="1.4544">
        <ele>125.40000152588</ele>
        <time>2021-03-28T07:53:43.000Z</time>
      </trkpt>
      <trkpt lat="49.15414" lon="1.45452">
        <ele>126.80000305176</ele>
        <time>2021-03-28T07:53:48.000Z</time>
      </trkpt>
      <trkpt lat="49.15414" lon="1.45454">
        <ele>127</ele>
        <time>2021-03-28T07:53:49.000Z</time>
      </trkpt>
      <trkpt lat="49.15415" lon="1.45458">
        <ele>127.40000152588</ele>
        <time>2021-03-28T07:53:51.000Z</time>
      </trkpt>
      <trkpt lat="49.15415" lon="1.45463">
        <ele>128</ele>
        <time>2021-03-28T07:53:53.000Z</time>
      </trkpt>
      <trkpt lat="49.15416" lon="1.45467">
        <ele>128.39999389648</ele>
        <time>2021-03-28T07:53:55.000Z</time>
      </trkpt>
      <trkpt lat="49.15419" lon="1.45474">
        <ele>129</ele>
        <time>2021-03-28T07:53:58.000Z</time>
      </trkpt>
      <trkpt lat="49.1542" lon="1.4548">
        <ele>129.19999694824</ele>
        <time>2021-03-28T07:54:00.000Z</time>
      </trkpt>
      <trkpt lat="49.15421" lon="1.45482">
        <ele>129.60000610352</ele>
        <time>2021-03-28T07:54:01.000Z</time>
      </trkpt>
      <trkpt lat="49.15423" lon="1.4549">
        <ele>130</ele>
        <time>2021-03-28T07:54:04.000Z</time>
      </trkpt>
      <trkpt lat="49.15423" lon="1.45496">
        <ele>130.39999389648</ele>
        <time>2021-03-28T07:54:06.000Z</time>
      </trkpt>
      <trkpt lat="49.15424" lon="1.45498">
        <ele>130.39999389648</ele>
        <time>2021-03-28T07:54:07.000Z</time>
      </trkpt>
      <trkpt lat="49.15427" lon="1.45507">
        <ele>130.60000610352</ele>
        <time>2021-03-28T07:54:10.000Z</time>
      </trkpt>
      <trkpt lat="49.15427" lon="1.45509">
        <ele>130.60000610352</ele>
        <time>2021-03-28T07:54:11.000Z</time>
      </trkpt>
      <trkpt lat="49.15429" lon="1.45527">
        <ele>131</ele>
        <time>2021-03-28T07:54:16.000Z</time>
      </trkpt>
      <trkpt lat="49.15431" lon="1.45533">
        <ele>131</ele>
        <time>2021-03-28T07:54:18.000Z</time>
      </trkpt>
      <trkpt lat="49.15434" lon="1.45544">
        <ele>131.19999694824</ele>
        <time>2021-03-28T07:54:21.000Z</time>
      </trkpt>
      <trkpt lat="49.15437" lon="1.45558">
        <ele>131.39999389648</ele>
        <time>2021-03-28T07:54:25.000Z</time>
      </trkpt>
      <trkpt lat="49.15438" lon="1.45562">
        <ele>131.39999389648</ele>
        <time>2021-03-28T07:54:26.000Z</time>
      </trkpt>
      <trkpt lat="49.15444" lon="1.45588">
        <ele>131.39999389648</ele>
        <time>2021-03-28T07:54:32.000Z</time>
      </trkpt>
      <trkpt lat="49.15452" lon="1.45623">
        <ele>131.80000305176</ele>
        <time>2021-03-28T07:54:39.000Z</time>
      </trkpt>
      <trkpt lat="49.15459" lon="1.45655">
        <ele>132</ele>
        <time>2021-03-28T07:54:45.000Z</time>
      </trkpt>
      <trkpt lat="49.15467" lon="1.45684">
        <ele>132</ele>
        <time>2021-03-28T07:54:50.000Z</time>
      </trkpt>
      <trkpt lat="49.15471" lon="1.45695">
        <ele>132</ele>
        <time>2021-03-28T07:54:52.000Z</time>
      </trkpt>
      <trkpt lat="49.1548" lon="1.45726">
        <ele>132.19999694824</ele>
        <time>2021-03-28T07:54:58.000Z</time>
      </trkpt>
      <trkpt lat="49.15485" lon="1.45749">
        <ele>132.39999389648</ele>
        <time>2021-03-28T07:55:03.000Z</time>
      </trkpt>
      <trkpt lat="49.15486" lon="1.45752">
        <ele>132.39999389648</ele>
        <time>2021-03-28T07:55:04.000Z</time>
      </trkpt>
      <trkpt lat="49.15485" lon="1.4576">
        <ele>132.60000610352</ele>
        <time>2021-03-28T07:55:06.000Z</time>
      </trkpt>
      <trkpt lat="49.15489" lon="1.45781">
        <ele>132.80000305176</ele>
        <time>2021-03-28T07:55:10.000Z</time>
      </trkpt>
      <trkpt lat="49.15492" lon="1.45796">
        <ele>133</ele>
        <time>2021-03-28T07:55:13.000Z</time>
      </trkpt>
      <trkpt lat="49.15497" lon="1.45818">
        <ele>133</ele>
        <time>2021-03-28T07:55:17.000Z</time>
      </trkpt>
      <trkpt lat="49.15504" lon="1.45841">
        <ele>133.19999694824</ele>
        <time>2021-03-28T07:55:21.000Z</time>
      </trkpt>
      <trkpt lat="49.15511" lon="1.45868">
        <ele>133.39999389648</ele>
        <time>2021-03-28T07:55:26.000Z</time>
      </trkpt>
      <trkpt lat="49.1552" lon="1.45901">
        <ele>133.39999389648</ele>
        <time>2021-03-28T07:55:32.000Z</time>
      </trkpt>
      <trkpt lat="49.15532" lon="1.45935">
        <ele>133.39999389648</ele>
        <time>2021-03-28T07:55:38.000Z</time>
      </trkpt>
      <trkpt lat="49.15539" lon="1.45963">
        <ele>133.39999389648</ele>
        <time>2021-03-28T07:55:43.000Z</time>
      </trkpt>
      <trkpt lat="49.15547" lon="1.45998">
        <ele>133.19999694824</ele>
        <time>2021-03-28T07:55:49.000Z</time>
      </trkpt>
      <trkpt lat="49.15556" lon="1.46025">
        <ele>133</ele>
        <time>2021-03-28T07:55:54.000Z</time>
      </trkpt>
      <trkpt lat="49.15565" lon="1.46059">
        <ele>133</ele>
        <time>2021-03-28T07:56:00.000Z</time>
      </trkpt>
      <trkpt lat="49.15572" lon="1.46086">
        <ele>133</ele>
        <time>2021-03-28T07:56:05.000Z</time>
      </trkpt>
      <trkpt lat="49.15579" lon="1.46112">
        <ele>133.39999389648</ele>
        <time>2021-03-28T07:56:10.000Z</time>
      </trkpt>
      <trkpt lat="49.15581" lon="1.46126">
        <ele>133.80000305176</ele>
        <time>2021-03-28T07:56:13.000Z</time>
      </trkpt>
      <trkpt lat="49.15585" lon="1.46146">
        <ele>134</ele>
        <time>2021-03-28T07:56:17.000Z</time>
      </trkpt>
      <trkpt lat="49.15591" lon="1.46172">
        <ele>134.39999389648</ele>
        <time>2021-03-28T07:56:22.000Z</time>
      </trkpt>
      <trkpt lat="49.15594" lon="1.46188">
        <ele>134.80000305176</ele>
        <time>2021-03-28T07:56:25.000Z</time>
      </trkpt>
      <trkpt lat="49.15597" lon="1.46198">
        <ele>135</ele>
        <time>2021-03-28T07:56:27.000Z</time>
      </trkpt>
      <trkpt lat="49.15604" lon="1.46229">
        <ele>135.39999389648</ele>
        <time>2021-03-28T07:56:33.000Z</time>
      </trkpt>
      <trkpt lat="49.15608" lon="1.46245">
        <ele>135.80000305176</ele>
        <time>2021-03-28T07:56:36.000Z</time>
      </trkpt>
      <trkpt lat="49.15613" lon="1.46262">
        <ele>136</ele>
        <time>2021-03-28T07:56:39.000Z</time>
      </trkpt>
      <trkpt lat="49.15621" lon="1.46289">
        <ele>136.39999389648</ele>
        <time>2021-03-28T07:56:44.000Z</time>
      </trkpt>
      <trkpt lat="49.15632" lon="1.46328">
        <ele>137</ele>
        <time>2021-03-28T07:56:51.000Z</time>
      </trkpt>
      <trkpt lat="49.15641" lon="1.46358">
        <ele>137.19999694824</ele>
        <time>2021-03-28T07:56:56.000Z</time>
      </trkpt>
      <trkpt lat="49.1565" lon="1.46386">
        <ele>137.39999389648</ele>
        <time>2021-03-28T07:57:01.000Z</time>
      </trkpt>
      <trkpt lat="49.15659" lon="1.46413">
        <ele>137.39999389648</ele>
        <time>2021-03-28T07:57:06.000Z</time>
      </trkpt>
      <trkpt lat="49.15668" lon="1.46449">
        <ele>137.60000610352</ele>
        <time>2021-03-28T07:57:12.000Z</time>
      </trkpt>
      <trkpt lat="49.15676" lon="1.46473">
        <ele>137.80000305176</ele>
        <time>2021-03-28T07:57:16.000Z</time>
      </trkpt>
      <trkpt lat="49.15677" lon="1.46479">
        <ele>137.80000305176</ele>
        <time>2021-03-28T07:57:17.000Z</time>
      </trkpt>
      <trkpt lat="49.15687" lon="1.46517">
        <ele>138</ele>
        <time>2021-03-28T07:57:23.000Z</time>
      </trkpt>
      <trkpt lat="49.15696" lon="1.4655">
        <ele>138.19999694824</ele>
        <time>2021-03-28T07:57:28.000Z</time>
      </trkpt>
      <trkpt lat="49.15705" lon="1.46588">
        <ele>138.19999694824</ele>
        <time>2021-03-28T07:57:34.000Z</time>
      </trkpt>
      <trkpt lat="49.15713" lon="1.46615">
        <ele>138.19999694824</ele>
        <time>2021-03-28T07:57:39.000Z</time>
      </trkpt>
      <trkpt lat="49.1572" lon="1.46644">
        <ele>138.39999389648</ele>
        <time>2021-03-28T07:57:44.000Z</time>
      </trkpt>
      <trkpt lat="49.15729" lon="1.46668">
        <ele>138.39999389648</ele>
        <time>2021-03-28T07:57:49.000Z</time>
      </trkpt>
      <trkpt lat="49.15738" lon="1.46701">
        <ele>138.19999694824</ele>
        <time>2021-03-28T07:57:55.000Z</time>
      </trkpt>
      <trkpt lat="49.15743" lon="1.46725">
        <ele>138</ele>
        <time>2021-03-28T07:57:59.000Z</time>
      </trkpt>
      <trkpt lat="49.15745" lon="1.46757">
        <ele>137.60000610352</ele>
        <time>2021-03-28T07:58:04.000Z</time>
      </trkpt>
      <trkpt lat="49.15742" lon="1.46783">
        <ele>137.60000610352</ele>
        <time>2021-03-28T07:58:08.000Z</time>
      </trkpt>
      <trkpt lat="49.15739" lon="1.46818">
        <ele>137.60000610352</ele>
        <time>2021-03-28T07:58:14.000Z</time>
      </trkpt>
      <trkpt lat="49.15736" lon="1.46862">
        <ele>137.60000610352</ele>
        <time>2021-03-28T07:58:21.000Z</time>
      </trkpt>
      <trkpt lat="49.1573" lon="1.46898">
        <ele>137.80000305176</ele>
        <time>2021-03-28T07:58:26.000Z</time>
      </trkpt>
      <trkpt lat="49.15727" lon="1.46931">
        <ele>138.19999694824</ele>
        <time>2021-03-28T07:58:31.000Z</time>
      </trkpt>
      <trkpt lat="49.15728" lon="1.46967">
        <ele>138.19999694824</ele>
        <time>2021-03-28T07:58:36.000Z</time>
      </trkpt>
      <trkpt lat="49.15727" lon="1.47002">
        <ele>138.19999694824</ele>
        <time>2021-03-28T07:58:41.000Z</time>
      </trkpt>
      <trkpt lat="49.15723" lon="1.47035">
        <ele>138.19999694824</ele>
        <time>2021-03-28T07:58:46.000Z</time>
      </trkpt>
      <trkpt lat="49.15714" lon="1.47053">
        <ele>138</ele>
        <time>2021-03-28T07:58:50.000Z</time>
      </trkpt>
      <trkpt lat="49.15711" lon="1.47059">
        <ele>138</ele>
        <time>2021-03-28T07:58:51.000Z</time>
      </trkpt>
      <trkpt lat="49.15698" lon="1.47079">
        <ele>137.80000305176</ele>
        <time>2021-03-28T07:58:55.000Z</time>
      </trkpt>
      <trkpt lat="49.15684" lon="1.47103">
        <ele>137.80000305176</ele>
        <time>2021-03-28T07:59:00.000Z</time>
      </trkpt>
      <trkpt lat="49.15675" lon="1.47127">
        <ele>137.80000305176</ele>
        <time>2021-03-28T07:59:04.000Z</time>
      </trkpt>
      <trkpt lat="49.15662" lon="1.47151">
        <ele>138</ele>
        <time>2021-03-28T07:59:09.000Z</time>
      </trkpt>
      <trkpt lat="49.15649" lon="1.47167">
        <ele>138</ele>
        <time>2021-03-28T07:59:13.000Z</time>
      </trkpt>
      <trkpt lat="49.15638" lon="1.47198">
        <ele>138</ele>
        <time>2021-03-28T07:59:18.000Z</time>
      </trkpt>
      <trkpt lat="49.15631" lon="1.47222">
        <ele>138.19999694824</ele>
        <time>2021-03-28T07:59:22.000Z</time>
      </trkpt>
      <trkpt lat="49.15629" lon="1.47235">
        <ele>138.19999694824</ele>
        <time>2021-03-28T07:59:24.000Z</time>
      </trkpt>
      <trkpt lat="49.15614" lon="1.47261">
        <ele>138.19999694824</ele>
        <time>2021-03-28T07:59:29.000Z</time>
      </trkpt>
      <trkpt lat="49.15592" lon="1.47285">
        <ele>138.19999694824</ele>
        <time>2021-03-28T07:59:35.000Z</time>
      </trkpt>
      <trkpt lat="49.15572" lon="1.4731">
        <ele>138.19999694824</ele>
        <time>2021-03-28T07:59:41.000Z</time>
      </trkpt>
      <trkpt lat="49.15556" lon="1.47336">
        <ele>138</ele>
        <time>2021-03-28T07:59:46.000Z</time>
      </trkpt>
      <trkpt lat="49.1554" lon="1.4736">
        <ele>138</ele>
        <time>2021-03-28T07:59:52.000Z</time>
      </trkpt>
      <trkpt lat="49.15532" lon="1.47372">
        <ele>138.19999694824</ele>
        <time>2021-03-28T07:59:58.000Z</time>
      </trkpt>
      <trkpt lat="49.15532" lon="1.47373">
        <ele>138.19999694824</ele>
        <time>2021-03-28T07:59:59.000Z</time>
      </trkpt>
      <trkpt lat="49.1553" lon="1.47378">
        <ele>138</ele>
        <time>2021-03-28T08:00:02.000Z</time>
      </trkpt>
      <trkpt lat="49.15526" lon="1.47384">
        <ele>138</ele>
        <time>2021-03-28T08:00:04.000Z</time>
      </trkpt>
      <trkpt lat="49.15509" lon="1.47404">
        <ele>138</ele>
        <time>2021-03-28T08:00:09.000Z</time>
      </trkpt>
      <trkpt lat="49.15487" lon="1.47436">
        <ele>137</ele>
        <time>2021-03-28T08:00:15.000Z</time>
      </trkpt>
      <trkpt lat="49.15479" lon="1.47447">
        <ele>136.80000305176</ele>
        <time>2021-03-28T08:00:17.000Z</time>
      </trkpt>
      <trkpt lat="49.15461" lon="1.47473">
        <ele>136.60000610352</ele>
        <time>2021-03-28T08:00:22.000Z</time>
      </trkpt>
      <trkpt lat="49.15443" lon="1.47504">
        <ele>136.19999694824</ele>
        <time>2021-03-28T08:00:27.000Z</time>
      </trkpt>
      <trkpt lat="49.1544" lon="1.47511">
        <ele>136.19999694824</ele>
        <time>2021-03-28T08:00:28.000Z</time>
      </trkpt>
      <trkpt lat="49.15437" lon="1.47518">
        <ele>136</ele>
        <time>2021-03-28T08:00:29.000Z</time>
      </trkpt>
      <trkpt lat="49.15428" lon="1.47546">
        <ele>135.80000305176</ele>
        <time>2021-03-28T08:00:33.000Z</time>
      </trkpt>
      <trkpt lat="49.15414" lon="1.47591">
        <ele>135.80000305176</ele>
        <time>2021-03-28T08:00:39.000Z</time>
      </trkpt>
      <trkpt lat="49.1541" lon="1.47605">
        <ele>135.60000610352</ele>
        <time>2021-03-28T08:00:41.000Z</time>
      </trkpt>
      <trkpt lat="49.15408" lon="1.47613">
        <ele>135.60000610352</ele>
        <time>2021-03-28T08:00:42.000Z</time>
      </trkpt>
      <trkpt lat="49.15403" lon="1.47636">
        <ele>135.80000305176</ele>
        <time>2021-03-28T08:00:45.000Z</time>
      </trkpt>
      <trkpt lat="49.154" lon="1.47643">
        <ele>135.60000610352</ele>
        <time>2021-03-28T08:00:46.000Z</time>
      </trkpt>
      <trkpt lat="49.15385" lon="1.47697">
        <ele>135.39999389648</ele>
        <time>2021-03-28T08:00:53.000Z</time>
      </trkpt>
      <trkpt lat="49.15366" lon="1.47763">
        <ele>135.39999389648</ele>
        <time>2021-03-28T08:01:02.000Z</time>
      </trkpt>
      <trkpt lat="49.15349" lon="1.47812">
        <ele>135.80000305176</ele>
        <time>2021-03-28T08:01:10.000Z</time>
      </trkpt>
      <trkpt lat="49.15336" lon="1.47848">
        <ele>136.39999389648</ele>
        <time>2021-03-28T08:01:17.000Z</time>
      </trkpt>
      <trkpt lat="49.15325" lon="1.47887">
        <ele>136.60000610352</ele>
        <time>2021-03-28T08:01:23.000Z</time>
      </trkpt>
      <trkpt lat="49.15323" lon="1.47893">
        <ele>136.60000610352</ele>
        <time>2021-03-28T08:01:24.000Z</time>
      </trkpt>
      <trkpt lat="49.15316" lon="1.47922">
        <ele>136.80000305176</ele>
        <time>2021-03-28T08:01:28.000Z</time>
      </trkpt>
      <trkpt lat="49.15307" lon="1.47955">
        <ele>136.80000305176</ele>
        <time>2021-03-28T08:01:33.000Z</time>
      </trkpt>
      <trkpt lat="49.15302" lon="1.47969">
        <ele>137</ele>
        <time>2021-03-28T08:01:35.000Z</time>
      </trkpt>
      <trkpt lat="49.15299" lon="1.47984">
        <ele>137</ele>
        <time>2021-03-28T08:01:37.000Z</time>
      </trkpt>
      <trkpt lat="49.15291" lon="1.48003">
        <ele>137</ele>
        <time>2021-03-28T08:01:40.000Z</time>
      </trkpt>
      <trkpt lat="49.15271" lon="1.48053">
        <ele>137.39999389648</ele>
        <time>2021-03-28T08:01:48.000Z</time>
      </trkpt>
      <trkpt lat="49.15258" lon="1.48082">
        <ele>137.39999389648</ele>
        <time>2021-03-28T08:01:53.000Z</time>
      </trkpt>
      <trkpt lat="49.15255" lon="1.48087">
        <ele>137.39999389648</ele>
        <time>2021-03-28T08:01:54.000Z</time>
      </trkpt>
      <trkpt lat="49.15253" lon="1.48093">
        <ele>137.39999389648</ele>
        <time>2021-03-28T08:01:55.000Z</time>
      </trkpt>
      <trkpt lat="49.15239" lon="1.48136">
        <ele>137.60000610352</ele>
        <time>2021-03-28T08:02:02.000Z</time>
      </trkpt>
      <trkpt lat="49.15238" lon="1.48143">
        <ele>137.80000305176</ele>
        <time>2021-03-28T08:02:03.000Z</time>
      </trkpt>
      <trkpt lat="49.15232" lon="1.48162">
        <ele>137.80000305176</ele>
        <time>2021-03-28T08:02:06.000Z</time>
      </trkpt>
      <trkpt lat="49.1523" lon="1.48169">
        <ele>138</ele>
        <time>2021-03-28T08:02:07.000Z</time>
      </trkpt>
      <trkpt lat="49.15221" lon="1.48214">
        <ele>138</ele>
        <time>2021-03-28T08:02:14.000Z</time>
      </trkpt>
      <trkpt lat="49.15221" lon="1.48221">
        <ele>138</ele>
        <time>2021-03-28T08:02:15.000Z</time>
      </trkpt>
      <trkpt lat="49.15222" lon="1.48241">
        <ele>138.19999694824</ele>
        <time>2021-03-28T08:02:18.000Z</time>
      </trkpt>
      <trkpt lat="49.15226" lon="1.48269">
        <ele>138.39999389648</ele>
        <time>2021-03-28T08:02:22.000Z</time>
      </trkpt>
      <trkpt lat="49.15226" lon="1.48275">
        <ele>138.60000610352</ele>
        <time>2021-03-28T08:02:23.000Z</time>
      </trkpt>
      <trkpt lat="49.15227" lon="1.48299">
        <ele>138.60000610352</ele>
        <time>2021-03-28T08:02:27.000Z</time>
      </trkpt>
      <trkpt lat="49.15221" lon="1.48312">
        <ele>138.60000610352</ele>
        <time>2021-03-28T08:02:30.000Z</time>
      </trkpt>
      <trkpt lat="49.15206" lon="1.48316">
        <ele>138.80000305176</ele>
        <time>2021-03-28T08:02:34.000Z</time>
      </trkpt>
      <trkpt lat="49.15203" lon="1.48316">
        <ele>138.80000305176</ele>
        <time>2021-03-28T08:02:35.000Z</time>
      </trkpt>
      <trkpt lat="49.15186" lon="1.48318">
        <ele>138.80000305176</ele>
        <time>2021-03-28T08:02:41.000Z</time>
      </trkpt>
      <trkpt lat="49.15155" lon="1.48331">
        <ele>138.60000610352</ele>
        <time>2021-03-28T08:02:49.000Z</time>
      </trkpt>
      <trkpt lat="49.15148" lon="1.48338">
        <ele>138.60000610352</ele>
        <time>2021-03-28T08:02:51.000Z</time>
      </trkpt>
      <trkpt lat="49.15133" lon="1.48354">
        <ele>138.60000610352</ele>
        <time>2021-03-28T08:02:55.000Z</time>
      </trkpt>
      <trkpt lat="49.15125" lon="1.48366">
        <ele>139</ele>
        <time>2021-03-28T08:02:58.000Z</time>
      </trkpt>
      <trkpt lat="49.15119" lon="1.48374">
        <ele>139.19999694824</ele>
        <time>2021-03-28T08:03:00.000Z</time>
      </trkpt>
      <trkpt lat="49.15107" lon="1.48393">
        <ele>140</ele>
        <time>2021-03-28T08:03:04.000Z</time>
      </trkpt>
      <trkpt lat="49.15098" lon="1.48408">
        <ele>140</ele>
        <time>2021-03-28T08:03:07.000Z</time>
      </trkpt>
      <trkpt lat="49.15085" lon="1.48435">
        <ele>140.19999694824</ele>
        <time>2021-03-28T08:03:12.000Z</time>
      </trkpt>
      <trkpt lat="49.15077" lon="1.48449">
        <ele>140.19999694824</ele>
        <time>2021-03-28T08:03:15.000Z</time>
      </trkpt>
      <trkpt lat="49.15057" lon="1.48475">
        <ele>140.39999389648</ele>
        <time>2021-03-28T08:03:22.000Z</time>
      </trkpt>
      <trkpt lat="49.15038" lon="1.48481">
        <ele>140.60000610352</ele>
        <time>2021-03-28T08:03:27.000Z</time>
      </trkpt>
      <trkpt lat="49.15022" lon="1.48482">
        <ele>141</ele>
        <time>2021-03-28T08:03:31.000Z</time>
      </trkpt>
      <trkpt lat="49.1501" lon="1.48482">
        <ele>141.19999694824</ele>
        <time>2021-03-28T08:03:34.000Z</time>
      </trkpt>
      <trkpt lat="49.15006" lon="1.48482">
        <ele>141.19999694824</ele>
        <time>2021-03-28T08:03:35.000Z</time>
      </trkpt>
      <trkpt lat="49.14985" lon="1.48485">
        <ele>141.39999389648</ele>
        <time>2021-03-28T08:03:40.000Z</time>
      </trkpt>
      <trkpt lat="49.14949" lon="1.48485">
        <ele>141.39999389648</ele>
        <time>2021-03-28T08:03:48.000Z</time>
      </trkpt>
      <trkpt lat="49.14913" lon="1.48483">
        <ele>141.60000610352</ele>
        <time>2021-03-28T08:03:56.000Z</time>
      </trkpt>
      <trkpt lat="49.14876" lon="1.48481">
        <ele>141.39999389648</ele>
        <time>2021-03-28T08:04:04.000Z</time>
      </trkpt>
      <trkpt lat="49.14833" lon="1.48475">
        <ele>141.19999694824</ele>
        <time>2021-03-28T08:04:13.000Z</time>
      </trkpt>
      <trkpt lat="49.14829" lon="1.48475">
        <ele>141.19999694824</ele>
        <time>2021-03-28T08:04:14.000Z</time>
      </trkpt>
      <trkpt lat="49.14814" lon="1.48474">
        <ele>141.19999694824</ele>
        <time>2021-03-28T08:04:17.000Z</time>
      </trkpt>
      <trkpt lat="49.14786" lon="1.48476">
        <ele>141</ele>
        <time>2021-03-28T08:04:23.000Z</time>
      </trkpt>
      <trkpt lat="49.14767" lon="1.48482">
        <ele>140.80000305176</ele>
        <time>2021-03-28T08:04:27.000Z</time>
      </trkpt>
      <trkpt lat="49.14757" lon="1.48483">
        <ele>140.80000305176</ele>
        <time>2021-03-28T08:04:29.000Z</time>
      </trkpt>
      <trkpt lat="49.14711" lon="1.48497">
        <ele>140.60000610352</ele>
        <time>2021-03-28T08:04:38.000Z</time>
      </trkpt>
      <trkpt lat="49.1468" lon="1.48506">
        <ele>140</ele>
        <time>2021-03-28T08:04:44.000Z</time>
      </trkpt>
      <trkpt lat="49.14665" lon="1.48511">
        <ele>139.60000610352</ele>
        <time>2021-03-28T08:04:47.000Z</time>
      </trkpt>
      <trkpt lat="49.14635" lon="1.48526">
        <ele>138.80000305176</ele>
        <time>2021-03-28T08:04:53.000Z</time>
      </trkpt>
      <trkpt lat="49.14625" lon="1.48532">
        <ele>138.60000610352</ele>
        <time>2021-03-28T08:04:55.000Z</time>
      </trkpt>
      <trkpt lat="49.14591" lon="1.48556">
        <ele>137.60000610352</ele>
        <time>2021-03-28T08:05:02.000Z</time>
      </trkpt>
      <trkpt lat="49.14581" lon="1.48563">
        <ele>137.60000610352</ele>
        <time>2021-03-28T08:05:04.000Z</time>
      </trkpt>
      <trkpt lat="49.14552" lon="1.48583">
        <ele>137</ele>
        <time>2021-03-28T08:05:10.000Z</time>
      </trkpt>
      <trkpt lat="49.14547" lon="1.48587">
        <ele>136.80000305176</ele>
        <time>2021-03-28T08:05:11.000Z</time>
      </trkpt>
      <trkpt lat="49.14543" lon="1.48592">
        <ele>136.60000610352</ele>
        <time>2021-03-28T08:05:12.000Z</time>
      </trkpt>
      <trkpt lat="49.1453" lon="1.48607">
        <ele>136.39999389648</ele>
        <time>2021-03-28T08:05:15.000Z</time>
      </trkpt>
      <trkpt lat="49.14523" lon="1.48618">
        <ele>136.19999694824</ele>
        <time>2021-03-28T08:05:17.000Z</time>
      </trkpt>
      <trkpt lat="49.14513" lon="1.48636">
        <ele>136</ele>
        <time>2021-03-28T08:05:20.000Z</time>
      </trkpt>
      <trkpt lat="49.1451" lon="1.48642">
        <ele>136</ele>
        <time>2021-03-28T08:05:21.000Z</time>
      </trkpt>
      <trkpt lat="49.14489" lon="1.48685">
        <ele>136.39999389648</ele>
        <time>2021-03-28T08:05:28.000Z</time>
      </trkpt>
      <trkpt lat="49.14487" lon="1.48691">
        <ele>136.60000610352</ele>
        <time>2021-03-28T08:05:29.000Z</time>
      </trkpt>
      <trkpt lat="49.14475" lon="1.48714">
        <ele>137.39999389648</ele>
        <time>2021-03-28T08:05:33.000Z</time>
      </trkpt>
      <trkpt lat="49.14472" lon="1.48719">
        <ele>137.60000610352</ele>
        <time>2021-03-28T08:05:34.000Z</time>
      </trkpt>
      <trkpt lat="49.1447" lon="1.48725">
        <ele>137.80000305176</ele>
        <time>2021-03-28T08:05:35.000Z</time>
      </trkpt>
      <trkpt lat="49.14455" lon="1.48752">
        <ele>138.39999389648</ele>
        <time>2021-03-28T08:05:40.000Z</time>
      </trkpt>
      <trkpt lat="49.14446" lon="1.48766">
        <ele>138.39999389648</ele>
        <time>2021-03-28T08:05:43.000Z</time>
      </trkpt>
      <trkpt lat="49.14438" lon="1.48784">
        <ele>138.80000305176</ele>
        <time>2021-03-28T08:05:47.000Z</time>
      </trkpt>
      <trkpt lat="49.14434" lon="1.48793">
        <ele>139</ele>
        <time>2021-03-28T08:05:49.000Z</time>
      </trkpt>
      <trkpt lat="49.14423" lon="1.48818">
        <ele>139.80000305176</ele>
        <time>2021-03-28T08:05:55.000Z</time>
      </trkpt>
      <trkpt lat="49.14425" lon="1.48837">
        <ele>140.19999694824</ele>
        <time>2021-03-28T08:06:00.000Z</time>
      </trkpt>
      <trkpt lat="49.14437" lon="1.48844">
        <ele>140.60000610352</ele>
        <time>2021-03-28T08:06:04.000Z</time>
      </trkpt>
      <trkpt lat="49.14441" lon="1.48846">
        <ele>140.80000305176</ele>
        <time>2021-03-28T08:06:05.000Z</time>
      </trkpt>
      <trkpt lat="49.14444" lon="1.48849">
        <ele>140.80000305176</ele>
        <time>2021-03-28T08:06:06.000Z</time>
      </trkpt>
      <trkpt lat="49.1446" lon="1.48865">
        <ele>141.19999694824</ele>
        <time>2021-03-28T08:06:11.000Z</time>
      </trkpt>
      <trkpt lat="49.14488" lon="1.48898">
        <ele>141.60000610352</ele>
        <time>2021-03-28T08:06:19.000Z</time>
      </trkpt>
      <trkpt lat="49.14514" lon="1.48932">
        <ele>141.80000305176</ele>
        <time>2021-03-28T08:06:26.000Z</time>
      </trkpt>
      <trkpt lat="49.14554" lon="1.48979">
        <ele>142.19999694824</ele>
        <time>2021-03-28T08:06:36.000Z</time>
      </trkpt>
      <trkpt lat="49.14589" lon="1.49021">
        <ele>142.19999694824</ele>
        <time>2021-03-28T08:06:44.000Z</time>
      </trkpt>
      <trkpt lat="49.14623" lon="1.49059">
        <ele>142.19999694824</ele>
        <time>2021-03-28T08:06:51.000Z</time>
      </trkpt>
      <trkpt lat="49.14652" lon="1.49093">
        <ele>142.19999694824</ele>
        <time>2021-03-28T08:06:57.000Z</time>
      </trkpt>
      <trkpt lat="49.14688" lon="1.49135">
        <ele>142.39999389648</ele>
        <time>2021-03-28T08:07:05.000Z</time>
      </trkpt>
      <trkpt lat="49.14735" lon="1.4919">
        <ele>142.80000305176</ele>
        <time>2021-03-28T08:07:15.000Z</time>
      </trkpt>
      <trkpt lat="49.14777" lon="1.49239">
        <ele>143</ele>
        <time>2021-03-28T08:07:24.000Z</time>
      </trkpt>
      <trkpt lat="49.14808" lon="1.49276">
        <ele>143.19999694824</ele>
        <time>2021-03-28T08:07:31.000Z</time>
      </trkpt>
      <trkpt lat="49.14822" lon="1.49292">
        <ele>143.19999694824</ele>
        <time>2021-03-28T08:07:34.000Z</time>
      </trkpt>
      <trkpt lat="49.14864" lon="1.49342">
        <ele>143.80000305176</ele>
        <time>2021-03-28T08:07:44.000Z</time>
      </trkpt>
      <trkpt lat="49.14869" lon="1.49346">
        <ele>143.80000305176</ele>
        <time>2021-03-28T08:07:45.000Z</time>
      </trkpt>
      <trkpt lat="49.14894" lon="1.49375">
        <ele>144.19999694824</ele>
        <time>2021-03-28T08:07:51.000Z</time>
      </trkpt>
      <trkpt lat="49.14907" lon="1.4939">
        <ele>144.39999389648</ele>
        <time>2021-03-28T08:07:54.000Z</time>
      </trkpt>
      <trkpt lat="49.14947" lon="1.49437">
        <ele>144.80000305176</ele>
        <time>2021-03-28T08:08:03.000Z</time>
      </trkpt>
      <trkpt lat="49.14952" lon="1.49442">
        <ele>144.80000305176</ele>
        <time>2021-03-28T08:08:04.000Z</time>
      </trkpt>
      <trkpt lat="49.14993" lon="1.49489">
        <ele>144.80000305176</ele>
        <time>2021-03-28T08:08:13.000Z</time>
      </trkpt>
      <trkpt lat="49.15026" lon="1.49528">
        <ele>144.60000610352</ele>
        <time>2021-03-28T08:08:21.000Z</time>
      </trkpt>
      <trkpt lat="49.15065" lon="1.49574">
        <ele>144.60000610352</ele>
        <time>2021-03-28T08:08:30.000Z</time>
      </trkpt>
      <trkpt lat="49.15096" lon="1.49611">
        <ele>144.80000305176</ele>
        <time>2021-03-28T08:08:38.000Z</time>
      </trkpt>
      <trkpt lat="49.15122" lon="1.49637">
        <ele>145</ele>
        <time>2021-03-28T08:08:45.000Z</time>
      </trkpt>
      <trkpt lat="49.15141" lon="1.4964">
        <ele>145</ele>
        <time>2021-03-28T08:08:50.000Z</time>
      </trkpt>
      <trkpt lat="49.15157" lon="1.49628">
        <ele>145</ele>
        <time>2021-03-28T08:08:55.000Z</time>
      </trkpt>
      <trkpt lat="49.15187" lon="1.49593">
        <ele>143.80000305176</ele>
        <time>2021-03-28T08:09:04.000Z</time>
      </trkpt>
      <trkpt lat="49.15207" lon="1.49569">
        <ele>143.19999694824</ele>
        <time>2021-03-28T08:09:09.000Z</time>
      </trkpt>
      <trkpt lat="49.15214" lon="1.49561">
        <ele>142.60000610352</ele>
        <time>2021-03-28T08:09:11.000Z</time>
      </trkpt>
      <trkpt lat="49.15228" lon="1.49543">
        <ele>141.80000305176</ele>
        <time>2021-03-28T08:09:15.000Z</time>
      </trkpt>
      <trkpt lat="49.15245" lon="1.4952">
        <ele>141.60000610352</ele>
        <time>2021-03-28T08:09:20.000Z</time>
      </trkpt>
      <trkpt lat="49.15266" lon="1.49503">
        <ele>141.60000610352</ele>
        <time>2021-03-28T08:09:26.000Z</time>
      </trkpt>
      <trkpt lat="49.15281" lon="1.49505">
        <ele>142.19999694824</ele>
        <time>2021-03-28T08:09:30.000Z</time>
      </trkpt>
      <trkpt lat="49.15287" lon="1.49513">
        <ele>142.60000610352</ele>
        <time>2021-03-28T08:09:32.000Z</time>
      </trkpt>
      <trkpt lat="49.15296" lon="1.49524">
        <ele>143.80000305176</ele>
        <time>2021-03-28T08:09:35.000Z</time>
      </trkpt>
      <trkpt lat="49.15302" lon="1.49531">
        <ele>144.19999694824</ele>
        <time>2021-03-28T08:09:37.000Z</time>
      </trkpt>
      <trkpt lat="49.15314" lon="1.49546">
        <ele>144.80000305176</ele>
        <time>2021-03-28T08:09:41.000Z</time>
      </trkpt>
      <trkpt lat="49.15323" lon="1.49558">
        <ele>145.19999694824</ele>
        <time>2021-03-28T08:09:44.000Z</time>
      </trkpt>
      <trkpt lat="49.15335" lon="1.49573">
        <ele>145.80000305176</ele>
        <time>2021-03-28T08:09:48.000Z</time>
      </trkpt>
      <trkpt lat="49.1535" lon="1.49593">
        <ele>146.19999694824</ele>
        <time>2021-03-28T08:09:53.000Z</time>
      </trkpt>
      <trkpt lat="49.15359" lon="1.49604">
        <ele>146.80000305176</ele>
        <time>2021-03-28T08:09:56.000Z</time>
      </trkpt>
      <trkpt lat="49.15367" lon="1.49611">
        <ele>147.19999694824</ele>
        <time>2021-03-28T08:09:59.000Z</time>
      </trkpt>
      <trkpt lat="49.15372" lon="1.496">
        <ele>147.60000610352</ele>
        <time>2021-03-28T08:10:02.000Z</time>
      </trkpt>
      <trkpt lat="49.15376" lon="1.49593">
        <ele>147.80000305176</ele>
        <time>2021-03-28T08:10:04.000Z</time>
      </trkpt>
      <trkpt lat="49.15378" lon="1.49589">
        <ele>147.80000305176</ele>
        <time>2021-03-28T08:10:05.000Z</time>
      </trkpt>
      <trkpt lat="49.15387" lon="1.49574">
        <ele>148</ele>
        <time>2021-03-28T08:10:09.000Z</time>
      </trkpt>
      <trkpt lat="49.15411" lon="1.49532">
        <ele>149</ele>
        <time>2021-03-28T08:10:18.000Z</time>
      </trkpt>
      <trkpt lat="49.15417" lon="1.49523">
        <ele>149.19999694824</ele>
        <time>2021-03-28T08:10:20.000Z</time>
      </trkpt>
      <trkpt lat="49.15429" lon="1.49503">
        <ele>149.19999694824</ele>
        <time>2021-03-28T08:10:24.000Z</time>
      </trkpt>
      <trkpt lat="49.1545" lon="1.49468">
        <ele>149.19999694824</ele>
        <time>2021-03-28T08:10:31.000Z</time>
      </trkpt>
      <trkpt lat="49.15469" lon="1.49433">
        <ele>149.19999694824</ele>
        <time>2021-03-28T08:10:37.000Z</time>
      </trkpt>
      <trkpt lat="49.15497" lon="1.49386">
        <ele>148.60000610352</ele>
        <time>2021-03-28T08:10:45.000Z</time>
      </trkpt>
      <trkpt lat="49.15522" lon="1.49345">
        <ele>148.39999389648</ele>
        <time>2021-03-28T08:10:52.000Z</time>
      </trkpt>
      <trkpt lat="49.15537" lon="1.49321">
        <ele>147.80000305176</ele>
        <time>2021-03-28T08:10:56.000Z</time>
      </trkpt>
      <trkpt lat="49.15555" lon="1.4929">
        <ele>147</ele>
        <time>2021-03-28T08:11:01.000Z</time>
      </trkpt>
      <trkpt lat="49.15562" lon="1.49279">
        <ele>146.60000610352</ele>
        <time>2021-03-28T08:11:03.000Z</time>
      </trkpt>
      <trkpt lat="49.15569" lon="1.49267">
        <ele>146.39999389648</ele>
        <time>2021-03-28T08:11:05.000Z</time>
      </trkpt>
      <trkpt lat="49.15576" lon="1.49255">
        <ele>146</ele>
        <time>2021-03-28T08:11:07.000Z</time>
      </trkpt>
      <trkpt lat="49.15593" lon="1.49237">
        <ele>145.60000610352</ele>
        <time>2021-03-28T08:11:11.000Z</time>
      </trkpt>
      <trkpt lat="49.15598" lon="1.49234">
        <ele>145.60000610352</ele>
        <time>2021-03-28T08:11:12.000Z</time>
      </trkpt>
      <trkpt lat="49.15613" lon="1.49226">
        <ele>145.19999694824</ele>
        <time>2021-03-28T08:11:15.000Z</time>
      </trkpt>
      <trkpt lat="49.15623" lon="1.49217">
        <ele>144.80000305176</ele>
        <time>2021-03-28T08:11:17.000Z</time>
      </trkpt>
      <trkpt lat="49.15631" lon="1.49204">
        <ele>144.39999389648</ele>
        <time>2021-03-28T08:11:19.000Z</time>
      </trkpt>
      <trkpt lat="49.15636" lon="1.49198">
        <ele>144.19999694824</ele>
        <time>2021-03-28T08:11:20.000Z</time>
      </trkpt>
      <trkpt lat="49.1564" lon="1.49194">
        <ele>144.19999694824</ele>
        <time>2021-03-28T08:11:21.000Z</time>
      </trkpt>
      <trkpt lat="49.15653" lon="1.49199">
        <ele>143.39999389648</ele>
        <time>2021-03-28T08:11:24.000Z</time>
      </trkpt>
      <trkpt lat="49.15655" lon="1.49205">
        <ele>143</ele>
        <time>2021-03-28T08:11:25.000Z</time>
      </trkpt>
      <trkpt lat="49.15662" lon="1.49222">
        <ele>140.80000305176</ele>
        <time>2021-03-28T08:11:28.000Z</time>
      </trkpt>
      <trkpt lat="49.15665" lon="1.49227">
        <ele>140.60000610352</ele>
        <time>2021-03-28T08:11:29.000Z</time>
      </trkpt>
      <trkpt lat="49.15685" lon="1.49271">
        <ele>140</ele>
        <time>2021-03-28T08:11:36.000Z</time>
      </trkpt>
      <trkpt lat="49.1571" lon="1.49331">
        <ele>140</ele>
        <time>2021-03-28T08:11:45.000Z</time>
      </trkpt>
      <trkpt lat="49.15738" lon="1.49398">
        <ele>141.19999694824</ele>
        <time>2021-03-28T08:11:55.000Z</time>
      </trkpt>
      <trkpt lat="49.15753" lon="1.49436">
        <ele>141.80000305176</ele>
        <time>2021-03-28T08:12:01.000Z</time>
      </trkpt>
      <trkpt lat="49.15759" lon="1.49448">
        <ele>142</ele>
        <time>2021-03-28T08:12:03.000Z</time>
      </trkpt>
      <trkpt lat="49.15783" lon="1.495">
        <ele>142.39999389648</ele>
        <time>2021-03-28T08:12:12.000Z</time>
      </trkpt>
      <trkpt lat="49.1579" lon="1.49518">
        <ele>143</ele>
        <time>2021-03-28T08:12:15.000Z</time>
      </trkpt>
      <trkpt lat="49.15806" lon="1.49555">
        <ele>144</ele>
        <time>2021-03-28T08:12:21.000Z</time>
      </trkpt>
      <trkpt lat="49.15812" lon="1.49567">
        <ele>144.19999694824</ele>
        <time>2021-03-28T08:12:23.000Z</time>
      </trkpt>
      <trkpt lat="49.1583" lon="1.49612">
        <ele>145</ele>
        <time>2021-03-28T08:12:30.000Z</time>
      </trkpt>
      <trkpt lat="49.15833" lon="1.49619">
        <ele>145.19999694824</ele>
        <time>2021-03-28T08:12:31.000Z</time>
      </trkpt>
      <trkpt lat="49.15857" lon="1.49676">
        <ele>145.60000610352</ele>
        <time>2021-03-28T08:12:40.000Z</time>
      </trkpt>
      <trkpt lat="49.15882" lon="1.49735">
        <ele>146</ele>
        <time>2021-03-28T08:12:49.000Z</time>
      </trkpt>
      <trkpt lat="49.15911" lon="1.498">
        <ele>145.80000305176</ele>
        <time>2021-03-28T08:12:59.000Z</time>
      </trkpt>
      <trkpt lat="49.15934" lon="1.49855">
        <ele>145.19999694824</ele>
        <time>2021-03-28T08:13:07.000Z</time>
      </trkpt>
      <trkpt lat="49.15957" lon="1.4991">
        <ele>144.60000610352</ele>
        <time>2021-03-28T08:13:15.000Z</time>
      </trkpt>
      <trkpt lat="49.15975" lon="1.49955">
        <ele>144</ele>
        <time>2021-03-28T08:13:21.000Z</time>
      </trkpt>
      <trkpt lat="49.15978" lon="1.49964">
        <ele>143.80000305176</ele>
        <time>2021-03-28T08:13:22.000Z</time>
      </trkpt>
      <trkpt lat="49.16002" lon="1.50019">
        <ele>143.19999694824</ele>
        <time>2021-03-28T08:13:29.000Z</time>
      </trkpt>
      <trkpt lat="49.16012" lon="1.50042">
        <ele>143</ele>
        <time>2021-03-28T08:13:32.000Z</time>
      </trkpt>
      <trkpt lat="49.16035" lon="1.50094">
        <ele>142.60000610352</ele>
        <time>2021-03-28T08:13:39.000Z</time>
      </trkpt>
      <trkpt lat="49.1606" lon="1.50154">
        <ele>143.39999389648</ele>
        <time>2021-03-28T08:13:47.000Z</time>
      </trkpt>
      <trkpt lat="49.16067" lon="1.50168">
        <ele>144</ele>
        <time>2021-03-28T08:13:49.000Z</time>
      </trkpt>
      <trkpt lat="49.1607" lon="1.50176">
        <ele>144</ele>
        <time>2021-03-28T08:13:50.000Z</time>
      </trkpt>
      <trkpt lat="49.16077" lon="1.5019">
        <ele>144.39999389648</ele>
        <time>2021-03-28T08:13:52.000Z</time>
      </trkpt>
      <trkpt lat="49.161" lon="1.50242">
        <ele>145</ele>
        <time>2021-03-28T08:13:59.000Z</time>
      </trkpt>
      <trkpt lat="49.16106" lon="1.50258">
        <ele>145</ele>
        <time>2021-03-28T08:14:01.000Z</time>
      </trkpt>
      <trkpt lat="49.16128" lon="1.50309">
        <ele>145</ele>
        <time>2021-03-28T08:14:08.000Z</time>
      </trkpt>
      <trkpt lat="49.16158" lon="1.50378">
        <ele>144</ele>
        <time>2021-03-28T08:14:17.000Z</time>
      </trkpt>
      <trkpt lat="49.16178" lon="1.50421">
        <ele>143.19999694824</ele>
        <time>2021-03-28T08:14:22.000Z</time>
      </trkpt>
      <trkpt lat="49.16182" lon="1.5043">
        <ele>143</ele>
        <time>2021-03-28T08:14:23.000Z</time>
      </trkpt>
      <trkpt lat="49.16193" lon="1.50456">
        <ele>142</ele>
        <time>2021-03-28T08:14:26.000Z</time>
      </trkpt>
      <trkpt lat="49.16201" lon="1.50472">
        <ele>141.19999694824</ele>
        <time>2021-03-28T08:14:28.000Z</time>
      </trkpt>
      <trkpt lat="49.16205" lon="1.50481">
        <ele>140.60000610352</ele>
        <time>2021-03-28T08:14:29.000Z</time>
      </trkpt>
      <trkpt lat="49.16227" lon="1.50533">
        <ele>139.60000610352</ele>
        <time>2021-03-28T08:14:35.000Z</time>
      </trkpt>
      <trkpt lat="49.1623" lon="1.50541">
        <ele>139.39999389648</ele>
        <time>2021-03-28T08:14:36.000Z</time>
      </trkpt>
      <trkpt lat="49.16251" lon="1.50588">
        <ele>139</ele>
        <time>2021-03-28T08:14:42.000Z</time>
      </trkpt>
      <trkpt lat="49.16266" lon="1.50624">
        <ele>139.19999694824</ele>
        <time>2021-03-28T08:14:48.000Z</time>
      </trkpt>
      <trkpt lat="49.16274" lon="1.50646">
        <ele>140.60000610352</ele>
        <time>2021-03-28T08:14:52.000Z</time>
      </trkpt>
      <trkpt lat="49.16277" lon="1.50658">
        <ele>141.39999389648</ele>
        <time>2021-03-28T08:14:54.000Z</time>
      </trkpt>
      <trkpt lat="49.16281" lon="1.50669">
        <ele>142</ele>
        <time>2021-03-28T08:14:56.000Z</time>
      </trkpt>
      <trkpt lat="49.16283" lon="1.50674">
        <ele>142.19999694824</ele>
        <time>2021-03-28T08:14:57.000Z</time>
      </trkpt>
      <trkpt lat="49.1629" lon="1.50692">
        <ele>143</ele>
        <time>2021-03-28T08:15:00.000Z</time>
      </trkpt>
      <trkpt lat="49.16305" lon="1.50732">
        <ele>143.80000305176</ele>
        <time>2021-03-28T08:15:07.000Z</time>
      </trkpt>
      <trkpt lat="49.16306" lon="1.50736">
        <ele>143.80000305176</ele>
        <time>2021-03-28T08:15:10.000Z</time>
      </trkpt>
      <trkpt lat="49.16306" lon="1.50737">
        <ele>144.19999694824</ele>
        <time>2021-03-28T08:15:18.000Z</time>
      </trkpt>
      <trkpt lat="49.16306" lon="1.50737">
        <ele>144.19999694824</ele>
        <time>2021-03-28T08:15:20.000Z</time>
      </trkpt>
      <trkpt lat="49.16307" lon="1.50737">
        <ele>142.60000610352</ele>
        <time>2021-03-28T08:29:05.000Z</time>
      </trkpt>
      <trkpt lat="49.16313" lon="1.50749">
        <ele>142.60000610352</ele>
        <time>2021-03-28T08:29:09.000Z</time>
      </trkpt>
      <trkpt lat="49.16324" lon="1.50771">
        <ele>142.39999389648</ele>
        <time>2021-03-28T08:29:15.000Z</time>
      </trkpt>
      <trkpt lat="49.1634" lon="1.50807">
        <ele>142.39999389648</ele>
        <time>2021-03-28T08:29:23.000Z</time>
      </trkpt>
      <trkpt lat="49.16358" lon="1.50851">
        <ele>143</ele>
        <time>2021-03-28T08:29:32.000Z</time>
      </trkpt>
      <trkpt lat="49.16365" lon="1.50866">
        <ele>143.19999694824</ele>
        <time>2021-03-28T08:29:35.000Z</time>
      </trkpt>
      <trkpt lat="49.16374" lon="1.50887">
        <ele>143.39999389648</ele>
        <time>2021-03-28T08:29:39.000Z</time>
      </trkpt>
      <trkpt lat="49.16385" lon="1.50914">
        <ele>143.80000305176</ele>
        <time>2021-03-28T08:29:44.000Z</time>
      </trkpt>
      <trkpt lat="49.1639" lon="1.50925">
        <ele>143.80000305176</ele>
        <time>2021-03-28T08:29:46.000Z</time>
      </trkpt>
      <trkpt lat="49.16405" lon="1.50959">
        <ele>144.39999389648</ele>
        <time>2021-03-28T08:29:53.000Z</time>
      </trkpt>
      <trkpt lat="49.16414" lon="1.5098">
        <ele>144.80000305176</ele>
        <time>2021-03-28T08:29:57.000Z</time>
      </trkpt>
      <trkpt lat="49.16427" lon="1.51006">
        <ele>145.19999694824</ele>
        <time>2021-03-28T08:30:02.000Z</time>
      </trkpt>
      <trkpt lat="49.1645" lon="1.51046">
        <ele>145.39999389648</ele>
        <time>2021-03-28T08:30:10.000Z</time>
      </trkpt>
      <trkpt lat="49.16472" lon="1.51082">
        <ele>145.19999694824</ele>
        <time>2021-03-28T08:30:17.000Z</time>
      </trkpt>
      <trkpt lat="49.16478" lon="1.51093">
        <ele>145.19999694824</ele>
        <time>2021-03-28T08:30:19.000Z</time>
      </trkpt>
      <trkpt lat="49.16488" lon="1.51111">
        <ele>145</ele>
        <time>2021-03-28T08:30:22.000Z</time>
      </trkpt>
      <trkpt lat="49.16491" lon="1.51117">
        <ele>145</ele>
        <time>2021-03-28T08:30:23.000Z</time>
      </trkpt>
      <trkpt lat="49.16508" lon="1.51148">
        <ele>144.80000305176</ele>
        <time>2021-03-28T08:30:28.000Z</time>
      </trkpt>
      <trkpt lat="49.16515" lon="1.5116">
        <ele>144.80000305176</ele>
        <time>2021-03-28T08:30:30.000Z</time>
      </trkpt>
      <trkpt lat="49.16541" lon="1.5122">
        <ele>144.80000305176</ele>
        <time>2021-03-28T08:30:39.000Z</time>
      </trkpt>
      <trkpt lat="49.16561" lon="1.51272">
        <ele>145.39999389648</ele>
        <time>2021-03-28T08:30:47.000Z</time>
      </trkpt>
      <trkpt lat="49.16583" lon="1.51314">
        <ele>145.80000305176</ele>
        <time>2021-03-28T08:30:54.000Z</time>
      </trkpt>
      <trkpt lat="49.16585" lon="1.5132">
        <ele>145.80000305176</ele>
        <time>2021-03-28T08:30:55.000Z</time>
      </trkpt>
      <trkpt lat="49.16609" lon="1.51378">
        <ele>146</ele>
        <time>2021-03-28T08:31:04.000Z</time>
      </trkpt>
      <trkpt lat="49.16637" lon="1.5144">
        <ele>146.19999694824</ele>
        <time>2021-03-28T08:31:14.000Z</time>
      </trkpt>
      <trkpt lat="49.16661" lon="1.51478">
        <ele>146.39999389648</ele>
        <time>2021-03-28T08:31:21.000Z</time>
      </trkpt>
      <trkpt lat="49.16691" lon="1.51517">
        <ele>146.60000610352</ele>
        <time>2021-03-28T08:31:29.000Z</time>
      </trkpt>
      <trkpt lat="49.16724" lon="1.51553">
        <ele>146.39999389648</ele>
        <time>2021-03-28T08:31:37.000Z</time>
      </trkpt>
      <trkpt lat="49.16754" lon="1.51564">
        <ele>146.39999389648</ele>
        <time>2021-03-28T08:31:43.000Z</time>
      </trkpt>
      <trkpt lat="49.16801" lon="1.5158">
        <ele>146</ele>
        <time>2021-03-28T08:31:52.000Z</time>
      </trkpt>
      <trkpt lat="49.16826" lon="1.51588">
        <ele>145.60000610352</ele>
        <time>2021-03-28T08:31:57.000Z</time>
      </trkpt>
      <trkpt lat="49.16836" lon="1.51592">
        <ele>145.39999389648</ele>
        <time>2021-03-28T08:31:59.000Z</time>
      </trkpt>
      <trkpt lat="49.1687" lon="1.51604">
        <ele>145</ele>
        <time>2021-03-28T08:32:06.000Z</time>
      </trkpt>
      <trkpt lat="49.16909" lon="1.51614">
        <ele>145.19999694824</ele>
        <time>2021-03-28T08:32:14.000Z</time>
      </trkpt>
      <trkpt lat="49.16948" lon="1.51626">
        <ele>145.60000610352</ele>
        <time>2021-03-28T08:32:22.000Z</time>
      </trkpt>
      <trkpt lat="49.16982" lon="1.51629">
        <ele>146.19999694824</ele>
        <time>2021-03-28T08:32:29.000Z</time>
      </trkpt>
      <trkpt lat="49.17017" lon="1.51627">
        <ele>146.80000305176</ele>
        <time>2021-03-28T08:32:36.000Z</time>
      </trkpt>
      <trkpt lat="49.17022" lon="1.51627">
        <ele>146.80000305176</ele>
        <time>2021-03-28T08:32:37.000Z</time>
      </trkpt>
      <trkpt lat="49.17057" lon="1.51628">
        <ele>147</ele>
        <time>2021-03-28T08:32:44.000Z</time>
      </trkpt>
      <trkpt lat="49.17097" lon="1.51625">
        <ele>147</ele>
        <time>2021-03-28T08:32:52.000Z</time>
      </trkpt>
      <trkpt lat="49.17139" lon="1.51604">
        <ele>147</ele>
        <time>2021-03-28T08:33:01.000Z</time>
      </trkpt>
      <trkpt lat="49.17173" lon="1.5159">
        <ele>147.39999389648</ele>
        <time>2021-03-28T08:33:09.000Z</time>
      </trkpt>
      <trkpt lat="49.17185" lon="1.516">
        <ele>147.39999389648</ele>
        <time>2021-03-28T08:33:12.000Z</time>
      </trkpt>
      <trkpt lat="49.17191" lon="1.51629">
        <ele>147.60000610352</ele>
        <time>2021-03-28T08:33:16.000Z</time>
      </trkpt>
      <trkpt lat="49.17192" lon="1.51644">
        <ele>147.60000610352</ele>
        <time>2021-03-28T08:33:18.000Z</time>
      </trkpt>
      <trkpt lat="49.17195" lon="1.51688">
        <ele>148.19999694824</ele>
        <time>2021-03-28T08:33:24.000Z</time>
      </trkpt>
      <trkpt lat="49.17197" lon="1.51745">
        <ele>148.60000610352</ele>
        <time>2021-03-28T08:33:32.000Z</time>
      </trkpt>
      <trkpt lat="49.17198" lon="1.51767">
        <ele>148.80000305176</ele>
        <time>2021-03-28T08:33:35.000Z</time>
      </trkpt>
      <trkpt lat="49.172" lon="1.51803">
        <ele>149.39999389648</ele>
        <time>2021-03-28T08:33:40.000Z</time>
      </trkpt>
      <trkpt lat="49.17202" lon="1.51847">
        <ele>150</ele>
        <time>2021-03-28T08:33:46.000Z</time>
      </trkpt>
      <trkpt lat="49.17203" lon="1.51867">
        <ele>150</ele>
        <time>2021-03-28T08:33:49.000Z</time>
      </trkpt>
      <trkpt lat="49.17209" lon="1.51898">
        <ele>150.19999694824</ele>
        <time>2021-03-28T08:33:54.000Z</time>
      </trkpt>
      <trkpt lat="49.17213" lon="1.51908">
        <ele>150.60000610352</ele>
        <time>2021-03-28T08:33:56.000Z</time>
      </trkpt>
      <trkpt lat="49.17229" lon="1.51935">
        <ele>150.80000305176</ele>
        <time>2021-03-28T08:34:02.000Z</time>
      </trkpt>
      <trkpt lat="49.17233" lon="1.51939">
        <ele>150.80000305176</ele>
        <time>2021-03-28T08:34:03.000Z</time>
      </trkpt>
      <trkpt lat="49.17246" lon="1.51947">
        <ele>150.80000305176</ele>
        <time>2021-03-28T08:34:06.000Z</time>
      </trkpt>
      <trkpt lat="49.17251" lon="1.5195">
        <ele>151.19999694824</ele>
        <time>2021-03-28T08:34:07.000Z</time>
      </trkpt>
      <trkpt lat="49.17288" lon="1.51972">
        <ele>151.39999389648</ele>
        <time>2021-03-28T08:34:15.000Z</time>
      </trkpt>
      <trkpt lat="49.17319" lon="1.51992">
        <ele>152.19999694824</ele>
        <time>2021-03-28T08:34:22.000Z</time>
      </trkpt>
      <trkpt lat="49.17342" lon="1.52007">
        <ele>153.19999694824</ele>
        <time>2021-03-28T08:34:27.000Z</time>
      </trkpt>
      <trkpt lat="49.17375" lon="1.52027">
        <ele>154</ele>
        <time>2021-03-28T08:34:34.000Z</time>
      </trkpt>
      <trkpt lat="49.17393" lon="1.52038">
        <ele>154</ele>
        <time>2021-03-28T08:34:38.000Z</time>
      </trkpt>
      <trkpt lat="49.17416" lon="1.52053">
        <ele>154.60000610352</ele>
        <time>2021-03-28T08:34:43.000Z</time>
      </trkpt>
      <trkpt lat="49.17469" lon="1.52087">
        <ele>155.19999694824</ele>
        <time>2021-03-28T08:34:54.000Z</time>
      </trkpt>
      <trkpt lat="49.17474" lon="1.5209">
        <ele>155.19999694824</ele>
        <time>2021-03-28T08:34:55.000Z</time>
      </trkpt>
      <trkpt lat="49.17523" lon="1.52121">
        <ele>155.80000305176</ele>
        <time>2021-03-28T08:35:05.000Z</time>
      </trkpt>
      <trkpt lat="49.17562" lon="1.52146">
        <ele>155.80000305176</ele>
        <time>2021-03-28T08:35:13.000Z</time>
      </trkpt>
      <trkpt lat="49.17601" lon="1.52173">
        <ele>156</ele>
        <time>2021-03-28T08:35:21.000Z</time>
      </trkpt>
      <trkpt lat="49.17615" lon="1.52188">
        <ele>156</ele>
        <time>2021-03-28T08:35:24.000Z</time>
      </trkpt>
      <trkpt lat="49.17627" lon="1.52207">
        <ele>156</ele>
        <time>2021-03-28T08:35:27.000Z</time>
      </trkpt>
      <trkpt lat="49.17654" lon="1.52254">
        <ele>155.39999389648</ele>
        <time>2021-03-28T08:35:34.000Z</time>
      </trkpt>
      <trkpt lat="49.17688" lon="1.52318">
        <ele>154.60000610352</ele>
        <time>2021-03-28T08:35:43.000Z</time>
      </trkpt>
      <trkpt lat="49.17692" lon="1.52325">
        <ele>154.60000610352</ele>
        <time>2021-03-28T08:35:44.000Z</time>
      </trkpt>
      <trkpt lat="49.17707" lon="1.52355">
        <ele>154</ele>
        <time>2021-03-28T08:35:48.000Z</time>
      </trkpt>
      <trkpt lat="49.17722" lon="1.52385">
        <ele>153.19999694824</ele>
        <time>2021-03-28T08:35:52.000Z</time>
      </trkpt>
      <trkpt lat="49.17729" lon="1.524">
        <ele>152.80000305176</ele>
        <time>2021-03-28T08:35:54.000Z</time>
      </trkpt>
      <trkpt lat="49.17754" lon="1.52455">
        <ele>152.19999694824</ele>
        <time>2021-03-28T08:36:01.000Z</time>
      </trkpt>
      <trkpt lat="49.17761" lon="1.5247">
        <ele>152</ele>
        <time>2021-03-28T08:36:03.000Z</time>
      </trkpt>
      <trkpt lat="49.17776" lon="1.52501">
        <ele>151.39999389648</ele>
        <time>2021-03-28T08:36:07.000Z</time>
      </trkpt>
      <trkpt lat="49.17808" lon="1.52563">
        <ele>150.80000305176</ele>
        <time>2021-03-28T08:36:15.000Z</time>
      </trkpt>
      <trkpt lat="49.17813" lon="1.5257">
        <ele>150.80000305176</ele>
        <time>2021-03-28T08:36:16.000Z</time>
      </trkpt>
      <trkpt lat="49.17839" lon="1.52617">
        <ele>150</ele>
        <time>2021-03-28T08:36:22.000Z</time>
      </trkpt>
      <trkpt lat="49.17858" lon="1.52646">
        <ele>150</ele>
        <time>2021-03-28T08:36:26.000Z</time>
      </trkpt>
      <trkpt lat="49.17868" lon="1.52657">
        <ele>149.60000610352</ele>
        <time>2021-03-28T08:36:28.000Z</time>
      </trkpt>
      <trkpt lat="49.17874" lon="1.52663">
        <ele>149.60000610352</ele>
        <time>2021-03-28T08:36:29.000Z</time>
      </trkpt>
      <trkpt lat="49.17914" lon="1.52697">
        <ele>148.80000305176</ele>
        <time>2021-03-28T08:36:36.000Z</time>
      </trkpt>
      <trkpt lat="49.1792" lon="1.52702">
        <ele>148.80000305176</ele>
        <time>2021-03-28T08:36:37.000Z</time>
      </trkpt>
      <trkpt lat="49.17967" lon="1.52741">
        <ele>148</ele>
        <time>2021-03-28T08:36:45.000Z</time>
      </trkpt>
      <trkpt lat="49.18002" lon="1.52771">
        <ele>147.39999389648</ele>
        <time>2021-03-28T08:36:51.000Z</time>
      </trkpt>
      <trkpt lat="49.18051" lon="1.52812">
        <ele>147</ele>
        <time>2021-03-28T08:36:59.000Z</time>
      </trkpt>
      <trkpt lat="49.18063" lon="1.52823">
        <ele>146.80000305176</ele>
        <time>2021-03-28T08:37:01.000Z</time>
      </trkpt>
      <trkpt lat="49.18088" lon="1.52844">
        <ele>146.60000610352</ele>
        <time>2021-03-28T08:37:05.000Z</time>
      </trkpt>
      <trkpt lat="49.18131" lon="1.5288">
        <ele>146.19999694824</ele>
        <time>2021-03-28T08:37:12.000Z</time>
      </trkpt>
      <trkpt lat="49.18179" lon="1.52921">
        <ele>146</ele>
        <time>2021-03-28T08:37:20.000Z</time>
      </trkpt>
      <trkpt lat="49.18197" lon="1.52936">
        <ele>146</ele>
        <time>2021-03-28T08:37:23.000Z</time>
      </trkpt>
      <trkpt lat="49.18231" lon="1.52966">
        <ele>145.60000610352</ele>
        <time>2021-03-28T08:37:29.000Z</time>
      </trkpt>
      <trkpt lat="49.18243" lon="1.52976">
        <ele>145.39999389648</ele>
        <time>2021-03-28T08:37:31.000Z</time>
      </trkpt>
      <trkpt lat="49.18288" lon="1.53007">
        <ele>145</ele>
        <time>2021-03-28T08:37:39.000Z</time>
      </trkpt>
      <trkpt lat="49.18333" lon="1.53021">
        <ele>145.60000610352</ele>
        <time>2021-03-28T08:37:47.000Z</time>
      </trkpt>
      <trkpt lat="49.18368" lon="1.53027">
        <ele>146.60000610352</ele>
        <time>2021-03-28T08:37:53.000Z</time>
      </trkpt>
      <trkpt lat="49.18379" lon="1.53029">
        <ele>146.80000305176</ele>
        <time>2021-03-28T08:37:55.000Z</time>
      </trkpt>
      <trkpt lat="49.18407" lon="1.53037">
        <ele>147.39999389648</ele>
        <time>2021-03-28T08:38:01.000Z</time>
      </trkpt>
      <trkpt lat="49.18411" lon="1.53039">
        <ele>147.39999389648</ele>
        <time>2021-03-28T08:38:02.000Z</time>
      </trkpt>
      <trkpt lat="49.1842" lon="1.53056">
        <ele>148.19999694824</ele>
        <time>2021-03-28T08:38:06.000Z</time>
      </trkpt>
      <trkpt lat="49.18421" lon="1.53076">
        <ele>148.60000610352</ele>
        <time>2021-03-28T08:38:09.000Z</time>
      </trkpt>
      <trkpt lat="49.18421" lon="1.53083">
        <ele>148.60000610352</ele>
        <time>2021-03-28T08:38:10.000Z</time>
      </trkpt>
      <trkpt lat="49.1842" lon="1.53091">
        <ele>148.80000305176</ele>
        <time>2021-03-28T08:38:11.000Z</time>
      </trkpt>
      <trkpt lat="49.18416" lon="1.53152">
        <ele>148.80000305176</ele>
        <time>2021-03-28T08:38:19.000Z</time>
      </trkpt>
      <trkpt lat="49.18414" lon="1.53211">
        <ele>149.19999694824</ele>
        <time>2021-03-28T08:38:27.000Z</time>
      </trkpt>
      <trkpt lat="49.18414" lon="1.53226">
        <ele>149.19999694824</ele>
        <time>2021-03-28T08:38:29.000Z</time>
      </trkpt>
      <trkpt lat="49.18417" lon="1.53255">
        <ele>149.19999694824</ele>
        <time>2021-03-28T08:38:33.000Z</time>
      </trkpt>
      <trkpt lat="49.18419" lon="1.53262">
        <ele>149.19999694824</ele>
        <time>2021-03-28T08:38:34.000Z</time>
      </trkpt>
      <trkpt lat="49.18428" lon="1.53289">
        <ele>148.80000305176</ele>
        <time>2021-03-28T08:38:38.000Z</time>
      </trkpt>
      <trkpt lat="49.18438" lon="1.53313">
        <ele>148.80000305176</ele>
        <time>2021-03-28T08:38:43.000Z</time>
      </trkpt>
      <trkpt lat="49.18439" lon="1.53315">
        <ele>148.80000305176</ele>
        <time>2021-03-28T08:38:46.000Z</time>
      </trkpt>
      <trkpt lat="49.1844" lon="1.53318">
        <ele>148.80000305176</ele>
        <time>2021-03-28T08:38:48.000Z</time>
      </trkpt>
      <trkpt lat="49.18443" lon="1.53325">
        <ele>148.80000305176</ele>
        <time>2021-03-28T08:38:53.000Z</time>
      </trkpt>
      <trkpt lat="49.18444" lon="1.53325">
        <ele>149.19999694824</ele>
        <time>2021-03-28T08:39:12.000Z</time>
      </trkpt>
      <trkpt lat="49.18449" lon="1.53338">
        <ele>149.19999694824</ele>
        <time>2021-03-28T08:39:16.000Z</time>
      </trkpt>
      <trkpt lat="49.18458" lon="1.53366">
        <ele>149.19999694824</ele>
        <time>2021-03-28T08:39:20.000Z</time>
      </trkpt>
      <trkpt lat="49.18462" lon="1.53385">
        <ele>149.19999694824</ele>
        <time>2021-03-28T08:39:22.000Z</time>
      </trkpt>
      <trkpt lat="49.18466" lon="1.53406">
        <ele>149.19999694824</ele>
        <time>2021-03-28T08:39:24.000Z</time>
      </trkpt>
      <trkpt lat="49.18473" lon="1.53466">
        <ele>148.19999694824</ele>
        <time>2021-03-28T08:39:29.000Z</time>
      </trkpt>
      <trkpt lat="49.18477" lon="1.53521">
        <ele>147.39999389648</ele>
        <time>2021-03-28T08:39:33.000Z</time>
      </trkpt>
      <trkpt lat="49.1848" lon="1.5356">
        <ele>146.80000305176</ele>
        <time>2021-03-28T08:39:36.000Z</time>
      </trkpt>
      <trkpt lat="49.18481" lon="1.53573">
        <ele>146.19999694824</ele>
        <time>2021-03-28T08:39:37.000Z</time>
      </trkpt>
      <trkpt lat="49.18484" lon="1.53609">
        <ele>144.39999389648</ele>
        <time>2021-03-28T08:39:40.000Z</time>
      </trkpt>
      <trkpt lat="49.18485" lon="1.53634">
        <ele>144.19999694824</ele>
        <time>2021-03-28T08:39:42.000Z</time>
      </trkpt>
      <trkpt lat="49.18489" lon="1.53721">
        <ele>143.80000305176</ele>
        <time>2021-03-28T08:39:49.000Z</time>
      </trkpt>
      <trkpt lat="49.18496" lon="1.53778">
        <ele>143.60000610352</ele>
        <time>2021-03-28T08:39:54.000Z</time>
      </trkpt>
      <trkpt lat="49.185" lon="1.53799">
        <ele>143.60000610352</ele>
        <time>2021-03-28T08:39:56.000Z</time>
      </trkpt>
      <trkpt lat="49.18501" lon="1.5382">
        <ele>143.60000610352</ele>
        <time>2021-03-28T08:39:58.000Z</time>
      </trkpt>
      <trkpt lat="49.185" lon="1.5383">
        <ele>143.39999389648</ele>
        <time>2021-03-28T08:39:59.000Z</time>
      </trkpt>
      <trkpt lat="49.185" lon="1.53859">
        <ele>143</ele>
        <time>2021-03-28T08:40:02.000Z</time>
      </trkpt>
      <trkpt lat="49.18498" lon="1.53887">
        <ele>143</ele>
        <time>2021-03-28T08:40:05.000Z</time>
      </trkpt>
      <trkpt lat="49.18497" lon="1.53896">
        <ele>143</ele>
        <time>2021-03-28T08:40:06.000Z</time>
      </trkpt>
      <trkpt lat="49.18495" lon="1.53913">
        <ele>143</ele>
        <time>2021-03-28T08:40:08.000Z</time>
      </trkpt>
      <trkpt lat="49.18494" lon="1.5393">
        <ele>142.80000305176</ele>
        <time>2021-03-28T08:40:10.000Z</time>
      </trkpt>
      <trkpt lat="49.18492" lon="1.53946">
        <ele>142.80000305176</ele>
        <time>2021-03-28T08:40:12.000Z</time>
      </trkpt>
      <trkpt lat="49.18487" lon="1.53968">
        <ele>142.39999389648</ele>
        <time>2021-03-28T08:40:15.000Z</time>
      </trkpt>
      <trkpt lat="49.18487" lon="1.53975">
        <ele>142.39999389648</ele>
        <time>2021-03-28T08:40:16.000Z</time>
      </trkpt>
      <trkpt lat="49.18485" lon="1.54029">
        <ele>142.39999389648</ele>
        <time>2021-03-28T08:40:23.000Z</time>
      </trkpt>
      <trkpt lat="49.18488" lon="1.54089">
        <ele>142.80000305176</ele>
        <time>2021-03-28T08:40:30.000Z</time>
      </trkpt>
      <trkpt lat="49.18487" lon="1.54123">
        <ele>142.39999389648</ele>
        <time>2021-03-28T08:40:34.000Z</time>
      </trkpt>
      <trkpt lat="49.18489" lon="1.54197">
        <ele>142.80000305176</ele>
        <time>2021-03-28T08:40:43.000Z</time>
      </trkpt>
      <trkpt lat="49.18482" lon="1.54264">
        <ele>142.39999389648</ele>
        <time>2021-03-28T08:40:51.000Z</time>
      </trkpt>
      <trkpt lat="49.18471" lon="1.54305">
        <ele>142.39999389648</ele>
        <time>2021-03-28T08:40:56.000Z</time>
      </trkpt>
      <trkpt lat="49.1846" lon="1.54347">
        <ele>142</ele>
        <time>2021-03-28T08:41:01.000Z</time>
      </trkpt>
      <trkpt lat="49.1846" lon="1.54381">
        <ele>141.60000610352</ele>
        <time>2021-03-28T08:41:05.000Z</time>
      </trkpt>
      <trkpt lat="49.18461" lon="1.5439">
        <ele>141.60000610352</ele>
        <time>2021-03-28T08:41:06.000Z</time>
      </trkpt>
      <trkpt lat="49.18469" lon="1.5445">
        <ele>141.60000610352</ele>
        <time>2021-03-28T08:41:13.000Z</time>
      </trkpt>
      <trkpt lat="49.18477" lon="1.54507">
        <ele>142</ele>
        <time>2021-03-28T08:41:20.000Z</time>
      </trkpt>
      <trkpt lat="49.18481" lon="1.54531">
        <ele>142</ele>
        <time>2021-03-28T08:41:23.000Z</time>
      </trkpt>
      <trkpt lat="49.18486" lon="1.54545">
        <ele>142.19999694824</ele>
        <time>2021-03-28T08:41:25.000Z</time>
      </trkpt>
      <trkpt lat="49.18503" lon="1.54594">
        <ele>142</ele>
        <time>2021-03-28T08:41:32.000Z</time>
      </trkpt>
      <trkpt lat="49.18514" lon="1.54631">
        <ele>141.80000305176</ele>
        <time>2021-03-28T08:41:37.000Z</time>
      </trkpt>
      <trkpt lat="49.18519" lon="1.54647">
        <ele>141.80000305176</ele>
        <time>2021-03-28T08:41:39.000Z</time>
      </trkpt>
      <trkpt lat="49.18543" lon="1.54721">
        <ele>142.39999389648</ele>
        <time>2021-03-28T08:41:49.000Z</time>
      </trkpt>
      <trkpt lat="49.18559" lon="1.54773">
        <ele>143.39999389648</ele>
        <time>2021-03-28T08:41:56.000Z</time>
      </trkpt>
      <trkpt lat="49.18563" lon="1.54787">
        <ele>143.39999389648</ele>
        <time>2021-03-28T08:41:58.000Z</time>
      </trkpt>
      <trkpt lat="49.18579" lon="1.54837">
        <ele>144.39999389648</ele>
        <time>2021-03-28T08:42:06.000Z</time>
      </trkpt>
      <trkpt lat="49.18579" lon="1.54841">
        <ele>144.60000610352</ele>
        <time>2021-03-28T08:42:07.000Z</time>
      </trkpt>
      <trkpt lat="49.18576" lon="1.54847">
        <ele>145</ele>
        <time>2021-03-28T08:42:09.000Z</time>
      </trkpt>
      <trkpt lat="49.18568" lon="1.54852">
        <ele>145.60000610352</ele>
        <time>2021-03-28T08:42:12.000Z</time>
      </trkpt>
      <trkpt lat="49.18558" lon="1.54858">
        <ele>145.60000610352</ele>
        <time>2021-03-28T08:42:15.000Z</time>
      </trkpt>
      <trkpt lat="49.18535" lon="1.5487">
        <ele>145.60000610352</ele>
        <time>2021-03-28T08:42:20.000Z</time>
      </trkpt>
      <trkpt lat="49.18489" lon="1.54897">
        <ele>144.60000610352</ele>
        <time>2021-03-28T08:42:28.000Z</time>
      </trkpt>
      <trkpt lat="49.18483" lon="1.54901">
        <ele>144.39999389648</ele>
        <time>2021-03-28T08:42:29.000Z</time>
      </trkpt>
      <trkpt lat="49.18463" lon="1.54911">
        <ele>143.19999694824</ele>
        <time>2021-03-28T08:42:32.000Z</time>
      </trkpt>
      <trkpt lat="49.18457" lon="1.54915">
        <ele>142.80000305176</ele>
        <time>2021-03-28T08:42:33.000Z</time>
      </trkpt>
      <trkpt lat="49.1843" lon="1.54929">
        <ele>141.80000305176</ele>
        <time>2021-03-28T08:42:37.000Z</time>
      </trkpt>
      <trkpt lat="49.18415" lon="1.54937">
        <ele>140.80000305176</ele>
        <time>2021-03-28T08:42:39.000Z</time>
      </trkpt>
      <trkpt lat="49.18407" lon="1.5494">
        <ele>140.19999694824</ele>
        <time>2021-03-28T08:42:40.000Z</time>
      </trkpt>
      <trkpt lat="49.18393" lon="1.54948">
        <ele>139.19999694824</ele>
        <time>2021-03-28T08:42:42.000Z</time>
      </trkpt>
      <trkpt lat="49.18377" lon="1.54957">
        <ele>138</ele>
        <time>2021-03-28T08:42:44.000Z</time>
      </trkpt>
      <trkpt lat="49.18353" lon="1.54972">
        <ele>137</ele>
        <time>2021-03-28T08:42:47.000Z</time>
      </trkpt>
      <trkpt lat="49.18331" lon="1.54987">
        <ele>136.19999694824</ele>
        <time>2021-03-28T08:42:50.000Z</time>
      </trkpt>
      <trkpt lat="49.18325" lon="1.54991">
        <ele>135.80000305176</ele>
        <time>2021-03-28T08:42:51.000Z</time>
      </trkpt>
      <trkpt lat="49.18297" lon="1.55005">
        <ele>134.60000610352</ele>
        <time>2021-03-28T08:42:55.000Z</time>
      </trkpt>
      <trkpt lat="49.18289" lon="1.55009">
        <ele>134.19999694824</ele>
        <time>2021-03-28T08:42:56.000Z</time>
      </trkpt>
      <trkpt lat="49.18263" lon="1.55011">
        <ele>133.19999694824</ele>
        <time>2021-03-28T08:42:59.000Z</time>
      </trkpt>
      <trkpt lat="49.18255" lon="1.55009">
        <ele>133.19999694824</ele>
        <time>2021-03-28T08:43:00.000Z</time>
      </trkpt>
      <trkpt lat="49.18247" lon="1.55007">
        <ele>133</ele>
        <time>2021-03-28T08:43:01.000Z</time>
      </trkpt>
      <trkpt lat="49.18215" lon="1.55">
        <ele>132.19999694824</ele>
        <time>2021-03-28T08:43:05.000Z</time>
      </trkpt>
      <trkpt lat="49.18208" lon="1.54999">
        <ele>131.80000305176</ele>
        <time>2021-03-28T08:43:06.000Z</time>
      </trkpt>
      <trkpt lat="49.18188" lon="1.54993">
        <ele>131</ele>
        <time>2021-03-28T08:43:09.000Z</time>
      </trkpt>
      <trkpt lat="49.18163" lon="1.54986">
        <ele>130.39999389648</ele>
        <time>2021-03-28T08:43:13.000Z</time>
      </trkpt>
      <trkpt lat="49.18139" lon="1.5498">
        <ele>129.80000305176</ele>
        <time>2021-03-28T08:43:17.000Z</time>
      </trkpt>
      <trkpt lat="49.18131" lon="1.54978">
        <ele>129.60000610352</ele>
        <time>2021-03-28T08:43:19.000Z</time>
      </trkpt>
      <trkpt lat="49.18129" lon="1.54977">
        <ele>129.39999389648</ele>
        <time>2021-03-28T08:43:21.000Z</time>
      </trkpt>
      <trkpt lat="49.18129" lon="1.54978">
        <ele>129.39999389648</ele>
        <time>2021-03-28T08:43:25.000Z</time>
      </trkpt>
      <trkpt lat="49.18117" lon="1.54975">
        <ele>129.80000305176</ele>
        <time>2021-03-28T08:43:30.000Z</time>
      </trkpt>
      <trkpt lat="49.18085" lon="1.54966">
        <ele>130</ele>
        <time>2021-03-28T08:43:37.000Z</time>
      </trkpt>
      <trkpt lat="49.18045" lon="1.54954">
        <ele>130</ele>
        <time>2021-03-28T08:43:45.000Z</time>
      </trkpt>
      <trkpt lat="49.18011" lon="1.54944">
        <ele>130.19999694824</ele>
        <time>2021-03-28T08:43:51.000Z</time>
      </trkpt>
      <trkpt lat="49.17998" lon="1.54942">
        <ele>130.19999694824</ele>
        <time>2021-03-28T08:43:53.000Z</time>
      </trkpt>
      <trkpt lat="49.1794" lon="1.54923">
        <ele>129.19999694824</ele>
        <time>2021-03-28T08:44:02.000Z</time>
      </trkpt>
      <trkpt lat="49.17927" lon="1.54919">
        <ele>128.60000610352</ele>
        <time>2021-03-28T08:44:04.000Z</time>
      </trkpt>
      <trkpt lat="49.17884" lon="1.54906">
        <ele>127.80000305176</ele>
        <time>2021-03-28T08:44:11.000Z</time>
      </trkpt>
      <trkpt lat="49.1785" lon="1.54895">
        <ele>128</ele>
        <time>2021-03-28T08:44:18.000Z</time>
      </trkpt>
      <trkpt lat="49.17812" lon="1.54882">
        <ele>129.60000610352</ele>
        <time>2021-03-28T08:44:27.000Z</time>
      </trkpt>
      <trkpt lat="49.17787" lon="1.54873">
        <ele>130.80000305176</ele>
        <time>2021-03-28T08:44:33.000Z</time>
      </trkpt>
      <trkpt lat="49.17776" lon="1.54869">
        <ele>131.39999389648</ele>
        <time>2021-03-28T08:44:36.000Z</time>
      </trkpt>
      <trkpt lat="49.17759" lon="1.54863">
        <ele>131.80000305176</ele>
        <time>2021-03-28T08:44:41.000Z</time>
      </trkpt>
      <trkpt lat="49.17755" lon="1.54865">
        <ele>131.80000305176</ele>
        <time>2021-03-28T08:44:42.000Z</time>
      </trkpt>
      <trkpt lat="49.17748" lon="1.54878">
        <ele>132</ele>
        <time>2021-03-28T08:44:45.000Z</time>
      </trkpt>
      <trkpt lat="49.17746" lon="1.54884">
        <ele>132.19999694824</ele>
        <time>2021-03-28T08:44:46.000Z</time>
      </trkpt>
      <trkpt lat="49.17737" lon="1.54914">
        <ele>132.80000305176</ele>
        <time>2021-03-28T08:44:51.000Z</time>
      </trkpt>
      <trkpt lat="49.17736" lon="1.5492">
        <ele>132.80000305176</ele>
        <time>2021-03-28T08:44:52.000Z</time>
      </trkpt>
      <trkpt lat="49.17724" lon="1.54956">
        <ele>133</ele>
        <time>2021-03-28T08:44:59.000Z</time>
      </trkpt>
      <trkpt lat="49.17707" lon="1.55001">
        <ele>132.80000305176</ele>
        <time>2021-03-28T08:45:07.000Z</time>
      </trkpt>
      <trkpt lat="49.17692" lon="1.55037">
        <ele>132.80000305176</ele>
        <time>2021-03-28T08:45:14.000Z</time>
      </trkpt>
      <trkpt lat="49.17672" lon="1.55085">
        <ele>133.19999694824</ele>
        <time>2021-03-28T08:45:22.000Z</time>
      </trkpt>
      <trkpt lat="49.17654" lon="1.5513">
        <ele>133</ele>
        <time>2021-03-28T08:45:29.000Z</time>
      </trkpt>
      <trkpt lat="49.17651" lon="1.55136">
        <ele>132.80000305176</ele>
        <time>2021-03-28T08:45:30.000Z</time>
      </trkpt>
      <trkpt lat="49.17624" lon="1.55188">
        <ele>132.39999389648</ele>
        <time>2021-03-28T08:45:38.000Z</time>
      </trkpt>
      <trkpt lat="49.17594" lon="1.55241">
        <ele>131.80000305176</ele>
        <time>2021-03-28T08:45:46.000Z</time>
      </trkpt>
      <trkpt lat="49.17559" lon="1.55302">
        <ele>130.80000305176</ele>
        <time>2021-03-28T08:45:55.000Z</time>
      </trkpt>
      <trkpt lat="49.17555" lon="1.55309">
        <ele>130.80000305176</ele>
        <time>2021-03-28T08:45:56.000Z</time>
      </trkpt>
      <trkpt lat="49.17527" lon="1.55358">
        <ele>130.19999694824</ele>
        <time>2021-03-28T08:46:03.000Z</time>
      </trkpt>
      <trkpt lat="49.17505" lon="1.55399">
        <ele>129.80000305176</ele>
        <time>2021-03-28T08:46:09.000Z</time>
      </trkpt>
      <trkpt lat="49.17495" lon="1.55421">
        <ele>129.60000610352</ele>
        <time>2021-03-28T08:46:12.000Z</time>
      </trkpt>
      <trkpt lat="49.17468" lon="1.55483">
        <ele>129.19999694824</ele>
        <time>2021-03-28T08:46:20.000Z</time>
      </trkpt>
      <trkpt lat="49.17448" lon="1.55531">
        <ele>128.60000610352</ele>
        <time>2021-03-28T08:46:26.000Z</time>
      </trkpt>
      <trkpt lat="49.17442" lon="1.55546">
        <ele>128.19999694824</ele>
        <time>2021-03-28T08:46:28.000Z</time>
      </trkpt>
      <trkpt lat="49.17412" lon="1.55619">
        <ele>127.80000305176</ele>
        <time>2021-03-28T08:46:37.000Z</time>
      </trkpt>
      <trkpt lat="49.17387" lon="1.55685">
        <ele>127.59999847412</ele>
        <time>2021-03-28T08:46:45.000Z</time>
      </trkpt>
      <trkpt lat="49.17383" lon="1.55694">
        <ele>127.59999847412</ele>
        <time>2021-03-28T08:46:46.000Z</time>
      </trkpt>
      <trkpt lat="49.17359" lon="1.55764">
        <ele>127</ele>
        <time>2021-03-28T08:46:54.000Z</time>
      </trkpt>
      <trkpt lat="49.17351" lon="1.5579">
        <ele>126.40000152588</ele>
        <time>2021-03-28T08:46:57.000Z</time>
      </trkpt>
      <trkpt lat="49.17332" lon="1.55848">
        <ele>125.59999847412</ele>
        <time>2021-03-28T08:47:04.000Z</time>
      </trkpt>
      <trkpt lat="49.17327" lon="1.55864">
        <ele>125.40000152588</ele>
        <time>2021-03-28T08:47:06.000Z</time>
      </trkpt>
      <trkpt lat="49.17311" lon="1.55915">
        <ele>125.40000152588</ele>
        <time>2021-03-28T08:47:13.000Z</time>
      </trkpt>
      <trkpt lat="49.17303" lon="1.55951">
        <ele>125.59999847412</ele>
        <time>2021-03-28T08:47:19.000Z</time>
      </trkpt>
      <trkpt lat="49.1731" lon="1.55975">
        <ele>125.80000305176</ele>
        <time>2021-03-28T08:47:23.000Z</time>
      </trkpt>
      <trkpt lat="49.17317" lon="1.5599">
        <ele>125.80000305176</ele>
        <time>2021-03-28T08:47:26.000Z</time>
      </trkpt>
      <trkpt lat="49.17323" lon="1.56">
        <ele>125.80000305176</ele>
        <time>2021-03-28T08:47:28.000Z</time>
      </trkpt>
      <trkpt lat="49.1733" lon="1.56008">
        <ele>125.80000305176</ele>
        <time>2021-03-28T08:47:30.000Z</time>
      </trkpt>
      <trkpt lat="49.17345" lon="1.56026">
        <ele>126</ele>
        <time>2021-03-28T08:47:34.000Z</time>
      </trkpt>
      <trkpt lat="49.1738" lon="1.56066">
        <ele>126.40000152588</ele>
        <time>2021-03-28T08:47:43.000Z</time>
      </trkpt>
      <trkpt lat="49.17391" lon="1.56078">
        <ele>126.40000152588</ele>
        <time>2021-03-28T08:47:46.000Z</time>
      </trkpt>
      <trkpt lat="49.17401" lon="1.5609">
        <ele>126.59999847412</ele>
        <time>2021-03-28T08:47:49.000Z</time>
      </trkpt>
      <trkpt lat="49.17411" lon="1.56104">
        <ele>126.80000305176</ele>
        <time>2021-03-28T08:47:52.000Z</time>
      </trkpt>
      <trkpt lat="49.17435" lon="1.56135">
        <ele>127.19999694824</ele>
        <time>2021-03-28T08:47:59.000Z</time>
      </trkpt>
      <trkpt lat="49.17442" lon="1.56143">
        <ele>127.19999694824</ele>
        <time>2021-03-28T08:48:01.000Z</time>
      </trkpt>
      <trkpt lat="49.17441" lon="1.56155">
        <ele>127.19999694824</ele>
        <time>2021-03-28T08:48:03.000Z</time>
      </trkpt>
      <trkpt lat="49.17429" lon="1.5618">
        <ele>127.40000152588</ele>
        <time>2021-03-28T08:48:07.000Z</time>
      </trkpt>
      <trkpt lat="49.17426" lon="1.56188">
        <ele>127.40000152588</ele>
        <time>2021-03-28T08:48:08.000Z</time>
      </trkpt>
      <trkpt lat="49.17407" lon="1.56228">
        <ele>127</ele>
        <time>2021-03-28T08:48:14.000Z</time>
      </trkpt>
      <trkpt lat="49.17379" lon="1.56283">
        <ele>126.59999847412</ele>
        <time>2021-03-28T08:48:22.000Z</time>
      </trkpt>
      <trkpt lat="49.17345" lon="1.56352">
        <ele>126</ele>
        <time>2021-03-28T08:48:32.000Z</time>
      </trkpt>
      <trkpt lat="49.17338" lon="1.56365">
        <ele>126</ele>
        <time>2021-03-28T08:48:34.000Z</time>
      </trkpt>
      <trkpt lat="49.17311" lon="1.56418">
        <ele>125.80000305176</ele>
        <time>2021-03-28T08:48:42.000Z</time>
      </trkpt>
      <trkpt lat="49.17294" lon="1.56452">
        <ele>125.40000152588</ele>
        <time>2021-03-28T08:48:47.000Z</time>
      </trkpt>
      <trkpt lat="49.17282" lon="1.56479">
        <ele>125.19999694824</ele>
        <time>2021-03-28T08:48:51.000Z</time>
      </trkpt>
      <trkpt lat="49.17246" lon="1.56549">
        <ele>125</ele>
        <time>2021-03-28T08:49:02.000Z</time>
      </trkpt>
      <trkpt lat="49.17219" lon="1.56605">
        <ele>124.80000305176</ele>
        <time>2021-03-28T08:49:11.000Z</time>
      </trkpt>
      <trkpt lat="49.17206" lon="1.56636">
        <ele>125</ele>
        <time>2021-03-28T08:49:17.000Z</time>
      </trkpt>
      <trkpt lat="49.17213" lon="1.56646">
        <ele>125</ele>
        <time>2021-03-28T08:49:20.000Z</time>
      </trkpt>
      <trkpt lat="49.17215" lon="1.56649">
        <ele>125</ele>
        <time>2021-03-28T08:49:21.000Z</time>
      </trkpt>
      <trkpt lat="49.17233" lon="1.56669">
        <ele>125.19999694824</ele>
        <time>2021-03-28T08:49:28.000Z</time>
      </trkpt>
      <trkpt lat="49.17241" lon="1.5668">
        <ele>125.19999694824</ele>
        <time>2021-03-28T08:49:33.000Z</time>
      </trkpt>
      <trkpt lat="49.17255" lon="1.56694">
        <ele>125.19999694824</ele>
        <time>2021-03-28T08:49:39.000Z</time>
      </trkpt>
      <trkpt lat="49.17283" lon="1.56726">
        <ele>125.19999694824</ele>
        <time>2021-03-28T08:49:48.000Z</time>
      </trkpt>
      <trkpt lat="49.17317" lon="1.56765">
        <ele>124.80000305176</ele>
        <time>2021-03-28T08:49:57.000Z</time>
      </trkpt>
      <trkpt lat="49.17348" lon="1.56802">
        <ele>124.40000152588</ele>
        <time>2021-03-28T08:50:05.000Z</time>
      </trkpt>
      <trkpt lat="49.17352" lon="1.56807">
        <ele>124.40000152588</ele>
        <time>2021-03-28T08:50:06.000Z</time>
      </trkpt>
      <trkpt lat="49.17382" lon="1.5684">
        <ele>123.40000152588</ele>
        <time>2021-03-28T08:50:13.000Z</time>
      </trkpt>
      <trkpt lat="49.17386" lon="1.56845">
        <ele>123.19999694824</ele>
        <time>2021-03-28T08:50:14.000Z</time>
      </trkpt>
      <trkpt lat="49.17422" lon="1.56888">
        <ele>122.40000152588</ele>
        <time>2021-03-28T08:50:23.000Z</time>
      </trkpt>
      <trkpt lat="49.17435" lon="1.56903">
        <ele>122.40000152588</ele>
        <time>2021-03-28T08:50:26.000Z</time>
      </trkpt>
      <trkpt lat="49.17458" lon="1.56931">
        <ele>122.19999694824</ele>
        <time>2021-03-28T08:50:31.000Z</time>
      </trkpt>
      <trkpt lat="49.17492" lon="1.56971">
        <ele>121</ele>
        <time>2021-03-28T08:50:38.000Z</time>
      </trkpt>
      <trkpt lat="49.17497" lon="1.56977">
        <ele>120.59999847412</ele>
        <time>2021-03-28T08:50:39.000Z</time>
      </trkpt>
      <trkpt lat="49.17515" lon="1.57">
        <ele>120</ele>
        <time>2021-03-28T08:50:43.000Z</time>
      </trkpt>
      <trkpt lat="49.17533" lon="1.57023">
        <ele>119.40000152588</ele>
        <time>2021-03-28T08:50:47.000Z</time>
      </trkpt>
      <trkpt lat="49.17552" lon="1.57043">
        <ele>118.80000305176</ele>
        <time>2021-03-28T08:50:51.000Z</time>
      </trkpt>
      <trkpt lat="49.17556" lon="1.57048">
        <ele>118.59999847412</ele>
        <time>2021-03-28T08:50:52.000Z</time>
      </trkpt>
      <trkpt lat="49.1757" lon="1.57064">
        <ele>118.40000152588</ele>
        <time>2021-03-28T08:50:55.000Z</time>
      </trkpt>
      <trkpt lat="49.17608" lon="1.57109">
        <ele>117.80000305176</ele>
        <time>2021-03-28T08:51:03.000Z</time>
      </trkpt>
      <trkpt lat="49.17621" lon="1.57126">
        <ele>117.80000305176</ele>
        <time>2021-03-28T08:51:06.000Z</time>
      </trkpt>
      <trkpt lat="49.17639" lon="1.57149">
        <ele>117.40000152588</ele>
        <time>2021-03-28T08:51:10.000Z</time>
      </trkpt>
      <trkpt lat="49.17668" lon="1.57183">
        <ele>117</ele>
        <time>2021-03-28T08:51:16.000Z</time>
      </trkpt>
      <trkpt lat="49.17688" lon="1.57207">
        <ele>116.59999847412</ele>
        <time>2021-03-28T08:51:20.000Z</time>
      </trkpt>
      <trkpt lat="49.17702" lon="1.57224">
        <ele>116.40000152588</ele>
        <time>2021-03-28T08:51:23.000Z</time>
      </trkpt>
      <trkpt lat="49.17728" lon="1.57255">
        <ele>116</ele>
        <time>2021-03-28T08:51:29.000Z</time>
      </trkpt>
      <trkpt lat="49.1773" lon="1.57261">
        <ele>115.80000305176</ele>
        <time>2021-03-28T08:51:30.000Z</time>
      </trkpt>
      <trkpt lat="49.17729" lon="1.57267">
        <ele>115.40000152588</ele>
        <time>2021-03-28T08:51:31.000Z</time>
      </trkpt>
      <trkpt lat="49.17727" lon="1.57272">
        <ele>115.19999694824</ele>
        <time>2021-03-28T08:51:32.000Z</time>
      </trkpt>
      <trkpt lat="49.17713" lon="1.5729">
        <ele>114.59999847412</ele>
        <time>2021-03-28T08:51:36.000Z</time>
      </trkpt>
      <trkpt lat="49.17688" lon="1.57325">
        <ele>114.40000152588</ele>
        <time>2021-03-28T08:51:43.000Z</time>
      </trkpt>
      <trkpt lat="49.17685" lon="1.5733">
        <ele>114.19999694824</ele>
        <time>2021-03-28T08:51:44.000Z</time>
      </trkpt>
      <trkpt lat="49.17645" lon="1.57388">
        <ele>113.80000305176</ele>
        <time>2021-03-28T08:51:54.000Z</time>
      </trkpt>
      <trkpt lat="49.17621" lon="1.57426">
        <ele>113.19999694824</ele>
        <time>2021-03-28T08:52:00.000Z</time>
      </trkpt>
      <trkpt lat="49.17614" lon="1.57439">
        <ele>113.19999694824</ele>
        <time>2021-03-28T08:52:02.000Z</time>
      </trkpt>
      <trkpt lat="49.17582" lon="1.57497">
        <ele>113</ele>
        <time>2021-03-28T08:52:11.000Z</time>
      </trkpt>
      <trkpt lat="49.17561" lon="1.57534">
        <ele>112.80000305176</ele>
        <time>2021-03-28T08:52:17.000Z</time>
      </trkpt>
      <trkpt lat="49.17537" lon="1.57581">
        <ele>112.59999847412</ele>
        <time>2021-03-28T08:52:24.000Z</time>
      </trkpt>
      <trkpt lat="49.1753" lon="1.57597">
        <ele>112.19999694824</ele>
        <time>2021-03-28T08:52:26.000Z</time>
      </trkpt>
      <trkpt lat="49.17514" lon="1.57646">
        <ele>111.19999694824</ele>
        <time>2021-03-28T08:52:32.000Z</time>
      </trkpt>
      <trkpt lat="49.17498" lon="1.57698">
        <ele>110.19999694824</ele>
        <time>2021-03-28T08:52:38.000Z</time>
      </trkpt>
      <trkpt lat="49.17493" lon="1.57715">
        <ele>109.80000305176</ele>
        <time>2021-03-28T08:52:40.000Z</time>
      </trkpt>
      <trkpt lat="49.17488" lon="1.57732">
        <ele>109.40000152588</ele>
        <time>2021-03-28T08:52:42.000Z</time>
      </trkpt>
      <trkpt lat="49.17488" lon="1.5775">
        <ele>109</ele>
        <time>2021-03-28T08:52:44.000Z</time>
      </trkpt>
      <trkpt lat="49.175" lon="1.57771">
        <ele>108.19999694824</ele>
        <time>2021-03-28T08:52:47.000Z</time>
      </trkpt>
      <trkpt lat="49.17505" lon="1.57777">
        <ele>108</ele>
        <time>2021-03-28T08:52:48.000Z</time>
      </trkpt>
      <trkpt lat="49.17511" lon="1.57783">
        <ele>107.80000305176</ele>
        <time>2021-03-28T08:52:49.000Z</time>
      </trkpt>
      <trkpt lat="49.17533" lon="1.57806">
        <ele>107.40000152588</ele>
        <time>2021-03-28T08:52:53.000Z</time>
      </trkpt>
      <trkpt lat="49.17564" lon="1.57848">
        <ele>107.19999694824</ele>
        <time>2021-03-28T08:52:59.000Z</time>
      </trkpt>
      <trkpt lat="49.17579" lon="1.57871">
        <ele>106.80000305176</ele>
        <time>2021-03-28T08:53:02.000Z</time>
      </trkpt>
      <trkpt lat="49.17605" lon="1.57909">
        <ele>106.40000152588</ele>
        <time>2021-03-28T08:53:07.000Z</time>
      </trkpt>
      <trkpt lat="49.17644" lon="1.57967">
        <ele>106</ele>
        <time>2021-03-28T08:53:15.000Z</time>
      </trkpt>
      <trkpt lat="49.17654" lon="1.57982">
        <ele>106</ele>
        <time>2021-03-28T08:53:17.000Z</time>
      </trkpt>
      <trkpt lat="49.17673" lon="1.5801">
        <ele>105.80000305176</ele>
        <time>2021-03-28T08:53:21.000Z</time>
      </trkpt>
      <trkpt lat="49.17692" lon="1.58039">
        <ele>105.40000152588</ele>
        <time>2021-03-28T08:53:25.000Z</time>
      </trkpt>
      <trkpt lat="49.17723" lon="1.58089">
        <ele>104.80000305176</ele>
        <time>2021-03-28T08:53:32.000Z</time>
      </trkpt>
      <trkpt lat="49.17731" lon="1.58104">
        <ele>104.80000305176</ele>
        <time>2021-03-28T08:53:34.000Z</time>
      </trkpt>
      <trkpt lat="49.17746" lon="1.58134">
        <ele>104.40000152588</ele>
        <time>2021-03-28T08:53:38.000Z</time>
      </trkpt>
      <trkpt lat="49.17773" lon="1.5819">
        <ele>103.59999847412</ele>
        <time>2021-03-28T08:53:45.000Z</time>
      </trkpt>
      <trkpt lat="49.17777" lon="1.58198">
        <ele>103.59999847412</ele>
        <time>2021-03-28T08:53:46.000Z</time>
      </trkpt>
      <trkpt lat="49.17802" lon="1.58256">
        <ele>103.19999694824</ele>
        <time>2021-03-28T08:53:53.000Z</time>
      </trkpt>
      <trkpt lat="49.17815" lon="1.58293">
        <ele>102.59999847412</ele>
        <time>2021-03-28T08:53:57.000Z</time>
      </trkpt>
      <trkpt lat="49.1783" lon="1.58336">
        <ele>101.80000305176</ele>
        <time>2021-03-28T08:54:02.000Z</time>
      </trkpt>
      <trkpt lat="49.17833" lon="1.58344">
        <ele>101.59999847412</ele>
        <time>2021-03-28T08:54:03.000Z</time>
      </trkpt>
      <trkpt lat="49.17852" lon="1.58397">
        <ele>100.59999847412</ele>
        <time>2021-03-28T08:54:09.000Z</time>
      </trkpt>
      <trkpt lat="49.17855" lon="1.58407">
        <ele>100.40000152588</ele>
        <time>2021-03-28T08:54:10.000Z</time>
      </trkpt>
      <trkpt lat="49.1788" lon="1.58474">
        <ele>99.400001525879</ele>
        <time>2021-03-28T08:54:17.000Z</time>
      </trkpt>
      <trkpt lat="49.17884" lon="1.58483">
        <ele>99.199996948242</ele>
        <time>2021-03-28T08:54:18.000Z</time>
      </trkpt>
      <trkpt lat="49.17902" lon="1.58519">
        <ele>98.400001525879</ele>
        <time>2021-03-28T08:54:22.000Z</time>
      </trkpt>
      <trkpt lat="49.1792" lon="1.58555">
        <ele>97.599998474121</ele>
        <time>2021-03-28T08:54:26.000Z</time>
      </trkpt>
      <trkpt lat="49.17925" lon="1.58563">
        <ele>97.199996948242</ele>
        <time>2021-03-28T08:54:27.000Z</time>
      </trkpt>
      <trkpt lat="49.17961" lon="1.5863">
        <ele>96.400001525879</ele>
        <time>2021-03-28T08:54:35.000Z</time>
      </trkpt>
      <trkpt lat="49.17969" lon="1.58646">
        <ele>96.199996948242</ele>
        <time>2021-03-28T08:54:37.000Z</time>
      </trkpt>
      <trkpt lat="49.1799" lon="1.5869">
        <ele>95.400001525879</ele>
        <time>2021-03-28T08:54:43.000Z</time>
      </trkpt>
      <trkpt lat="49.17997" lon="1.5871">
        <ele>95.199996948242</ele>
        <time>2021-03-28T08:54:46.000Z</time>
      </trkpt>
      <trkpt lat="49.18" lon="1.58723">
        <ele>95</ele>
        <time>2021-03-28T08:54:48.000Z</time>
      </trkpt>
      <trkpt lat="49.17999" lon="1.58751">
        <ele>95</ele>
        <time>2021-03-28T08:54:53.000Z</time>
      </trkpt>
      <trkpt lat="49.17993" lon="1.58774">
        <ele>96.400001525879</ele>
        <time>2021-03-28T08:54:57.000Z</time>
      </trkpt>
      <trkpt lat="49.17989" lon="1.58787">
        <ele>96.800003051758</ele>
        <time>2021-03-28T08:54:59.000Z</time>
      </trkpt>
      <trkpt lat="49.1799" lon="1.58818">
        <ele>97.199996948242</ele>
        <time>2021-03-28T08:55:03.000Z</time>
      </trkpt>
      <trkpt lat="49.17991" lon="1.58825">
        <ele>97.199996948242</ele>
        <time>2021-03-28T08:55:04.000Z</time>
      </trkpt>
      <trkpt lat="49.17998" lon="1.58852">
        <ele>97.400001525879</ele>
        <time>2021-03-28T08:55:08.000Z</time>
      </trkpt>
      <trkpt lat="49.18004" lon="1.58872">
        <ele>97.599998474121</ele>
        <time>2021-03-28T08:55:11.000Z</time>
      </trkpt>
      <trkpt lat="49.18022" lon="1.58935">
        <ele>98</ele>
        <time>2021-03-28T08:55:20.000Z</time>
      </trkpt>
      <trkpt lat="49.18028" lon="1.58956">
        <ele>98.400001525879</ele>
        <time>2021-03-28T08:55:23.000Z</time>
      </trkpt>
      <trkpt lat="49.1804" lon="1.58992">
        <ele>99</ele>
        <time>2021-03-28T08:55:28.000Z</time>
      </trkpt>
      <trkpt lat="49.18045" lon="1.59035">
        <ele>99.199996948242</ele>
        <time>2021-03-28T08:55:34.000Z</time>
      </trkpt>
      <trkpt lat="49.18048" lon="1.59073">
        <ele>99.400001525879</ele>
        <time>2021-03-28T08:55:39.000Z</time>
      </trkpt>
      <trkpt lat="49.18052" lon="1.59111">
        <ele>99.599998474121</ele>
        <time>2021-03-28T08:55:44.000Z</time>
      </trkpt>
      <trkpt lat="49.18055" lon="1.59126">
        <ele>99.599998474121</ele>
        <time>2021-03-28T08:55:46.000Z</time>
      </trkpt>
      <trkpt lat="49.18063" lon="1.59146">
        <ele>99.800003051758</ele>
        <time>2021-03-28T08:55:49.000Z</time>
      </trkpt>
      <trkpt lat="49.18075" lon="1.59161">
        <ele>100</ele>
        <time>2021-03-28T08:55:52.000Z</time>
      </trkpt>
      <trkpt lat="49.18088" lon="1.59176">
        <ele>100.40000152588</ele>
        <time>2021-03-28T08:55:55.000Z</time>
      </trkpt>
      <trkpt lat="49.18096" lon="1.59186">
        <ele>100.59999847412</ele>
        <time>2021-03-28T08:55:57.000Z</time>
      </trkpt>
      <trkpt lat="49.18112" lon="1.59204">
        <ele>101</ele>
        <time>2021-03-28T08:56:01.000Z</time>
      </trkpt>
      <trkpt lat="49.1814" lon="1.59237">
        <ele>101</ele>
        <time>2021-03-28T08:56:08.000Z</time>
      </trkpt>
      <trkpt lat="49.18171" lon="1.59275">
        <ele>101.19999694824</ele>
        <time>2021-03-28T08:56:16.000Z</time>
      </trkpt>
      <trkpt lat="49.18175" lon="1.5928">
        <ele>101.40000152588</ele>
        <time>2021-03-28T08:56:17.000Z</time>
      </trkpt>
      <trkpt lat="49.18202" lon="1.59312">
        <ele>102.19999694824</ele>
        <time>2021-03-28T08:56:24.000Z</time>
      </trkpt>
      <trkpt lat="49.18214" lon="1.59326">
        <ele>102.59999847412</ele>
        <time>2021-03-28T08:56:27.000Z</time>
      </trkpt>
      <trkpt lat="49.1824" lon="1.59359">
        <ele>103.80000305176</ele>
        <time>2021-03-28T08:56:34.000Z</time>
      </trkpt>
      <trkpt lat="49.18275" lon="1.59402">
        <ele>105</ele>
        <time>2021-03-28T08:56:43.000Z</time>
      </trkpt>
      <trkpt lat="49.18279" lon="1.59406">
        <ele>105.19999694824</ele>
        <time>2021-03-28T08:56:44.000Z</time>
      </trkpt>
      <trkpt lat="49.18305" lon="1.59438">
        <ele>106</ele>
        <time>2021-03-28T08:56:51.000Z</time>
      </trkpt>
      <trkpt lat="49.18319" lon="1.59455">
        <ele>107.19999694824</ele>
        <time>2021-03-28T08:56:55.000Z</time>
      </trkpt>
      <trkpt lat="49.18336" lon="1.59476">
        <ele>107.80000305176</ele>
        <time>2021-03-28T08:57:00.000Z</time>
      </trkpt>
      <trkpt lat="49.18343" lon="1.59484">
        <ele>108.19999694824</ele>
        <time>2021-03-28T08:57:02.000Z</time>
      </trkpt>
      <trkpt lat="49.18358" lon="1.59503">
        <ele>109.19999694824</ele>
        <time>2021-03-28T08:57:07.000Z</time>
      </trkpt>
      <trkpt lat="49.1837" lon="1.59518">
        <ele>110.40000152588</ele>
        <time>2021-03-28T08:57:11.000Z</time>
      </trkpt>
      <trkpt lat="49.18381" lon="1.59532">
        <ele>111.40000152588</ele>
        <time>2021-03-28T08:57:15.000Z</time>
      </trkpt>
      <trkpt lat="49.18392" lon="1.59547">
        <ele>112.40000152588</ele>
        <time>2021-03-28T08:57:19.000Z</time>
      </trkpt>
      <trkpt lat="49.18395" lon="1.59551">
        <ele>112.80000305176</ele>
        <time>2021-03-28T08:57:20.000Z</time>
      </trkpt>
      <trkpt lat="49.18404" lon="1.59567">
        <ele>114.19999694824</ele>
        <time>2021-03-28T08:57:24.000Z</time>
      </trkpt>
      <trkpt lat="49.18409" lon="1.5958">
        <ele>114.80000305176</ele>
        <time>2021-03-28T08:57:27.000Z</time>
      </trkpt>
      <trkpt lat="49.18412" lon="1.59589">
        <ele>115.19999694824</ele>
        <time>2021-03-28T08:57:29.000Z</time>
      </trkpt>
      <trkpt lat="49.1842" lon="1.59613">
        <ele>116.19999694824</ele>
        <time>2021-03-28T08:57:34.000Z</time>
      </trkpt>
      <trkpt lat="49.18428" lon="1.59636">
        <ele>117.19999694824</ele>
        <time>2021-03-28T08:57:39.000Z</time>
      </trkpt>
      <trkpt lat="49.18438" lon="1.59664">
        <ele>118.19999694824</ele>
        <time>2021-03-28T08:57:45.000Z</time>
      </trkpt>
      <trkpt lat="49.18446" lon="1.59688">
        <ele>119.19999694824</ele>
        <time>2021-03-28T08:57:50.000Z</time>
      </trkpt>
      <trkpt lat="49.18454" lon="1.59712">
        <ele>120.19999694824</ele>
        <time>2021-03-28T08:57:55.000Z</time>
      </trkpt>
      <trkpt lat="49.1846" lon="1.59731">
        <ele>121.40000152588</ele>
        <time>2021-03-28T08:57:59.000Z</time>
      </trkpt>
      <trkpt lat="49.18461" lon="1.59736">
        <ele>121.59999847412</ele>
        <time>2021-03-28T08:58:00.000Z</time>
      </trkpt>
      <trkpt lat="49.18465" lon="1.5975">
        <ele>122.40000152588</ele>
        <time>2021-03-28T08:58:03.000Z</time>
      </trkpt>
      <trkpt lat="49.18466" lon="1.59764">
        <ele>123.59999847412</ele>
        <time>2021-03-28T08:58:06.000Z</time>
      </trkpt>
      <trkpt lat="49.18461" lon="1.59779">
        <ele>124.59999847412</ele>
        <time>2021-03-28T08:58:09.000Z</time>
      </trkpt>
      <trkpt lat="49.18458" lon="1.59784">
        <ele>125</ele>
        <time>2021-03-28T08:58:10.000Z</time>
      </trkpt>
      <trkpt lat="49.18456" lon="1.59789">
        <ele>125.19999694824</ele>
        <time>2021-03-28T08:58:11.000Z</time>
      </trkpt>
      <trkpt lat="49.18454" lon="1.59794">
        <ele>125.59999847412</ele>
        <time>2021-03-28T08:58:12.000Z</time>
      </trkpt>
      <trkpt lat="49.18445" lon="1.59814">
        <ele>127</ele>
        <time>2021-03-28T08:58:16.000Z</time>
      </trkpt>
      <trkpt lat="49.1844" lon="1.59824">
        <ele>127.80000305176</ele>
        <time>2021-03-28T08:58:18.000Z</time>
      </trkpt>
      <trkpt lat="49.18438" lon="1.59829">
        <ele>128.19999694824</ele>
        <time>2021-03-28T08:58:19.000Z</time>
      </trkpt>
      <trkpt lat="49.18431" lon="1.59851">
        <ele>129.19999694824</ele>
        <time>2021-03-28T08:58:23.000Z</time>
      </trkpt>
      <trkpt lat="49.18426" lon="1.59869">
        <ele>129.60000610352</ele>
        <time>2021-03-28T08:58:26.000Z</time>
      </trkpt>
      <trkpt lat="49.18418" lon="1.59907">
        <ele>130.19999694824</ele>
        <time>2021-03-28T08:58:33.000Z</time>
      </trkpt>
      <trkpt lat="49.18416" lon="1.59911">
        <ele>130.19999694824</ele>
        <time>2021-03-28T08:58:34.000Z</time>
      </trkpt>
      <trkpt lat="49.18412" lon="1.59933">
        <ele>130.19999694824</ele>
        <time>2021-03-28T08:58:39.000Z</time>
      </trkpt>
      <trkpt lat="49.18411" lon="1.59965">
        <ele>130.19999694824</ele>
        <time>2021-03-28T08:58:46.000Z</time>
      </trkpt>
      <trkpt lat="49.18425" lon="1.59978">
        <ele>130</ele>
        <time>2021-03-28T08:58:50.000Z</time>
      </trkpt>
      <trkpt lat="49.18429" lon="1.59981">
        <ele>129.80000305176</ele>
        <time>2021-03-28T08:58:51.000Z</time>
      </trkpt>
      <trkpt lat="49.1845" lon="1.59994">
        <ele>129.60000610352</ele>
        <time>2021-03-28T08:58:55.000Z</time>
      </trkpt>
      <trkpt lat="49.18467" lon="1.60008">
        <ele>129</ele>
        <time>2021-03-28T08:58:58.000Z</time>
      </trkpt>
      <trkpt lat="49.18479" lon="1.6002">
        <ele>128.39999389648</ele>
        <time>2021-03-28T08:59:00.000Z</time>
      </trkpt>
      <trkpt lat="49.18499" lon="1.60042">
        <ele>128</ele>
        <time>2021-03-28T08:59:03.000Z</time>
      </trkpt>
      <trkpt lat="49.18514" lon="1.60058">
        <ele>127.40000152588</ele>
        <time>2021-03-28T08:59:05.000Z</time>
      </trkpt>
      <trkpt lat="49.18529" lon="1.60074">
        <ele>126.59999847412</ele>
        <time>2021-03-28T08:59:07.000Z</time>
      </trkpt>
      <trkpt lat="49.1855" lon="1.60098">
        <ele>125.19999694824</ele>
        <time>2021-03-28T08:59:10.000Z</time>
      </trkpt>
      <trkpt lat="49.18558" lon="1.60106">
        <ele>124.59999847412</ele>
        <time>2021-03-28T08:59:11.000Z</time>
      </trkpt>
      <trkpt lat="49.18566" lon="1.60114">
        <ele>124</ele>
        <time>2021-03-28T08:59:12.000Z</time>
      </trkpt>
      <trkpt lat="49.18581" lon="1.60132">
        <ele>122.80000305176</ele>
        <time>2021-03-28T08:59:14.000Z</time>
      </trkpt>
      <trkpt lat="49.18589" lon="1.60141">
        <ele>121</ele>
        <time>2021-03-28T08:59:15.000Z</time>
      </trkpt>
      <trkpt lat="49.18605" lon="1.6016">
        <ele>119.80000305176</ele>
        <time>2021-03-28T08:59:17.000Z</time>
      </trkpt>
      <trkpt lat="49.18612" lon="1.60171">
        <ele>119.19999694824</ele>
        <time>2021-03-28T08:59:18.000Z</time>
      </trkpt>
      <trkpt lat="49.18619" lon="1.60182">
        <ele>118.40000152588</ele>
        <time>2021-03-28T08:59:19.000Z</time>
      </trkpt>
      <trkpt lat="49.1863" lon="1.60208">
        <ele>116.80000305176</ele>
        <time>2021-03-28T08:59:21.000Z</time>
      </trkpt>
      <trkpt lat="49.18641" lon="1.60233">
        <ele>115.19999694824</ele>
        <time>2021-03-28T08:59:23.000Z</time>
      </trkpt>
      <trkpt lat="49.18653" lon="1.60257">
        <ele>113</ele>
        <time>2021-03-28T08:59:25.000Z</time>
      </trkpt>
      <trkpt lat="49.18667" lon="1.60279">
        <ele>111.80000305176</ele>
        <time>2021-03-28T08:59:27.000Z</time>
      </trkpt>
      <trkpt lat="49.18689" lon="1.60312">
        <ele>110.19999694824</ele>
        <time>2021-03-28T08:59:30.000Z</time>
      </trkpt>
      <trkpt lat="49.18711" lon="1.60348">
        <ele>108.80000305176</ele>
        <time>2021-03-28T08:59:33.000Z</time>
      </trkpt>
      <trkpt lat="49.18719" lon="1.60358">
        <ele>108.59999847412</ele>
        <time>2021-03-28T08:59:34.000Z</time>
      </trkpt>
      <trkpt lat="49.18727" lon="1.60369">
        <ele>108</ele>
        <time>2021-03-28T08:59:35.000Z</time>
      </trkpt>
      <trkpt lat="49.18733" lon="1.6038">
        <ele>107.19999694824</ele>
        <time>2021-03-28T08:59:36.000Z</time>
      </trkpt>
      <trkpt lat="49.18737" lon="1.60392">
        <ele>106.40000152588</ele>
        <time>2021-03-28T08:59:37.000Z</time>
      </trkpt>
      <trkpt lat="49.1874" lon="1.60403">
        <ele>105.80000305176</ele>
        <time>2021-03-28T08:59:38.000Z</time>
      </trkpt>
      <trkpt lat="49.18739" lon="1.60412">
        <ele>105.19999694824</ele>
        <time>2021-03-28T08:59:39.000Z</time>
      </trkpt>
      <trkpt lat="49.18736" lon="1.60418">
        <ele>104.80000305176</ele>
        <time>2021-03-28T08:59:40.000Z</time>
      </trkpt>
      <trkpt lat="49.1873" lon="1.60421">
        <ele>104.40000152588</ele>
        <time>2021-03-28T08:59:41.000Z</time>
      </trkpt>
      <trkpt lat="49.18725" lon="1.60424">
        <ele>103.80000305176</ele>
        <time>2021-03-28T08:59:42.000Z</time>
      </trkpt>
      <trkpt lat="49.18714" lon="1.60431">
        <ele>102.40000152588</ele>
        <time>2021-03-28T08:59:44.000Z</time>
      </trkpt>
      <trkpt lat="49.1868" lon="1.60445">
        <ele>101.59999847412</ele>
        <time>2021-03-28T08:59:50.000Z</time>
      </trkpt>
      <trkpt lat="49.18669" lon="1.6045">
        <ele>101.19999694824</ele>
        <time>2021-03-28T08:59:52.000Z</time>
      </trkpt>
      <trkpt lat="49.18658" lon="1.60456">
        <ele>100.40000152588</ele>
        <time>2021-03-28T08:59:54.000Z</time>
      </trkpt>
      <trkpt lat="49.18655" lon="1.60462">
        <ele>100.19999694824</ele>
        <time>2021-03-28T08:59:55.000Z</time>
      </trkpt>
      <trkpt lat="49.18654" lon="1.60468">
        <ele>100.19999694824</ele>
        <time>2021-03-28T08:59:56.000Z</time>
      </trkpt>
      <trkpt lat="49.18653" lon="1.60484">
        <ele>100</ele>
        <time>2021-03-28T08:59:58.000Z</time>
      </trkpt>
      <trkpt lat="49.1866" lon="1.60504">
        <ele>99.800003051758</ele>
        <time>2021-03-28T09:00:01.000Z</time>
      </trkpt>
      <trkpt lat="49.18664" lon="1.6051">
        <ele>99.800003051758</ele>
        <time>2021-03-28T09:00:02.000Z</time>
      </trkpt>
      <trkpt lat="49.18679" lon="1.60533">
        <ele>99.199996948242</ele>
        <time>2021-03-28T09:00:06.000Z</time>
      </trkpt>
      <trkpt lat="49.18682" lon="1.6054">
        <ele>99.199996948242</ele>
        <time>2021-03-28T09:00:07.000Z</time>
      </trkpt>
      <trkpt lat="49.18693" lon="1.60567">
        <ele>99</ele>
        <time>2021-03-28T09:00:11.000Z</time>
      </trkpt>
      <trkpt lat="49.18705" lon="1.60592">
        <ele>98.800003051758</ele>
        <time>2021-03-28T09:00:15.000Z</time>
      </trkpt>
      <trkpt lat="49.18711" lon="1.60613">
        <ele>98.599998474121</ele>
        <time>2021-03-28T09:00:18.000Z</time>
      </trkpt>
      <trkpt lat="49.18716" lon="1.60637">
        <ele>98.599998474121</ele>
        <time>2021-03-28T09:00:21.000Z</time>
      </trkpt>
      <trkpt lat="49.18718" lon="1.60654">
        <ele>98.599998474121</ele>
        <time>2021-03-28T09:00:23.000Z</time>
      </trkpt>
      <trkpt lat="49.18721" lon="1.60697">
        <ele>98</ele>
        <time>2021-03-28T09:00:28.000Z</time>
      </trkpt>
      <trkpt lat="49.18722" lon="1.60705">
        <ele>97.800003051758</ele>
        <time>2021-03-28T09:00:29.000Z</time>
      </trkpt>
      <trkpt lat="49.18723" lon="1.60713">
        <ele>97.800003051758</ele>
        <time>2021-03-28T09:00:30.000Z</time>
      </trkpt>
      <trkpt lat="49.18728" lon="1.6076">
        <ele>97.599998474121</ele>
        <time>2021-03-28T09:00:35.000Z</time>
      </trkpt>
      <trkpt lat="49.18735" lon="1.60832">
        <ele>97.199996948242</ele>
        <time>2021-03-28T09:00:43.000Z</time>
      </trkpt>
      <trkpt lat="49.1874" lon="1.60877">
        <ele>96.800003051758</ele>
        <time>2021-03-28T09:00:48.000Z</time>
      </trkpt>
      <trkpt lat="49.18742" lon="1.60904">
        <ele>96.599998474121</ele>
        <time>2021-03-28T09:00:51.000Z</time>
      </trkpt>
      <trkpt lat="49.18743" lon="1.60913">
        <ele>96.400001525879</ele>
        <time>2021-03-28T09:00:52.000Z</time>
      </trkpt>
      <trkpt lat="49.18747" lon="1.60948">
        <ele>96.199996948242</ele>
        <time>2021-03-28T09:00:56.000Z</time>
      </trkpt>
      <trkpt lat="49.18751" lon="1.60987">
        <ele>95.800003051758</ele>
        <time>2021-03-28T09:01:00.000Z</time>
      </trkpt>
      <trkpt lat="49.18754" lon="1.61006">
        <ele>95.599998474121</ele>
        <time>2021-03-28T09:01:02.000Z</time>
      </trkpt>
      <trkpt lat="49.18759" lon="1.61052">
        <ele>95.199996948242</ele>
        <time>2021-03-28T09:01:07.000Z</time>
      </trkpt>
      <trkpt lat="49.18759" lon="1.61062">
        <ele>95.199996948242</ele>
        <time>2021-03-28T09:01:08.000Z</time>
      </trkpt>
      <trkpt lat="49.18768" lon="1.61141">
        <ele>95</ele>
        <time>2021-03-28T09:01:16.000Z</time>
      </trkpt>
      <trkpt lat="49.18769" lon="1.6116">
        <ele>94.800003051758</ele>
        <time>2021-03-28T09:01:18.000Z</time>
      </trkpt>
      <trkpt lat="49.18773" lon="1.61188">
        <ele>94.400001525879</ele>
        <time>2021-03-28T09:01:21.000Z</time>
      </trkpt>
      <trkpt lat="49.18778" lon="1.61248">
        <ele>94.199996948242</ele>
        <time>2021-03-28T09:01:27.000Z</time>
      </trkpt>
      <trkpt lat="49.18784" lon="1.61309">
        <ele>93.800003051758</ele>
        <time>2021-03-28T09:01:33.000Z</time>
      </trkpt>
      <trkpt lat="49.18785" lon="1.61318">
        <ele>93.599998474121</ele>
        <time>2021-03-28T09:01:34.000Z</time>
      </trkpt>
      <trkpt lat="49.18787" lon="1.61334">
        <ele>93.599998474121</ele>
        <time>2021-03-28T09:01:36.000Z</time>
      </trkpt>
      <trkpt lat="49.18789" lon="1.61341">
        <ele>93.400001525879</ele>
        <time>2021-03-28T09:01:37.000Z</time>
      </trkpt>
      <trkpt lat="49.18792" lon="1.61356">
        <ele>93.400001525879</ele>
        <time>2021-03-28T09:01:40.000Z</time>
      </trkpt>
      <trkpt lat="49.18793" lon="1.61368">
        <ele>93.400001525879</ele>
        <time>2021-03-28T09:01:42.000Z</time>
      </trkpt>
      <trkpt lat="49.18793" lon="1.61383">
        <ele>93.199996948242</ele>
        <time>2021-03-28T09:01:44.000Z</time>
      </trkpt>
      <trkpt lat="49.18795" lon="1.61401">
        <ele>93.199996948242</ele>
        <time>2021-03-28T09:01:46.000Z</time>
      </trkpt>
      <trkpt lat="49.18799" lon="1.61437">
        <ele>93</ele>
        <time>2021-03-28T09:01:50.000Z</time>
      </trkpt>
      <trkpt lat="49.18807" lon="1.61483">
        <ele>92.599998474121</ele>
        <time>2021-03-28T09:01:55.000Z</time>
      </trkpt>
      <trkpt lat="49.18812" lon="1.6151">
        <ele>92.599998474121</ele>
        <time>2021-03-28T09:01:58.000Z</time>
      </trkpt>
      <trkpt lat="49.18827" lon="1.6157">
        <ele>92.400001525879</ele>
        <time>2021-03-28T09:02:05.000Z</time>
      </trkpt>
      <trkpt lat="49.18848" lon="1.61638">
        <ele>92.400001525879</ele>
        <time>2021-03-28T09:02:13.000Z</time>
      </trkpt>
      <trkpt lat="49.18866" lon="1.61689">
        <ele>93.199996948242</ele>
        <time>2021-03-28T09:02:20.000Z</time>
      </trkpt>
      <trkpt lat="49.1888" lon="1.61726">
        <ele>93.800003051758</ele>
        <time>2021-03-28T09:02:25.000Z</time>
      </trkpt>
      <trkpt lat="49.18898" lon="1.61775">
        <ele>94.400001525879</ele>
        <time>2021-03-28T09:02:32.000Z</time>
      </trkpt>
      <trkpt lat="49.18909" lon="1.61805">
        <ele>94.800003051758</ele>
        <time>2021-03-28T09:02:37.000Z</time>
      </trkpt>
      <trkpt lat="49.18914" lon="1.61818">
        <ele>94.800003051758</ele>
        <time>2021-03-28T09:02:39.000Z</time>
      </trkpt>
      <trkpt lat="49.18931" lon="1.61865">
        <ele>95</ele>
        <time>2021-03-28T09:02:45.000Z</time>
      </trkpt>
      <trkpt lat="49.18934" lon="1.61872">
        <ele>95</ele>
        <time>2021-03-28T09:02:46.000Z</time>
      </trkpt>
      <trkpt lat="49.18942" lon="1.61891">
        <ele>95.199996948242</ele>
        <time>2021-03-28T09:02:49.000Z</time>
      </trkpt>
      <trkpt lat="49.18956" lon="1.61938">
        <ele>95.400001525879</ele>
        <time>2021-03-28T09:02:56.000Z</time>
      </trkpt>
      <trkpt lat="49.18965" lon="1.61984">
        <ele>95.400001525879</ele>
        <time>2021-03-28T09:03:02.000Z</time>
      </trkpt>
      <trkpt lat="49.18969" lon="1.62015">
        <ele>95.400001525879</ele>
        <time>2021-03-28T09:03:06.000Z</time>
      </trkpt>
      <trkpt lat="49.1897" lon="1.62031">
        <ele>95.400001525879</ele>
        <time>2021-03-28T09:03:08.000Z</time>
      </trkpt>
      <trkpt lat="49.18973" lon="1.62053">
        <ele>95.599998474121</ele>
        <time>2021-03-28T09:03:11.000Z</time>
      </trkpt>
      <trkpt lat="49.18974" lon="1.62077">
        <ele>95.599998474121</ele>
        <time>2021-03-28T09:03:14.000Z</time>
      </trkpt>
      <trkpt lat="49.18975" lon="1.62116">
        <ele>95.800003051758</ele>
        <time>2021-03-28T09:03:19.000Z</time>
      </trkpt>
      <trkpt lat="49.18975" lon="1.62132">
        <ele>96</ele>
        <time>2021-03-28T09:03:21.000Z</time>
      </trkpt>
      <trkpt lat="49.18975" lon="1.6214">
        <ele>96</ele>
        <time>2021-03-28T09:03:22.000Z</time>
      </trkpt>
      <trkpt lat="49.18972" lon="1.62212">
        <ele>96.199996948242</ele>
        <time>2021-03-28T09:03:31.000Z</time>
      </trkpt>
      <trkpt lat="49.1897" lon="1.62244">
        <ele>96.400001525879</ele>
        <time>2021-03-28T09:03:35.000Z</time>
      </trkpt>
      <trkpt lat="49.18969" lon="1.62268">
        <ele>96.400001525879</ele>
        <time>2021-03-28T09:03:38.000Z</time>
      </trkpt>
      <trkpt lat="49.18967" lon="1.62347">
        <ele>96.400001525879</ele>
        <time>2021-03-28T09:03:47.000Z</time>
      </trkpt>
      <trkpt lat="49.18966" lon="1.62374">
        <ele>96.199996948242</ele>
        <time>2021-03-28T09:03:50.000Z</time>
      </trkpt>
      <trkpt lat="49.18966" lon="1.62402">
        <ele>96.199996948242</ele>
        <time>2021-03-28T09:03:53.000Z</time>
      </trkpt>
      <trkpt lat="49.18964" lon="1.62438">
        <ele>96</ele>
        <time>2021-03-28T09:03:57.000Z</time>
      </trkpt>
      <trkpt lat="49.18962" lon="1.62454">
        <ele>96</ele>
        <time>2021-03-28T09:03:59.000Z</time>
      </trkpt>
      <trkpt lat="49.1896" lon="1.62519">
        <ele>95.599998474121</ele>
        <time>2021-03-28T09:04:07.000Z</time>
      </trkpt>
      <trkpt lat="49.1896" lon="1.62527">
        <ele>95.599998474121</ele>
        <time>2021-03-28T09:04:08.000Z</time>
      </trkpt>
      <trkpt lat="49.1896" lon="1.62561">
        <ele>95.599998474121</ele>
        <time>2021-03-28T09:04:12.000Z</time>
      </trkpt>
      <trkpt lat="49.18956" lon="1.62648">
        <ele>95.400001525879</ele>
        <time>2021-03-28T09:04:22.000Z</time>
      </trkpt>
      <trkpt lat="49.18955" lon="1.62708">
        <ele>95.199996948242</ele>
        <time>2021-03-28T09:04:29.000Z</time>
      </trkpt>
      <trkpt lat="49.18952" lon="1.62783">
        <ele>94.800003051758</ele>
        <time>2021-03-28T09:04:37.000Z</time>
      </trkpt>
      <trkpt lat="49.18951" lon="1.6282">
        <ele>94.400001525879</ele>
        <time>2021-03-28T09:04:42.000Z</time>
      </trkpt>
      <trkpt lat="49.18951" lon="1.62834">
        <ele>94.400001525879</ele>
        <time>2021-03-28T09:04:46.000Z</time>
      </trkpt>
      <trkpt lat="49.18953" lon="1.62861">
        <ele>94.400001525879</ele>
        <time>2021-03-28T09:04:53.000Z</time>
      </trkpt>
      <trkpt lat="49.18958" lon="1.6289">
        <ele>94.400001525879</ele>
        <time>2021-03-28T09:04:59.000Z</time>
      </trkpt>
      <trkpt lat="49.18961" lon="1.62907">
        <ele>94.599998474121</ele>
        <time>2021-03-28T09:05:02.000Z</time>
      </trkpt>
      <trkpt lat="49.18965" lon="1.62925">
        <ele>94.599998474121</ele>
        <time>2021-03-28T09:05:05.000Z</time>
      </trkpt>
      <trkpt lat="49.18973" lon="1.62974">
        <ele>95.599998474121</ele>
        <time>2021-03-28T09:05:13.000Z</time>
      </trkpt>
      <trkpt lat="49.18975" lon="1.6298">
        <ele>95.800003051758</ele>
        <time>2021-03-28T09:05:14.000Z</time>
      </trkpt>
      <trkpt lat="49.1898" lon="1.6301">
        <ele>96.800003051758</ele>
        <time>2021-03-28T09:05:19.000Z</time>
      </trkpt>
      <trkpt lat="49.18986" lon="1.63032">
        <ele>97.599998474121</ele>
        <time>2021-03-28T09:05:23.000Z</time>
      </trkpt>
      <trkpt lat="49.18988" lon="1.63044">
        <ele>97.800003051758</ele>
        <time>2021-03-28T09:05:25.000Z</time>
      </trkpt>
      <trkpt lat="49.18992" lon="1.63067">
        <ele>99</ele>
        <time>2021-03-28T09:05:29.000Z</time>
      </trkpt>
      <trkpt lat="49.18993" lon="1.63078">
        <ele>99.199996948242</ele>
        <time>2021-03-28T09:05:31.000Z</time>
      </trkpt>
      <trkpt lat="49.18998" lon="1.63102">
        <ele>100.19999694824</ele>
        <time>2021-03-28T09:05:35.000Z</time>
      </trkpt>
      <trkpt lat="49.19001" lon="1.63121">
        <ele>100.40000152588</ele>
        <time>2021-03-28T09:05:38.000Z</time>
      </trkpt>
      <trkpt lat="49.19009" lon="1.63168">
        <ele>100.80000305176</ele>
        <time>2021-03-28T09:05:45.000Z</time>
      </trkpt>
      <trkpt lat="49.19011" lon="1.63204">
        <ele>100.80000305176</ele>
        <time>2021-03-28T09:05:51.000Z</time>
      </trkpt>
      <trkpt lat="49.19015" lon="1.63238">
        <ele>101</ele>
        <time>2021-03-28T09:05:57.000Z</time>
      </trkpt>
      <trkpt lat="49.19016" lon="1.63245">
        <ele>101</ele>
        <time>2021-03-28T09:05:58.000Z</time>
      </trkpt>
      <trkpt lat="49.1902" lon="1.63289">
        <ele>101.19999694824</ele>
        <time>2021-03-28T09:06:04.000Z</time>
      </trkpt>
      <trkpt lat="49.19021" lon="1.63296">
        <ele>101.40000152588</ele>
        <time>2021-03-28T09:06:05.000Z</time>
      </trkpt>
      <trkpt lat="49.19032" lon="1.63347">
        <ele>102</ele>
        <time>2021-03-28T09:06:12.000Z</time>
      </trkpt>
      <trkpt lat="49.19043" lon="1.63398">
        <ele>102.80000305176</ele>
        <time>2021-03-28T09:06:20.000Z</time>
      </trkpt>
      <trkpt lat="49.19043" lon="1.63403">
        <ele>102.80000305176</ele>
        <time>2021-03-28T09:06:21.000Z</time>
      </trkpt>
      <trkpt lat="49.19041" lon="1.63411">
        <ele>103.19999694824</ele>
        <time>2021-03-28T09:06:23.000Z</time>
      </trkpt>
      <trkpt lat="49.19042" lon="1.63417">
        <ele>103.59999847412</ele>
        <time>2021-03-28T09:06:25.000Z</time>
      </trkpt>
      <trkpt lat="49.19043" lon="1.63419">
        <ele>103.80000305176</ele>
        <time>2021-03-28T09:06:26.000Z</time>
      </trkpt>
      <trkpt lat="49.19044" lon="1.63419">
        <ele>104</ele>
        <time>2021-03-28T09:06:27.000Z</time>
      </trkpt>
      <trkpt lat="49.19045" lon="1.6342">
        <ele>104.40000152588</ele>
        <time>2021-03-28T09:06:29.000Z</time>
      </trkpt>
      <trkpt lat="49.19046" lon="1.6342">
        <ele>105.59999847412</ele>
        <time>2021-03-28T09:06:40.000Z</time>
      </trkpt>
      <trkpt lat="49.19048" lon="1.63418">
        <ele>105.80000305176</ele>
        <time>2021-03-28T09:06:41.000Z</time>
      </trkpt>
      <trkpt lat="49.19061" lon="1.63414">
        <ele>105.80000305176</ele>
        <time>2021-03-28T09:06:45.000Z</time>
      </trkpt>
      <trkpt lat="49.19073" lon="1.63414">
        <ele>105.80000305176</ele>
        <time>2021-03-28T09:06:48.000Z</time>
      </trkpt>
      <trkpt lat="49.19084" lon="1.63412">
        <ele>105.40000152588</ele>
        <time>2021-03-28T09:06:51.000Z</time>
      </trkpt>
      <trkpt lat="49.19092" lon="1.63413">
        <ele>104.59999847412</ele>
        <time>2021-03-28T09:06:54.000Z</time>
      </trkpt>
      <trkpt lat="49.19101" lon="1.63412">
        <ele>104</ele>
        <time>2021-03-28T09:06:57.000Z</time>
      </trkpt>
      <trkpt lat="49.19126" lon="1.6341">
        <ele>103.80000305176</ele>
        <time>2021-03-28T09:07:04.000Z</time>
      </trkpt>
      <trkpt lat="49.19143" lon="1.63406">
        <ele>104</ele>
        <time>2021-03-28T09:07:10.000Z</time>
      </trkpt>
      <trkpt lat="49.19158" lon="1.63402">
        <ele>104.59999847412</ele>
        <time>2021-03-28T09:07:16.000Z</time>
      </trkpt>
      <trkpt lat="49.19166" lon="1.63399">
        <ele>105</ele>
        <time>2021-03-28T09:07:21.000Z</time>
      </trkpt>
      <trkpt lat="49.19166" lon="1.63399">
        <ele>105.19999694824</ele>
        <time>2021-03-28T09:07:22.000Z</time>
      </trkpt>
      <trkpt lat="49.19165" lon="1.634">
        <ele>106.59999847412</ele>
        <time>2021-03-28T09:07:33.000Z</time>
      </trkpt>
      <trkpt lat="49.19164" lon="1.634">
        <ele>106.59999847412</ele>
        <time>2021-03-28T09:07:34.000Z</time>
      </trkpt>
      <trkpt lat="49.19162" lon="1.63401">
        <ele>106.59999847412</ele>
        <time>2021-03-28T09:07:36.000Z</time>
      </trkpt>
      <trkpt lat="49.19156" lon="1.63402">
        <ele>106.59999847412</ele>
        <time>2021-03-28T09:07:40.000Z</time>
      </trkpt>
      <trkpt lat="49.19156" lon="1.63408">
        <ele>106.40000152588</ele>
        <time>2021-03-28T09:07:44.000Z</time>
      </trkpt>
      <trkpt lat="49.19158" lon="1.6341">
        <ele>106.40000152588</ele>
        <time>2021-03-28T09:07:47.000Z</time>
      </trkpt>
      <trkpt lat="49.19158" lon="1.63412">
        <ele>106.40000152588</ele>
        <time>2021-03-28T09:07:50.000Z</time>
      </trkpt>
      <trkpt lat="49.19157" lon="1.63416">
        <ele>106.40000152588</ele>
        <time>2021-03-28T09:07:52.000Z</time>
      </trkpt>
      <trkpt lat="49.19154" lon="1.63425">
        <ele>106.40000152588</ele>
        <time>2021-03-28T09:07:55.000Z</time>
      </trkpt>
      <trkpt lat="49.19153" lon="1.63427">
        <ele>106.40000152588</ele>
        <time>2021-03-28T09:07:56.000Z</time>
      </trkpt>
      <trkpt lat="49.19151" lon="1.63431">
        <ele>106.40000152588</ele>
        <time>2021-03-28T09:07:58.000Z</time>
      </trkpt>
      <trkpt lat="49.19149" lon="1.63432">
        <ele>106.40000152588</ele>
        <time>2021-03-28T09:07:59.000Z</time>
      </trkpt>
      <trkpt lat="49.19143" lon="1.63439">
        <ele>106.40000152588</ele>
        <time>2021-03-28T09:08:01.000Z</time>
      </trkpt>
      <trkpt lat="49.19143" lon="1.63444">
        <ele>106.40000152588</ele>
        <time>2021-03-28T09:08:02.000Z</time>
      </trkpt>
      <trkpt lat="49.19147" lon="1.63457">
        <ele>106.40000152588</ele>
        <time>2021-03-28T09:08:06.000Z</time>
      </trkpt>
      <trkpt lat="49.19154" lon="1.63456">
        <ele>106.40000152588</ele>
        <time>2021-03-28T09:08:10.000Z</time>
      </trkpt>
      <trkpt lat="49.19163" lon="1.63464">
        <ele>106.40000152588</ele>
        <time>2021-03-28T09:08:15.000Z</time>
      </trkpt>
      <trkpt lat="49.1917" lon="1.63458">
        <ele>107</ele>
        <time>2021-03-28T09:08:19.000Z</time>
      </trkpt>
      <trkpt lat="49.19171" lon="1.63456">
        <ele>107.59999847412</ele>
        <time>2021-03-28T09:08:20.000Z</time>
      </trkpt>
      <trkpt lat="49.19178" lon="1.63451">
        <ele>108.40000152588</ele>
        <time>2021-03-28T09:08:23.000Z</time>
      </trkpt>
      <trkpt lat="49.1918" lon="1.63449">
        <ele>108.59999847412</ele>
        <time>2021-03-28T09:08:24.000Z</time>
      </trkpt>
      <trkpt lat="49.19183" lon="1.63448">
        <ele>109.40000152588</ele>
        <time>2021-03-28T09:08:27.000Z</time>
      </trkpt>
      <trkpt lat="49.19185" lon="1.63447">
        <ele>110.40000152588</ele>
        <time>2021-03-28T09:08:31.000Z</time>
      </trkpt>
      <trkpt lat="49.1919" lon="1.63445">
        <ele>110.80000305176</ele>
        <time>2021-03-28T09:08:34.000Z</time>
      </trkpt>
      <trkpt lat="49.19193" lon="1.63443">
        <ele>111</ele>
        <time>2021-03-28T09:08:36.000Z</time>
      </trkpt>
      <trkpt lat="49.19195" lon="1.63436">
        <ele>111.19999694824</ele>
        <time>2021-03-28T09:08:39.000Z</time>
      </trkpt>
      <trkpt lat="49.19195" lon="1.63435">
        <ele>111.40000152588</ele>
        <time>2021-03-28T09:08:40.000Z</time>
      </trkpt>
      <trkpt lat="49.19195" lon="1.63433">
        <ele>111.40000152588</ele>
        <time>2021-03-28T09:08:41.000Z</time>
      </trkpt>
      <trkpt lat="49.19195" lon="1.63432">
        <ele>111.40000152588</ele>
        <time>2021-03-28T09:08:43.000Z</time>
      </trkpt>
      <trkpt lat="49.19193" lon="1.63429">
        <ele>111.40000152588</ele>
        <time>2021-03-28T09:09:27.000Z</time>
      </trkpt>
      <trkpt lat="49.19189" lon="1.63426">
        <ele>111.40000152588</ele>
        <time>2021-03-28T09:09:29.000Z</time>
      </trkpt>
      <trkpt lat="49.19186" lon="1.63422">
        <ele>111.19999694824</ele>
        <time>2021-03-28T09:09:30.000Z</time>
      </trkpt>
      <trkpt lat="49.19175" lon="1.6342">
        <ele>111.19999694824</ele>
        <time>2021-03-28T09:09:32.000Z</time>
      </trkpt>
      <trkpt lat="49.19166" lon="1.63422">
        <ele>111.19999694824</ele>
        <time>2021-03-28T09:09:35.000Z</time>
      </trkpt>
      <trkpt lat="49.19164" lon="1.63422">
        <ele>111</ele>
        <time>2021-03-28T09:09:36.000Z</time>
      </trkpt>
      <trkpt lat="49.19163" lon="1.63422">
        <ele>109.59999847412</ele>
        <time>2021-03-28T09:09:38.000Z</time>
      </trkpt>
      <trkpt lat="49.19163" lon="1.63423">
        <ele>108.40000152588</ele>
        <time>2021-03-28T09:09:39.000Z</time>
      </trkpt>
      <trkpt lat="49.19162" lon="1.63424">
        <ele>107.80000305176</ele>
        <time>2021-03-28T09:09:40.000Z</time>
      </trkpt>
      <trkpt lat="49.19161" lon="1.63425">
        <ele>107.59999847412</ele>
        <time>2021-03-28T09:09:41.000Z</time>
      </trkpt>
      <trkpt lat="49.1916" lon="1.63427">
        <ele>107.40000152588</ele>
        <time>2021-03-28T09:09:42.000Z</time>
      </trkpt>
      <trkpt lat="49.19157" lon="1.63439">
        <ele>107.19999694824</ele>
        <time>2021-03-28T09:09:45.000Z</time>
      </trkpt>
      <trkpt lat="49.19154" lon="1.63442">
        <ele>107.19999694824</ele>
        <time>2021-03-28T09:09:46.000Z</time>
      </trkpt>
      <trkpt lat="49.19148" lon="1.63447">
        <ele>107.19999694824</ele>
        <time>2021-03-28T09:09:48.000Z</time>
      </trkpt>
      <trkpt lat="49.19148" lon="1.6346">
        <ele>107.19999694824</ele>
        <time>2021-03-28T09:09:51.000Z</time>
      </trkpt>
      <trkpt lat="49.19151" lon="1.63464">
        <ele>107.19999694824</ele>
        <time>2021-03-28T09:09:54.000Z</time>
      </trkpt>
      <trkpt lat="49.19159" lon="1.63459">
        <ele>107.19999694824</ele>
        <time>2021-03-28T09:09:58.000Z</time>
      </trkpt>
      <trkpt lat="49.19168" lon="1.63466">
        <ele>107.19999694824</ele>
        <time>2021-03-28T09:10:02.000Z</time>
      </trkpt>
      <trkpt lat="49.19172" lon="1.6346">
        <ele>107.19999694824</ele>
        <time>2021-03-28T09:10:05.000Z</time>
      </trkpt>
      <trkpt lat="49.19173" lon="1.63457">
        <ele>107.40000152588</ele>
        <time>2021-03-28T09:10:06.000Z</time>
      </trkpt>
      <trkpt lat="49.1918" lon="1.63451">
        <ele>108.80000305176</ele>
        <time>2021-03-28T09:10:10.000Z</time>
      </trkpt>
      <trkpt lat="49.1919" lon="1.63444">
        <ele>109.59999847412</ele>
        <time>2021-03-28T09:10:15.000Z</time>
      </trkpt>
      <trkpt lat="49.19192" lon="1.63441">
        <ele>109.80000305176</ele>
        <time>2021-03-28T09:10:16.000Z</time>
      </trkpt>
      <trkpt lat="49.19201" lon="1.63421">
        <ele>111.19999694824</ele>
        <time>2021-03-28T09:10:21.000Z</time>
      </trkpt>
      <trkpt lat="49.19202" lon="1.63418">
        <ele>111.40000152588</ele>
        <time>2021-03-28T09:10:22.000Z</time>
      </trkpt>
      <trkpt lat="49.19201" lon="1.63406">
        <ele>111.80000305176</ele>
        <time>2021-03-28T09:10:27.000Z</time>
      </trkpt>
      <trkpt lat="49.19203" lon="1.63405">
        <ele>112</ele>
        <time>2021-03-28T09:10:32.000Z</time>
      </trkpt>
      <trkpt lat="49.19205" lon="1.63405">
        <ele>111.59999847412</ele>
        <time>2021-03-28T09:10:33.000Z</time>
      </trkpt>
      <trkpt lat="49.19206" lon="1.63408">
        <ele>111.59999847412</ele>
        <time>2021-03-28T09:10:36.000Z</time>
      </trkpt>
      <trkpt lat="49.19202" lon="1.63419">
        <ele>111.59999847412</ele>
        <time>2021-03-28T09:10:42.000Z</time>
      </trkpt>
      <trkpt lat="49.19201" lon="1.63419">
        <ele>111.59999847412</ele>
        <time>2021-03-28T09:10:46.000Z</time>
      </trkpt>
      <trkpt lat="49.19199" lon="1.63418">
        <ele>111.59999847412</ele>
        <time>2021-03-28T09:10:57.000Z</time>
      </trkpt>
      <trkpt lat="49.19197" lon="1.63417">
        <ele>111.59999847412</ele>
        <time>2021-03-28T09:10:58.000Z</time>
      </trkpt>
      <trkpt lat="49.19185" lon="1.63407">
        <ele>111.59999847412</ele>
        <time>2021-03-28T09:11:01.000Z</time>
      </trkpt>
      <trkpt lat="49.1918" lon="1.63404">
        <ele>111.59999847412</ele>
        <time>2021-03-28T09:11:02.000Z</time>
      </trkpt>
      <trkpt lat="49.19174" lon="1.63405">
        <ele>111.59999847412</ele>
        <time>2021-03-28T09:11:04.000Z</time>
      </trkpt>
      <trkpt lat="49.19173" lon="1.63406">
        <ele>111</ele>
        <time>2021-03-28T09:11:07.000Z</time>
      </trkpt>
      <trkpt lat="49.1917" lon="1.63407">
        <ele>107.40000152588</ele>
        <time>2021-03-28T09:11:15.000Z</time>
      </trkpt>
      <trkpt lat="49.19169" lon="1.63407">
        <ele>107.19999694824</ele>
        <time>2021-03-28T09:11:17.000Z</time>
      </trkpt>
      <trkpt lat="49.19169" lon="1.63402">
        <ele>106.80000305176</ele>
        <time>2021-03-28T09:12:05.000Z</time>
      </trkpt>
      <trkpt lat="49.1917" lon="1.634">
        <ele>106.80000305176</ele>
        <time>2021-03-28T09:12:07.000Z</time>
      </trkpt>
      <trkpt lat="49.19171" lon="1.63399">
        <ele>106.80000305176</ele>
        <time>2021-03-28T09:12:08.000Z</time>
      </trkpt>
      <trkpt lat="49.19177" lon="1.63397">
        <ele>106</ele>
        <time>2021-03-28T09:12:13.000Z</time>
      </trkpt>
      <trkpt lat="49.19178" lon="1.63396">
        <ele>106</ele>
        <time>2021-03-28T09:12:14.000Z</time>
      </trkpt>
      <trkpt lat="49.19186" lon="1.63393">
        <ele>106</ele>
        <time>2021-03-28T09:12:19.000Z</time>
      </trkpt>
      <trkpt lat="49.19197" lon="1.63387">
        <ele>106.59999847412</ele>
        <time>2021-03-28T09:12:26.000Z</time>
      </trkpt>
      <trkpt lat="49.19207" lon="1.63382">
        <ele>107.19999694824</ele>
        <time>2021-03-28T09:12:31.000Z</time>
      </trkpt>
      <trkpt lat="49.1921" lon="1.6338">
        <ele>107.59999847412</ele>
        <time>2021-03-28T09:12:33.000Z</time>
      </trkpt>
      <trkpt lat="49.19218" lon="1.63376">
        <ele>108.19999694824</ele>
        <time>2021-03-28T09:12:37.000Z</time>
      </trkpt>
      <trkpt lat="49.19223" lon="1.63374">
        <ele>109.19999694824</ele>
        <time>2021-03-28T09:12:40.000Z</time>
      </trkpt>
      <trkpt lat="49.19225" lon="1.63373">
        <ele>109.19999694824</ele>
        <time>2021-03-28T09:12:41.000Z</time>
      </trkpt>
      <trkpt lat="49.19228" lon="1.63372">
        <ele>109.59999847412</ele>
        <time>2021-03-28T09:12:43.000Z</time>
      </trkpt>
      <trkpt lat="49.19233" lon="1.63369">
        <ele>110.19999694824</ele>
        <time>2021-03-28T09:12:45.000Z</time>
      </trkpt>
      <trkpt lat="49.19235" lon="1.63368">
        <ele>110.40000152588</ele>
        <time>2021-03-28T09:12:46.000Z</time>
      </trkpt>
      <trkpt lat="49.19247" lon="1.63361">
        <ele>111.59999847412</ele>
        <time>2021-03-28T09:12:51.000Z</time>
      </trkpt>
      <trkpt lat="49.19252" lon="1.63359">
        <ele>111.80000305176</ele>
        <time>2021-03-28T09:12:53.000Z</time>
      </trkpt>
      <trkpt lat="49.19257" lon="1.63357">
        <ele>112</ele>
        <time>2021-03-28T09:12:55.000Z</time>
      </trkpt>
      <trkpt lat="49.19265" lon="1.63352">
        <ele>112.80000305176</ele>
        <time>2021-03-28T09:12:58.000Z</time>
      </trkpt>
      <trkpt lat="49.19282" lon="1.63344">
        <ele>113.59999847412</ele>
        <time>2021-03-28T09:13:04.000Z</time>
      </trkpt>
      <trkpt lat="49.19293" lon="1.63338">
        <ele>113.80000305176</ele>
        <time>2021-03-28T09:13:07.000Z</time>
      </trkpt>
      <trkpt lat="49.193" lon="1.63334">
        <ele>114</ele>
        <time>2021-03-28T09:13:09.000Z</time>
      </trkpt>
      <trkpt lat="49.19313" lon="1.63324">
        <ele>114.59999847412</ele>
        <time>2021-03-28T09:13:13.000Z</time>
      </trkpt>
      <trkpt lat="49.19328" lon="1.63316">
        <ele>114.80000305176</ele>
        <time>2021-03-28T09:13:18.000Z</time>
      </trkpt>
      <trkpt lat="49.19344" lon="1.63305">
        <ele>115.40000152588</ele>
        <time>2021-03-28T09:13:23.000Z</time>
      </trkpt>
      <trkpt lat="49.19359" lon="1.63296">
        <ele>115.80000305176</ele>
        <time>2021-03-28T09:13:27.000Z</time>
      </trkpt>
      <trkpt lat="49.19371" lon="1.6329">
        <ele>116.19999694824</ele>
        <time>2021-03-28T09:13:30.000Z</time>
      </trkpt>
      <trkpt lat="49.19389" lon="1.63282">
        <ele>116.59999847412</ele>
        <time>2021-03-28T09:13:35.000Z</time>
      </trkpt>
      <trkpt lat="49.19396" lon="1.63277">
        <ele>117</ele>
        <time>2021-03-28T09:13:37.000Z</time>
      </trkpt>
      <trkpt lat="49.19406" lon="1.63272">
        <ele>117.19999694824</ele>
        <time>2021-03-28T09:13:40.000Z</time>
      </trkpt>
      <trkpt lat="49.19426" lon="1.63258">
        <ele>117.80000305176</ele>
        <time>2021-03-28T09:13:46.000Z</time>
      </trkpt>
      <trkpt lat="49.19438" lon="1.63242">
        <ele>118</ele>
        <time>2021-03-28T09:13:50.000Z</time>
      </trkpt>
      <trkpt lat="49.19457" lon="1.6322">
        <ele>119.19999694824</ele>
        <time>2021-03-28T09:13:57.000Z</time>
      </trkpt>
      <trkpt lat="49.19466" lon="1.63203">
        <ele>120</ele>
        <time>2021-03-28T09:14:01.000Z</time>
      </trkpt>
      <trkpt lat="49.19469" lon="1.63199">
        <ele>120.19999694824</ele>
        <time>2021-03-28T09:14:02.000Z</time>
      </trkpt>
      <trkpt lat="49.19483" lon="1.63176">
        <ele>121.19999694824</ele>
        <time>2021-03-28T09:14:07.000Z</time>
      </trkpt>
      <trkpt lat="49.19485" lon="1.63172">
        <ele>121.19999694824</ele>
        <time>2021-03-28T09:14:08.000Z</time>
      </trkpt>
      <trkpt lat="49.19502" lon="1.63147">
        <ele>121.59999847412</ele>
        <time>2021-03-28T09:14:14.000Z</time>
      </trkpt>
      <trkpt lat="49.1951" lon="1.63129">
        <ele>121.80000305176</ele>
        <time>2021-03-28T09:14:18.000Z</time>
      </trkpt>
      <trkpt lat="49.19503" lon="1.63121">
        <ele>122</ele>
        <time>2021-03-28T09:14:21.000Z</time>
      </trkpt>
      <trkpt lat="49.195" lon="1.63119">
        <ele>122</ele>
        <time>2021-03-28T09:14:22.000Z</time>
      </trkpt>
      <trkpt lat="49.19493" lon="1.63115">
        <ele>122.19999694824</ele>
        <time>2021-03-28T09:14:24.000Z</time>
      </trkpt>
      <trkpt lat="49.19488" lon="1.63114">
        <ele>122.19999694824</ele>
        <time>2021-03-28T09:14:25.000Z</time>
      </trkpt>
      <trkpt lat="49.19484" lon="1.63114">
        <ele>122.19999694824</ele>
        <time>2021-03-28T09:14:26.000Z</time>
      </trkpt>
      <trkpt lat="49.19467" lon="1.63113">
        <ele>122.19999694824</ele>
        <time>2021-03-28T09:14:29.000Z</time>
      </trkpt>
      <trkpt lat="49.19461" lon="1.63112">
        <ele>122.19999694824</ele>
        <time>2021-03-28T09:14:30.000Z</time>
      </trkpt>
      <trkpt lat="49.19446" lon="1.631">
        <ele>121.40000152588</ele>
        <time>2021-03-28T09:14:33.000Z</time>
      </trkpt>
      <trkpt lat="49.19441" lon="1.63095">
        <ele>120.59999847412</ele>
        <time>2021-03-28T09:14:34.000Z</time>
      </trkpt>
      <trkpt lat="49.19422" lon="1.6308">
        <ele>119.19999694824</ele>
        <time>2021-03-28T09:14:37.000Z</time>
      </trkpt>
      <trkpt lat="49.19411" lon="1.63063">
        <ele>118</ele>
        <time>2021-03-28T09:14:39.000Z</time>
      </trkpt>
      <trkpt lat="49.19402" lon="1.63045">
        <ele>116.80000305176</ele>
        <time>2021-03-28T09:14:41.000Z</time>
      </trkpt>
      <trkpt lat="49.19398" lon="1.63037">
        <ele>116</ele>
        <time>2021-03-28T09:14:42.000Z</time>
      </trkpt>
      <trkpt lat="49.19393" lon="1.63031">
        <ele>115.19999694824</ele>
        <time>2021-03-28T09:14:43.000Z</time>
      </trkpt>
      <trkpt lat="49.19388" lon="1.63027">
        <ele>114.19999694824</ele>
        <time>2021-03-28T09:14:44.000Z</time>
      </trkpt>
      <trkpt lat="49.19378" lon="1.63023">
        <ele>112.80000305176</ele>
        <time>2021-03-28T09:14:46.000Z</time>
      </trkpt>
      <trkpt lat="49.19371" lon="1.63019">
        <ele>112.40000152588</ele>
        <time>2021-03-28T09:14:48.000Z</time>
      </trkpt>
      <trkpt lat="49.19363" lon="1.63006">
        <ele>112.40000152588</ele>
        <time>2021-03-28T09:14:52.000Z</time>
      </trkpt>
      <trkpt lat="49.19352" lon="1.62993">
        <ele>114</ele>
        <time>2021-03-28T09:14:57.000Z</time>
      </trkpt>
      <trkpt lat="49.19349" lon="1.6299">
        <ele>114.59999847412</ele>
        <time>2021-03-28T09:14:58.000Z</time>
      </trkpt>
      <trkpt lat="49.19346" lon="1.62988">
        <ele>115.40000152588</ele>
        <time>2021-03-28T09:14:59.000Z</time>
      </trkpt>
      <trkpt lat="49.19341" lon="1.62984">
        <ele>116.59999847412</ele>
        <time>2021-03-28T09:15:01.000Z</time>
      </trkpt>
      <trkpt lat="49.19335" lon="1.62979">
        <ele>117.80000305176</ele>
        <time>2021-03-28T09:15:03.000Z</time>
      </trkpt>
      <trkpt lat="49.19329" lon="1.62968">
        <ele>118.40000152588</ele>
        <time>2021-03-28T09:15:06.000Z</time>
      </trkpt>
      <trkpt lat="49.19328" lon="1.62961">
        <ele>118.59999847412</ele>
        <time>2021-03-28T09:15:08.000Z</time>
      </trkpt>
      <trkpt lat="49.19326" lon="1.62948">
        <ele>118.80000305176</ele>
        <time>2021-03-28T09:15:11.000Z</time>
      </trkpt>
      <trkpt lat="49.19324" lon="1.62936">
        <ele>119</ele>
        <time>2021-03-28T09:15:14.000Z</time>
      </trkpt>
      <trkpt lat="49.1932" lon="1.62914">
        <ele>119.40000152588</ele>
        <time>2021-03-28T09:15:19.000Z</time>
      </trkpt>
      <trkpt lat="49.19319" lon="1.62904">
        <ele>119.59999847412</ele>
        <time>2021-03-28T09:15:21.000Z</time>
      </trkpt>
      <trkpt lat="49.19317" lon="1.62895">
        <ele>119.80000305176</ele>
        <time>2021-03-28T09:15:23.000Z</time>
      </trkpt>
      <trkpt lat="49.19314" lon="1.6288">
        <ele>120.40000152588</ele>
        <time>2021-03-28T09:15:26.000Z</time>
      </trkpt>
      <trkpt lat="49.19308" lon="1.62857">
        <ele>120.40000152588</ele>
        <time>2021-03-28T09:15:31.000Z</time>
      </trkpt>
      <trkpt lat="49.19305" lon="1.62831">
        <ele>120.59999847412</ele>
        <time>2021-03-28T09:15:36.000Z</time>
      </trkpt>
      <trkpt lat="49.19303" lon="1.62821">
        <ele>120.80000305176</ele>
        <time>2021-03-28T09:15:38.000Z</time>
      </trkpt>
      <trkpt lat="49.193" lon="1.62805">
        <ele>121.19999694824</ele>
        <time>2021-03-28T09:15:41.000Z</time>
      </trkpt>
      <trkpt lat="49.19296" lon="1.62777">
        <ele>121.80000305176</ele>
        <time>2021-03-28T09:15:45.000Z</time>
      </trkpt>
      <trkpt lat="49.19295" lon="1.6277">
        <ele>121.80000305176</ele>
        <time>2021-03-28T09:15:46.000Z</time>
      </trkpt>
      <trkpt lat="49.19293" lon="1.62739">
        <ele>122</ele>
        <time>2021-03-28T09:15:50.000Z</time>
      </trkpt>
      <trkpt lat="49.19288" lon="1.62704">
        <ele>122.19999694824</ele>
        <time>2021-03-28T09:15:55.000Z</time>
      </trkpt>
      <trkpt lat="49.19287" lon="1.62696">
        <ele>122.40000152588</ele>
        <time>2021-03-28T09:15:56.000Z</time>
      </trkpt>
      <trkpt lat="49.19283" lon="1.6267">
        <ele>122.40000152588</ele>
        <time>2021-03-28T09:15:59.000Z</time>
      </trkpt>
      <trkpt lat="49.19282" lon="1.62661">
        <ele>122.40000152588</ele>
        <time>2021-03-28T09:16:00.000Z</time>
      </trkpt>
      <trkpt lat="49.19274" lon="1.62602">
        <ele>122.40000152588</ele>
        <time>2021-03-28T09:16:07.000Z</time>
      </trkpt>
      <trkpt lat="49.19269" lon="1.62564">
        <ele>122.19999694824</ele>
        <time>2021-03-28T09:16:12.000Z</time>
      </trkpt>
      <trkpt lat="49.19262" lon="1.62508">
        <ele>122.19999694824</ele>
        <time>2021-03-28T09:16:19.000Z</time>
      </trkpt>
      <trkpt lat="49.19257" lon="1.6246">
        <ele>122.40000152588</ele>
        <time>2021-03-28T09:16:25.000Z</time>
      </trkpt>
      <trkpt lat="49.19253" lon="1.62426">
        <ele>122.80000305176</ele>
        <time>2021-03-28T09:16:29.000Z</time>
      </trkpt>
      <trkpt lat="49.19252" lon="1.62419">
        <ele>123</ele>
        <time>2021-03-28T09:16:30.000Z</time>
      </trkpt>
      <trkpt lat="49.19245" lon="1.62372">
        <ele>124</ele>
        <time>2021-03-28T09:16:36.000Z</time>
      </trkpt>
      <trkpt lat="49.19242" lon="1.62356">
        <ele>124.19999694824</ele>
        <time>2021-03-28T09:16:38.000Z</time>
      </trkpt>
      <trkpt lat="49.19242" lon="1.62348">
        <ele>124.19999694824</ele>
        <time>2021-03-28T09:16:39.000Z</time>
      </trkpt>
      <trkpt lat="49.1924" lon="1.62325">
        <ele>124.40000152588</ele>
        <time>2021-03-28T09:16:42.000Z</time>
      </trkpt>
      <trkpt lat="49.19235" lon="1.62279">
        <ele>124.40000152588</ele>
        <time>2021-03-28T09:16:48.000Z</time>
      </trkpt>
      <trkpt lat="49.19233" lon="1.62253">
        <ele>124.40000152588</ele>
        <time>2021-03-28T09:16:51.000Z</time>
      </trkpt>
      <trkpt lat="49.19231" lon="1.62229">
        <ele>124.40000152588</ele>
        <time>2021-03-28T09:16:54.000Z</time>
      </trkpt>
      <trkpt lat="49.1923" lon="1.62223">
        <ele>124.40000152588</ele>
        <time>2021-03-28T09:16:57.000Z</time>
      </trkpt>
      <trkpt lat="49.19232" lon="1.62215">
        <ele>124.40000152588</ele>
        <time>2021-03-28T09:17:00.000Z</time>
      </trkpt>
      <trkpt lat="49.19234" lon="1.62209">
        <ele>125</ele>
        <time>2021-03-28T09:17:03.000Z</time>
      </trkpt>
      <trkpt lat="49.19236" lon="1.62201">
        <ele>125.59999847412</ele>
        <time>2021-03-28T09:17:06.000Z</time>
      </trkpt>
      <trkpt lat="49.19236" lon="1.62198">
        <ele>125.59999847412</ele>
        <time>2021-03-28T09:17:08.000Z</time>
      </trkpt>
      <trkpt lat="49.19236" lon="1.62192">
        <ele>125.80000305176</ele>
        <time>2021-03-28T09:17:11.000Z</time>
      </trkpt>
      <trkpt lat="49.19237" lon="1.62187">
        <ele>125.80000305176</ele>
        <time>2021-03-28T09:17:13.000Z</time>
      </trkpt>
      <trkpt lat="49.19243" lon="1.62164">
        <ele>125.80000305176</ele>
        <time>2021-03-28T09:17:19.000Z</time>
      </trkpt>
      <trkpt lat="49.19253" lon="1.6214">
        <ele>126</ele>
        <time>2021-03-28T09:17:24.000Z</time>
      </trkpt>
      <trkpt lat="49.19255" lon="1.62135">
        <ele>126</ele>
        <time>2021-03-28T09:17:25.000Z</time>
      </trkpt>
      <trkpt lat="49.19265" lon="1.62114">
        <ele>126</ele>
        <time>2021-03-28T09:17:29.000Z</time>
      </trkpt>
      <trkpt lat="49.19274" lon="1.62097">
        <ele>126.80000305176</ele>
        <time>2021-03-28T09:17:34.000Z</time>
      </trkpt>
      <trkpt lat="49.19283" lon="1.62092">
        <ele>127.19999694824</ele>
        <time>2021-03-28T09:17:37.000Z</time>
      </trkpt>
      <trkpt lat="49.19292" lon="1.62087">
        <ele>127.59999847412</ele>
        <time>2021-03-28T09:17:40.000Z</time>
      </trkpt>
      <trkpt lat="49.19306" lon="1.62069">
        <ele>128</ele>
        <time>2021-03-28T09:17:45.000Z</time>
      </trkpt>
      <trkpt lat="49.19308" lon="1.62065">
        <ele>128.19999694824</ele>
        <time>2021-03-28T09:17:46.000Z</time>
      </trkpt>
      <trkpt lat="49.19321" lon="1.62044">
        <ele>128.60000610352</ele>
        <time>2021-03-28T09:17:51.000Z</time>
      </trkpt>
      <trkpt lat="49.19344" lon="1.62007">
        <ele>129.19999694824</ele>
        <time>2021-03-28T09:17:58.000Z</time>
      </trkpt>
      <trkpt lat="49.19352" lon="1.61993">
        <ele>129.19999694824</ele>
        <time>2021-03-28T09:18:00.000Z</time>
      </trkpt>
      <trkpt lat="49.1936" lon="1.61982">
        <ele>129.19999694824</ele>
        <time>2021-03-28T09:18:02.000Z</time>
      </trkpt>
      <trkpt lat="49.19373" lon="1.61958">
        <ele>129.19999694824</ele>
        <time>2021-03-28T09:18:06.000Z</time>
      </trkpt>
      <trkpt lat="49.19379" lon="1.61943">
        <ele>129.39999389648</ele>
        <time>2021-03-28T09:18:08.000Z</time>
      </trkpt>
      <trkpt lat="49.19385" lon="1.6193">
        <ele>129.60000610352</ele>
        <time>2021-03-28T09:18:10.000Z</time>
      </trkpt>
      <trkpt lat="49.19395" lon="1.61914">
        <ele>129.80000305176</ele>
        <time>2021-03-28T09:18:13.000Z</time>
      </trkpt>
      <trkpt lat="49.19399" lon="1.61908">
        <ele>129.80000305176</ele>
        <time>2021-03-28T09:18:14.000Z</time>
      </trkpt>
      <trkpt lat="49.19416" lon="1.6188">
        <ele>129.80000305176</ele>
        <time>2021-03-28T09:18:19.000Z</time>
      </trkpt>
      <trkpt lat="49.1944" lon="1.61842">
        <ele>129.80000305176</ele>
        <time>2021-03-28T09:18:25.000Z</time>
      </trkpt>
      <trkpt lat="49.19445" lon="1.61837">
        <ele>129.80000305176</ele>
        <time>2021-03-28T09:18:26.000Z</time>
      </trkpt>
      <trkpt lat="49.1946" lon="1.61827">
        <ele>129.60000610352</ele>
        <time>2021-03-28T09:18:29.000Z</time>
      </trkpt>
      <trkpt lat="49.19479" lon="1.61818">
        <ele>129.19999694824</ele>
        <time>2021-03-28T09:18:33.000Z</time>
      </trkpt>
      <trkpt lat="49.19499" lon="1.61808">
        <ele>129.19999694824</ele>
        <time>2021-03-28T09:18:38.000Z</time>
      </trkpt>
      <trkpt lat="49.19516" lon="1.61802">
        <ele>129.19999694824</ele>
        <time>2021-03-28T09:18:42.000Z</time>
      </trkpt>
      <trkpt lat="49.19521" lon="1.61802">
        <ele>129.19999694824</ele>
        <time>2021-03-28T09:18:43.000Z</time>
      </trkpt>
      <trkpt lat="49.1953" lon="1.61802">
        <ele>129.19999694824</ele>
        <time>2021-03-28T09:18:46.000Z</time>
      </trkpt>
      <trkpt lat="49.19535" lon="1.61802">
        <ele>129.39999389648</ele>
        <time>2021-03-28T09:18:51.000Z</time>
      </trkpt>
      <trkpt lat="49.19537" lon="1.618">
        <ele>129.60000610352</ele>
        <time>2021-03-28T09:18:54.000Z</time>
      </trkpt>
      <trkpt lat="49.19539" lon="1.61798">
        <ele>129.80000305176</ele>
        <time>2021-03-28T09:18:56.000Z</time>
      </trkpt>
      <trkpt lat="49.19541" lon="1.61798">
        <ele>130</ele>
        <time>2021-03-28T09:18:57.000Z</time>
      </trkpt>
      <trkpt lat="49.19542" lon="1.61798">
        <ele>130.19999694824</ele>
        <time>2021-03-28T09:18:58.000Z</time>
      </trkpt>
      <trkpt lat="49.19546" lon="1.61792">
        <ele>130</ele>
        <time>2021-03-28T09:19:01.000Z</time>
      </trkpt>
      <trkpt lat="49.19546" lon="1.6179">
        <ele>130</ele>
        <time>2021-03-28T09:19:02.000Z</time>
      </trkpt>
      <trkpt lat="49.19547" lon="1.61783">
        <ele>130.19999694824</ele>
        <time>2021-03-28T09:19:07.000Z</time>
      </trkpt>
      <trkpt lat="49.19548" lon="1.61781">
        <ele>129.80000305176</ele>
        <time>2021-03-28T09:19:23.000Z</time>
      </trkpt>
      <trkpt lat="49.19547" lon="1.61781">
        <ele>129.80000305176</ele>
        <time>2021-03-28T09:19:24.000Z</time>
      </trkpt>
      <trkpt lat="49.19546" lon="1.6178">
        <ele>129.80000305176</ele>
        <time>2021-03-28T09:19:25.000Z</time>
      </trkpt>
      <trkpt lat="49.1954" lon="1.61772">
        <ele>129.60000610352</ele>
        <time>2021-03-28T09:19:29.000Z</time>
      </trkpt>
      <trkpt lat="49.19525" lon="1.61756">
        <ele>129.19999694824</ele>
        <time>2021-03-28T09:19:34.000Z</time>
      </trkpt>
      <trkpt lat="49.19518" lon="1.61749">
        <ele>129</ele>
        <time>2021-03-28T09:19:36.000Z</time>
      </trkpt>
      <trkpt lat="49.1951" lon="1.61738">
        <ele>128.60000610352</ele>
        <time>2021-03-28T09:19:38.000Z</time>
      </trkpt>
      <trkpt lat="49.195" lon="1.61726">
        <ele>128</ele>
        <time>2021-03-28T09:19:40.000Z</time>
      </trkpt>
      <trkpt lat="49.19495" lon="1.6172">
        <ele>127.80000305176</ele>
        <time>2021-03-28T09:19:41.000Z</time>
      </trkpt>
      <trkpt lat="49.19488" lon="1.61713">
        <ele>127.19999694824</ele>
        <time>2021-03-28T09:19:43.000Z</time>
      </trkpt>
      <trkpt lat="49.19485" lon="1.6171">
        <ele>126.40000152588</ele>
        <time>2021-03-28T09:19:45.000Z</time>
      </trkpt>
      <trkpt lat="49.19484" lon="1.61707">
        <ele>125.59999847412</ele>
        <time>2021-03-28T09:19:47.000Z</time>
      </trkpt>
      <trkpt lat="49.19485" lon="1.61704">
        <ele>124.80000305176</ele>
        <time>2021-03-28T09:19:48.000Z</time>
      </trkpt>
      <trkpt lat="49.19487" lon="1.61696">
        <ele>124.40000152588</ele>
        <time>2021-03-28T09:19:51.000Z</time>
      </trkpt>
      <trkpt lat="49.1949" lon="1.61693">
        <ele>124.40000152588</ele>
        <time>2021-03-28T09:19:53.000Z</time>
      </trkpt>
      <trkpt lat="49.19495" lon="1.61691">
        <ele>124.40000152588</ele>
        <time>2021-03-28T09:19:55.000Z</time>
      </trkpt>
      <trkpt lat="49.19513" lon="1.61683">
        <ele>124.40000152588</ele>
        <time>2021-03-28T09:20:01.000Z</time>
      </trkpt>
      <trkpt lat="49.19518" lon="1.61682">
        <ele>124.40000152588</ele>
        <time>2021-03-28T09:20:03.000Z</time>
      </trkpt>
      <trkpt lat="49.1952" lon="1.61684">
        <ele>124.40000152588</ele>
        <time>2021-03-28T09:20:05.000Z</time>
      </trkpt>
      <trkpt lat="49.19523" lon="1.61681">
        <ele>124.59999847412</ele>
        <time>2021-03-28T09:20:09.000Z</time>
      </trkpt>
      <trkpt lat="49.19524" lon="1.61678">
        <ele>124.59999847412</ele>
        <time>2021-03-28T09:20:10.000Z</time>
      </trkpt>
      <trkpt lat="49.19533" lon="1.61671">
        <ele>124.40000152588</ele>
        <time>2021-03-28T09:20:14.000Z</time>
      </trkpt>
      <trkpt lat="49.19537" lon="1.6167">
        <ele>124.40000152588</ele>
        <time>2021-03-28T09:20:15.000Z</time>
      </trkpt>
      <trkpt lat="49.19556" lon="1.6166">
        <ele>124</ele>
        <time>2021-03-28T09:20:20.000Z</time>
      </trkpt>
      <trkpt lat="49.19563" lon="1.61654">
        <ele>123.59999847412</ele>
        <time>2021-03-28T09:20:22.000Z</time>
      </trkpt>
      <trkpt lat="49.19573" lon="1.61646">
        <ele>123.59999847412</ele>
        <time>2021-03-28T09:20:25.000Z</time>
      </trkpt>
      <trkpt lat="49.19589" lon="1.61638">
        <ele>123.59999847412</ele>
        <time>2021-03-28T09:20:30.000Z</time>
      </trkpt>
      <trkpt lat="49.19599" lon="1.61631">
        <ele>124</ele>
        <time>2021-03-28T09:20:34.000Z</time>
      </trkpt>
      <trkpt lat="49.19602" lon="1.61628">
        <ele>124.19999694824</ele>
        <time>2021-03-28T09:20:35.000Z</time>
      </trkpt>
      <trkpt lat="49.19608" lon="1.61621">
        <ele>124.80000305176</ele>
        <time>2021-03-28T09:20:37.000Z</time>
      </trkpt>
      <trkpt lat="49.19618" lon="1.61612">
        <ele>125.59999847412</ele>
        <time>2021-03-28T09:20:40.000Z</time>
      </trkpt>
      <trkpt lat="49.19621" lon="1.6161">
        <ele>125.80000305176</ele>
        <time>2021-03-28T09:20:41.000Z</time>
      </trkpt>
      <trkpt lat="49.19627" lon="1.61607">
        <ele>126</ele>
        <time>2021-03-28T09:20:43.000Z</time>
      </trkpt>
      <trkpt lat="49.19631" lon="1.61604">
        <ele>126</ele>
        <time>2021-03-28T09:20:44.000Z</time>
      </trkpt>
      <trkpt lat="49.19637" lon="1.61581">
        <ele>126.19999694824</ele>
        <time>2021-03-28T09:20:48.000Z</time>
      </trkpt>
      <trkpt lat="49.19647" lon="1.6157">
        <ele>126.19999694824</ele>
        <time>2021-03-28T09:20:51.000Z</time>
      </trkpt>
      <trkpt lat="49.1965" lon="1.61566">
        <ele>126.19999694824</ele>
        <time>2021-03-28T09:20:52.000Z</time>
      </trkpt>
      <trkpt lat="49.19654" lon="1.61561">
        <ele>126.19999694824</ele>
        <time>2021-03-28T09:20:53.000Z</time>
      </trkpt>
      <trkpt lat="49.19665" lon="1.61546">
        <ele>126.19999694824</ele>
        <time>2021-03-28T09:20:56.000Z</time>
      </trkpt>
      <trkpt lat="49.19671" lon="1.61534">
        <ele>125.80000305176</ele>
        <time>2021-03-28T09:20:58.000Z</time>
      </trkpt>
      <trkpt lat="49.19678" lon="1.61518">
        <ele>125.59999847412</ele>
        <time>2021-03-28T09:21:01.000Z</time>
      </trkpt>
      <trkpt lat="49.19691" lon="1.61492">
        <ele>125.40000152588</ele>
        <time>2021-03-28T09:21:06.000Z</time>
      </trkpt>
      <trkpt lat="49.19701" lon="1.61465">
        <ele>125.19999694824</ele>
        <time>2021-03-28T09:21:11.000Z</time>
      </trkpt>
      <trkpt lat="49.19714" lon="1.61428">
        <ele>125.40000152588</ele>
        <time>2021-03-28T09:21:17.000Z</time>
      </trkpt>
      <trkpt lat="49.19725" lon="1.614">
        <ele>125.80000305176</ele>
        <time>2021-03-28T09:21:22.000Z</time>
      </trkpt>
      <trkpt lat="49.19739" lon="1.61366">
        <ele>126.59999847412</ele>
        <time>2021-03-28T09:21:28.000Z</time>
      </trkpt>
      <trkpt lat="49.19743" lon="1.61355">
        <ele>127</ele>
        <time>2021-03-28T09:21:30.000Z</time>
      </trkpt>
      <trkpt lat="49.1975" lon="1.6134">
        <ele>127.40000152588</ele>
        <time>2021-03-28T09:21:33.000Z</time>
      </trkpt>
      <trkpt lat="49.19755" lon="1.61323">
        <ele>128</ele>
        <time>2021-03-28T09:21:36.000Z</time>
      </trkpt>
      <trkpt lat="49.19759" lon="1.61312">
        <ele>128.39999389648</ele>
        <time>2021-03-28T09:21:38.000Z</time>
      </trkpt>
      <trkpt lat="49.19769" lon="1.61288">
        <ele>129.19999694824</ele>
        <time>2021-03-28T09:21:43.000Z</time>
      </trkpt>
      <trkpt lat="49.19771" lon="1.61285">
        <ele>129.39999389648</ele>
        <time>2021-03-28T09:21:44.000Z</time>
      </trkpt>
      <trkpt lat="49.19782" lon="1.61282">
        <ele>129.80000305176</ele>
        <time>2021-03-28T09:21:48.000Z</time>
      </trkpt>
      <trkpt lat="49.19786" lon="1.61283">
        <ele>130</ele>
        <time>2021-03-28T09:21:50.000Z</time>
      </trkpt>
      <trkpt lat="49.19792" lon="1.61283">
        <ele>130.19999694824</ele>
        <time>2021-03-28T09:21:52.000Z</time>
      </trkpt>
      <trkpt lat="49.19794" lon="1.61283">
        <ele>130.39999389648</ele>
        <time>2021-03-28T09:21:53.000Z</time>
      </trkpt>
      <trkpt lat="49.19802" lon="1.61283">
        <ele>131.39999389648</ele>
        <time>2021-03-28T09:21:56.000Z</time>
      </trkpt>
      <trkpt lat="49.19806" lon="1.61283">
        <ele>132</ele>
        <time>2021-03-28T09:21:58.000Z</time>
      </trkpt>
      <trkpt lat="49.19812" lon="1.61283">
        <ele>132.39999389648</ele>
        <time>2021-03-28T09:22:00.000Z</time>
      </trkpt>
      <trkpt lat="49.19822" lon="1.61286">
        <ele>133.19999694824</ele>
        <time>2021-03-28T09:22:04.000Z</time>
      </trkpt>
      <trkpt lat="49.19827" lon="1.61286">
        <ele>133.60000610352</ele>
        <time>2021-03-28T09:22:06.000Z</time>
      </trkpt>
      <trkpt lat="49.19833" lon="1.61289">
        <ele>134</ele>
        <time>2021-03-28T09:22:09.000Z</time>
      </trkpt>
      <trkpt lat="49.19848" lon="1.61305">
        <ele>134.60000610352</ele>
        <time>2021-03-28T09:22:15.000Z</time>
      </trkpt>
      <trkpt lat="49.19868" lon="1.61328">
        <ele>135.19999694824</ele>
        <time>2021-03-28T09:22:22.000Z</time>
      </trkpt>
      <trkpt lat="49.19889" lon="1.61352">
        <ele>135.60000610352</ele>
        <time>2021-03-28T09:22:28.000Z</time>
      </trkpt>
      <trkpt lat="49.19893" lon="1.61356">
        <ele>135.60000610352</ele>
        <time>2021-03-28T09:22:29.000Z</time>
      </trkpt>
      <trkpt lat="49.19899" lon="1.61365">
        <ele>135.80000305176</ele>
        <time>2021-03-28T09:22:31.000Z</time>
      </trkpt>
      <trkpt lat="49.19907" lon="1.61374">
        <ele>135.80000305176</ele>
        <time>2021-03-28T09:22:33.000Z</time>
      </trkpt>
      <trkpt lat="49.19917" lon="1.61388">
        <ele>136</ele>
        <time>2021-03-28T09:22:36.000Z</time>
      </trkpt>
      <trkpt lat="49.19927" lon="1.614">
        <ele>136</ele>
        <time>2021-03-28T09:22:39.000Z</time>
      </trkpt>
      <trkpt lat="49.19956" lon="1.61436">
        <ele>136.19999694824</ele>
        <time>2021-03-28T09:22:47.000Z</time>
      </trkpt>
      <trkpt lat="49.19983" lon="1.6147">
        <ele>136.39999389648</ele>
        <time>2021-03-28T09:22:54.000Z</time>
      </trkpt>
      <trkpt lat="49.20016" lon="1.6151">
        <ele>136.39999389648</ele>
        <time>2021-03-28T09:23:02.000Z</time>
      </trkpt>
      <trkpt lat="49.20057" lon="1.61554">
        <ele>136</ele>
        <time>2021-03-28T09:23:11.000Z</time>
      </trkpt>
      <trkpt lat="49.20098" lon="1.616">
        <ele>135.60000610352</ele>
        <time>2021-03-28T09:23:20.000Z</time>
      </trkpt>
      <trkpt lat="49.20126" lon="1.61641">
        <ele>135.60000610352</ele>
        <time>2021-03-28T09:23:28.000Z</time>
      </trkpt>
      <trkpt lat="49.20146" lon="1.61682">
        <ele>135.60000610352</ele>
        <time>2021-03-28T09:23:35.000Z</time>
      </trkpt>
      <trkpt lat="49.20163" lon="1.61716">
        <ele>134.80000305176</ele>
        <time>2021-03-28T09:23:41.000Z</time>
      </trkpt>
      <trkpt lat="49.20169" lon="1.61729">
        <ele>134.80000305176</ele>
        <time>2021-03-28T09:23:43.000Z</time>
      </trkpt>
      <trkpt lat="49.20196" lon="1.61786">
        <ele>134.39999389648</ele>
        <time>2021-03-28T09:23:52.000Z</time>
      </trkpt>
      <trkpt lat="49.20216" lon="1.61828">
        <ele>133.80000305176</ele>
        <time>2021-03-28T09:23:59.000Z</time>
      </trkpt>
      <trkpt lat="49.20222" lon="1.6184">
        <ele>133.60000610352</ele>
        <time>2021-03-28T09:24:01.000Z</time>
      </trkpt>
      <trkpt lat="49.20247" lon="1.61895">
        <ele>133.39999389648</ele>
        <time>2021-03-28T09:24:10.000Z</time>
      </trkpt>
      <trkpt lat="49.20272" lon="1.61947">
        <ele>133</ele>
        <time>2021-03-28T09:24:19.000Z</time>
      </trkpt>
      <trkpt lat="49.20292" lon="1.61989">
        <ele>133</ele>
        <time>2021-03-28T09:24:27.000Z</time>
      </trkpt>
      <trkpt lat="49.20308" lon="1.62023">
        <ele>132.80000305176</ele>
        <time>2021-03-28T09:24:35.000Z</time>
      </trkpt>
      <trkpt lat="49.20317" lon="1.62041">
        <ele>133</ele>
        <time>2021-03-28T09:24:41.000Z</time>
      </trkpt>
      <trkpt lat="49.20329" lon="1.62068">
        <ele>133.19999694824</ele>
        <time>2021-03-28T09:24:47.000Z</time>
      </trkpt>
      <trkpt lat="49.20336" lon="1.62084">
        <ele>133.19999694824</ele>
        <time>2021-03-28T09:24:50.000Z</time>
      </trkpt>
      <trkpt lat="49.20343" lon="1.62102">
        <ele>133.19999694824</ele>
        <time>2021-03-28T09:24:53.000Z</time>
      </trkpt>
      <trkpt lat="49.20346" lon="1.62109">
        <ele>133.19999694824</ele>
        <time>2021-03-28T09:24:54.000Z</time>
      </trkpt>
      <trkpt lat="49.2036" lon="1.62149">
        <ele>133.19999694824</ele>
        <time>2021-03-28T09:25:00.000Z</time>
      </trkpt>
      <trkpt lat="49.20375" lon="1.62194">
        <ele>133</ele>
        <time>2021-03-28T09:25:06.000Z</time>
      </trkpt>
      <trkpt lat="49.2038" lon="1.62208">
        <ele>132.80000305176</ele>
        <time>2021-03-28T09:25:08.000Z</time>
      </trkpt>
      <trkpt lat="49.20398" lon="1.62261">
        <ele>132.80000305176</ele>
        <time>2021-03-28T09:25:15.000Z</time>
      </trkpt>
      <trkpt lat="49.20421" lon="1.62331">
        <ele>132.19999694824</ele>
        <time>2021-03-28T09:25:24.000Z</time>
      </trkpt>
      <trkpt lat="49.20424" lon="1.62339">
        <ele>132</ele>
        <time>2021-03-28T09:25:25.000Z</time>
      </trkpt>
      <trkpt lat="49.20442" lon="1.62392">
        <ele>131.60000610352</ele>
        <time>2021-03-28T09:25:32.000Z</time>
      </trkpt>
      <trkpt lat="49.20457" lon="1.62434">
        <ele>131.39999389648</ele>
        <time>2021-03-28T09:25:38.000Z</time>
      </trkpt>
      <trkpt lat="49.20459" lon="1.62439">
        <ele>131.19999694824</ele>
        <time>2021-03-28T09:25:39.000Z</time>
      </trkpt>
      <trkpt lat="49.20462" lon="1.62445">
        <ele>131.19999694824</ele>
        <time>2021-03-28T09:25:40.000Z</time>
      </trkpt>
      <trkpt lat="49.20471" lon="1.62473">
        <ele>131</ele>
        <time>2021-03-28T09:25:44.000Z</time>
      </trkpt>
      <trkpt lat="49.20487" lon="1.62518">
        <ele>130.80000305176</ele>
        <time>2021-03-28T09:25:50.000Z</time>
      </trkpt>
      <trkpt lat="49.20501" lon="1.6256">
        <ele>130</ele>
        <time>2021-03-28T09:25:55.000Z</time>
      </trkpt>
      <trkpt lat="49.20509" lon="1.62585">
        <ele>129.60000610352</ele>
        <time>2021-03-28T09:25:58.000Z</time>
      </trkpt>
      <trkpt lat="49.20512" lon="1.62594">
        <ele>129.60000610352</ele>
        <time>2021-03-28T09:25:59.000Z</time>
      </trkpt>
      <trkpt lat="49.20524" lon="1.62637">
        <ele>128.80000305176</ele>
        <time>2021-03-28T09:26:04.000Z</time>
      </trkpt>
      <trkpt lat="49.20531" lon="1.62664">
        <ele>128.39999389648</ele>
        <time>2021-03-28T09:26:07.000Z</time>
      </trkpt>
      <trkpt lat="49.20544" lon="1.62721">
        <ele>127.80000305176</ele>
        <time>2021-03-28T09:26:13.000Z</time>
      </trkpt>
      <trkpt lat="49.20549" lon="1.62741">
        <ele>127</ele>
        <time>2021-03-28T09:26:15.000Z</time>
      </trkpt>
      <trkpt lat="49.20554" lon="1.6276">
        <ele>126.59999847412</ele>
        <time>2021-03-28T09:26:17.000Z</time>
      </trkpt>
      <trkpt lat="49.20569" lon="1.62818">
        <ele>125.59999847412</ele>
        <time>2021-03-28T09:26:23.000Z</time>
      </trkpt>
      <trkpt lat="49.20584" lon="1.62877">
        <ele>124.40000152588</ele>
        <time>2021-03-28T09:26:29.000Z</time>
      </trkpt>
      <trkpt lat="49.20589" lon="1.62896">
        <ele>123.80000305176</ele>
        <time>2021-03-28T09:26:31.000Z</time>
      </trkpt>
      <trkpt lat="49.20606" lon="1.62963">
        <ele>123.40000152588</ele>
        <time>2021-03-28T09:26:38.000Z</time>
      </trkpt>
      <trkpt lat="49.20613" lon="1.62992">
        <ele>123.19999694824</ele>
        <time>2021-03-28T09:26:41.000Z</time>
      </trkpt>
      <trkpt lat="49.20627" lon="1.63061">
        <ele>123</ele>
        <time>2021-03-28T09:26:48.000Z</time>
      </trkpt>
      <trkpt lat="49.20639" lon="1.63123">
        <ele>123</ele>
        <time>2021-03-28T09:26:55.000Z</time>
      </trkpt>
      <trkpt lat="49.20652" lon="1.63185">
        <ele>123</ele>
        <time>2021-03-28T09:27:03.000Z</time>
      </trkpt>
      <trkpt lat="49.20666" lon="1.63249">
        <ele>123</ele>
        <time>2021-03-28T09:27:11.000Z</time>
      </trkpt>
      <trkpt lat="49.20679" lon="1.63296">
        <ele>122.80000305176</ele>
        <time>2021-03-28T09:27:17.000Z</time>
      </trkpt>
      <trkpt lat="49.20693" lon="1.63343">
        <ele>122.80000305176</ele>
        <time>2021-03-28T09:27:24.000Z</time>
      </trkpt>
      <trkpt lat="49.20698" lon="1.63355">
        <ele>122.80000305176</ele>
        <time>2021-03-28T09:27:26.000Z</time>
      </trkpt>
      <trkpt lat="49.2071" lon="1.6339">
        <ele>123</ele>
        <time>2021-03-28T09:27:31.000Z</time>
      </trkpt>
      <trkpt lat="49.20727" lon="1.63442">
        <ele>123</ele>
        <time>2021-03-28T09:27:37.000Z</time>
      </trkpt>
      <trkpt lat="49.20735" lon="1.63469">
        <ele>122.40000152588</ele>
        <time>2021-03-28T09:27:40.000Z</time>
      </trkpt>
      <trkpt lat="49.20749" lon="1.6351">
        <ele>121.40000152588</ele>
        <time>2021-03-28T09:27:45.000Z</time>
      </trkpt>
      <trkpt lat="49.20754" lon="1.63526">
        <ele>121.40000152588</ele>
        <time>2021-03-28T09:27:47.000Z</time>
      </trkpt>
      <trkpt lat="49.20767" lon="1.63571">
        <ele>121.19999694824</ele>
        <time>2021-03-28T09:27:53.000Z</time>
      </trkpt>
      <trkpt lat="49.20782" lon="1.63617">
        <ele>122</ele>
        <time>2021-03-28T09:28:00.000Z</time>
      </trkpt>
      <trkpt lat="49.20784" lon="1.63629">
        <ele>122.40000152588</ele>
        <time>2021-03-28T09:28:02.000Z</time>
      </trkpt>
      <trkpt lat="49.20787" lon="1.63645">
        <ele>122.59999847412</ele>
        <time>2021-03-28T09:28:05.000Z</time>
      </trkpt>
      <trkpt lat="49.20793" lon="1.63658">
        <ele>123.59999847412</ele>
        <time>2021-03-28T09:28:08.000Z</time>
      </trkpt>
      <trkpt lat="49.20797" lon="1.63666">
        <ele>124.40000152588</ele>
        <time>2021-03-28T09:28:10.000Z</time>
      </trkpt>
      <trkpt lat="49.20803" lon="1.63678">
        <ele>124.80000305176</ele>
        <time>2021-03-28T09:28:13.000Z</time>
      </trkpt>
      <trkpt lat="49.20805" lon="1.63682">
        <ele>125</ele>
        <time>2021-03-28T09:28:14.000Z</time>
      </trkpt>
      <trkpt lat="49.2081" lon="1.63693">
        <ele>125.80000305176</ele>
        <time>2021-03-28T09:28:17.000Z</time>
      </trkpt>
      <trkpt lat="49.20816" lon="1.63706">
        <ele>126.59999847412</ele>
        <time>2021-03-28T09:28:20.000Z</time>
      </trkpt>
      <trkpt lat="49.20821" lon="1.63714">
        <ele>127</ele>
        <time>2021-03-28T09:28:22.000Z</time>
      </trkpt>
      <trkpt lat="49.20829" lon="1.63723">
        <ele>127.59999847412</ele>
        <time>2021-03-28T09:28:25.000Z</time>
      </trkpt>
      <trkpt lat="49.2084" lon="1.63737">
        <ele>128.19999694824</ele>
        <time>2021-03-28T09:28:29.000Z</time>
      </trkpt>
      <trkpt lat="49.20843" lon="1.6374">
        <ele>128.39999389648</ele>
        <time>2021-03-28T09:28:30.000Z</time>
      </trkpt>
      <trkpt lat="49.20853" lon="1.63757">
        <ele>129.19999694824</ele>
        <time>2021-03-28T09:28:34.000Z</time>
      </trkpt>
      <trkpt lat="49.20857" lon="1.63769">
        <ele>129.60000610352</ele>
        <time>2021-03-28T09:28:36.000Z</time>
      </trkpt>
      <trkpt lat="49.20869" lon="1.63799">
        <ele>129.60000610352</ele>
        <time>2021-03-28T09:28:41.000Z</time>
      </trkpt>
      <trkpt lat="49.20875" lon="1.63819">
        <ele>129.80000305176</ele>
        <time>2021-03-28T09:28:44.000Z</time>
      </trkpt>
      <trkpt lat="49.2088" lon="1.63835">
        <ele>129.80000305176</ele>
        <time>2021-03-28T09:28:46.000Z</time>
      </trkpt>
      <trkpt lat="49.20889" lon="1.63867">
        <ele>129.19999694824</ele>
        <time>2021-03-28T09:28:51.000Z</time>
      </trkpt>
      <trkpt lat="49.20898" lon="1.63898">
        <ele>129</ele>
        <time>2021-03-28T09:28:56.000Z</time>
      </trkpt>
      <trkpt lat="49.20903" lon="1.63911">
        <ele>129</ele>
        <time>2021-03-28T09:28:58.000Z</time>
      </trkpt>
      <trkpt lat="49.2091" lon="1.63939">
        <ele>129.19999694824</ele>
        <time>2021-03-28T09:29:02.000Z</time>
      </trkpt>
      <trkpt lat="49.20923" lon="1.63972">
        <ele>129.39999389648</ele>
        <time>2021-03-28T09:29:08.000Z</time>
      </trkpt>
      <trkpt lat="49.20947" lon="1.64004">
        <ele>130.19999694824</ele>
        <time>2021-03-28T09:29:14.000Z</time>
      </trkpt>
      <trkpt lat="49.20951" lon="1.64009">
        <ele>130.60000610352</ele>
        <time>2021-03-28T09:29:15.000Z</time>
      </trkpt>
      <trkpt lat="49.20958" lon="1.64019">
        <ele>130.80000305176</ele>
        <time>2021-03-28T09:29:17.000Z</time>
      </trkpt>
      <trkpt lat="49.20976" lon="1.64051">
        <ele>131.60000610352</ele>
        <time>2021-03-28T09:29:23.000Z</time>
      </trkpt>
      <trkpt lat="49.20994" lon="1.64088">
        <ele>132.60000610352</ele>
        <time>2021-03-28T09:29:30.000Z</time>
      </trkpt>
      <trkpt lat="49.20998" lon="1.641">
        <ele>132.80000305176</ele>
        <time>2021-03-28T09:29:32.000Z</time>
      </trkpt>
      <trkpt lat="49.21003" lon="1.64111">
        <ele>133.19999694824</ele>
        <time>2021-03-28T09:29:34.000Z</time>
      </trkpt>
      <trkpt lat="49.21005" lon="1.64116">
        <ele>133.60000610352</ele>
        <time>2021-03-28T09:29:35.000Z</time>
      </trkpt>
      <trkpt lat="49.21012" lon="1.64134">
        <ele>134.19999694824</ele>
        <time>2021-03-28T09:29:38.000Z</time>
      </trkpt>
      <trkpt lat="49.21022" lon="1.64159">
        <ele>134.60000610352</ele>
        <time>2021-03-28T09:29:42.000Z</time>
      </trkpt>
      <trkpt lat="49.21033" lon="1.64184">
        <ele>135.19999694824</ele>
        <time>2021-03-28T09:29:46.000Z</time>
      </trkpt>
      <trkpt lat="49.21051" lon="1.64223">
        <ele>135.60000610352</ele>
        <time>2021-03-28T09:29:52.000Z</time>
      </trkpt>
      <trkpt lat="49.21057" lon="1.64236">
        <ele>135.80000305176</ele>
        <time>2021-03-28T09:29:54.000Z</time>
      </trkpt>
      <trkpt lat="49.21072" lon="1.64271">
        <ele>136.80000305176</ele>
        <time>2021-03-28T09:30:00.000Z</time>
      </trkpt>
      <trkpt lat="49.21074" lon="1.64276">
        <ele>136.80000305176</ele>
        <time>2021-03-28T09:30:01.000Z</time>
      </trkpt>
      <trkpt lat="49.21091" lon="1.64316">
        <ele>137.19999694824</ele>
        <time>2021-03-28T09:30:08.000Z</time>
      </trkpt>
      <trkpt lat="49.211" lon="1.64338">
        <ele>137.19999694824</ele>
        <time>2021-03-28T09:30:13.000Z</time>
      </trkpt>
      <trkpt lat="49.21104" lon="1.64353">
        <ele>137.19999694824</ele>
        <time>2021-03-28T09:30:17.000Z</time>
      </trkpt>
      <trkpt lat="49.21105" lon="1.64355">
        <ele>137.19999694824</ele>
        <time>2021-03-28T09:30:18.000Z</time>
      </trkpt>
      <trkpt lat="49.21111" lon="1.64354">
        <ele>137.19999694824</ele>
        <time>2021-03-28T09:30:21.000Z</time>
      </trkpt>
      <trkpt lat="49.21114" lon="1.64347">
        <ele>137.19999694824</ele>
        <time>2021-03-28T09:30:23.000Z</time>
      </trkpt>
      <trkpt lat="49.21119" lon="1.64336">
        <ele>137.19999694824</ele>
        <time>2021-03-28T09:30:26.000Z</time>
      </trkpt>
      <trkpt lat="49.21118" lon="1.64332">
        <ele>137.19999694824</ele>
        <time>2021-03-28T09:30:27.000Z</time>
      </trkpt>
      <trkpt lat="49.21114" lon="1.64329">
        <ele>137.19999694824</ele>
        <time>2021-03-28T09:30:29.000Z</time>
      </trkpt>
      <trkpt lat="49.21104" lon="1.64337">
        <ele>137.19999694824</ele>
        <time>2021-03-28T09:30:33.000Z</time>
      </trkpt>
      <trkpt lat="49.21092" lon="1.64349">
        <ele>137.19999694824</ele>
        <time>2021-03-28T09:30:39.000Z</time>
      </trkpt>
      <trkpt lat="49.21074" lon="1.64362">
        <ele>137.19999694824</ele>
        <time>2021-03-28T09:30:45.000Z</time>
      </trkpt>
      <trkpt lat="49.21049" lon="1.64375">
        <ele>135.80000305176</ele>
        <time>2021-03-28T09:30:50.000Z</time>
      </trkpt>
      <trkpt lat="49.21044" lon="1.64377">
        <ele>135.60000610352</ele>
        <time>2021-03-28T09:30:51.000Z</time>
      </trkpt>
      <trkpt lat="49.21026" lon="1.64383">
        <ele>134.39999389648</ele>
        <time>2021-03-28T09:30:55.000Z</time>
      </trkpt>
      <trkpt lat="49.21021" lon="1.64385">
        <ele>134</ele>
        <time>2021-03-28T09:30:56.000Z</time>
      </trkpt>
      <trkpt lat="49.21016" lon="1.64387">
        <ele>133.39999389648</ele>
        <time>2021-03-28T09:30:57.000Z</time>
      </trkpt>
      <trkpt lat="49.21011" lon="1.64389">
        <ele>132.60000610352</ele>
        <time>2021-03-28T09:30:58.000Z</time>
      </trkpt>
      <trkpt lat="49.21007" lon="1.64392">
        <ele>132</ele>
        <time>2021-03-28T09:30:59.000Z</time>
      </trkpt>
      <trkpt lat="49.20997" lon="1.64399">
        <ele>130.80000305176</ele>
        <time>2021-03-28T09:31:01.000Z</time>
      </trkpt>
      <trkpt lat="49.20981" lon="1.64415">
        <ele>129.60000610352</ele>
        <time>2021-03-28T09:31:04.000Z</time>
      </trkpt>
      <trkpt lat="49.20975" lon="1.64422">
        <ele>129</ele>
        <time>2021-03-28T09:31:05.000Z</time>
      </trkpt>
      <trkpt lat="49.20969" lon="1.64429">
        <ele>128.60000610352</ele>
        <time>2021-03-28T09:31:06.000Z</time>
      </trkpt>
      <trkpt lat="49.20955" lon="1.64444">
        <ele>127.19999694824</ele>
        <time>2021-03-28T09:31:08.000Z</time>
      </trkpt>
      <trkpt lat="49.2094" lon="1.64459">
        <ele>126.19999694824</ele>
        <time>2021-03-28T09:31:10.000Z</time>
      </trkpt>
      <trkpt lat="49.20924" lon="1.64475">
        <ele>124.80000305176</ele>
        <time>2021-03-28T09:31:12.000Z</time>
      </trkpt>
      <trkpt lat="49.20907" lon="1.64492">
        <ele>123.19999694824</ele>
        <time>2021-03-28T09:31:14.000Z</time>
      </trkpt>
      <trkpt lat="49.20889" lon="1.64508">
        <ele>121.40000152588</ele>
        <time>2021-03-28T09:31:16.000Z</time>
      </trkpt>
      <trkpt lat="49.20879" lon="1.64515">
        <ele>120.40000152588</ele>
        <time>2021-03-28T09:31:17.000Z</time>
      </trkpt>
      <trkpt lat="49.20869" lon="1.64523">
        <ele>118.40000152588</ele>
        <time>2021-03-28T09:31:18.000Z</time>
      </trkpt>
      <trkpt lat="49.2086" lon="1.6453">
        <ele>117.19999694824</ele>
        <time>2021-03-28T09:31:19.000Z</time>
      </trkpt>
      <trkpt lat="49.2085" lon="1.64536">
        <ele>116</ele>
        <time>2021-03-28T09:31:20.000Z</time>
      </trkpt>
      <trkpt lat="49.20841" lon="1.64543">
        <ele>115</ele>
        <time>2021-03-28T09:31:21.000Z</time>
      </trkpt>
      <trkpt lat="49.20832" lon="1.64549">
        <ele>113.80000305176</ele>
        <time>2021-03-28T09:31:22.000Z</time>
      </trkpt>
      <trkpt lat="49.20824" lon="1.64555">
        <ele>112.59999847412</ele>
        <time>2021-03-28T09:31:23.000Z</time>
      </trkpt>
      <trkpt lat="49.20815" lon="1.64561">
        <ele>111.59999847412</ele>
        <time>2021-03-28T09:31:24.000Z</time>
      </trkpt>
      <trkpt lat="49.20807" lon="1.64567">
        <ele>110.40000152588</ele>
        <time>2021-03-28T09:31:25.000Z</time>
      </trkpt>
      <trkpt lat="49.20799" lon="1.64574">
        <ele>109.19999694824</ele>
        <time>2021-03-28T09:31:26.000Z</time>
      </trkpt>
      <trkpt lat="49.20783" lon="1.64587">
        <ele>107.59999847412</ele>
        <time>2021-03-28T09:31:28.000Z</time>
      </trkpt>
      <trkpt lat="49.20768" lon="1.64602">
        <ele>106.59999847412</ele>
        <time>2021-03-28T09:31:30.000Z</time>
      </trkpt>
      <trkpt lat="49.20747" lon="1.64626">
        <ele>105.40000152588</ele>
        <time>2021-03-28T09:31:33.000Z</time>
      </trkpt>
      <trkpt lat="49.20722" lon="1.64657">
        <ele>104.80000305176</ele>
        <time>2021-03-28T09:31:37.000Z</time>
      </trkpt>
      <trkpt lat="49.20682" lon="1.64704">
        <ele>104.59999847412</ele>
        <time>2021-03-28T09:31:44.000Z</time>
      </trkpt>
      <trkpt lat="49.20656" lon="1.64737">
        <ele>105.59999847412</ele>
        <time>2021-03-28T09:31:50.000Z</time>
      </trkpt>
      <trkpt lat="49.20617" lon="1.64786">
        <ele>106</ele>
        <time>2021-03-28T09:31:59.000Z</time>
      </trkpt>
      <trkpt lat="49.20588" lon="1.64832">
        <ele>105.80000305176</ele>
        <time>2021-03-28T09:32:07.000Z</time>
      </trkpt>
      <trkpt lat="49.20571" lon="1.64874">
        <ele>105.59999847412</ele>
        <time>2021-03-28T09:32:14.000Z</time>
      </trkpt>
      <trkpt lat="49.20553" lon="1.64928">
        <ele>106.19999694824</ele>
        <time>2021-03-28T09:32:23.000Z</time>
      </trkpt>
      <trkpt lat="49.20547" lon="1.64946">
        <ele>106.59999847412</ele>
        <time>2021-03-28T09:32:26.000Z</time>
      </trkpt>
      <trkpt lat="49.2054" lon="1.64967">
        <ele>106.59999847412</ele>
        <time>2021-03-28T09:32:30.000Z</time>
      </trkpt>
      <trkpt lat="49.20523" lon="1.65013">
        <ele>106.59999847412</ele>
        <time>2021-03-28T09:32:38.000Z</time>
      </trkpt>
      <trkpt lat="49.20509" lon="1.65057">
        <ele>105.40000152588</ele>
        <time>2021-03-28T09:32:44.000Z</time>
      </trkpt>
      <trkpt lat="49.20497" lon="1.6509">
        <ele>104.19999694824</ele>
        <time>2021-03-28T09:32:48.000Z</time>
      </trkpt>
      <trkpt lat="49.20488" lon="1.65113">
        <ele>103.40000152588</ele>
        <time>2021-03-28T09:32:51.000Z</time>
      </trkpt>
      <trkpt lat="49.20485" lon="1.65121">
        <ele>102.80000305176</ele>
        <time>2021-03-28T09:32:52.000Z</time>
      </trkpt>
      <trkpt lat="49.20479" lon="1.65138">
        <ele>101.59999847412</ele>
        <time>2021-03-28T09:32:54.000Z</time>
      </trkpt>
      <trkpt lat="49.20469" lon="1.65162">
        <ele>100.80000305176</ele>
        <time>2021-03-28T09:32:57.000Z</time>
      </trkpt>
      <trkpt lat="49.20466" lon="1.6517">
        <ele>100.19999694824</ele>
        <time>2021-03-28T09:32:58.000Z</time>
      </trkpt>
      <trkpt lat="49.20455" lon="1.65195">
        <ele>99.199996948242</ele>
        <time>2021-03-28T09:33:01.000Z</time>
      </trkpt>
      <trkpt lat="49.20451" lon="1.65202">
        <ele>99.199996948242</ele>
        <time>2021-03-28T09:33:02.000Z</time>
      </trkpt>
      <trkpt lat="49.20447" lon="1.6521">
        <ele>99</ele>
        <time>2021-03-28T09:33:03.000Z</time>
      </trkpt>
      <trkpt lat="49.20434" lon="1.6523">
        <ele>97.800003051758</ele>
        <time>2021-03-28T09:33:06.000Z</time>
      </trkpt>
      <trkpt lat="49.20421" lon="1.65249">
        <ele>97</ele>
        <time>2021-03-28T09:33:09.000Z</time>
      </trkpt>
      <trkpt lat="49.20411" lon="1.65263">
        <ele>96.199996948242</ele>
        <time>2021-03-28T09:33:11.000Z</time>
      </trkpt>
      <trkpt lat="49.20386" lon="1.65301">
        <ele>95.400001525879</ele>
        <time>2021-03-28T09:33:17.000Z</time>
      </trkpt>
      <trkpt lat="49.20359" lon="1.65338">
        <ele>95</ele>
        <time>2021-03-28T09:33:23.000Z</time>
      </trkpt>
      <trkpt lat="49.20349" lon="1.65352">
        <ele>94.800003051758</ele>
        <time>2021-03-28T09:33:25.000Z</time>
      </trkpt>
      <trkpt lat="49.20324" lon="1.65388">
        <ele>93.800003051758</ele>
        <time>2021-03-28T09:33:30.000Z</time>
      </trkpt>
      <trkpt lat="49.20304" lon="1.65415">
        <ele>93</ele>
        <time>2021-03-28T09:33:34.000Z</time>
      </trkpt>
      <trkpt lat="49.20299" lon="1.65422">
        <ele>92.800003051758</ele>
        <time>2021-03-28T09:33:35.000Z</time>
      </trkpt>
      <trkpt lat="49.20278" lon="1.6545">
        <ele>91.400001525879</ele>
        <time>2021-03-28T09:33:39.000Z</time>
      </trkpt>
      <trkpt lat="49.20273" lon="1.65458">
        <ele>91</ele>
        <time>2021-03-28T09:33:40.000Z</time>
      </trkpt>
      <trkpt lat="49.20262" lon="1.65474">
        <ele>90.400001525879</ele>
        <time>2021-03-28T09:33:42.000Z</time>
      </trkpt>
      <trkpt lat="49.20245" lon="1.655">
        <ele>89.199996948242</ele>
        <time>2021-03-28T09:33:45.000Z</time>
      </trkpt>
      <trkpt lat="49.20234" lon="1.65518">
        <ele>88.400001525879</ele>
        <time>2021-03-28T09:33:47.000Z</time>
      </trkpt>
      <trkpt lat="49.20228" lon="1.65527">
        <ele>88.199996948242</ele>
        <time>2021-03-28T09:33:48.000Z</time>
      </trkpt>
      <trkpt lat="49.20217" lon="1.65546">
        <ele>87.199996948242</ele>
        <time>2021-03-28T09:33:50.000Z</time>
      </trkpt>
      <trkpt lat="49.20201" lon="1.65573">
        <ele>85.800003051758</ele>
        <time>2021-03-28T09:33:53.000Z</time>
      </trkpt>
      <trkpt lat="49.20191" lon="1.6559">
        <ele>84.599998474121</ele>
        <time>2021-03-28T09:33:55.000Z</time>
      </trkpt>
      <trkpt lat="49.20182" lon="1.65608">
        <ele>83.400001525879</ele>
        <time>2021-03-28T09:33:57.000Z</time>
      </trkpt>
      <trkpt lat="49.20172" lon="1.65624">
        <ele>82.400001525879</ele>
        <time>2021-03-28T09:33:59.000Z</time>
      </trkpt>
      <trkpt lat="49.20159" lon="1.65649">
        <ele>81.199996948242</ele>
        <time>2021-03-28T09:34:02.000Z</time>
      </trkpt>
      <trkpt lat="49.20155" lon="1.65657">
        <ele>80.800003051758</ele>
        <time>2021-03-28T09:34:03.000Z</time>
      </trkpt>
      <trkpt lat="49.20146" lon="1.65674">
        <ele>79.599998474121</ele>
        <time>2021-03-28T09:34:05.000Z</time>
      </trkpt>
      <trkpt lat="49.20137" lon="1.65692">
        <ele>78.800003051758</ele>
        <time>2021-03-28T09:34:07.000Z</time>
      </trkpt>
      <trkpt lat="49.20125" lon="1.65722">
        <ele>78</ele>
        <time>2021-03-28T09:34:10.000Z</time>
      </trkpt>
      <trkpt lat="49.2012" lon="1.65732">
        <ele>77.800003051758</ele>
        <time>2021-03-28T09:34:11.000Z</time>
      </trkpt>
      <trkpt lat="49.20106" lon="1.65776">
        <ele>76.800003051758</ele>
        <time>2021-03-28T09:34:15.000Z</time>
      </trkpt>
      <trkpt lat="49.20103" lon="1.65788">
        <ele>76.400001525879</ele>
        <time>2021-03-28T09:34:16.000Z</time>
      </trkpt>
      <trkpt lat="49.20103" lon="1.65825">
        <ele>75.400001525879</ele>
        <time>2021-03-28T09:34:19.000Z</time>
      </trkpt>
      <trkpt lat="49.20099" lon="1.6585">
        <ele>73.800003051758</ele>
        <time>2021-03-28T09:34:22.000Z</time>
      </trkpt>
      <trkpt lat="49.20089" lon="1.6585">
        <ele>72.800003051758</ele>
        <time>2021-03-28T09:34:24.000Z</time>
      </trkpt>
      <trkpt lat="49.20079" lon="1.6584">
        <ele>72</ele>
        <time>2021-03-28T09:34:26.000Z</time>
      </trkpt>
      <trkpt lat="49.2007" lon="1.65828">
        <ele>71.599998474121</ele>
        <time>2021-03-28T09:34:28.000Z</time>
      </trkpt>
      <trkpt lat="49.2005" lon="1.65802">
        <ele>71.199996948242</ele>
        <time>2021-03-28T09:34:32.000Z</time>
      </trkpt>
      <trkpt lat="49.20042" lon="1.65785">
        <ele>70.199996948242</ele>
        <time>2021-03-28T09:34:34.000Z</time>
      </trkpt>
      <trkpt lat="49.20039" lon="1.65764">
        <ele>69</ele>
        <time>2021-03-28T09:34:36.000Z</time>
      </trkpt>
      <trkpt lat="49.20039" lon="1.65754">
        <ele>68.199996948242</ele>
        <time>2021-03-28T09:34:37.000Z</time>
      </trkpt>
      <trkpt lat="49.20039" lon="1.65743">
        <ele>67.199996948242</ele>
        <time>2021-03-28T09:34:38.000Z</time>
      </trkpt>
      <trkpt lat="49.20041" lon="1.65732">
        <ele>66.800003051758</ele>
        <time>2021-03-28T09:34:39.000Z</time>
      </trkpt>
      <trkpt lat="49.20042" lon="1.65709">
        <ele>65.800003051758</ele>
        <time>2021-03-28T09:34:41.000Z</time>
      </trkpt>
      <trkpt lat="49.20043" lon="1.65685">
        <ele>64.800003051758</ele>
        <time>2021-03-28T09:34:43.000Z</time>
      </trkpt>
      <trkpt lat="49.20044" lon="1.65673">
        <ele>63.799999237061</ele>
        <time>2021-03-28T09:34:44.000Z</time>
      </trkpt>
      <trkpt lat="49.20045" lon="1.65648">
        <ele>62.599998474121</ele>
        <time>2021-03-28T09:34:46.000Z</time>
      </trkpt>
      <trkpt lat="49.20046" lon="1.65612">
        <ele>61.799999237061</ele>
        <time>2021-03-28T09:34:49.000Z</time>
      </trkpt>
      <trkpt lat="49.20047" lon="1.65601">
        <ele>61.400001525879</ele>
        <time>2021-03-28T09:34:50.000Z</time>
      </trkpt>
      <trkpt lat="49.20047" lon="1.65581">
        <ele>60.200000762939</ele>
        <time>2021-03-28T09:34:52.000Z</time>
      </trkpt>
      <trkpt lat="49.20047" lon="1.65566">
        <ele>58.599998474121</ele>
        <time>2021-03-28T09:34:54.000Z</time>
      </trkpt>
      <trkpt lat="49.20048" lon="1.65558">
        <ele>57.200000762939</ele>
        <time>2021-03-28T09:34:56.000Z</time>
      </trkpt>
      <trkpt lat="49.20047" lon="1.65556">
        <ele>57</ele>
        <time>2021-03-28T09:34:57.000Z</time>
      </trkpt>
      <trkpt lat="49.20047" lon="1.65556">
        <ele>56.599998474121</ele>
        <time>2021-03-28T09:34:59.000Z</time>
      </trkpt>
      <trkpt lat="49.20046" lon="1.65558">
        <ele>58.599998474121</ele>
        <time>2021-03-28T09:37:04.000Z</time>
      </trkpt>
      <trkpt lat="49.20044" lon="1.65559">
        <ele>58.599998474121</ele>
        <time>2021-03-28T09:37:05.000Z</time>
      </trkpt>
      <trkpt lat="49.20029" lon="1.65573">
        <ele>58.599998474121</ele>
        <time>2021-03-28T09:37:10.000Z</time>
      </trkpt>
      <trkpt lat="49.20004" lon="1.65603">
        <ele>57.599998474121</ele>
        <time>2021-03-28T09:37:17.000Z</time>
      </trkpt>
      <trkpt lat="49.2" lon="1.65608">
        <ele>57.599998474121</ele>
        <time>2021-03-28T09:37:18.000Z</time>
      </trkpt>
      <trkpt lat="49.19987" lon="1.65623">
        <ele>56.400001525879</ele>
        <time>2021-03-28T09:37:21.000Z</time>
      </trkpt>
      <trkpt lat="49.19975" lon="1.65639">
        <ele>56</ele>
        <time>2021-03-28T09:37:24.000Z</time>
      </trkpt>
      <trkpt lat="49.19942" lon="1.65687">
        <ele>55.799999237061</ele>
        <time>2021-03-28T09:37:32.000Z</time>
      </trkpt>
      <trkpt lat="49.19926" lon="1.65733">
        <ele>56</ele>
        <time>2021-03-28T09:37:38.000Z</time>
      </trkpt>
      <trkpt lat="49.19917" lon="1.6578">
        <ele>57.400001525879</ele>
        <time>2021-03-28T09:37:44.000Z</time>
      </trkpt>
      <trkpt lat="49.19911" lon="1.65809">
        <ele>58</ele>
        <time>2021-03-28T09:37:48.000Z</time>
      </trkpt>
      <trkpt lat="49.19909" lon="1.65822">
        <ele>58.599998474121</ele>
        <time>2021-03-28T09:37:50.000Z</time>
      </trkpt>
      <trkpt lat="49.19904" lon="1.65847">
        <ele>59.799999237061</ele>
        <time>2021-03-28T09:37:54.000Z</time>
      </trkpt>
      <trkpt lat="49.19901" lon="1.65865">
        <ele>60.400001525879</ele>
        <time>2021-03-28T09:37:57.000Z</time>
      </trkpt>
      <trkpt lat="49.19898" lon="1.65877">
        <ele>60.799999237061</ele>
        <time>2021-03-28T09:37:59.000Z</time>
      </trkpt>
      <trkpt lat="49.19895" lon="1.65896">
        <ele>61.599998474121</ele>
        <time>2021-03-28T09:38:02.000Z</time>
      </trkpt>
      <trkpt lat="49.19895" lon="1.65902">
        <ele>61.799999237061</ele>
        <time>2021-03-28T09:38:03.000Z</time>
      </trkpt>
      <trkpt lat="49.19894" lon="1.65908">
        <ele>61.799999237061</ele>
        <time>2021-03-28T09:38:04.000Z</time>
      </trkpt>
      <trkpt lat="49.19891" lon="1.65938">
        <ele>62.799999237061</ele>
        <time>2021-03-28T09:38:09.000Z</time>
      </trkpt>
      <trkpt lat="49.1989" lon="1.65949">
        <ele>63.200000762939</ele>
        <time>2021-03-28T09:38:11.000Z</time>
      </trkpt>
      <trkpt lat="49.19888" lon="1.65964">
        <ele>64</ele>
        <time>2021-03-28T09:38:14.000Z</time>
      </trkpt>
      <trkpt lat="49.19886" lon="1.65996">
        <ele>65.199996948242</ele>
        <time>2021-03-28T09:38:20.000Z</time>
      </trkpt>
      <trkpt lat="49.19883" lon="1.66027">
        <ele>66.400001525879</ele>
        <time>2021-03-28T09:38:26.000Z</time>
      </trkpt>
      <trkpt lat="49.19882" lon="1.66042">
        <ele>67.199996948242</ele>
        <time>2021-03-28T09:38:29.000Z</time>
      </trkpt>
      <trkpt lat="49.19881" lon="1.66047">
        <ele>67.400001525879</ele>
        <time>2021-03-28T09:38:30.000Z</time>
      </trkpt>
      <trkpt lat="49.1988" lon="1.66072">
        <ele>68.800003051758</ele>
        <time>2021-03-28T09:38:35.000Z</time>
      </trkpt>
      <trkpt lat="49.19878" lon="1.66097">
        <ele>69.800003051758</ele>
        <time>2021-03-28T09:38:40.000Z</time>
      </trkpt>
      <trkpt lat="49.19876" lon="1.66116">
        <ele>71</ele>
        <time>2021-03-28T09:38:44.000Z</time>
      </trkpt>
      <trkpt lat="49.19875" lon="1.66129">
        <ele>71.800003051758</ele>
        <time>2021-03-28T09:38:47.000Z</time>
      </trkpt>
      <trkpt lat="49.19875" lon="1.66133">
        <ele>72</ele>
        <time>2021-03-28T09:38:48.000Z</time>
      </trkpt>
      <trkpt lat="49.19873" lon="1.66149">
        <ele>73</ele>
        <time>2021-03-28T09:38:52.000Z</time>
      </trkpt>
      <trkpt lat="49.19871" lon="1.66152">
        <ele>73.199996948242</ele>
        <time>2021-03-28T09:38:53.000Z</time>
      </trkpt>
      <trkpt lat="49.19864" lon="1.66147">
        <ele>73.800003051758</ele>
        <time>2021-03-28T09:38:56.000Z</time>
      </trkpt>
      <trkpt lat="49.19862" lon="1.66144">
        <ele>74.400001525879</ele>
        <time>2021-03-28T09:38:57.000Z</time>
      </trkpt>
      <trkpt lat="49.19858" lon="1.66138">
        <ele>74.800003051758</ele>
        <time>2021-03-28T09:38:59.000Z</time>
      </trkpt>
      <trkpt lat="49.19853" lon="1.66129">
        <ele>75.599998474121</ele>
        <time>2021-03-28T09:39:02.000Z</time>
      </trkpt>
      <trkpt lat="49.19849" lon="1.66123">
        <ele>75.800003051758</ele>
        <time>2021-03-28T09:39:04.000Z</time>
      </trkpt>
      <trkpt lat="49.19837" lon="1.66106">
        <ele>76.599998474121</ele>
        <time>2021-03-28T09:39:10.000Z</time>
      </trkpt>
      <trkpt lat="49.19829" lon="1.66101">
        <ele>77.400001525879</ele>
        <time>2021-03-28T09:39:13.000Z</time>
      </trkpt>
      <trkpt lat="49.19826" lon="1.66099">
        <ele>77.599998474121</ele>
        <time>2021-03-28T09:39:14.000Z</time>
      </trkpt>
      <trkpt lat="49.19805" lon="1.6609">
        <ele>78.400001525879</ele>
        <time>2021-03-28T09:39:22.000Z</time>
      </trkpt>
      <trkpt lat="49.198" lon="1.66088">
        <ele>78.599998474121</ele>
        <time>2021-03-28T09:39:24.000Z</time>
      </trkpt>
      <trkpt lat="49.19787" lon="1.66085">
        <ele>79.800003051758</ele>
        <time>2021-03-28T09:39:29.000Z</time>
      </trkpt>
      <trkpt lat="49.19782" lon="1.66084">
        <ele>80.199996948242</ele>
        <time>2021-03-28T09:39:31.000Z</time>
      </trkpt>
      <trkpt lat="49.19771" lon="1.66085">
        <ele>80.800003051758</ele>
        <time>2021-03-28T09:39:35.000Z</time>
      </trkpt>
      <trkpt lat="49.19764" lon="1.66087">
        <ele>81</ele>
        <time>2021-03-28T09:39:38.000Z</time>
      </trkpt>
      <trkpt lat="49.19757" lon="1.6609">
        <ele>82</ele>
        <time>2021-03-28T09:39:41.000Z</time>
      </trkpt>
      <trkpt lat="49.19748" lon="1.66087">
        <ele>82.400001525879</ele>
        <time>2021-03-28T09:39:45.000Z</time>
      </trkpt>
      <trkpt lat="49.19738" lon="1.66083">
        <ele>83</ele>
        <time>2021-03-28T09:39:49.000Z</time>
      </trkpt>
      <trkpt lat="49.1973" lon="1.66082">
        <ele>83.400001525879</ele>
        <time>2021-03-28T09:39:52.000Z</time>
      </trkpt>
      <trkpt lat="49.19716" lon="1.66089">
        <ele>83.599998474121</ele>
        <time>2021-03-28T09:39:57.000Z</time>
      </trkpt>
      <trkpt lat="49.19707" lon="1.66099">
        <ele>83.599998474121</ele>
        <time>2021-03-28T09:40:02.000Z</time>
      </trkpt>
      <trkpt lat="49.19706" lon="1.661">
        <ele>83.599998474121</ele>
        <time>2021-03-28T09:40:04.000Z</time>
      </trkpt>
      <trkpt lat="49.19705" lon="1.66102">
        <ele>83.599998474121</ele>
        <time>2021-03-28T09:40:07.000Z</time>
      </trkpt>
      <trkpt lat="49.19704" lon="1.66101">
        <ele>82.400001525879</ele>
        <time>2021-03-28T09:50:08.000Z</time>
      </trkpt>
      <trkpt lat="49.19704" lon="1.66101">
        <ele>82.400001525879</ele>
        <time>2021-03-28T09:50:10.000Z</time>
      </trkpt>
      <trkpt lat="49.19702" lon="1.66103">
        <ele>82.400001525879</ele>
        <time>2021-03-28T09:50:18.000Z</time>
      </trkpt>
      <trkpt lat="49.197" lon="1.66104">
        <ele>82.400001525879</ele>
        <time>2021-03-28T09:50:19.000Z</time>
      </trkpt>
      <trkpt lat="49.19692" lon="1.66117">
        <ele>82.400001525879</ele>
        <time>2021-03-28T09:50:24.000Z</time>
      </trkpt>
      <trkpt lat="49.1969" lon="1.66134">
        <ele>82.199996948242</ele>
        <time>2021-03-28T09:50:28.000Z</time>
      </trkpt>
      <trkpt lat="49.1969" lon="1.66139">
        <ele>82.199996948242</ele>
        <time>2021-03-28T09:50:29.000Z</time>
      </trkpt>
      <trkpt lat="49.1969" lon="1.66155">
        <ele>82.199996948242</ele>
        <time>2021-03-28T09:50:32.000Z</time>
      </trkpt>
      <trkpt lat="49.19689" lon="1.66161">
        <ele>82</ele>
        <time>2021-03-28T09:50:33.000Z</time>
      </trkpt>
      <trkpt lat="49.19688" lon="1.66168">
        <ele>82</ele>
        <time>2021-03-28T09:50:34.000Z</time>
      </trkpt>
      <trkpt lat="49.19688" lon="1.66175">
        <ele>82</ele>
        <time>2021-03-28T09:50:35.000Z</time>
      </trkpt>
      <trkpt lat="49.19688" lon="1.66208">
        <ele>81.599998474121</ele>
        <time>2021-03-28T09:50:39.000Z</time>
      </trkpt>
      <trkpt lat="49.19688" lon="1.66217">
        <ele>81.400001525879</ele>
        <time>2021-03-28T09:50:40.000Z</time>
      </trkpt>
      <trkpt lat="49.19689" lon="1.66227">
        <ele>81</ele>
        <time>2021-03-28T09:50:41.000Z</time>
      </trkpt>
      <trkpt lat="49.19691" lon="1.66247">
        <ele>80.199996948242</ele>
        <time>2021-03-28T09:50:43.000Z</time>
      </trkpt>
      <trkpt lat="49.19695" lon="1.66265">
        <ele>79.800003051758</ele>
        <time>2021-03-28T09:50:45.000Z</time>
      </trkpt>
      <trkpt lat="49.19697" lon="1.66273">
        <ele>79.599998474121</ele>
        <time>2021-03-28T09:50:46.000Z</time>
      </trkpt>
      <trkpt lat="49.19697" lon="1.6628">
        <ele>79.400001525879</ele>
        <time>2021-03-28T09:50:47.000Z</time>
      </trkpt>
      <trkpt lat="49.19692" lon="1.6629">
        <ele>78.400001525879</ele>
        <time>2021-03-28T09:50:49.000Z</time>
      </trkpt>
      <trkpt lat="49.19688" lon="1.66293">
        <ele>78</ele>
        <time>2021-03-28T09:50:50.000Z</time>
      </trkpt>
      <trkpt lat="49.19676" lon="1.66295">
        <ele>77</ele>
        <time>2021-03-28T09:50:52.000Z</time>
      </trkpt>
      <trkpt lat="49.19662" lon="1.66297">
        <ele>75.800003051758</ele>
        <time>2021-03-28T09:50:54.000Z</time>
      </trkpt>
      <trkpt lat="49.19656" lon="1.66297">
        <ele>75.599998474121</ele>
        <time>2021-03-28T09:50:55.000Z</time>
      </trkpt>
      <trkpt lat="49.19636" lon="1.66296">
        <ele>74.599998474121</ele>
        <time>2021-03-28T09:50:58.000Z</time>
      </trkpt>
      <trkpt lat="49.19623" lon="1.66291">
        <ele>73.199996948242</ele>
        <time>2021-03-28T09:51:00.000Z</time>
      </trkpt>
      <trkpt lat="49.19617" lon="1.66289">
        <ele>72.800003051758</ele>
        <time>2021-03-28T09:51:01.000Z</time>
      </trkpt>
      <trkpt lat="49.19611" lon="1.66288">
        <ele>72.400001525879</ele>
        <time>2021-03-28T09:51:02.000Z</time>
      </trkpt>
      <trkpt lat="49.19605" lon="1.66287">
        <ele>71.800003051758</ele>
        <time>2021-03-28T09:51:03.000Z</time>
      </trkpt>
      <trkpt lat="49.19592" lon="1.66285">
        <ele>70.800003051758</ele>
        <time>2021-03-28T09:51:05.000Z</time>
      </trkpt>
      <trkpt lat="49.19578" lon="1.66283">
        <ele>69.400001525879</ele>
        <time>2021-03-28T09:51:07.000Z</time>
      </trkpt>
      <trkpt lat="49.19563" lon="1.6628">
        <ele>68.599998474121</ele>
        <time>2021-03-28T09:51:09.000Z</time>
      </trkpt>
      <trkpt lat="49.19556" lon="1.66279">
        <ele>68.400001525879</ele>
        <time>2021-03-28T09:51:10.000Z</time>
      </trkpt>
      <trkpt lat="49.19516" lon="1.66269">
        <ele>67.400001525879</ele>
        <time>2021-03-28T09:51:15.000Z</time>
      </trkpt>
      <trkpt lat="49.19508" lon="1.66267">
        <ele>67</ele>
        <time>2021-03-28T09:51:16.000Z</time>
      </trkpt>
      <trkpt lat="49.19491" lon="1.66263">
        <ele>66.199996948242</ele>
        <time>2021-03-28T09:51:18.000Z</time>
      </trkpt>
      <trkpt lat="49.19466" lon="1.66258">
        <ele>65</ele>
        <time>2021-03-28T09:51:21.000Z</time>
      </trkpt>
      <trkpt lat="49.19449" lon="1.66254">
        <ele>63.200000762939</ele>
        <time>2021-03-28T09:51:23.000Z</time>
      </trkpt>
      <trkpt lat="49.19442" lon="1.66253">
        <ele>62.799999237061</ele>
        <time>2021-03-28T09:51:24.000Z</time>
      </trkpt>
      <trkpt lat="49.19427" lon="1.66251">
        <ele>62.200000762939</ele>
        <time>2021-03-28T09:51:26.000Z</time>
      </trkpt>
      <trkpt lat="49.19408" lon="1.66246">
        <ele>60.799999237061</ele>
        <time>2021-03-28T09:51:29.000Z</time>
      </trkpt>
      <trkpt lat="49.19402" lon="1.66245">
        <ele>59.799999237061</ele>
        <time>2021-03-28T09:51:30.000Z</time>
      </trkpt>
      <trkpt lat="49.19396" lon="1.66244">
        <ele>58.599998474121</ele>
        <time>2021-03-28T09:51:31.000Z</time>
      </trkpt>
      <trkpt lat="49.19373" lon="1.66239">
        <ele>57.599998474121</ele>
        <time>2021-03-28T09:51:35.000Z</time>
      </trkpt>
      <trkpt lat="49.1935" lon="1.66234">
        <ele>57.400001525879</ele>
        <time>2021-03-28T09:51:39.000Z</time>
      </trkpt>
      <trkpt lat="49.19298" lon="1.66224">
        <ele>57</ele>
        <time>2021-03-28T09:51:48.000Z</time>
      </trkpt>
      <trkpt lat="49.19281" lon="1.66219">
        <ele>56.599998474121</ele>
        <time>2021-03-28T09:51:51.000Z</time>
      </trkpt>
      <trkpt lat="49.19257" lon="1.66213">
        <ele>55.799999237061</ele>
        <time>2021-03-28T09:51:55.000Z</time>
      </trkpt>
      <trkpt lat="49.19251" lon="1.66211">
        <ele>55.400001525879</ele>
        <time>2021-03-28T09:51:56.000Z</time>
      </trkpt>
      <trkpt lat="49.19216" lon="1.66201">
        <ele>54.200000762939</ele>
        <time>2021-03-28T09:52:02.000Z</time>
      </trkpt>
      <trkpt lat="49.19204" lon="1.66198">
        <ele>54</ele>
        <time>2021-03-28T09:52:04.000Z</time>
      </trkpt>
      <trkpt lat="49.19185" lon="1.66192">
        <ele>52.799999237061</ele>
        <time>2021-03-28T09:52:07.000Z</time>
      </trkpt>
      <trkpt lat="49.19159" lon="1.66186">
        <ele>51.799999237061</ele>
        <time>2021-03-28T09:52:11.000Z</time>
      </trkpt>
      <trkpt lat="49.19152" lon="1.66184">
        <ele>51.200000762939</ele>
        <time>2021-03-28T09:52:12.000Z</time>
      </trkpt>
      <trkpt lat="49.19146" lon="1.66183">
        <ele>50.599998474121</ele>
        <time>2021-03-28T09:52:13.000Z</time>
      </trkpt>
      <trkpt lat="49.19127" lon="1.66177">
        <ele>49.400001525879</ele>
        <time>2021-03-28T09:52:16.000Z</time>
      </trkpt>
      <trkpt lat="49.19109" lon="1.66171">
        <ele>48.400001525879</ele>
        <time>2021-03-28T09:52:19.000Z</time>
      </trkpt>
      <trkpt lat="49.19103" lon="1.66169">
        <ele>48</ele>
        <time>2021-03-28T09:52:20.000Z</time>
      </trkpt>
      <trkpt lat="49.19073" lon="1.66155">
        <ele>47.400001525879</ele>
        <time>2021-03-28T09:52:25.000Z</time>
      </trkpt>
      <trkpt lat="49.1906" lon="1.66147">
        <ele>47</ele>
        <time>2021-03-28T09:52:27.000Z</time>
      </trkpt>
      <trkpt lat="49.19034" lon="1.66131">
        <ele>46.200000762939</ele>
        <time>2021-03-28T09:52:31.000Z</time>
      </trkpt>
      <trkpt lat="49.19016" lon="1.66121">
        <ele>45.799999237061</ele>
        <time>2021-03-28T09:52:34.000Z</time>
      </trkpt>
      <trkpt lat="49.19006" lon="1.66118">
        <ele>45.400001525879</ele>
        <time>2021-03-28T09:52:36.000Z</time>
      </trkpt>
      <trkpt lat="49.19001" lon="1.66117">
        <ele>45</ele>
        <time>2021-03-28T09:52:37.000Z</time>
      </trkpt>
      <trkpt lat="49.18996" lon="1.66116">
        <ele>44.400001525879</ele>
        <time>2021-03-28T09:52:38.000Z</time>
      </trkpt>
      <trkpt lat="49.18991" lon="1.66114">
        <ele>43</ele>
        <time>2021-03-28T09:52:39.000Z</time>
      </trkpt>
      <trkpt lat="49.18983" lon="1.66107">
        <ele>42</ele>
        <time>2021-03-28T09:52:41.000Z</time>
      </trkpt>
      <trkpt lat="49.18975" lon="1.661">
        <ele>41.799999237061</ele>
        <time>2021-03-28T09:52:43.000Z</time>
      </trkpt>
      <trkpt lat="49.18946" lon="1.66077">
        <ele>42.400001525879</ele>
        <time>2021-03-28T09:52:50.000Z</time>
      </trkpt>
      <trkpt lat="49.18937" lon="1.6607">
        <ele>43.200000762939</ele>
        <time>2021-03-28T09:52:53.000Z</time>
      </trkpt>
      <trkpt lat="49.18929" lon="1.66064">
        <ele>43.599998474121</ele>
        <time>2021-03-28T09:52:56.000Z</time>
      </trkpt>
      <trkpt lat="49.18917" lon="1.66055">
        <ele>44.200000762939</ele>
        <time>2021-03-28T09:53:01.000Z</time>
      </trkpt>
      <trkpt lat="49.18912" lon="1.66052">
        <ele>45</ele>
        <time>2021-03-28T09:53:03.000Z</time>
      </trkpt>
      <trkpt lat="49.18906" lon="1.66047">
        <ele>45.400001525879</ele>
        <time>2021-03-28T09:53:06.000Z</time>
      </trkpt>
      <trkpt lat="49.18902" lon="1.66042">
        <ele>45.599998474121</ele>
        <time>2021-03-28T09:53:08.000Z</time>
      </trkpt>
      <trkpt lat="49.18892" lon="1.66035">
        <ele>46.599998474121</ele>
        <time>2021-03-28T09:53:12.000Z</time>
      </trkpt>
      <trkpt lat="49.1888" lon="1.66026">
        <ele>47</ele>
        <time>2021-03-28T09:53:17.000Z</time>
      </trkpt>
      <trkpt lat="49.18873" lon="1.66021">
        <ele>47.599998474121</ele>
        <time>2021-03-28T09:53:20.000Z</time>
      </trkpt>
      <trkpt lat="49.1886" lon="1.66009">
        <ele>48.400001525879</ele>
        <time>2021-03-28T09:53:26.000Z</time>
      </trkpt>
      <trkpt lat="49.18857" lon="1.66007">
        <ele>48.799999237061</ele>
        <time>2021-03-28T09:53:27.000Z</time>
      </trkpt>
      <trkpt lat="49.1884" lon="1.65994">
        <ele>49.599998474121</ele>
        <time>2021-03-28T09:53:34.000Z</time>
      </trkpt>
      <trkpt lat="49.18834" lon="1.65991">
        <ele>49.799999237061</ele>
        <time>2021-03-28T09:53:36.000Z</time>
      </trkpt>
      <trkpt lat="49.18817" lon="1.65982">
        <ele>50.799999237061</ele>
        <time>2021-03-28T09:53:43.000Z</time>
      </trkpt>
      <trkpt lat="49.18814" lon="1.65981">
        <ele>50.799999237061</ele>
        <time>2021-03-28T09:53:44.000Z</time>
      </trkpt>
      <trkpt lat="49.18795" lon="1.65972">
        <ele>52</ele>
        <time>2021-03-28T09:53:52.000Z</time>
      </trkpt>
      <trkpt lat="49.18792" lon="1.65971">
        <ele>52.200000762939</ele>
        <time>2021-03-28T09:53:53.000Z</time>
      </trkpt>
      <trkpt lat="49.18778" lon="1.65963">
        <ele>52.799999237061</ele>
        <time>2021-03-28T09:53:59.000Z</time>
      </trkpt>
      <trkpt lat="49.18773" lon="1.65961">
        <ele>53</ele>
        <time>2021-03-28T09:54:01.000Z</time>
      </trkpt>
      <trkpt lat="49.18763" lon="1.65957">
        <ele>53.799999237061</ele>
        <time>2021-03-28T09:54:05.000Z</time>
      </trkpt>
      <trkpt lat="49.1876" lon="1.65956">
        <ele>54</ele>
        <time>2021-03-28T09:54:06.000Z</time>
      </trkpt>
      <trkpt lat="49.18746" lon="1.65949">
        <ele>55.200000762939</ele>
        <time>2021-03-28T09:54:12.000Z</time>
      </trkpt>
      <trkpt lat="49.18727" lon="1.65941">
        <ele>56.400001525879</ele>
        <time>2021-03-28T09:54:20.000Z</time>
      </trkpt>
      <trkpt lat="49.18724" lon="1.6594">
        <ele>56.599998474121</ele>
        <time>2021-03-28T09:54:21.000Z</time>
      </trkpt>
      <trkpt lat="49.187" lon="1.65928">
        <ele>57.400001525879</ele>
        <time>2021-03-28T09:54:30.000Z</time>
      </trkpt>
      <trkpt lat="49.18697" lon="1.65927">
        <ele>57.400001525879</ele>
        <time>2021-03-28T09:54:31.000Z</time>
      </trkpt>
      <trkpt lat="49.18672" lon="1.65915">
        <ele>57.599998474121</ele>
        <time>2021-03-28T09:54:39.000Z</time>
      </trkpt>
      <trkpt lat="49.18653" lon="1.65905">
        <ele>58.400001525879</ele>
        <time>2021-03-28T09:54:45.000Z</time>
      </trkpt>
      <trkpt lat="49.18643" lon="1.65901">
        <ele>58.599998474121</ele>
        <time>2021-03-28T09:54:48.000Z</time>
      </trkpt>
      <trkpt lat="49.18618" lon="1.65889">
        <ele>59</ele>
        <time>2021-03-28T09:54:55.000Z</time>
      </trkpt>
      <trkpt lat="49.18592" lon="1.65876">
        <ele>59.200000762939</ele>
        <time>2021-03-28T09:55:02.000Z</time>
      </trkpt>
      <trkpt lat="49.1857" lon="1.65864">
        <ele>59.400001525879</ele>
        <time>2021-03-28T09:55:08.000Z</time>
      </trkpt>
      <trkpt lat="49.18564" lon="1.6586">
        <ele>59.599998474121</ele>
        <time>2021-03-28T09:55:10.000Z</time>
      </trkpt>
      <trkpt lat="49.18546" lon="1.65851">
        <ele>60.200000762939</ele>
        <time>2021-03-28T09:55:16.000Z</time>
      </trkpt>
      <trkpt lat="49.18543" lon="1.65848">
        <ele>60.400001525879</ele>
        <time>2021-03-28T09:55:21.000Z</time>
      </trkpt>
      <trkpt lat="49.18542" lon="1.65846">
        <ele>60.799999237061</ele>
        <time>2021-03-28T09:55:32.000Z</time>
      </trkpt>
      <trkpt lat="49.1854" lon="1.6584">
        <ele>60.799999237061</ele>
        <time>2021-03-28T09:55:34.000Z</time>
      </trkpt>
      <trkpt lat="49.18544" lon="1.6583">
        <ele>60.799999237061</ele>
        <time>2021-03-28T09:55:38.000Z</time>
      </trkpt>
      <trkpt lat="49.18546" lon="1.6583">
        <ele>60.799999237061</ele>
        <time>2021-03-28T09:55:39.000Z</time>
      </trkpt>
      <trkpt lat="49.18561" lon="1.65829">
        <ele>60.799999237061</ele>
        <time>2021-03-28T09:55:44.000Z</time>
      </trkpt>
      <trkpt lat="49.18578" lon="1.65811">
        <ele>61.799999237061</ele>
        <time>2021-03-28T09:55:52.000Z</time>
      </trkpt>
      <trkpt lat="49.1858" lon="1.65809">
        <ele>61.799999237061</ele>
        <time>2021-03-28T09:55:53.000Z</time>
      </trkpt>
      <trkpt lat="49.18598" lon="1.65789">
        <ele>62.599998474121</ele>
        <time>2021-03-28T09:56:01.000Z</time>
      </trkpt>
      <trkpt lat="49.186" lon="1.65786">
        <ele>62.799999237061</ele>
        <time>2021-03-28T09:56:02.000Z</time>
      </trkpt>
      <trkpt lat="49.18612" lon="1.65768">
        <ele>64</ele>
        <time>2021-03-28T09:56:08.000Z</time>
      </trkpt>
      <trkpt lat="49.18616" lon="1.65762">
        <ele>64.599998474121</ele>
        <time>2021-03-28T09:56:10.000Z</time>
      </trkpt>
      <trkpt lat="49.1862" lon="1.65756">
        <ele>65</ele>
        <time>2021-03-28T09:56:12.000Z</time>
      </trkpt>
      <trkpt lat="49.18631" lon="1.6574">
        <ele>66.199996948242</ele>
        <time>2021-03-28T09:56:18.000Z</time>
      </trkpt>
      <trkpt lat="49.18639" lon="1.65729">
        <ele>67.199996948242</ele>
        <time>2021-03-28T09:56:22.000Z</time>
      </trkpt>
      <trkpt lat="49.18645" lon="1.65717">
        <ele>68.400001525879</ele>
        <time>2021-03-28T09:56:26.000Z</time>
      </trkpt>
      <trkpt lat="49.18647" lon="1.65711">
        <ele>68.800003051758</ele>
        <time>2021-03-28T09:56:28.000Z</time>
      </trkpt>
      <trkpt lat="49.18647" lon="1.65705">
        <ele>69.400001525879</ele>
        <time>2021-03-28T09:56:30.000Z</time>
      </trkpt>
      <trkpt lat="49.18647" lon="1.65692">
        <ele>70.400001525879</ele>
        <time>2021-03-28T09:56:35.000Z</time>
      </trkpt>
      <trkpt lat="49.18648" lon="1.65685">
        <ele>71.199996948242</ele>
        <time>2021-03-28T09:56:38.000Z</time>
      </trkpt>
      <trkpt lat="49.18648" lon="1.65682">
        <ele>71.599998474121</ele>
        <time>2021-03-28T09:56:39.000Z</time>
      </trkpt>
      <trkpt lat="49.18647" lon="1.6567">
        <ele>72.599998474121</ele>
        <time>2021-03-28T09:56:44.000Z</time>
      </trkpt>
      <trkpt lat="49.18647" lon="1.65662">
        <ele>73.400001525879</ele>
        <time>2021-03-28T09:56:47.000Z</time>
      </trkpt>
      <trkpt lat="49.18647" lon="1.65659">
        <ele>73.800003051758</ele>
        <time>2021-03-28T09:56:48.000Z</time>
      </trkpt>
      <trkpt lat="49.18646" lon="1.65646">
        <ele>75</ele>
        <time>2021-03-28T09:56:53.000Z</time>
      </trkpt>
      <trkpt lat="49.18644" lon="1.65631">
        <ele>76</ele>
        <time>2021-03-28T09:56:58.000Z</time>
      </trkpt>
      <trkpt lat="49.18643" lon="1.65623">
        <ele>76.199996948242</ele>
        <time>2021-03-28T09:57:01.000Z</time>
      </trkpt>
      <trkpt lat="49.1864" lon="1.65611">
        <ele>77.400001525879</ele>
        <time>2021-03-28T09:57:06.000Z</time>
      </trkpt>
      <trkpt lat="49.18636" lon="1.65599">
        <ele>78.599998474121</ele>
        <time>2021-03-28T09:57:11.000Z</time>
      </trkpt>
      <trkpt lat="49.18633" lon="1.65587">
        <ele>79.599998474121</ele>
        <time>2021-03-28T09:57:16.000Z</time>
      </trkpt>
      <trkpt lat="49.18629" lon="1.65576">
        <ele>80.800003051758</ele>
        <time>2021-03-28T09:57:21.000Z</time>
      </trkpt>
      <trkpt lat="49.18625" lon="1.65563">
        <ele>82</ele>
        <time>2021-03-28T09:57:26.000Z</time>
      </trkpt>
      <trkpt lat="49.18624" lon="1.65561">
        <ele>82.199996948242</ele>
        <time>2021-03-28T09:57:27.000Z</time>
      </trkpt>
      <trkpt lat="49.18621" lon="1.65553">
        <ele>83.199996948242</ele>
        <time>2021-03-28T09:57:30.000Z</time>
      </trkpt>
      <trkpt lat="49.18618" lon="1.65543">
        <ele>84.400001525879</ele>
        <time>2021-03-28T09:57:34.000Z</time>
      </trkpt>
      <trkpt lat="49.18614" lon="1.65534">
        <ele>85.400001525879</ele>
        <time>2021-03-28T09:57:38.000Z</time>
      </trkpt>
      <trkpt lat="49.18609" lon="1.65523">
        <ele>86.599998474121</ele>
        <time>2021-03-28T09:57:43.000Z</time>
      </trkpt>
      <trkpt lat="49.18604" lon="1.65516">
        <ele>87.599998474121</ele>
        <time>2021-03-28T09:57:47.000Z</time>
      </trkpt>
      <trkpt lat="49.18596" lon="1.65507">
        <ele>88.800003051758</ele>
        <time>2021-03-28T09:57:53.000Z</time>
      </trkpt>
      <trkpt lat="49.18591" lon="1.65502">
        <ele>89.199996948242</ele>
        <time>2021-03-28T09:57:56.000Z</time>
      </trkpt>
      <trkpt lat="49.1858" lon="1.65492">
        <ele>89.800003051758</ele>
        <time>2021-03-28T09:58:03.000Z</time>
      </trkpt>
      <trkpt lat="49.18575" lon="1.65487">
        <ele>90.400001525879</ele>
        <time>2021-03-28T09:58:06.000Z</time>
      </trkpt>
      <trkpt lat="49.18571" lon="1.65483">
        <ele>90.800003051758</ele>
        <time>2021-03-28T09:58:09.000Z</time>
      </trkpt>
      <trkpt lat="49.18565" lon="1.65475">
        <ele>91.199996948242</ele>
        <time>2021-03-28T09:58:13.000Z</time>
      </trkpt>
      <trkpt lat="49.1856" lon="1.65469">
        <ele>92.199996948242</ele>
        <time>2021-03-28T09:58:16.000Z</time>
      </trkpt>
      <trkpt lat="49.18555" lon="1.65463">
        <ele>93.599998474121</ele>
        <time>2021-03-28T09:58:19.000Z</time>
      </trkpt>
      <trkpt lat="49.1855" lon="1.65456">
        <ele>94</ele>
        <time>2021-03-28T09:58:22.000Z</time>
      </trkpt>
      <trkpt lat="49.18538" lon="1.65442">
        <ele>94.599998474121</ele>
        <time>2021-03-28T09:58:28.000Z</time>
      </trkpt>
      <trkpt lat="49.18537" lon="1.65439">
        <ele>94.800003051758</ele>
        <time>2021-03-28T09:58:29.000Z</time>
      </trkpt>
      <trkpt lat="49.18522" lon="1.65412">
        <ele>95.400001525879</ele>
        <time>2021-03-28T09:58:38.000Z</time>
      </trkpt>
      <trkpt lat="49.18516" lon="1.65398">
        <ele>95.599998474121</ele>
        <time>2021-03-28T09:58:42.000Z</time>
      </trkpt>
      <trkpt lat="49.1851" lon="1.65381">
        <ele>96.800003051758</ele>
        <time>2021-03-28T09:58:47.000Z</time>
      </trkpt>
      <trkpt lat="49.18506" lon="1.65359">
        <ele>97.800003051758</ele>
        <time>2021-03-28T09:58:53.000Z</time>
      </trkpt>
      <trkpt lat="49.18506" lon="1.65355">
        <ele>97.800003051758</ele>
        <time>2021-03-28T09:58:54.000Z</time>
      </trkpt>
      <trkpt lat="49.18506" lon="1.65336">
        <ele>98.400001525879</ele>
        <time>2021-03-28T09:59:00.000Z</time>
      </trkpt>
      <trkpt lat="49.18507" lon="1.65327">
        <ele>99.199996948242</ele>
        <time>2021-03-28T09:59:03.000Z</time>
      </trkpt>
      <trkpt lat="49.18507" lon="1.6532">
        <ele>99.599998474121</ele>
        <time>2021-03-28T09:59:05.000Z</time>
      </trkpt>
      <trkpt lat="49.18507" lon="1.65309">
        <ele>100.40000152588</ele>
        <time>2021-03-28T09:59:08.000Z</time>
      </trkpt>
      <trkpt lat="49.18507" lon="1.65292">
        <ele>101.40000152588</ele>
        <time>2021-03-28T09:59:13.000Z</time>
      </trkpt>
      <trkpt lat="49.18508" lon="1.65277">
        <ele>102.40000152588</ele>
        <time>2021-03-28T09:59:17.000Z</time>
      </trkpt>
      <trkpt lat="49.18509" lon="1.6527">
        <ele>102.59999847412</ele>
        <time>2021-03-28T09:59:19.000Z</time>
      </trkpt>
      <trkpt lat="49.18508" lon="1.65247">
        <ele>103.40000152588</ele>
        <time>2021-03-28T09:59:26.000Z</time>
      </trkpt>
      <trkpt lat="49.18506" lon="1.65241">
        <ele>103.80000305176</ele>
        <time>2021-03-28T09:59:30.000Z</time>
      </trkpt>
      <trkpt lat="49.18501" lon="1.65232">
        <ele>103.59999847412</ele>
        <time>2021-03-28T10:09:53.000Z</time>
      </trkpt>
      <trkpt lat="49.18503" lon="1.6523">
        <ele>103.59999847412</ele>
        <time>2021-03-28T10:09:57.000Z</time>
      </trkpt>
      <trkpt lat="49.18503" lon="1.65226">
        <ele>103.40000152588</ele>
        <time>2021-03-28T10:10:56.000Z</time>
      </trkpt>
      <trkpt lat="49.18503" lon="1.65218">
        <ele>103.40000152588</ele>
        <time>2021-03-28T10:10:59.000Z</time>
      </trkpt>
      <trkpt lat="49.18503" lon="1.65199">
        <ele>103.40000152588</ele>
        <time>2021-03-28T10:11:06.000Z</time>
      </trkpt>
      <trkpt lat="49.18504" lon="1.65184">
        <ele>103.80000305176</ele>
        <time>2021-03-28T10:11:11.000Z</time>
      </trkpt>
      <trkpt lat="49.18504" lon="1.65181">
        <ele>104</ele>
        <time>2021-03-28T10:11:14.000Z</time>
      </trkpt>
      <trkpt lat="49.18504" lon="1.65177">
        <ele>104.19999694824</ele>
        <time>2021-03-28T10:11:32.000Z</time>
      </trkpt>
      <trkpt lat="49.18504" lon="1.65176">
        <ele>104.19999694824</ele>
        <time>2021-03-28T10:11:33.000Z</time>
      </trkpt>
      <trkpt lat="49.18504" lon="1.65162">
        <ele>104.19999694824</ele>
        <time>2021-03-28T10:11:38.000Z</time>
      </trkpt>
      <trkpt lat="49.18505" lon="1.65143">
        <ele>104.40000152588</ele>
        <time>2021-03-28T10:11:43.000Z</time>
      </trkpt>
      <trkpt lat="49.18505" lon="1.65139">
        <ele>104.40000152588</ele>
        <time>2021-03-28T10:11:44.000Z</time>
      </trkpt>
      <trkpt lat="49.18504" lon="1.65121">
        <ele>104.59999847412</ele>
        <time>2021-03-28T10:11:48.000Z</time>
      </trkpt>
      <trkpt lat="49.18503" lon="1.65098">
        <ele>105</ele>
        <time>2021-03-28T10:11:53.000Z</time>
      </trkpt>
      <trkpt lat="49.18502" lon="1.65074">
        <ele>105.59999847412</ele>
        <time>2021-03-28T10:11:58.000Z</time>
      </trkpt>
      <trkpt lat="49.18502" lon="1.65054">
        <ele>106.40000152588</ele>
        <time>2021-03-28T10:12:03.000Z</time>
      </trkpt>
      <trkpt lat="49.18502" lon="1.65041">
        <ele>106.59999847412</ele>
        <time>2021-03-28T10:12:06.000Z</time>
      </trkpt>
      <trkpt lat="49.18501" lon="1.65031">
        <ele>106.80000305176</ele>
        <time>2021-03-28T10:12:08.000Z</time>
      </trkpt>
      <trkpt lat="49.185" lon="1.65006">
        <ele>107</ele>
        <time>2021-03-28T10:12:13.000Z</time>
      </trkpt>
      <trkpt lat="49.185" lon="1.64981">
        <ele>107.19999694824</ele>
        <time>2021-03-28T10:12:18.000Z</time>
      </trkpt>
      <trkpt lat="49.185" lon="1.64956">
        <ele>107.80000305176</ele>
        <time>2021-03-28T10:12:23.000Z</time>
      </trkpt>
      <trkpt lat="49.185" lon="1.6495">
        <ele>108</ele>
        <time>2021-03-28T10:12:24.000Z</time>
      </trkpt>
      <trkpt lat="49.18502" lon="1.64913">
        <ele>108.19999694824</ele>
        <time>2021-03-28T10:12:30.000Z</time>
      </trkpt>
      <trkpt lat="49.18503" lon="1.64872">
        <ele>108.40000152588</ele>
        <time>2021-03-28T10:12:36.000Z</time>
      </trkpt>
      <trkpt lat="49.18505" lon="1.64834">
        <ele>108.80000305176</ele>
        <time>2021-03-28T10:12:42.000Z</time>
      </trkpt>
      <trkpt lat="49.18507" lon="1.64823">
        <ele>109</ele>
        <time>2021-03-28T10:12:44.000Z</time>
      </trkpt>
      <trkpt lat="49.18512" lon="1.64797">
        <ele>109.40000152588</ele>
        <time>2021-03-28T10:12:49.000Z</time>
      </trkpt>
      <trkpt lat="49.18514" lon="1.64775">
        <ele>110</ele>
        <time>2021-03-28T10:12:53.000Z</time>
      </trkpt>
      <trkpt lat="49.18515" lon="1.64769">
        <ele>110.19999694824</ele>
        <time>2021-03-28T10:12:54.000Z</time>
      </trkpt>
      <trkpt lat="49.18518" lon="1.64738">
        <ele>110.80000305176</ele>
        <time>2021-03-28T10:12:59.000Z</time>
      </trkpt>
      <trkpt lat="49.18519" lon="1.64701">
        <ele>111</ele>
        <time>2021-03-28T10:13:05.000Z</time>
      </trkpt>
      <trkpt lat="49.18521" lon="1.64677">
        <ele>111.19999694824</ele>
        <time>2021-03-28T10:13:09.000Z</time>
      </trkpt>
      <trkpt lat="49.1852" lon="1.64635">
        <ele>111.19999694824</ele>
        <time>2021-03-28T10:13:16.000Z</time>
      </trkpt>
      <trkpt lat="49.18519" lon="1.646">
        <ele>111.59999847412</ele>
        <time>2021-03-28T10:13:22.000Z</time>
      </trkpt>
      <trkpt lat="49.1852" lon="1.64584">
        <ele>112</ele>
        <time>2021-03-28T10:13:25.000Z</time>
      </trkpt>
      <trkpt lat="49.1852" lon="1.64568">
        <ele>112.59999847412</ele>
        <time>2021-03-28T10:13:28.000Z</time>
      </trkpt>
      <trkpt lat="49.18519" lon="1.64541">
        <ele>113</ele>
        <time>2021-03-28T10:13:34.000Z</time>
      </trkpt>
      <trkpt lat="49.18519" lon="1.64538">
        <ele>113.19999694824</ele>
        <time>2021-03-28T10:13:35.000Z</time>
      </trkpt>
      <trkpt lat="49.18521" lon="1.6452">
        <ele>113.40000152588</ele>
        <time>2021-03-28T10:13:39.000Z</time>
      </trkpt>
      <trkpt lat="49.18523" lon="1.64494">
        <ele>113.59999847412</ele>
        <time>2021-03-28T10:13:44.000Z</time>
      </trkpt>
      <trkpt lat="49.18524" lon="1.64489">
        <ele>113.59999847412</ele>
        <time>2021-03-28T10:13:45.000Z</time>
      </trkpt>
      <trkpt lat="49.18523" lon="1.64471">
        <ele>114</ele>
        <time>2021-03-28T10:13:49.000Z</time>
      </trkpt>
      <trkpt lat="49.18524" lon="1.64466">
        <ele>114.19999694824</ele>
        <time>2021-03-28T10:13:50.000Z</time>
      </trkpt>
      <trkpt lat="49.18525" lon="1.64439">
        <ele>114.40000152588</ele>
        <time>2021-03-28T10:13:55.000Z</time>
      </trkpt>
      <trkpt lat="49.18524" lon="1.64407">
        <ele>114.80000305176</ele>
        <time>2021-03-28T10:14:00.000Z</time>
      </trkpt>
      <trkpt lat="49.18526" lon="1.64374">
        <ele>115</ele>
        <time>2021-03-28T10:14:05.000Z</time>
      </trkpt>
      <trkpt lat="49.18531" lon="1.64325">
        <ele>115</ele>
        <time>2021-03-28T10:14:12.000Z</time>
      </trkpt>
      <trkpt lat="49.18533" lon="1.64283">
        <ele>114.80000305176</ele>
        <time>2021-03-28T10:14:18.000Z</time>
      </trkpt>
      <trkpt lat="49.18534" lon="1.6427">
        <ele>114.59999847412</ele>
        <time>2021-03-28T10:14:20.000Z</time>
      </trkpt>
      <trkpt lat="49.18535" lon="1.64245">
        <ele>114.59999847412</ele>
        <time>2021-03-28T10:14:24.000Z</time>
      </trkpt>
      <trkpt lat="49.18531" lon="1.64214">
        <ele>114.59999847412</ele>
        <time>2021-03-28T10:14:29.000Z</time>
      </trkpt>
      <trkpt lat="49.18526" lon="1.6417">
        <ele>114.80000305176</ele>
        <time>2021-03-28T10:14:36.000Z</time>
      </trkpt>
      <trkpt lat="49.18517" lon="1.64149">
        <ele>115.19999694824</ele>
        <time>2021-03-28T10:14:40.000Z</time>
      </trkpt>
      <trkpt lat="49.18494" lon="1.6412">
        <ele>115</ele>
        <time>2021-03-28T10:14:46.000Z</time>
      </trkpt>
      <trkpt lat="49.18468" lon="1.6409">
        <ele>114</ele>
        <time>2021-03-28T10:14:52.000Z</time>
      </trkpt>
      <trkpt lat="49.1846" lon="1.64081">
        <ele>113</ele>
        <time>2021-03-28T10:14:54.000Z</time>
      </trkpt>
      <trkpt lat="49.18448" lon="1.64069">
        <ele>112.40000152588</ele>
        <time>2021-03-28T10:14:57.000Z</time>
      </trkpt>
      <trkpt lat="49.18427" lon="1.64048">
        <ele>112</ele>
        <time>2021-03-28T10:15:02.000Z</time>
      </trkpt>
      <trkpt lat="49.18407" lon="1.64029">
        <ele>111.40000152588</ele>
        <time>2021-03-28T10:15:07.000Z</time>
      </trkpt>
      <trkpt lat="49.18376" lon="1.63996">
        <ele>112.19999694824</ele>
        <time>2021-03-28T10:15:16.000Z</time>
      </trkpt>
      <trkpt lat="49.1835" lon="1.63964">
        <ele>112.80000305176</ele>
        <time>2021-03-28T10:15:24.000Z</time>
      </trkpt>
      <trkpt lat="49.18341" lon="1.63952">
        <ele>113.19999694824</ele>
        <time>2021-03-28T10:15:27.000Z</time>
      </trkpt>
      <trkpt lat="49.18331" lon="1.63938">
        <ele>113.40000152588</ele>
        <time>2021-03-28T10:15:31.000Z</time>
      </trkpt>
      <trkpt lat="49.18316" lon="1.63917">
        <ele>114.19999694824</ele>
        <time>2021-03-28T10:15:37.000Z</time>
      </trkpt>
      <trkpt lat="49.18315" lon="1.63913">
        <ele>114.19999694824</ele>
        <time>2021-03-28T10:15:38.000Z</time>
      </trkpt>
      <trkpt lat="49.18317" lon="1.63896">
        <ele>114.19999694824</ele>
        <time>2021-03-28T10:15:42.000Z</time>
      </trkpt>
      <trkpt lat="49.18316" lon="1.63892">
        <ele>114.40000152588</ele>
        <time>2021-03-28T10:15:45.000Z</time>
      </trkpt>
      <trkpt lat="49.18313" lon="1.63907">
        <ele>114.40000152588</ele>
        <time>2021-03-28T10:15:49.000Z</time>
      </trkpt>
      <trkpt lat="49.1831" lon="1.63916">
        <ele>114.40000152588</ele>
        <time>2021-03-28T10:15:51.000Z</time>
      </trkpt>
      <trkpt lat="49.18304" lon="1.63939">
        <ele>114.59999847412</ele>
        <time>2021-03-28T10:15:55.000Z</time>
      </trkpt>
      <trkpt lat="49.183" lon="1.63951">
        <ele>114.59999847412</ele>
        <time>2021-03-28T10:15:57.000Z</time>
      </trkpt>
      <trkpt lat="49.1829" lon="1.63964">
        <ele>114.59999847412</ele>
        <time>2021-03-28T10:16:00.000Z</time>
      </trkpt>
      <trkpt lat="49.18279" lon="1.63963">
        <ele>114.59999847412</ele>
        <time>2021-03-28T10:16:03.000Z</time>
      </trkpt>
      <trkpt lat="49.1827" lon="1.63962">
        <ele>114.59999847412</ele>
        <time>2021-03-28T10:16:05.000Z</time>
      </trkpt>
      <trkpt lat="49.18242" lon="1.63958">
        <ele>114</ele>
        <time>2021-03-28T10:16:12.000Z</time>
      </trkpt>
      <trkpt lat="49.18217" lon="1.63953">
        <ele>113.59999847412</ele>
        <time>2021-03-28T10:16:18.000Z</time>
      </trkpt>
      <trkpt lat="49.18213" lon="1.63951">
        <ele>113.59999847412</ele>
        <time>2021-03-28T10:16:19.000Z</time>
      </trkpt>
      <trkpt lat="49.18193" lon="1.63936">
        <ele>113.40000152588</ele>
        <time>2021-03-28T10:16:24.000Z</time>
      </trkpt>
      <trkpt lat="49.18184" lon="1.63935">
        <ele>113</ele>
        <time>2021-03-28T10:16:26.000Z</time>
      </trkpt>
      <trkpt lat="49.18177" lon="1.6394">
        <ele>112.80000305176</ele>
        <time>2021-03-28T10:16:28.000Z</time>
      </trkpt>
      <trkpt lat="49.1816" lon="1.63955">
        <ele>112.59999847412</ele>
        <time>2021-03-28T10:16:33.000Z</time>
      </trkpt>
      <trkpt lat="49.18136" lon="1.63978">
        <ele>113</ele>
        <time>2021-03-28T10:16:40.000Z</time>
      </trkpt>
      <trkpt lat="49.1812" lon="1.64004">
        <ele>114</ele>
        <time>2021-03-28T10:16:46.000Z</time>
      </trkpt>
      <trkpt lat="49.18118" lon="1.64009">
        <ele>114</ele>
        <time>2021-03-28T10:16:47.000Z</time>
      </trkpt>
      <trkpt lat="49.18106" lon="1.64036">
        <ele>115</ele>
        <time>2021-03-28T10:16:52.000Z</time>
      </trkpt>
      <trkpt lat="49.18097" lon="1.64058">
        <ele>115.40000152588</ele>
        <time>2021-03-28T10:16:56.000Z</time>
      </trkpt>
      <trkpt lat="49.18094" lon="1.64063">
        <ele>115.40000152588</ele>
        <time>2021-03-28T10:16:57.000Z</time>
      </trkpt>
      <trkpt lat="49.18089" lon="1.64074">
        <ele>115.59999847412</ele>
        <time>2021-03-28T10:16:59.000Z</time>
      </trkpt>
      <trkpt lat="49.18081" lon="1.6409">
        <ele>115.59999847412</ele>
        <time>2021-03-28T10:17:02.000Z</time>
      </trkpt>
      <trkpt lat="49.18079" lon="1.64096">
        <ele>115.59999847412</ele>
        <time>2021-03-28T10:17:03.000Z</time>
      </trkpt>
      <trkpt lat="49.18073" lon="1.64108">
        <ele>115.59999847412</ele>
        <time>2021-03-28T10:17:05.000Z</time>
      </trkpt>
      <trkpt lat="49.18066" lon="1.64125">
        <ele>115.80000305176</ele>
        <time>2021-03-28T10:17:08.000Z</time>
      </trkpt>
      <trkpt lat="49.18055" lon="1.64148">
        <ele>116</ele>
        <time>2021-03-28T10:17:12.000Z</time>
      </trkpt>
      <trkpt lat="49.18041" lon="1.64178">
        <ele>116</ele>
        <time>2021-03-28T10:17:18.000Z</time>
      </trkpt>
      <trkpt lat="49.18039" lon="1.64183">
        <ele>116.19999694824</ele>
        <time>2021-03-28T10:17:19.000Z</time>
      </trkpt>
      <trkpt lat="49.18021" lon="1.64222">
        <ele>117.19999694824</ele>
        <time>2021-03-28T10:17:27.000Z</time>
      </trkpt>
      <trkpt lat="49.18018" lon="1.64226">
        <ele>117.40000152588</ele>
        <time>2021-03-28T10:17:28.000Z</time>
      </trkpt>
      <trkpt lat="49.18006" lon="1.64253">
        <ele>118.40000152588</ele>
        <time>2021-03-28T10:17:34.000Z</time>
      </trkpt>
      <trkpt lat="49.18001" lon="1.64263">
        <ele>118.80000305176</ele>
        <time>2021-03-28T10:17:36.000Z</time>
      </trkpt>
      <trkpt lat="49.17988" lon="1.64287">
        <ele>119.40000152588</ele>
        <time>2021-03-28T10:17:42.000Z</time>
      </trkpt>
      <trkpt lat="49.1798" lon="1.64297">
        <ele>119.80000305176</ele>
        <time>2021-03-28T10:17:46.000Z</time>
      </trkpt>
      <trkpt lat="49.17979" lon="1.64299">
        <ele>120.19999694824</ele>
        <time>2021-03-28T10:17:47.000Z</time>
      </trkpt>
      <trkpt lat="49.17974" lon="1.64303">
        <ele>120.59999847412</ele>
        <time>2021-03-28T10:17:49.000Z</time>
      </trkpt>
      <trkpt lat="49.1797" lon="1.64307">
        <ele>120.80000305176</ele>
        <time>2021-03-28T10:17:51.000Z</time>
      </trkpt>
      <trkpt lat="49.17967" lon="1.64309">
        <ele>120.80000305176</ele>
        <time>2021-03-28T10:17:52.000Z</time>
      </trkpt>
      <trkpt lat="49.17954" lon="1.64321">
        <ele>121</ele>
        <time>2021-03-28T10:17:57.000Z</time>
      </trkpt>
      <trkpt lat="49.17939" lon="1.64331">
        <ele>121.19999694824</ele>
        <time>2021-03-28T10:18:02.000Z</time>
      </trkpt>
      <trkpt lat="49.17916" lon="1.64341">
        <ele>121.19999694824</ele>
        <time>2021-03-28T10:18:08.000Z</time>
      </trkpt>
      <trkpt lat="49.17896" lon="1.64358">
        <ele>121.19999694824</ele>
        <time>2021-03-28T10:18:14.000Z</time>
      </trkpt>
      <trkpt lat="49.17887" lon="1.64375">
        <ele>121.19999694824</ele>
        <time>2021-03-28T10:18:18.000Z</time>
      </trkpt>
      <trkpt lat="49.17873" lon="1.64398">
        <ele>121.19999694824</ele>
        <time>2021-03-28T10:18:23.000Z</time>
      </trkpt>
      <trkpt lat="49.17864" lon="1.64416">
        <ele>121.40000152588</ele>
        <time>2021-03-28T10:18:27.000Z</time>
      </trkpt>
      <trkpt lat="49.17858" lon="1.64433">
        <ele>121.59999847412</ele>
        <time>2021-03-28T10:18:30.000Z</time>
      </trkpt>
      <trkpt lat="49.17856" lon="1.64437">
        <ele>121.59999847412</ele>
        <time>2021-03-28T10:18:31.000Z</time>
      </trkpt>
      <trkpt lat="49.17846" lon="1.64463">
        <ele>121.80000305176</ele>
        <time>2021-03-28T10:18:36.000Z</time>
      </trkpt>
      <trkpt lat="49.17842" lon="1.64473">
        <ele>122</ele>
        <time>2021-03-28T10:18:38.000Z</time>
      </trkpt>
      <trkpt lat="49.17841" lon="1.64484">
        <ele>122.19999694824</ele>
        <time>2021-03-28T10:18:40.000Z</time>
      </trkpt>
      <trkpt lat="49.17836" lon="1.64503">
        <ele>122.40000152588</ele>
        <time>2021-03-28T10:18:44.000Z</time>
      </trkpt>
      <trkpt lat="49.17827" lon="1.64519">
        <ele>122.40000152588</ele>
        <time>2021-03-28T10:18:48.000Z</time>
      </trkpt>
      <trkpt lat="49.1782" lon="1.64535">
        <ele>122.59999847412</ele>
        <time>2021-03-28T10:18:51.000Z</time>
      </trkpt>
      <trkpt lat="49.17818" lon="1.6454">
        <ele>122.59999847412</ele>
        <time>2021-03-28T10:18:52.000Z</time>
      </trkpt>
      <trkpt lat="49.17816" lon="1.64545">
        <ele>122.59999847412</ele>
        <time>2021-03-28T10:18:53.000Z</time>
      </trkpt>
      <trkpt lat="49.17806" lon="1.64572">
        <ele>122.80000305176</ele>
        <time>2021-03-28T10:18:58.000Z</time>
      </trkpt>
      <trkpt lat="49.17799" lon="1.64589">
        <ele>122.80000305176</ele>
        <time>2021-03-28T10:19:01.000Z</time>
      </trkpt>
      <trkpt lat="49.17794" lon="1.646">
        <ele>122.59999847412</ele>
        <time>2021-03-28T10:19:03.000Z</time>
      </trkpt>
      <trkpt lat="49.17777" lon="1.64636">
        <ele>122.59999847412</ele>
        <time>2021-03-28T10:19:09.000Z</time>
      </trkpt>
      <trkpt lat="49.17763" lon="1.6467">
        <ele>122.59999847412</ele>
        <time>2021-03-28T10:19:15.000Z</time>
      </trkpt>
      <trkpt lat="49.17746" lon="1.64709">
        <ele>122.80000305176</ele>
        <time>2021-03-28T10:19:22.000Z</time>
      </trkpt>
      <trkpt lat="49.17736" lon="1.64732">
        <ele>122.80000305176</ele>
        <time>2021-03-28T10:19:27.000Z</time>
      </trkpt>
      <trkpt lat="49.17726" lon="1.64754">
        <ele>122.80000305176</ele>
        <time>2021-03-28T10:19:31.000Z</time>
      </trkpt>
      <trkpt lat="49.17713" lon="1.64784">
        <ele>122.80000305176</ele>
        <time>2021-03-28T10:19:37.000Z</time>
      </trkpt>
      <trkpt lat="49.17707" lon="1.648">
        <ele>123</ele>
        <time>2021-03-28T10:19:41.000Z</time>
      </trkpt>
      <trkpt lat="49.17705" lon="1.64804">
        <ele>123</ele>
        <time>2021-03-28T10:19:44.000Z</time>
      </trkpt>
      <trkpt lat="49.17702" lon="1.64812">
        <ele>122.59999847412</ele>
        <time>2021-03-28T10:20:27.000Z</time>
      </trkpt>
      <trkpt lat="49.17695" lon="1.64829">
        <ele>122.59999847412</ele>
        <time>2021-03-28T10:20:34.000Z</time>
      </trkpt>
      <trkpt lat="49.17688" lon="1.64849">
        <ele>122.59999847412</ele>
        <time>2021-03-28T10:20:39.000Z</time>
      </trkpt>
      <trkpt lat="49.17681" lon="1.64868">
        <ele>122.19999694824</ele>
        <time>2021-03-28T10:20:44.000Z</time>
      </trkpt>
      <trkpt lat="49.1767" lon="1.64894">
        <ele>122.19999694824</ele>
        <time>2021-03-28T10:20:49.000Z</time>
      </trkpt>
      <trkpt lat="49.1766" lon="1.64916">
        <ele>122</ele>
        <time>2021-03-28T10:20:53.000Z</time>
      </trkpt>
      <trkpt lat="49.17653" lon="1.64939">
        <ele>122</ele>
        <time>2021-03-28T10:20:58.000Z</time>
      </trkpt>
      <trkpt lat="49.17643" lon="1.6497">
        <ele>122</ele>
        <time>2021-03-28T10:21:04.000Z</time>
      </trkpt>
      <trkpt lat="49.17634" lon="1.64998">
        <ele>122</ele>
        <time>2021-03-28T10:21:09.000Z</time>
      </trkpt>
      <trkpt lat="49.1762" lon="1.65042">
        <ele>122</ele>
        <time>2021-03-28T10:21:16.000Z</time>
      </trkpt>
      <trkpt lat="49.17611" lon="1.65069">
        <ele>121.59999847412</ele>
        <time>2021-03-28T10:21:21.000Z</time>
      </trkpt>
      <trkpt lat="49.17603" lon="1.65094">
        <ele>121.59999847412</ele>
        <time>2021-03-28T10:21:25.000Z</time>
      </trkpt>
      <trkpt lat="49.17593" lon="1.6512">
        <ele>121</ele>
        <time>2021-03-28T10:21:29.000Z</time>
      </trkpt>
      <trkpt lat="49.17588" lon="1.65133">
        <ele>120.80000305176</ele>
        <time>2021-03-28T10:21:31.000Z</time>
      </trkpt>
      <trkpt lat="49.17577" lon="1.65165">
        <ele>120.40000152588</ele>
        <time>2021-03-28T10:21:36.000Z</time>
      </trkpt>
      <trkpt lat="49.1757" lon="1.65186">
        <ele>120.19999694824</ele>
        <time>2021-03-28T10:21:40.000Z</time>
      </trkpt>
      <trkpt lat="49.1756" lon="1.6521">
        <ele>120</ele>
        <time>2021-03-28T10:21:44.000Z</time>
      </trkpt>
      <trkpt lat="49.17549" lon="1.65241">
        <ele>120</ele>
        <time>2021-03-28T10:21:49.000Z</time>
      </trkpt>
      <trkpt lat="49.17545" lon="1.65264">
        <ele>120.40000152588</ele>
        <time>2021-03-28T10:21:53.000Z</time>
      </trkpt>
      <trkpt lat="49.17539" lon="1.65297">
        <ele>120.80000305176</ele>
        <time>2021-03-28T10:21:58.000Z</time>
      </trkpt>
      <trkpt lat="49.17525" lon="1.65329">
        <ele>120.80000305176</ele>
        <time>2021-03-28T10:22:03.000Z</time>
      </trkpt>
      <trkpt lat="49.17504" lon="1.65371">
        <ele>121</ele>
        <time>2021-03-28T10:22:11.000Z</time>
      </trkpt>
      <trkpt lat="49.17485" lon="1.65403">
        <ele>120.59999847412</ele>
        <time>2021-03-28T10:22:17.000Z</time>
      </trkpt>
      <trkpt lat="49.17464" lon="1.65445">
        <ele>120</ele>
        <time>2021-03-28T10:22:24.000Z</time>
      </trkpt>
      <trkpt lat="49.17458" lon="1.65457">
        <ele>119.59999847412</ele>
        <time>2021-03-28T10:22:26.000Z</time>
      </trkpt>
      <trkpt lat="49.17449" lon="1.65473">
        <ele>119.40000152588</ele>
        <time>2021-03-28T10:22:29.000Z</time>
      </trkpt>
      <trkpt lat="49.17425" lon="1.65519">
        <ele>119.19999694824</ele>
        <time>2021-03-28T10:22:37.000Z</time>
      </trkpt>
      <trkpt lat="49.17409" lon="1.65549">
        <ele>119.19999694824</ele>
        <time>2021-03-28T10:22:43.000Z</time>
      </trkpt>
      <trkpt lat="49.17388" lon="1.65585">
        <ele>119.40000152588</ele>
        <time>2021-03-28T10:22:50.000Z</time>
      </trkpt>
      <trkpt lat="49.1737" lon="1.65612">
        <ele>119.19999694824</ele>
        <time>2021-03-28T10:22:56.000Z</time>
      </trkpt>
      <trkpt lat="49.17343" lon="1.65647">
        <ele>119.19999694824</ele>
        <time>2021-03-28T10:23:04.000Z</time>
      </trkpt>
      <trkpt lat="49.17318" lon="1.6568">
        <ele>119.40000152588</ele>
        <time>2021-03-28T10:23:12.000Z</time>
      </trkpt>
      <trkpt lat="49.17303" lon="1.65701">
        <ele>119.19999694824</ele>
        <time>2021-03-28T10:23:18.000Z</time>
      </trkpt>
      <trkpt lat="49.17289" lon="1.65717">
        <ele>119</ele>
        <time>2021-03-28T10:23:23.000Z</time>
      </trkpt>
      <trkpt lat="49.1728" lon="1.6573">
        <ele>118.80000305176</ele>
        <time>2021-03-28T10:23:26.000Z</time>
      </trkpt>
      <trkpt lat="49.17272" lon="1.65744">
        <ele>118.80000305176</ele>
        <time>2021-03-28T10:23:29.000Z</time>
      </trkpt>
      <trkpt lat="49.17269" lon="1.65749">
        <ele>118.80000305176</ele>
        <time>2021-03-28T10:23:30.000Z</time>
      </trkpt>
      <trkpt lat="49.17255" lon="1.65766">
        <ele>118.59999847412</ele>
        <time>2021-03-28T10:23:34.000Z</time>
      </trkpt>
      <trkpt lat="49.17251" lon="1.6577">
        <ele>118.59999847412</ele>
        <time>2021-03-28T10:23:35.000Z</time>
      </trkpt>
      <trkpt lat="49.1724" lon="1.65783">
        <ele>118.40000152588</ele>
        <time>2021-03-28T10:23:38.000Z</time>
      </trkpt>
      <trkpt lat="49.17229" lon="1.65795">
        <ele>118.40000152588</ele>
        <time>2021-03-28T10:23:41.000Z</time>
      </trkpt>
      <trkpt lat="49.17204" lon="1.65823">
        <ele>117.80000305176</ele>
        <time>2021-03-28T10:23:48.000Z</time>
      </trkpt>
      <trkpt lat="49.172" lon="1.65827">
        <ele>117.80000305176</ele>
        <time>2021-03-28T10:23:49.000Z</time>
      </trkpt>
      <trkpt lat="49.17189" lon="1.65839">
        <ele>117.59999847412</ele>
        <time>2021-03-28T10:23:52.000Z</time>
      </trkpt>
      <trkpt lat="49.17185" lon="1.65843">
        <ele>117.59999847412</ele>
        <time>2021-03-28T10:23:53.000Z</time>
      </trkpt>
      <trkpt lat="49.17151" lon="1.65866">
        <ele>117.19999694824</ele>
        <time>2021-03-28T10:24:00.000Z</time>
      </trkpt>
      <trkpt lat="49.1712" lon="1.65884">
        <ele>116.59999847412</ele>
        <time>2021-03-28T10:24:06.000Z</time>
      </trkpt>
      <trkpt lat="49.17116" lon="1.65888">
        <ele>116.59999847412</ele>
        <time>2021-03-28T10:24:07.000Z</time>
      </trkpt>
      <trkpt lat="49.17088" lon="1.65907">
        <ele>115.19999694824</ele>
        <time>2021-03-28T10:24:13.000Z</time>
      </trkpt>
      <trkpt lat="49.17083" lon="1.65911">
        <ele>115</ele>
        <time>2021-03-28T10:24:14.000Z</time>
      </trkpt>
      <trkpt lat="49.17059" lon="1.65927">
        <ele>114.19999694824</ele>
        <time>2021-03-28T10:24:19.000Z</time>
      </trkpt>
      <trkpt lat="49.17041" lon="1.6594">
        <ele>113.40000152588</ele>
        <time>2021-03-28T10:24:23.000Z</time>
      </trkpt>
      <trkpt lat="49.17024" lon="1.65954">
        <ele>113</ele>
        <time>2021-03-28T10:24:27.000Z</time>
      </trkpt>
      <trkpt lat="49.17016" lon="1.65961">
        <ele>112.59999847412</ele>
        <time>2021-03-28T10:24:29.000Z</time>
      </trkpt>
      <trkpt lat="49.16993" lon="1.65982">
        <ele>112.19999694824</ele>
        <time>2021-03-28T10:24:34.000Z</time>
      </trkpt>
      <trkpt lat="49.16989" lon="1.65987">
        <ele>112</ele>
        <time>2021-03-28T10:24:35.000Z</time>
      </trkpt>
      <trkpt lat="49.16985" lon="1.65992">
        <ele>111.80000305176</ele>
        <time>2021-03-28T10:24:36.000Z</time>
      </trkpt>
      <trkpt lat="49.16971" lon="1.6601">
        <ele>110.59999847412</ele>
        <time>2021-03-28T10:24:40.000Z</time>
      </trkpt>
      <trkpt lat="49.16962" lon="1.66021">
        <ele>109.59999847412</ele>
        <time>2021-03-28T10:24:42.000Z</time>
      </trkpt>
      <trkpt lat="49.16958" lon="1.66026">
        <ele>109.19999694824</ele>
        <time>2021-03-28T10:24:43.000Z</time>
      </trkpt>
      <trkpt lat="49.16954" lon="1.66032">
        <ele>108.59999847412</ele>
        <time>2021-03-28T10:24:44.000Z</time>
      </trkpt>
      <trkpt lat="49.16951" lon="1.66038">
        <ele>107.80000305176</ele>
        <time>2021-03-28T10:24:45.000Z</time>
      </trkpt>
      <trkpt lat="49.16947" lon="1.66046">
        <ele>107.40000152588</ele>
        <time>2021-03-28T10:24:46.000Z</time>
      </trkpt>
      <trkpt lat="49.16938" lon="1.66061">
        <ele>106.59999847412</ele>
        <time>2021-03-28T10:24:48.000Z</time>
      </trkpt>
      <trkpt lat="49.16928" lon="1.66078">
        <ele>105.19999694824</ele>
        <time>2021-03-28T10:24:50.000Z</time>
      </trkpt>
      <trkpt lat="49.16923" lon="1.66085">
        <ele>104.19999694824</ele>
        <time>2021-03-28T10:24:51.000Z</time>
      </trkpt>
      <trkpt lat="49.16918" lon="1.66092">
        <ele>102.80000305176</ele>
        <time>2021-03-28T10:24:52.000Z</time>
      </trkpt>
      <trkpt lat="49.16912" lon="1.66098">
        <ele>101.59999847412</ele>
        <time>2021-03-28T10:24:53.000Z</time>
      </trkpt>
      <trkpt lat="49.16906" lon="1.66105">
        <ele>100.59999847412</ele>
        <time>2021-03-28T10:24:54.000Z</time>
      </trkpt>
      <trkpt lat="49.16899" lon="1.66111">
        <ele>99.400001525879</ele>
        <time>2021-03-28T10:24:55.000Z</time>
      </trkpt>
      <trkpt lat="49.1689" lon="1.66115">
        <ele>98.199996948242</ele>
        <time>2021-03-28T10:24:56.000Z</time>
      </trkpt>
      <trkpt lat="49.1688" lon="1.66118">
        <ele>97.199996948242</ele>
        <time>2021-03-28T10:24:57.000Z</time>
      </trkpt>
      <trkpt lat="49.16868" lon="1.66118">
        <ele>96</ele>
        <time>2021-03-28T10:24:58.000Z</time>
      </trkpt>
      <trkpt lat="49.16856" lon="1.66117">
        <ele>95.199996948242</ele>
        <time>2021-03-28T10:24:59.000Z</time>
      </trkpt>
      <trkpt lat="49.16844" lon="1.66117">
        <ele>94.199996948242</ele>
        <time>2021-03-28T10:25:00.000Z</time>
      </trkpt>
      <trkpt lat="49.16821" lon="1.66116">
        <ele>91.800003051758</ele>
        <time>2021-03-28T10:25:02.000Z</time>
      </trkpt>
      <trkpt lat="49.1681" lon="1.66115">
        <ele>90.400001525879</ele>
        <time>2021-03-28T10:25:03.000Z</time>
      </trkpt>
      <trkpt lat="49.16799" lon="1.66115">
        <ele>88.400001525879</ele>
        <time>2021-03-28T10:25:04.000Z</time>
      </trkpt>
      <trkpt lat="49.16788" lon="1.66116">
        <ele>86.400001525879</ele>
        <time>2021-03-28T10:25:05.000Z</time>
      </trkpt>
      <trkpt lat="49.16778" lon="1.66116">
        <ele>84.400001525879</ele>
        <time>2021-03-28T10:25:06.000Z</time>
      </trkpt>
      <trkpt lat="49.16768" lon="1.66116">
        <ele>82.800003051758</ele>
        <time>2021-03-28T10:25:07.000Z</time>
      </trkpt>
      <trkpt lat="49.16758" lon="1.66115">
        <ele>81.199996948242</ele>
        <time>2021-03-28T10:25:08.000Z</time>
      </trkpt>
      <trkpt lat="49.16748" lon="1.66115">
        <ele>79.800003051758</ele>
        <time>2021-03-28T10:25:09.000Z</time>
      </trkpt>
      <trkpt lat="49.16739" lon="1.66115">
        <ele>78.800003051758</ele>
        <time>2021-03-28T10:25:10.000Z</time>
      </trkpt>
      <trkpt lat="49.16731" lon="1.66116">
        <ele>77.400001525879</ele>
        <time>2021-03-28T10:25:11.000Z</time>
      </trkpt>
      <trkpt lat="49.16724" lon="1.66118">
        <ele>76</ele>
        <time>2021-03-28T10:25:12.000Z</time>
      </trkpt>
      <trkpt lat="49.1672" lon="1.66119">
        <ele>74.199996948242</ele>
        <time>2021-03-28T10:25:13.000Z</time>
      </trkpt>
      <trkpt lat="49.16717" lon="1.66119">
        <ele>73</ele>
        <time>2021-03-28T10:25:14.000Z</time>
      </trkpt>
      <trkpt lat="49.16714" lon="1.66119">
        <ele>71.800003051758</ele>
        <time>2021-03-28T10:25:16.000Z</time>
      </trkpt>
      <trkpt lat="49.16713" lon="1.66119">
        <ele>71</ele>
        <time>2021-03-28T10:25:19.000Z</time>
      </trkpt>
      <trkpt lat="49.16713" lon="1.66119">
        <ele>71</ele>
        <time>2021-03-28T10:25:20.000Z</time>
      </trkpt>
      <trkpt lat="49.16712" lon="1.66117">
        <ele>71</ele>
        <time>2021-03-28T10:25:29.000Z</time>
      </trkpt>
      <trkpt lat="49.16713" lon="1.66111">
        <ele>71</ele>
        <time>2021-03-28T10:25:31.000Z</time>
      </trkpt>
      <trkpt lat="49.16718" lon="1.6609">
        <ele>70.800003051758</ele>
        <time>2021-03-28T10:25:36.000Z</time>
      </trkpt>
      <trkpt lat="49.16719" lon="1.66085">
        <ele>70.800003051758</ele>
        <time>2021-03-28T10:25:37.000Z</time>
      </trkpt>
      <trkpt lat="49.16724" lon="1.66066">
        <ele>70.800003051758</ele>
        <time>2021-03-28T10:25:41.000Z</time>
      </trkpt>
      <trkpt lat="49.16726" lon="1.66057">
        <ele>70.599998474121</ele>
        <time>2021-03-28T10:25:43.000Z</time>
      </trkpt>
      <trkpt lat="49.16735" lon="1.6602">
        <ele>70.400001525879</ele>
        <time>2021-03-28T10:25:50.000Z</time>
      </trkpt>
      <trkpt lat="49.16744" lon="1.65983">
        <ele>69.599998474121</ele>
        <time>2021-03-28T10:25:57.000Z</time>
      </trkpt>
      <trkpt lat="49.16755" lon="1.65947">
        <ele>68.800003051758</ele>
        <time>2021-03-28T10:26:04.000Z</time>
      </trkpt>
      <trkpt lat="49.16757" lon="1.65931">
        <ele>68.800003051758</ele>
        <time>2021-03-28T10:26:07.000Z</time>
      </trkpt>
      <trkpt lat="49.16755" lon="1.65927">
        <ele>68.599998474121</ele>
        <time>2021-03-28T10:26:08.000Z</time>
      </trkpt>
      <trkpt lat="49.16752" lon="1.65923">
        <ele>68.599998474121</ele>
        <time>2021-03-28T10:26:09.000Z</time>
      </trkpt>
      <trkpt lat="49.16746" lon="1.65916">
        <ele>68.400001525879</ele>
        <time>2021-03-28T10:26:11.000Z</time>
      </trkpt>
      <trkpt lat="49.16744" lon="1.65914">
        <ele>68.199996948242</ele>
        <time>2021-03-28T10:26:12.000Z</time>
      </trkpt>
      <trkpt lat="49.16743" lon="1.65913">
        <ele>67.599998474121</ele>
        <time>2021-03-28T10:26:15.000Z</time>
      </trkpt>
      <trkpt lat="49.16741" lon="1.65912">
        <ele>67.199996948242</ele>
        <time>2021-03-28T10:26:40.000Z</time>
      </trkpt>
      <trkpt lat="49.16729" lon="1.65902">
        <ele>67</ele>
        <time>2021-03-28T10:26:45.000Z</time>
      </trkpt>
      <trkpt lat="49.16712" lon="1.65886">
        <ele>66.599998474121</ele>
        <time>2021-03-28T10:26:49.000Z</time>
      </trkpt>
      <trkpt lat="49.167" lon="1.65876">
        <ele>65.599998474121</ele>
        <time>2021-03-28T10:26:51.000Z</time>
      </trkpt>
      <trkpt lat="49.16681" lon="1.65858">
        <ele>64.199996948242</ele>
        <time>2021-03-28T10:26:54.000Z</time>
      </trkpt>
      <trkpt lat="49.16666" lon="1.65843">
        <ele>63</ele>
        <time>2021-03-28T10:26:56.000Z</time>
      </trkpt>
      <trkpt lat="49.16651" lon="1.65827">
        <ele>61.400001525879</ele>
        <time>2021-03-28T10:26:58.000Z</time>
      </trkpt>
      <trkpt lat="49.16643" lon="1.6582">
        <ele>60.400001525879</ele>
        <time>2021-03-28T10:26:59.000Z</time>
      </trkpt>
      <trkpt lat="49.16635" lon="1.65813">
        <ele>59.400001525879</ele>
        <time>2021-03-28T10:27:00.000Z</time>
      </trkpt>
      <trkpt lat="49.16621" lon="1.658">
        <ele>57.599998474121</ele>
        <time>2021-03-28T10:27:02.000Z</time>
      </trkpt>
      <trkpt lat="49.16615" lon="1.65793">
        <ele>56.400001525879</ele>
        <time>2021-03-28T10:27:03.000Z</time>
      </trkpt>
      <trkpt lat="49.16608" lon="1.65785">
        <ele>55.200000762939</ele>
        <time>2021-03-28T10:27:04.000Z</time>
      </trkpt>
      <trkpt lat="49.16601" lon="1.65778">
        <ele>53.799999237061</ele>
        <time>2021-03-28T10:27:05.000Z</time>
      </trkpt>
      <trkpt lat="49.16595" lon="1.65771">
        <ele>52.200000762939</ele>
        <time>2021-03-28T10:27:06.000Z</time>
      </trkpt>
      <trkpt lat="49.16588" lon="1.65763">
        <ele>50</ele>
        <time>2021-03-28T10:27:07.000Z</time>
      </trkpt>
      <trkpt lat="49.16581" lon="1.65756">
        <ele>47.799999237061</ele>
        <time>2021-03-28T10:27:08.000Z</time>
      </trkpt>
      <trkpt lat="49.16575" lon="1.6575">
        <ele>46</ele>
        <time>2021-03-28T10:27:09.000Z</time>
      </trkpt>
      <trkpt lat="49.1657" lon="1.65745">
        <ele>44.400001525879</ele>
        <time>2021-03-28T10:27:10.000Z</time>
      </trkpt>
      <trkpt lat="49.16567" lon="1.65741">
        <ele>43.400001525879</ele>
        <time>2021-03-28T10:27:11.000Z</time>
      </trkpt>
      <trkpt lat="49.16565" lon="1.65738">
        <ele>42.200000762939</ele>
        <time>2021-03-28T10:27:12.000Z</time>
      </trkpt>
      <trkpt lat="49.16566" lon="1.65734">
        <ele>38.799999237061</ele>
        <time>2021-03-28T10:27:13.000Z</time>
      </trkpt>
      <trkpt lat="49.16566" lon="1.6573">
        <ele>37.200000762939</ele>
        <time>2021-03-28T10:27:14.000Z</time>
      </trkpt>
      <trkpt lat="49.16567" lon="1.65725">
        <ele>35.799999237061</ele>
        <time>2021-03-28T10:27:15.000Z</time>
      </trkpt>
      <trkpt lat="49.16567" lon="1.65721">
        <ele>34.599998474121</ele>
        <time>2021-03-28T10:27:16.000Z</time>
      </trkpt>
      <trkpt lat="49.16568" lon="1.65716">
        <ele>34.200000762939</ele>
        <time>2021-03-28T10:27:17.000Z</time>
      </trkpt>
      <trkpt lat="49.16568" lon="1.65705">
        <ele>33.599998474121</ele>
        <time>2021-03-28T10:27:19.000Z</time>
      </trkpt>
      <trkpt lat="49.1657" lon="1.65678">
        <ele>33.599998474121</ele>
        <time>2021-03-28T10:27:25.000Z</time>
      </trkpt>
      <trkpt lat="49.16558" lon="1.65674">
        <ele>33.599998474121</ele>
        <time>2021-03-28T10:27:29.000Z</time>
      </trkpt>
      <trkpt lat="49.16534" lon="1.65666">
        <ele>34</ele>
        <time>2021-03-28T10:27:37.000Z</time>
      </trkpt>
      <trkpt lat="49.16522" lon="1.65662">
        <ele>35</ele>
        <time>2021-03-28T10:27:41.000Z</time>
      </trkpt>
      <trkpt lat="49.16513" lon="1.65658">
        <ele>35.799999237061</ele>
        <time>2021-03-28T10:27:45.000Z</time>
      </trkpt>
      <trkpt lat="49.16508" lon="1.65656">
        <ele>36.200000762939</ele>
        <time>2021-03-28T10:27:47.000Z</time>
      </trkpt>
      <trkpt lat="49.165" lon="1.65653">
        <ele>36.799999237061</ele>
        <time>2021-03-28T10:27:51.000Z</time>
      </trkpt>
      <trkpt lat="49.16495" lon="1.65652">
        <ele>37.400001525879</ele>
        <time>2021-03-28T10:27:53.000Z</time>
      </trkpt>
      <trkpt lat="49.16485" lon="1.65649">
        <ele>37.799999237061</ele>
        <time>2021-03-28T10:27:57.000Z</time>
      </trkpt>
      <trkpt lat="49.16481" lon="1.65648">
        <ele>38.400001525879</ele>
        <time>2021-03-28T10:27:59.000Z</time>
      </trkpt>
      <trkpt lat="49.16469" lon="1.65646">
        <ele>39.599998474121</ele>
        <time>2021-03-28T10:28:04.000Z</time>
      </trkpt>
      <trkpt lat="49.16464" lon="1.65645">
        <ele>40</ele>
        <time>2021-03-28T10:28:06.000Z</time>
      </trkpt>
      <trkpt lat="49.16457" lon="1.65645">
        <ele>40.799999237061</ele>
        <time>2021-03-28T10:28:09.000Z</time>
      </trkpt>
      <trkpt lat="49.16449" lon="1.65646">
        <ele>41</ele>
        <time>2021-03-28T10:28:13.000Z</time>
      </trkpt>
      <trkpt lat="49.16437" lon="1.6565">
        <ele>41.799999237061</ele>
        <time>2021-03-28T10:28:18.000Z</time>
      </trkpt>
      <trkpt lat="49.16435" lon="1.65651">
        <ele>42.200000762939</ele>
        <time>2021-03-28T10:28:19.000Z</time>
      </trkpt>
      <trkpt lat="49.16428" lon="1.65654">
        <ele>43</ele>
        <time>2021-03-28T10:28:22.000Z</time>
      </trkpt>
      <trkpt lat="49.16421" lon="1.65656">
        <ele>43.599998474121</ele>
        <time>2021-03-28T10:28:25.000Z</time>
      </trkpt>
      <trkpt lat="49.16411" lon="1.65658">
        <ele>44</ele>
        <time>2021-03-28T10:28:29.000Z</time>
      </trkpt>
      <trkpt lat="49.16409" lon="1.65658">
        <ele>44.400001525879</ele>
        <time>2021-03-28T10:28:30.000Z</time>
      </trkpt>
      <trkpt lat="49.16403" lon="1.65659">
        <ele>45</ele>
        <time>2021-03-28T10:28:32.000Z</time>
      </trkpt>
      <trkpt lat="49.16393" lon="1.65659">
        <ele>45.799999237061</ele>
        <time>2021-03-28T10:28:36.000Z</time>
      </trkpt>
      <trkpt lat="49.1639" lon="1.65659">
        <ele>46.200000762939</ele>
        <time>2021-03-28T10:28:37.000Z</time>
      </trkpt>
      <trkpt lat="49.16382" lon="1.65658">
        <ele>47.400001525879</ele>
        <time>2021-03-28T10:28:40.000Z</time>
      </trkpt>
      <trkpt lat="49.16374" lon="1.65655">
        <ele>48.400001525879</ele>
        <time>2021-03-28T10:28:43.000Z</time>
      </trkpt>
      <trkpt lat="49.16372" lon="1.65654">
        <ele>48.599998474121</ele>
        <time>2021-03-28T10:28:44.000Z</time>
      </trkpt>
      <trkpt lat="49.16359" lon="1.65649">
        <ele>49.799999237061</ele>
        <time>2021-03-28T10:28:49.000Z</time>
      </trkpt>
      <trkpt lat="49.16348" lon="1.65644">
        <ele>51</ele>
        <time>2021-03-28T10:28:54.000Z</time>
      </trkpt>
      <trkpt lat="49.16346" lon="1.65643">
        <ele>51</ele>
        <time>2021-03-28T10:28:55.000Z</time>
      </trkpt>
      <trkpt lat="49.16335" lon="1.65637">
        <ele>51.599998474121</ele>
        <time>2021-03-28T10:29:00.000Z</time>
      </trkpt>
      <trkpt lat="49.16328" lon="1.65635">
        <ele>52</ele>
        <time>2021-03-28T10:29:03.000Z</time>
      </trkpt>
      <trkpt lat="49.16323" lon="1.65633">
        <ele>52.200000762939</ele>
        <time>2021-03-28T10:29:05.000Z</time>
      </trkpt>
      <trkpt lat="49.16305" lon="1.65625">
        <ele>53</ele>
        <time>2021-03-28T10:29:12.000Z</time>
      </trkpt>
      <trkpt lat="49.16289" lon="1.65618">
        <ele>54.200000762939</ele>
        <time>2021-03-28T10:29:17.000Z</time>
      </trkpt>
      <trkpt lat="49.16283" lon="1.65615">
        <ele>54.400001525879</ele>
        <time>2021-03-28T10:29:19.000Z</time>
      </trkpt>
      <trkpt lat="49.16272" lon="1.65611">
        <ele>55.200000762939</ele>
        <time>2021-03-28T10:29:23.000Z</time>
      </trkpt>
      <trkpt lat="49.16258" lon="1.65606">
        <ele>56.200000762939</ele>
        <time>2021-03-28T10:29:28.000Z</time>
      </trkpt>
      <trkpt lat="49.16255" lon="1.65605">
        <ele>56.200000762939</ele>
        <time>2021-03-28T10:29:29.000Z</time>
      </trkpt>
      <trkpt lat="49.16243" lon="1.65599">
        <ele>57</ele>
        <time>2021-03-28T10:29:33.000Z</time>
      </trkpt>
      <trkpt lat="49.16237" lon="1.65596">
        <ele>57.400001525879</ele>
        <time>2021-03-28T10:29:35.000Z</time>
      </trkpt>
      <trkpt lat="49.16221" lon="1.65592">
        <ele>58</ele>
        <time>2021-03-28T10:29:40.000Z</time>
      </trkpt>
      <trkpt lat="49.16214" lon="1.65591">
        <ele>58.599998474121</ele>
        <time>2021-03-28T10:29:42.000Z</time>
      </trkpt>
      <trkpt lat="49.16203" lon="1.65587">
        <ele>59.799999237061</ele>
        <time>2021-03-28T10:29:46.000Z</time>
      </trkpt>
      <trkpt lat="49.16201" lon="1.65586">
        <ele>60</ele>
        <time>2021-03-28T10:29:47.000Z</time>
      </trkpt>
      <trkpt lat="49.16189" lon="1.6558">
        <ele>60.799999237061</ele>
        <time>2021-03-28T10:29:51.000Z</time>
      </trkpt>
      <trkpt lat="49.16183" lon="1.65577">
        <ele>61</ele>
        <time>2021-03-28T10:29:53.000Z</time>
      </trkpt>
      <trkpt lat="49.16172" lon="1.65569">
        <ele>62</ele>
        <time>2021-03-28T10:29:57.000Z</time>
      </trkpt>
      <trkpt lat="49.16162" lon="1.65558">
        <ele>62.599998474121</ele>
        <time>2021-03-28T10:30:01.000Z</time>
      </trkpt>
      <trkpt lat="49.16157" lon="1.65552">
        <ele>63</ele>
        <time>2021-03-28T10:30:03.000Z</time>
      </trkpt>
      <trkpt lat="49.16146" lon="1.65538">
        <ele>63.799999237061</ele>
        <time>2021-03-28T10:30:08.000Z</time>
      </trkpt>
      <trkpt lat="49.16141" lon="1.65528">
        <ele>64</ele>
        <time>2021-03-28T10:30:11.000Z</time>
      </trkpt>
      <trkpt lat="49.16132" lon="1.6551">
        <ele>64.400001525879</ele>
        <time>2021-03-28T10:30:16.000Z</time>
      </trkpt>
      <trkpt lat="49.16128" lon="1.65499">
        <ele>65.199996948242</ele>
        <time>2021-03-28T10:30:19.000Z</time>
      </trkpt>
      <trkpt lat="49.16123" lon="1.65483">
        <ele>66</ele>
        <time>2021-03-28T10:30:23.000Z</time>
      </trkpt>
      <trkpt lat="49.16123" lon="1.65479">
        <ele>66.199996948242</ele>
        <time>2021-03-28T10:30:24.000Z</time>
      </trkpt>
      <trkpt lat="49.16117" lon="1.65451">
        <ele>67.400001525879</ele>
        <time>2021-03-28T10:30:31.000Z</time>
      </trkpt>
      <trkpt lat="49.16115" lon="1.65438">
        <ele>67.800003051758</ele>
        <time>2021-03-28T10:30:34.000Z</time>
      </trkpt>
      <trkpt lat="49.1611" lon="1.65401">
        <ele>68.199996948242</ele>
        <time>2021-03-28T10:30:42.000Z</time>
      </trkpt>
      <trkpt lat="49.16109" lon="1.65397">
        <ele>68.599998474121</ele>
        <time>2021-03-28T10:30:43.000Z</time>
      </trkpt>
      <trkpt lat="49.16107" lon="1.65377">
        <ele>69.599998474121</ele>
        <time>2021-03-28T10:30:47.000Z</time>
      </trkpt>
      <trkpt lat="49.16103" lon="1.65353">
        <ele>70.599998474121</ele>
        <time>2021-03-28T10:30:52.000Z</time>
      </trkpt>
      <trkpt lat="49.16102" lon="1.65349">
        <ele>70.800003051758</ele>
        <time>2021-03-28T10:30:53.000Z</time>
      </trkpt>
      <trkpt lat="49.16094" lon="1.65316">
        <ele>72</ele>
        <time>2021-03-28T10:31:00.000Z</time>
      </trkpt>
      <trkpt lat="49.16077" lon="1.65281">
        <ele>72.800003051758</ele>
        <time>2021-03-28T10:31:08.000Z</time>
      </trkpt>
      <trkpt lat="49.16066" lon="1.65265">
        <ele>73</ele>
        <time>2021-03-28T10:31:12.000Z</time>
      </trkpt>
      <trkpt lat="49.16051" lon="1.65244">
        <ele>73.199996948242</ele>
        <time>2021-03-28T10:31:17.000Z</time>
      </trkpt>
      <trkpt lat="49.16028" lon="1.65212">
        <ele>74.199996948242</ele>
        <time>2021-03-28T10:31:25.000Z</time>
      </trkpt>
      <trkpt lat="49.16021" lon="1.65204">
        <ele>74.599998474121</ele>
        <time>2021-03-28T10:31:27.000Z</time>
      </trkpt>
      <trkpt lat="49.16015" lon="1.65196">
        <ele>75.199996948242</ele>
        <time>2021-03-28T10:31:29.000Z</time>
      </trkpt>
      <trkpt lat="49.15992" lon="1.65163">
        <ele>75.800003051758</ele>
        <time>2021-03-28T10:31:37.000Z</time>
      </trkpt>
      <trkpt lat="49.15963" lon="1.65118">
        <ele>75.800003051758</ele>
        <time>2021-03-28T10:31:47.000Z</time>
      </trkpt>
      <trkpt lat="49.15934" lon="1.65072">
        <ele>75.800003051758</ele>
        <time>2021-03-28T10:31:57.000Z</time>
      </trkpt>
      <trkpt lat="49.15916" lon="1.6504">
        <ele>76.400001525879</ele>
        <time>2021-03-28T10:32:04.000Z</time>
      </trkpt>
      <trkpt lat="49.15912" lon="1.6503">
        <ele>76.800003051758</ele>
        <time>2021-03-28T10:32:06.000Z</time>
      </trkpt>
      <trkpt lat="49.15902" lon="1.65007">
        <ele>77.599998474121</ele>
        <time>2021-03-28T10:32:11.000Z</time>
      </trkpt>
      <trkpt lat="49.159" lon="1.64998">
        <ele>78.599998474121</ele>
        <time>2021-03-28T10:32:13.000Z</time>
      </trkpt>
      <trkpt lat="49.15898" lon="1.64994">
        <ele>79</ele>
        <time>2021-03-28T10:32:14.000Z</time>
      </trkpt>
      <trkpt lat="49.15892" lon="1.64971">
        <ele>80</ele>
        <time>2021-03-28T10:32:20.000Z</time>
      </trkpt>
      <trkpt lat="49.15891" lon="1.64968">
        <ele>80.199996948242</ele>
        <time>2021-03-28T10:32:21.000Z</time>
      </trkpt>
      <trkpt lat="49.15885" lon="1.64952">
        <ele>81.199996948242</ele>
        <time>2021-03-28T10:32:26.000Z</time>
      </trkpt>
      <trkpt lat="49.15882" lon="1.64943">
        <ele>82.400001525879</ele>
        <time>2021-03-28T10:32:29.000Z</time>
      </trkpt>
      <trkpt lat="49.15881" lon="1.6494">
        <ele>82.599998474121</ele>
        <time>2021-03-28T10:32:30.000Z</time>
      </trkpt>
      <trkpt lat="49.15879" lon="1.6493">
        <ele>83.599998474121</ele>
        <time>2021-03-28T10:32:33.000Z</time>
      </trkpt>
      <trkpt lat="49.15875" lon="1.64919">
        <ele>84.599998474121</ele>
        <time>2021-03-28T10:32:37.000Z</time>
      </trkpt>
      <trkpt lat="49.15874" lon="1.64916">
        <ele>85</ele>
        <time>2021-03-28T10:32:38.000Z</time>
      </trkpt>
      <trkpt lat="49.15872" lon="1.64908">
        <ele>85.599998474121</ele>
        <time>2021-03-28T10:32:41.000Z</time>
      </trkpt>
      <trkpt lat="49.15867" lon="1.64895">
        <ele>86.800003051758</ele>
        <time>2021-03-28T10:32:46.000Z</time>
      </trkpt>
      <trkpt lat="49.15865" lon="1.6489">
        <ele>87.199996948242</ele>
        <time>2021-03-28T10:32:48.000Z</time>
      </trkpt>
      <trkpt lat="49.15862" lon="1.6488">
        <ele>88</ele>
        <time>2021-03-28T10:32:52.000Z</time>
      </trkpt>
      <trkpt lat="49.15858" lon="1.6487">
        <ele>89.400001525879</ele>
        <time>2021-03-28T10:32:56.000Z</time>
      </trkpt>
      <trkpt lat="49.15857" lon="1.64868">
        <ele>89.800003051758</ele>
        <time>2021-03-28T10:32:57.000Z</time>
      </trkpt>
      <trkpt lat="49.15852" lon="1.64859">
        <ele>90.400001525879</ele>
        <time>2021-03-28T10:33:01.000Z</time>
      </trkpt>
      <trkpt lat="49.15847" lon="1.6485">
        <ele>91.599998474121</ele>
        <time>2021-03-28T10:33:05.000Z</time>
      </trkpt>
      <trkpt lat="49.15842" lon="1.64839">
        <ele>92.599998474121</ele>
        <time>2021-03-28T10:33:10.000Z</time>
      </trkpt>
      <trkpt lat="49.15839" lon="1.64832">
        <ele>93.800003051758</ele>
        <time>2021-03-28T10:33:13.000Z</time>
      </trkpt>
      <trkpt lat="49.15838" lon="1.6483">
        <ele>94.199996948242</ele>
        <time>2021-03-28T10:33:14.000Z</time>
      </trkpt>
      <trkpt lat="49.15833" lon="1.64822">
        <ele>95</ele>
        <time>2021-03-28T10:33:18.000Z</time>
      </trkpt>
      <trkpt lat="49.15827" lon="1.64809">
        <ele>96</ele>
        <time>2021-03-28T10:33:24.000Z</time>
      </trkpt>
      <trkpt lat="49.1582" lon="1.64797">
        <ele>97</ele>
        <time>2021-03-28T10:33:30.000Z</time>
      </trkpt>
      <trkpt lat="49.15816" lon="1.64788">
        <ele>98</ele>
        <time>2021-03-28T10:33:34.000Z</time>
      </trkpt>
      <trkpt lat="49.15815" lon="1.64786">
        <ele>98.400001525879</ele>
        <time>2021-03-28T10:33:35.000Z</time>
      </trkpt>
      <trkpt lat="49.15808" lon="1.64773">
        <ele>99.400001525879</ele>
        <time>2021-03-28T10:33:41.000Z</time>
      </trkpt>
      <trkpt lat="49.15806" lon="1.64766">
        <ele>100</ele>
        <time>2021-03-28T10:33:44.000Z</time>
      </trkpt>
      <trkpt lat="49.15804" lon="1.64764">
        <ele>100.40000152588</ele>
        <time>2021-03-28T10:33:45.000Z</time>
      </trkpt>
      <trkpt lat="49.15799" lon="1.64751">
        <ele>101.59999847412</ele>
        <time>2021-03-28T10:33:51.000Z</time>
      </trkpt>
      <trkpt lat="49.15798" lon="1.64749">
        <ele>101.80000305176</ele>
        <time>2021-03-28T10:33:52.000Z</time>
      </trkpt>
      <trkpt lat="49.15796" lon="1.64744">
        <ele>102.59999847412</ele>
        <time>2021-03-28T10:33:54.000Z</time>
      </trkpt>
      <trkpt lat="49.15793" lon="1.64735">
        <ele>103.80000305176</ele>
        <time>2021-03-28T10:33:58.000Z</time>
      </trkpt>
      <trkpt lat="49.15792" lon="1.6473">
        <ele>104.19999694824</ele>
        <time>2021-03-28T10:34:00.000Z</time>
      </trkpt>
      <trkpt lat="49.1579" lon="1.64723">
        <ele>105</ele>
        <time>2021-03-28T10:34:03.000Z</time>
      </trkpt>
      <trkpt lat="49.15785" lon="1.64709">
        <ele>106.19999694824</ele>
        <time>2021-03-28T10:34:09.000Z</time>
      </trkpt>
      <trkpt lat="49.15784" lon="1.64707">
        <ele>106.40000152588</ele>
        <time>2021-03-28T10:34:10.000Z</time>
      </trkpt>
      <trkpt lat="49.15781" lon="1.64697">
        <ele>107.40000152588</ele>
        <time>2021-03-28T10:34:14.000Z</time>
      </trkpt>
      <trkpt lat="49.15778" lon="1.64687">
        <ele>108.40000152588</ele>
        <time>2021-03-28T10:34:18.000Z</time>
      </trkpt>
      <trkpt lat="49.15775" lon="1.6468">
        <ele>109</ele>
        <time>2021-03-28T10:34:21.000Z</time>
      </trkpt>
      <trkpt lat="49.15774" lon="1.64675">
        <ele>109.80000305176</ele>
        <time>2021-03-28T10:34:23.000Z</time>
      </trkpt>
      <trkpt lat="49.15768" lon="1.64656">
        <ele>110.80000305176</ele>
        <time>2021-03-28T10:34:31.000Z</time>
      </trkpt>
      <trkpt lat="49.15767" lon="1.64653">
        <ele>111</ele>
        <time>2021-03-28T10:34:32.000Z</time>
      </trkpt>
      <trkpt lat="49.15763" lon="1.64639">
        <ele>112.19999694824</ele>
        <time>2021-03-28T10:34:38.000Z</time>
      </trkpt>
      <trkpt lat="49.1576" lon="1.64629">
        <ele>113.40000152588</ele>
        <time>2021-03-28T10:34:42.000Z</time>
      </trkpt>
      <trkpt lat="49.15757" lon="1.64619">
        <ele>114.80000305176</ele>
        <time>2021-03-28T10:34:46.000Z</time>
      </trkpt>
      <trkpt lat="49.15754" lon="1.64606">
        <ele>115.80000305176</ele>
        <time>2021-03-28T10:34:51.000Z</time>
      </trkpt>
      <trkpt lat="49.15751" lon="1.64593">
        <ele>117</ele>
        <time>2021-03-28T10:34:56.000Z</time>
      </trkpt>
      <trkpt lat="49.15749" lon="1.64583">
        <ele>117.59999847412</ele>
        <time>2021-03-28T10:35:00.000Z</time>
      </trkpt>
      <trkpt lat="49.15749" lon="1.6458">
        <ele>117.80000305176</ele>
        <time>2021-03-28T10:35:01.000Z</time>
      </trkpt>
      <trkpt lat="49.15749" lon="1.64577">
        <ele>118</ele>
        <time>2021-03-28T10:35:02.000Z</time>
      </trkpt>
      <trkpt lat="49.15749" lon="1.64566">
        <ele>118.40000152588</ele>
        <time>2021-03-28T10:35:06.000Z</time>
      </trkpt>
      <trkpt lat="49.15749" lon="1.6455">
        <ele>119</ele>
        <time>2021-03-28T10:35:12.000Z</time>
      </trkpt>
      <trkpt lat="49.15749" lon="1.64548">
        <ele>119.19999694824</ele>
        <time>2021-03-28T10:35:13.000Z</time>
      </trkpt>
      <trkpt lat="49.15749" lon="1.64534">
        <ele>120.19999694824</ele>
        <time>2021-03-28T10:35:18.000Z</time>
      </trkpt>
      <trkpt lat="49.1575" lon="1.64529">
        <ele>120.59999847412</ele>
        <time>2021-03-28T10:35:20.000Z</time>
      </trkpt>
      <trkpt lat="49.15751" lon="1.64522">
        <ele>121.19999694824</ele>
        <time>2021-03-28T10:35:23.000Z</time>
      </trkpt>
      <trkpt lat="49.15753" lon="1.64515">
        <ele>122</ele>
        <time>2021-03-28T10:35:26.000Z</time>
      </trkpt>
      <trkpt lat="49.15753" lon="1.64512">
        <ele>122.19999694824</ele>
        <time>2021-03-28T10:35:27.000Z</time>
      </trkpt>
      <trkpt lat="49.15753" lon="1.6451">
        <ele>122.40000152588</ele>
        <time>2021-03-28T10:35:28.000Z</time>
      </trkpt>
      <trkpt lat="49.15753" lon="1.64499">
        <ele>123</ele>
        <time>2021-03-28T10:35:32.000Z</time>
      </trkpt>
      <trkpt lat="49.15753" lon="1.64493">
        <ele>123.40000152588</ele>
        <time>2021-03-28T10:35:34.000Z</time>
      </trkpt>
      <trkpt lat="49.15753" lon="1.64479">
        <ele>124.59999847412</ele>
        <time>2021-03-28T10:35:39.000Z</time>
      </trkpt>
      <trkpt lat="49.1575" lon="1.64459">
        <ele>125.59999847412</ele>
        <time>2021-03-28T10:35:45.000Z</time>
      </trkpt>
      <trkpt lat="49.15749" lon="1.64456">
        <ele>125.80000305176</ele>
        <time>2021-03-28T10:35:46.000Z</time>
      </trkpt>
      <trkpt lat="49.15741" lon="1.64429">
        <ele>126.80000305176</ele>
        <time>2021-03-28T10:35:54.000Z</time>
      </trkpt>
      <trkpt lat="49.15736" lon="1.64416">
        <ele>127.80000305176</ele>
        <time>2021-03-28T10:35:58.000Z</time>
      </trkpt>
      <trkpt lat="49.15731" lon="1.64401">
        <ele>128.39999389648</ele>
        <time>2021-03-28T10:36:02.000Z</time>
      </trkpt>
      <trkpt lat="49.15727" lon="1.64393">
        <ele>129</ele>
        <time>2021-03-28T10:36:04.000Z</time>
      </trkpt>
      <trkpt lat="49.15717" lon="1.6437">
        <ele>129.19999694824</ele>
        <time>2021-03-28T10:36:10.000Z</time>
      </trkpt>
      <trkpt lat="49.15703" lon="1.64342">
        <ele>130</ele>
        <time>2021-03-28T10:36:17.000Z</time>
      </trkpt>
      <trkpt lat="49.15699" lon="1.64333">
        <ele>130.19999694824</ele>
        <time>2021-03-28T10:36:19.000Z</time>
      </trkpt>
      <trkpt lat="49.1568" lon="1.64294">
        <ele>131</ele>
        <time>2021-03-28T10:36:28.000Z</time>
      </trkpt>
      <trkpt lat="49.15662" lon="1.64253">
        <ele>131.60000610352</ele>
        <time>2021-03-28T10:36:36.000Z</time>
      </trkpt>
      <trkpt lat="49.15646" lon="1.64216">
        <ele>131.80000305176</ele>
        <time>2021-03-28T10:36:43.000Z</time>
      </trkpt>
      <trkpt lat="49.15642" lon="1.64207">
        <ele>132.19999694824</ele>
        <time>2021-03-28T10:36:45.000Z</time>
      </trkpt>
      <trkpt lat="49.15628" lon="1.64179">
        <ele>132</ele>
        <time>2021-03-28T10:36:51.000Z</time>
      </trkpt>
      <trkpt lat="49.15625" lon="1.64173">
        <ele>131.80000305176</ele>
        <time>2021-03-28T10:36:54.000Z</time>
      </trkpt>
      <trkpt lat="49.15625" lon="1.64173">
        <ele>131.80000305176</ele>
        <time>2021-03-28T10:36:55.000Z</time>
      </trkpt>
      <trkpt lat="49.15626" lon="1.64174">
        <ele>132.80000305176</ele>
        <time>2021-03-28T10:38:25.000Z</time>
      </trkpt>
      <trkpt lat="49.15628" lon="1.64179">
        <ele>132.80000305176</ele>
        <time>2021-03-28T10:38:27.000Z</time>
      </trkpt>
      <trkpt lat="49.15636" lon="1.64202">
        <ele>132.80000305176</ele>
        <time>2021-03-28T10:38:33.000Z</time>
      </trkpt>
      <trkpt lat="49.15651" lon="1.6423">
        <ele>132.80000305176</ele>
        <time>2021-03-28T10:38:39.000Z</time>
      </trkpt>
      <trkpt lat="49.15665" lon="1.64259">
        <ele>132.80000305176</ele>
        <time>2021-03-28T10:38:46.000Z</time>
      </trkpt>
      <trkpt lat="49.15676" lon="1.64281">
        <ele>133.39999389648</ele>
        <time>2021-03-28T10:38:53.000Z</time>
      </trkpt>
      <trkpt lat="49.1568" lon="1.64288">
        <ele>133.39999389648</ele>
        <time>2021-03-28T10:38:55.000Z</time>
      </trkpt>
      <trkpt lat="49.15692" lon="1.64317">
        <ele>133.39999389648</ele>
        <time>2021-03-28T10:39:02.000Z</time>
      </trkpt>
      <trkpt lat="49.15707" lon="1.6435">
        <ele>133.19999694824</ele>
        <time>2021-03-28T10:39:10.000Z</time>
      </trkpt>
      <trkpt lat="49.15724" lon="1.64385">
        <ele>133</ele>
        <time>2021-03-28T10:39:18.000Z</time>
      </trkpt>
      <trkpt lat="49.15738" lon="1.64417">
        <ele>132.19999694824</ele>
        <time>2021-03-28T10:39:24.000Z</time>
      </trkpt>
      <trkpt lat="49.15743" lon="1.64428">
        <ele>131.80000305176</ele>
        <time>2021-03-28T10:39:26.000Z</time>
      </trkpt>
      <trkpt lat="49.1575" lon="1.64454">
        <ele>131.19999694824</ele>
        <time>2021-03-28T10:39:30.000Z</time>
      </trkpt>
      <trkpt lat="49.15754" lon="1.6447">
        <ele>130.80000305176</ele>
        <time>2021-03-28T10:39:33.000Z</time>
      </trkpt>
      <trkpt lat="49.15755" lon="1.64476">
        <ele>130.19999694824</ele>
        <time>2021-03-28T10:39:35.000Z</time>
      </trkpt>
      <trkpt lat="49.15755" lon="1.64476">
        <ele>129.60000610352</ele>
        <time>2021-03-28T10:39:37.000Z</time>
      </trkpt>
      <trkpt lat="49.15753" lon="1.64475">
        <ele>127.19999694824</ele>
        <time>2021-03-28T10:40:11.000Z</time>
      </trkpt>
      <trkpt lat="49.15752" lon="1.64471">
        <ele>127.19999694824</ele>
        <time>2021-03-28T10:40:15.000Z</time>
      </trkpt>
      <trkpt lat="49.15749" lon="1.64458">
        <ele>127.40000152588</ele>
        <time>2021-03-28T10:40:20.000Z</time>
      </trkpt>
      <trkpt lat="49.15749" lon="1.64455">
        <ele>127.40000152588</ele>
        <time>2021-03-28T10:40:21.000Z</time>
      </trkpt>
      <trkpt lat="49.15743" lon="1.64431">
        <ele>127.59999847412</ele>
        <time>2021-03-28T10:40:28.000Z</time>
      </trkpt>
      <trkpt lat="49.15736" lon="1.64412">
        <ele>128.39999389648</ele>
        <time>2021-03-28T10:40:34.000Z</time>
      </trkpt>
      <trkpt lat="49.15735" lon="1.64409">
        <ele>128.60000610352</ele>
        <time>2021-03-28T10:40:35.000Z</time>
      </trkpt>
      <trkpt lat="49.15727" lon="1.64392">
        <ele>129.39999389648</ele>
        <time>2021-03-28T10:40:41.000Z</time>
      </trkpt>
      <trkpt lat="49.15726" lon="1.6439">
        <ele>129.60000610352</ele>
        <time>2021-03-28T10:40:42.000Z</time>
      </trkpt>
      <trkpt lat="49.15723" lon="1.64383">
        <ele>130.60000610352</ele>
        <time>2021-03-28T10:40:45.000Z</time>
      </trkpt>
      <trkpt lat="49.15719" lon="1.64373">
        <ele>131</ele>
        <time>2021-03-28T10:40:49.000Z</time>
      </trkpt>
      <trkpt lat="49.15711" lon="1.6436">
        <ele>131.19999694824</ele>
        <time>2021-03-28T10:40:55.000Z</time>
      </trkpt>
      <trkpt lat="49.15707" lon="1.6435">
        <ele>131.60000610352</ele>
        <time>2021-03-28T10:40:59.000Z</time>
      </trkpt>
      <trkpt lat="49.15705" lon="1.64346">
        <ele>131.80000305176</ele>
        <time>2021-03-28T10:41:01.000Z</time>
      </trkpt>
      <trkpt lat="49.15696" lon="1.64326">
        <ele>132.60000610352</ele>
        <time>2021-03-28T10:41:09.000Z</time>
      </trkpt>
      <trkpt lat="49.1569" lon="1.64315">
        <ele>132.80000305176</ele>
        <time>2021-03-28T10:41:13.000Z</time>
      </trkpt>
      <trkpt lat="49.15685" lon="1.64306">
        <ele>132.80000305176</ele>
        <time>2021-03-28T10:41:16.000Z</time>
      </trkpt>
      <trkpt lat="49.15675" lon="1.6428">
        <ele>133</ele>
        <time>2021-03-28T10:41:22.000Z</time>
      </trkpt>
      <trkpt lat="49.15665" lon="1.64255">
        <ele>133.19999694824</ele>
        <time>2021-03-28T10:41:27.000Z</time>
      </trkpt>
      <trkpt lat="49.15651" lon="1.64226">
        <ele>132.80000305176</ele>
        <time>2021-03-28T10:41:34.000Z</time>
      </trkpt>
      <trkpt lat="49.15635" lon="1.64191">
        <ele>132.19999694824</ele>
        <time>2021-03-28T10:41:42.000Z</time>
      </trkpt>
      <trkpt lat="49.15629" lon="1.64181">
        <ele>132.19999694824</ele>
        <time>2021-03-28T10:41:45.000Z</time>
      </trkpt>
      <trkpt lat="49.15629" lon="1.64178">
        <ele>132.19999694824</ele>
        <time>2021-03-28T10:41:46.000Z</time>
      </trkpt>
      <trkpt lat="49.15628" lon="1.64171">
        <ele>132</ele>
        <time>2021-03-28T10:41:51.000Z</time>
      </trkpt>
      <trkpt lat="49.15627" lon="1.64171">
        <ele>132</ele>
        <time>2021-03-28T10:41:55.000Z</time>
      </trkpt>
      <trkpt lat="49.15624" lon="1.64166">
        <ele>132</ele>
        <time>2021-03-28T10:41:58.000Z</time>
      </trkpt>
      <trkpt lat="49.15623" lon="1.64163">
        <ele>131.60000610352</ele>
        <time>2021-03-28T10:41:59.000Z</time>
      </trkpt>
      <trkpt lat="49.15616" lon="1.64141">
        <ele>131.19999694824</ele>
        <time>2021-03-28T10:42:07.000Z</time>
      </trkpt>
      <trkpt lat="49.15608" lon="1.64114">
        <ele>130.80000305176</ele>
        <time>2021-03-28T10:42:14.000Z</time>
      </trkpt>
      <trkpt lat="49.15601" lon="1.64092">
        <ele>129.60000610352</ele>
        <time>2021-03-28T10:42:19.000Z</time>
      </trkpt>
      <trkpt lat="49.15599" lon="1.64082">
        <ele>128.80000305176</ele>
        <time>2021-03-28T10:42:21.000Z</time>
      </trkpt>
      <trkpt lat="49.15596" lon="1.64071">
        <ele>128.60000610352</ele>
        <time>2021-03-28T10:42:23.000Z</time>
      </trkpt>
      <trkpt lat="49.15588" lon="1.64037">
        <ele>128.19999694824</ele>
        <time>2021-03-28T10:42:29.000Z</time>
      </trkpt>
      <trkpt lat="49.15577" lon="1.63988">
        <ele>127.40000152588</ele>
        <time>2021-03-28T10:42:37.000Z</time>
      </trkpt>
      <trkpt lat="49.15571" lon="1.63955">
        <ele>126.40000152588</ele>
        <time>2021-03-28T10:42:42.000Z</time>
      </trkpt>
      <trkpt lat="49.15567" lon="1.63934">
        <ele>126</ele>
        <time>2021-03-28T10:42:45.000Z</time>
      </trkpt>
      <trkpt lat="49.1556" lon="1.63893">
        <ele>125.40000152588</ele>
        <time>2021-03-28T10:42:51.000Z</time>
      </trkpt>
      <trkpt lat="49.15557" lon="1.6388">
        <ele>125</ele>
        <time>2021-03-28T10:42:53.000Z</time>
      </trkpt>
      <trkpt lat="49.15554" lon="1.63867">
        <ele>124.19999694824</ele>
        <time>2021-03-28T10:42:55.000Z</time>
      </trkpt>
      <trkpt lat="49.15549" lon="1.6384">
        <ele>123.19999694824</ele>
        <time>2021-03-28T10:42:59.000Z</time>
      </trkpt>
      <trkpt lat="49.15543" lon="1.63805">
        <ele>122.80000305176</ele>
        <time>2021-03-28T10:43:04.000Z</time>
      </trkpt>
      <trkpt lat="49.15532" lon="1.63745">
        <ele>122.19999694824</ele>
        <time>2021-03-28T10:43:13.000Z</time>
      </trkpt>
      <trkpt lat="49.15527" lon="1.63719">
        <ele>121.40000152588</ele>
        <time>2021-03-28T10:43:17.000Z</time>
      </trkpt>
      <trkpt lat="49.15525" lon="1.63705">
        <ele>121</ele>
        <time>2021-03-28T10:43:19.000Z</time>
      </trkpt>
      <trkpt lat="49.15524" lon="1.63699">
        <ele>120.80000305176</ele>
        <time>2021-03-28T10:43:20.000Z</time>
      </trkpt>
      <trkpt lat="49.15522" lon="1.63686">
        <ele>120.80000305176</ele>
        <time>2021-03-28T10:43:22.000Z</time>
      </trkpt>
      <trkpt lat="49.15519" lon="1.63673">
        <ele>120.59999847412</ele>
        <time>2021-03-28T10:43:24.000Z</time>
      </trkpt>
      <trkpt lat="49.1551" lon="1.63628">
        <ele>120.40000152588</ele>
        <time>2021-03-28T10:43:31.000Z</time>
      </trkpt>
      <trkpt lat="49.15509" lon="1.63622">
        <ele>120.40000152588</ele>
        <time>2021-03-28T10:43:32.000Z</time>
      </trkpt>
      <trkpt lat="49.15505" lon="1.63593">
        <ele>120.19999694824</ele>
        <time>2021-03-28T10:43:36.000Z</time>
      </trkpt>
      <trkpt lat="49.15497" lon="1.63547">
        <ele>120</ele>
        <time>2021-03-28T10:43:43.000Z</time>
      </trkpt>
      <trkpt lat="49.15493" lon="1.63534">
        <ele>119.80000305176</ele>
        <time>2021-03-28T10:43:45.000Z</time>
      </trkpt>
      <trkpt lat="49.15484" lon="1.63503">
        <ele>119.40000152588</ele>
        <time>2021-03-28T10:43:50.000Z</time>
      </trkpt>
      <trkpt lat="49.15478" lon="1.63492">
        <ele>119.40000152588</ele>
        <time>2021-03-28T10:43:52.000Z</time>
      </trkpt>
      <trkpt lat="49.15469" lon="1.63478">
        <ele>119.19999694824</ele>
        <time>2021-03-28T10:43:55.000Z</time>
      </trkpt>
      <trkpt lat="49.15455" lon="1.63459">
        <ele>119.19999694824</ele>
        <time>2021-03-28T10:44:00.000Z</time>
      </trkpt>
      <trkpt lat="49.1544" lon="1.63438">
        <ele>119.19999694824</ele>
        <time>2021-03-28T10:44:06.000Z</time>
      </trkpt>
      <trkpt lat="49.15422" lon="1.63414">
        <ele>118.80000305176</ele>
        <time>2021-03-28T10:44:12.000Z</time>
      </trkpt>
      <trkpt lat="49.15409" lon="1.63398">
        <ele>118.59999847412</ele>
        <time>2021-03-28T10:44:16.000Z</time>
      </trkpt>
      <trkpt lat="49.15402" lon="1.6339">
        <ele>118.40000152588</ele>
        <time>2021-03-28T10:44:18.000Z</time>
      </trkpt>
      <trkpt lat="49.1538" lon="1.63363">
        <ele>118.59999847412</ele>
        <time>2021-03-28T10:44:25.000Z</time>
      </trkpt>
      <trkpt lat="49.15377" lon="1.63359">
        <ele>118.59999847412</ele>
        <time>2021-03-28T10:44:26.000Z</time>
      </trkpt>
      <trkpt lat="49.1535" lon="1.63327">
        <ele>119.19999694824</ele>
        <time>2021-03-28T10:44:34.000Z</time>
      </trkpt>
      <trkpt lat="49.15328" lon="1.63301">
        <ele>119.40000152588</ele>
        <time>2021-03-28T10:44:41.000Z</time>
      </trkpt>
      <trkpt lat="49.15304" lon="1.63274">
        <ele>119.59999847412</ele>
        <time>2021-03-28T10:44:49.000Z</time>
      </trkpt>
      <trkpt lat="49.1529" lon="1.63258">
        <ele>119.80000305176</ele>
        <time>2021-03-28T10:44:54.000Z</time>
      </trkpt>
      <trkpt lat="49.15282" lon="1.63248">
        <ele>120.19999694824</ele>
        <time>2021-03-28T10:44:57.000Z</time>
      </trkpt>
      <trkpt lat="49.15267" lon="1.6323">
        <ele>121</ele>
        <time>2021-03-28T10:45:02.000Z</time>
      </trkpt>
      <trkpt lat="49.15259" lon="1.63222">
        <ele>122</ele>
        <time>2021-03-28T10:45:05.000Z</time>
      </trkpt>
      <trkpt lat="49.15256" lon="1.63219">
        <ele>122.19999694824</ele>
        <time>2021-03-28T10:45:06.000Z</time>
      </trkpt>
      <trkpt lat="49.15239" lon="1.63202">
        <ele>122.80000305176</ele>
        <time>2021-03-28T10:45:12.000Z</time>
      </trkpt>
      <trkpt lat="49.15224" lon="1.63183">
        <ele>123.19999694824</ele>
        <time>2021-03-28T10:45:18.000Z</time>
      </trkpt>
      <trkpt lat="49.15219" lon="1.63177">
        <ele>124.19999694824</ele>
        <time>2021-03-28T10:45:20.000Z</time>
      </trkpt>
      <trkpt lat="49.15216" lon="1.63173">
        <ele>124.40000152588</ele>
        <time>2021-03-28T10:45:21.000Z</time>
      </trkpt>
      <trkpt lat="49.15204" lon="1.63157">
        <ele>125.40000152588</ele>
        <time>2021-03-28T10:45:26.000Z</time>
      </trkpt>
      <trkpt lat="49.15198" lon="1.63147">
        <ele>126</ele>
        <time>2021-03-28T10:45:29.000Z</time>
      </trkpt>
      <trkpt lat="49.1519" lon="1.63132">
        <ele>126.19999694824</ele>
        <time>2021-03-28T10:45:34.000Z</time>
      </trkpt>
      <trkpt lat="49.15178" lon="1.63117">
        <ele>126.19999694824</ele>
        <time>2021-03-28T10:45:40.000Z</time>
      </trkpt>
      <trkpt lat="49.15162" lon="1.63098">
        <ele>126.40000152588</ele>
        <time>2021-03-28T10:45:47.000Z</time>
      </trkpt>
      <trkpt lat="49.15136" lon="1.63064">
        <ele>126.40000152588</ele>
        <time>2021-03-28T10:45:59.000Z</time>
      </trkpt>
      <trkpt lat="49.15131" lon="1.63059">
        <ele>126.80000305176</ele>
        <time>2021-03-28T10:46:01.000Z</time>
      </trkpt>
      <trkpt lat="49.15122" lon="1.63047">
        <ele>127.80000305176</ele>
        <time>2021-03-28T10:46:05.000Z</time>
      </trkpt>
      <trkpt lat="49.15113" lon="1.63035">
        <ele>128.39999389648</ele>
        <time>2021-03-28T10:46:09.000Z</time>
      </trkpt>
      <trkpt lat="49.15102" lon="1.63021">
        <ele>128.80000305176</ele>
        <time>2021-03-28T10:46:14.000Z</time>
      </trkpt>
      <trkpt lat="49.15088" lon="1.63005">
        <ele>129.19999694824</ele>
        <time>2021-03-28T10:46:20.000Z</time>
      </trkpt>
      <trkpt lat="49.15067" lon="1.62979">
        <ele>130.39999389648</ele>
        <time>2021-03-28T10:46:29.000Z</time>
      </trkpt>
      <trkpt lat="49.15051" lon="1.62958">
        <ele>131.39999389648</ele>
        <time>2021-03-28T10:46:36.000Z</time>
      </trkpt>
      <trkpt lat="49.15049" lon="1.62955">
        <ele>131.39999389648</ele>
        <time>2021-03-28T10:46:37.000Z</time>
      </trkpt>
      <trkpt lat="49.15033" lon="1.62935">
        <ele>132.60000610352</ele>
        <time>2021-03-28T10:46:44.000Z</time>
      </trkpt>
      <trkpt lat="49.15026" lon="1.62927">
        <ele>133.39999389648</ele>
        <time>2021-03-28T10:46:47.000Z</time>
      </trkpt>
      <trkpt lat="49.15023" lon="1.62924">
        <ele>133.80000305176</ele>
        <time>2021-03-28T10:46:48.000Z</time>
      </trkpt>
      <trkpt lat="49.1501" lon="1.62906">
        <ele>134.80000305176</ele>
        <time>2021-03-28T10:46:54.000Z</time>
      </trkpt>
      <trkpt lat="49.14993" lon="1.62886">
        <ele>135.39999389648</ele>
        <time>2021-03-28T10:47:01.000Z</time>
      </trkpt>
      <trkpt lat="49.14979" lon="1.62868">
        <ele>136.19999694824</ele>
        <time>2021-03-28T10:47:07.000Z</time>
      </trkpt>
      <trkpt lat="49.14972" lon="1.62859">
        <ele>136.80000305176</ele>
        <time>2021-03-28T10:47:10.000Z</time>
      </trkpt>
      <trkpt lat="49.14951" lon="1.62833">
        <ele>137.19999694824</ele>
        <time>2021-03-28T10:47:19.000Z</time>
      </trkpt>
      <trkpt lat="49.14941" lon="1.62821">
        <ele>138.39999389648</ele>
        <time>2021-03-28T10:47:23.000Z</time>
      </trkpt>
      <trkpt lat="49.14936" lon="1.62815">
        <ele>138.60000610352</ele>
        <time>2021-03-28T10:47:25.000Z</time>
      </trkpt>
      <trkpt lat="49.14928" lon="1.62805">
        <ele>139.19999694824</ele>
        <time>2021-03-28T10:47:28.000Z</time>
      </trkpt>
      <trkpt lat="49.14925" lon="1.62802">
        <ele>139.60000610352</ele>
        <time>2021-03-28T10:47:29.000Z</time>
      </trkpt>
      <trkpt lat="49.14903" lon="1.62774">
        <ele>140.60000610352</ele>
        <time>2021-03-28T10:47:38.000Z</time>
      </trkpt>
      <trkpt lat="49.149" lon="1.62771">
        <ele>140.60000610352</ele>
        <time>2021-03-28T10:47:39.000Z</time>
      </trkpt>
      <trkpt lat="49.14879" lon="1.62746">
        <ele>141.60000610352</ele>
        <time>2021-03-28T10:47:47.000Z</time>
      </trkpt>
      <trkpt lat="49.14873" lon="1.62738">
        <ele>141.60000610352</ele>
        <time>2021-03-28T10:47:49.000Z</time>
      </trkpt>
      <trkpt lat="49.14864" lon="1.62726">
        <ele>141.80000305176</ele>
        <time>2021-03-28T10:47:52.000Z</time>
      </trkpt>
      <trkpt lat="49.14861" lon="1.62723">
        <ele>141.80000305176</ele>
        <time>2021-03-28T10:47:53.000Z</time>
      </trkpt>
      <trkpt lat="49.14836" lon="1.62693">
        <ele>142</ele>
        <time>2021-03-28T10:48:01.000Z</time>
      </trkpt>
      <trkpt lat="49.14809" lon="1.62661">
        <ele>142</ele>
        <time>2021-03-28T10:48:09.000Z</time>
      </trkpt>
      <trkpt lat="49.14798" lon="1.62645">
        <ele>142</ele>
        <time>2021-03-28T10:48:14.000Z</time>
      </trkpt>
      <trkpt lat="49.14798" lon="1.62644">
        <ele>142</ele>
        <time>2021-03-28T10:48:17.000Z</time>
      </trkpt>
      <trkpt lat="49.14797" lon="1.62644">
        <ele>144.39999389648</ele>
        <time>2021-03-28T10:52:19.000Z</time>
      </trkpt>
      <trkpt lat="49.14796" lon="1.6264">
        <ele>144.39999389648</ele>
        <time>2021-03-28T10:52:21.000Z</time>
      </trkpt>
      <trkpt lat="49.14799" lon="1.62632">
        <ele>144.39999389648</ele>
        <time>2021-03-28T10:52:23.000Z</time>
      </trkpt>
      <trkpt lat="49.14813" lon="1.62604">
        <ele>144.19999694824</ele>
        <time>2021-03-28T10:52:29.000Z</time>
      </trkpt>
      <trkpt lat="49.14826" lon="1.62574">
        <ele>144</ele>
        <time>2021-03-28T10:52:35.000Z</time>
      </trkpt>
      <trkpt lat="49.14841" lon="1.62548">
        <ele>143.19999694824</ele>
        <time>2021-03-28T10:52:41.000Z</time>
      </trkpt>
      <trkpt lat="49.14844" lon="1.62545">
        <ele>143.19999694824</ele>
        <time>2021-03-28T10:52:42.000Z</time>
      </trkpt>
      <trkpt lat="49.14855" lon="1.6253">
        <ele>143</ele>
        <time>2021-03-28T10:52:46.000Z</time>
      </trkpt>
      <trkpt lat="49.1487" lon="1.62504">
        <ele>142.60000610352</ele>
        <time>2021-03-28T10:52:52.000Z</time>
      </trkpt>
      <trkpt lat="49.14884" lon="1.62482">
        <ele>142.39999389648</ele>
        <time>2021-03-28T10:52:57.000Z</time>
      </trkpt>
      <trkpt lat="49.14896" lon="1.62472">
        <ele>142.19999694824</ele>
        <time>2021-03-28T10:53:00.000Z</time>
      </trkpt>
      <trkpt lat="49.14908" lon="1.62453">
        <ele>141.39999389648</ele>
        <time>2021-03-28T10:53:04.000Z</time>
      </trkpt>
      <trkpt lat="49.14912" lon="1.62449">
        <ele>141.39999389648</ele>
        <time>2021-03-28T10:53:05.000Z</time>
      </trkpt>
      <trkpt lat="49.14915" lon="1.62444">
        <ele>141.19999694824</ele>
        <time>2021-03-28T10:53:06.000Z</time>
      </trkpt>
      <trkpt lat="49.1494" lon="1.62407">
        <ele>140.39999389648</ele>
        <time>2021-03-28T10:53:13.000Z</time>
      </trkpt>
      <trkpt lat="49.14948" lon="1.62396">
        <ele>140</ele>
        <time>2021-03-28T10:53:15.000Z</time>
      </trkpt>
      <trkpt lat="49.14952" lon="1.6239">
        <ele>140</ele>
        <time>2021-03-28T10:53:16.000Z</time>
      </trkpt>
      <trkpt lat="49.14963" lon="1.62372">
        <ele>139.39999389648</ele>
        <time>2021-03-28T10:53:19.000Z</time>
      </trkpt>
      <trkpt lat="49.1497" lon="1.6236">
        <ele>138.80000305176</ele>
        <time>2021-03-28T10:53:21.000Z</time>
      </trkpt>
      <trkpt lat="49.14987" lon="1.62334">
        <ele>137.80000305176</ele>
        <time>2021-03-28T10:53:25.000Z</time>
      </trkpt>
      <trkpt lat="49.15009" lon="1.62295">
        <ele>136.80000305176</ele>
        <time>2021-03-28T10:53:30.000Z</time>
      </trkpt>
      <trkpt lat="49.15014" lon="1.62286">
        <ele>136.60000610352</ele>
        <time>2021-03-28T10:53:31.000Z</time>
      </trkpt>
      <trkpt lat="49.15026" lon="1.62261">
        <ele>135.60000610352</ele>
        <time>2021-03-28T10:53:34.000Z</time>
      </trkpt>
      <trkpt lat="49.1503" lon="1.62254">
        <ele>135.19999694824</ele>
        <time>2021-03-28T10:53:35.000Z</time>
      </trkpt>
      <trkpt lat="49.15035" lon="1.62245">
        <ele>134.60000610352</ele>
        <time>2021-03-28T10:53:36.000Z</time>
      </trkpt>
      <trkpt lat="49.15044" lon="1.62228">
        <ele>133.60000610352</ele>
        <time>2021-03-28T10:53:38.000Z</time>
      </trkpt>
      <trkpt lat="49.15049" lon="1.62219">
        <ele>132.80000305176</ele>
        <time>2021-03-28T10:53:39.000Z</time>
      </trkpt>
      <trkpt lat="49.15054" lon="1.6221">
        <ele>132.19999694824</ele>
        <time>2021-03-28T10:53:40.000Z</time>
      </trkpt>
      <trkpt lat="49.1507" lon="1.6218">
        <ele>130.80000305176</ele>
        <time>2021-03-28T10:53:43.000Z</time>
      </trkpt>
      <trkpt lat="49.15075" lon="1.62169">
        <ele>130.19999694824</ele>
        <time>2021-03-28T10:53:44.000Z</time>
      </trkpt>
      <trkpt lat="49.15081" lon="1.62158">
        <ele>129.39999389648</ele>
        <time>2021-03-28T10:53:45.000Z</time>
      </trkpt>
      <trkpt lat="49.15086" lon="1.62147">
        <ele>128.39999389648</ele>
        <time>2021-03-28T10:53:46.000Z</time>
      </trkpt>
      <trkpt lat="49.15098" lon="1.62123">
        <ele>126.59999847412</ele>
        <time>2021-03-28T10:53:48.000Z</time>
      </trkpt>
      <trkpt lat="49.15104" lon="1.62111">
        <ele>125.40000152588</ele>
        <time>2021-03-28T10:53:49.000Z</time>
      </trkpt>
      <trkpt lat="49.1511" lon="1.62099">
        <ele>124.59999847412</ele>
        <time>2021-03-28T10:53:50.000Z</time>
      </trkpt>
      <trkpt lat="49.15116" lon="1.62086">
        <ele>123.59999847412</ele>
        <time>2021-03-28T10:53:51.000Z</time>
      </trkpt>
      <trkpt lat="49.15137" lon="1.62046">
        <ele>122.59999847412</ele>
        <time>2021-03-28T10:53:54.000Z</time>
      </trkpt>
      <trkpt lat="49.15151" lon="1.62018">
        <ele>121.19999694824</ele>
        <time>2021-03-28T10:53:56.000Z</time>
      </trkpt>
      <trkpt lat="49.15172" lon="1.61974">
        <ele>120</ele>
        <time>2021-03-28T10:53:59.000Z</time>
      </trkpt>
      <trkpt lat="49.15187" lon="1.61945">
        <ele>118.80000305176</ele>
        <time>2021-03-28T10:54:01.000Z</time>
      </trkpt>
      <trkpt lat="49.15194" lon="1.6193">
        <ele>117.80000305176</ele>
        <time>2021-03-28T10:54:02.000Z</time>
      </trkpt>
      <trkpt lat="49.15202" lon="1.61916">
        <ele>116.40000152588</ele>
        <time>2021-03-28T10:54:03.000Z</time>
      </trkpt>
      <trkpt lat="49.15209" lon="1.61902">
        <ele>114.80000305176</ele>
        <time>2021-03-28T10:54:04.000Z</time>
      </trkpt>
      <trkpt lat="49.15216" lon="1.61888">
        <ele>114.19999694824</ele>
        <time>2021-03-28T10:54:05.000Z</time>
      </trkpt>
      <trkpt lat="49.15223" lon="1.61874">
        <ele>113</ele>
        <time>2021-03-28T10:54:06.000Z</time>
      </trkpt>
      <trkpt lat="49.15229" lon="1.6186">
        <ele>111.80000305176</ele>
        <time>2021-03-28T10:54:07.000Z</time>
      </trkpt>
      <trkpt lat="49.15235" lon="1.61847">
        <ele>110.59999847412</ele>
        <time>2021-03-28T10:54:08.000Z</time>
      </trkpt>
      <trkpt lat="49.15248" lon="1.6182">
        <ele>108.80000305176</ele>
        <time>2021-03-28T10:54:10.000Z</time>
      </trkpt>
      <trkpt lat="49.15254" lon="1.61807">
        <ele>108.19999694824</ele>
        <time>2021-03-28T10:54:11.000Z</time>
      </trkpt>
      <trkpt lat="49.1526" lon="1.61795">
        <ele>107.59999847412</ele>
        <time>2021-03-28T10:54:12.000Z</time>
      </trkpt>
      <trkpt lat="49.15277" lon="1.61759">
        <ele>106.59999847412</ele>
        <time>2021-03-28T10:54:15.000Z</time>
      </trkpt>
      <trkpt lat="49.15287" lon="1.61736">
        <ele>106</ele>
        <time>2021-03-28T10:54:17.000Z</time>
      </trkpt>
      <trkpt lat="49.15303" lon="1.61705">
        <ele>105.40000152588</ele>
        <time>2021-03-28T10:54:20.000Z</time>
      </trkpt>
      <trkpt lat="49.15312" lon="1.61685">
        <ele>105.19999694824</ele>
        <time>2021-03-28T10:54:22.000Z</time>
      </trkpt>
      <trkpt lat="49.15345" lon="1.61617">
        <ele>104.59999847412</ele>
        <time>2021-03-28T10:54:29.000Z</time>
      </trkpt>
      <trkpt lat="49.15357" lon="1.61589">
        <ele>104.40000152588</ele>
        <time>2021-03-28T10:54:32.000Z</time>
      </trkpt>
      <trkpt lat="49.15389" lon="1.61516">
        <ele>103.40000152588</ele>
        <time>2021-03-28T10:54:40.000Z</time>
      </trkpt>
      <trkpt lat="49.15414" lon="1.61439">
        <ele>102.40000152588</ele>
        <time>2021-03-28T10:54:48.000Z</time>
      </trkpt>
      <trkpt lat="49.15422" lon="1.61419">
        <ele>102.19999694824</ele>
        <time>2021-03-28T10:54:50.000Z</time>
      </trkpt>
      <trkpt lat="49.1543" lon="1.61399">
        <ele>101.80000305176</ele>
        <time>2021-03-28T10:54:52.000Z</time>
      </trkpt>
      <trkpt lat="49.15435" lon="1.61389">
        <ele>101.40000152588</ele>
        <time>2021-03-28T10:54:53.000Z</time>
      </trkpt>
      <trkpt lat="49.15441" lon="1.61379">
        <ele>100.80000305176</ele>
        <time>2021-03-28T10:54:54.000Z</time>
      </trkpt>
      <trkpt lat="49.15453" lon="1.61359">
        <ele>99.800003051758</ele>
        <time>2021-03-28T10:54:56.000Z</time>
      </trkpt>
      <trkpt lat="49.1546" lon="1.6135">
        <ele>99.599998474121</ele>
        <time>2021-03-28T10:54:57.000Z</time>
      </trkpt>
      <trkpt lat="49.15468" lon="1.61341">
        <ele>99.400001525879</ele>
        <time>2021-03-28T10:54:58.000Z</time>
      </trkpt>
      <trkpt lat="49.155" lon="1.61302">
        <ele>98.599998474121</ele>
        <time>2021-03-28T10:55:02.000Z</time>
      </trkpt>
      <trkpt lat="49.15526" lon="1.61273">
        <ele>97.599998474121</ele>
        <time>2021-03-28T10:55:05.000Z</time>
      </trkpt>
      <trkpt lat="49.15535" lon="1.61263">
        <ele>97</ele>
        <time>2021-03-28T10:55:06.000Z</time>
      </trkpt>
      <trkpt lat="49.15553" lon="1.61242">
        <ele>95.599998474121</ele>
        <time>2021-03-28T10:55:08.000Z</time>
      </trkpt>
      <trkpt lat="49.15572" lon="1.6122">
        <ele>94.599998474121</ele>
        <time>2021-03-28T10:55:10.000Z</time>
      </trkpt>
      <trkpt lat="49.15589" lon="1.61196">
        <ele>93</ele>
        <time>2021-03-28T10:55:12.000Z</time>
      </trkpt>
      <trkpt lat="49.15597" lon="1.61182">
        <ele>91.800003051758</ele>
        <time>2021-03-28T10:55:13.000Z</time>
      </trkpt>
      <trkpt lat="49.15611" lon="1.61154">
        <ele>90.199996948242</ele>
        <time>2021-03-28T10:55:15.000Z</time>
      </trkpt>
      <trkpt lat="49.15617" lon="1.61141">
        <ele>89.800003051758</ele>
        <time>2021-03-28T10:55:16.000Z</time>
      </trkpt>
      <trkpt lat="49.15625" lon="1.61116">
        <ele>89</ele>
        <time>2021-03-28T10:55:18.000Z</time>
      </trkpt>
      <trkpt lat="49.15631" lon="1.61093">
        <ele>88</ele>
        <time>2021-03-28T10:55:20.000Z</time>
      </trkpt>
      <trkpt lat="49.15637" lon="1.61074">
        <ele>87</ele>
        <time>2021-03-28T10:55:22.000Z</time>
      </trkpt>
      <trkpt lat="49.15641" lon="1.61057">
        <ele>86.599998474121</ele>
        <time>2021-03-28T10:55:24.000Z</time>
      </trkpt>
      <trkpt lat="49.15652" lon="1.61017">
        <ele>86.400001525879</ele>
        <time>2021-03-28T10:55:30.000Z</time>
      </trkpt>
      <trkpt lat="49.15659" lon="1.60995">
        <ele>88</ele>
        <time>2021-03-28T10:55:34.000Z</time>
      </trkpt>
      <trkpt lat="49.15661" lon="1.60991">
        <ele>88.199996948242</ele>
        <time>2021-03-28T10:55:35.000Z</time>
      </trkpt>
      <trkpt lat="49.15666" lon="1.60975">
        <ele>89</ele>
        <time>2021-03-28T10:55:38.000Z</time>
      </trkpt>
      <trkpt lat="49.15669" lon="1.60965">
        <ele>90.199996948242</ele>
        <time>2021-03-28T10:55:40.000Z</time>
      </trkpt>
      <trkpt lat="49.1567" lon="1.6096">
        <ele>90.800003051758</ele>
        <time>2021-03-28T10:55:41.000Z</time>
      </trkpt>
      <trkpt lat="49.15673" lon="1.6095">
        <ele>91.400001525879</ele>
        <time>2021-03-28T10:55:43.000Z</time>
      </trkpt>
      <trkpt lat="49.15679" lon="1.60932">
        <ele>92.599998474121</ele>
        <time>2021-03-28T10:55:47.000Z</time>
      </trkpt>
      <trkpt lat="49.1568" lon="1.60928">
        <ele>92.800003051758</ele>
        <time>2021-03-28T10:55:48.000Z</time>
      </trkpt>
      <trkpt lat="49.15688" lon="1.60906">
        <ele>93.599998474121</ele>
        <time>2021-03-28T10:55:53.000Z</time>
      </trkpt>
      <trkpt lat="49.15696" lon="1.60884">
        <ele>94.400001525879</ele>
        <time>2021-03-28T10:55:58.000Z</time>
      </trkpt>
      <trkpt lat="49.157" lon="1.60876">
        <ele>95</ele>
        <time>2021-03-28T10:56:00.000Z</time>
      </trkpt>
      <trkpt lat="49.15709" lon="1.60849">
        <ele>96</ele>
        <time>2021-03-28T10:56:06.000Z</time>
      </trkpt>
      <trkpt lat="49.15713" lon="1.6084">
        <ele>96.400001525879</ele>
        <time>2021-03-28T10:56:08.000Z</time>
      </trkpt>
      <trkpt lat="49.15718" lon="1.60828">
        <ele>97.199996948242</ele>
        <time>2021-03-28T10:56:11.000Z</time>
      </trkpt>
      <trkpt lat="49.15724" lon="1.60815">
        <ele>97.599998474121</ele>
        <time>2021-03-28T10:56:14.000Z</time>
      </trkpt>
      <trkpt lat="49.15738" lon="1.6078">
        <ele>98</ele>
        <time>2021-03-28T10:56:21.000Z</time>
      </trkpt>
      <trkpt lat="49.15745" lon="1.60766">
        <ele>98.199996948242</ele>
        <time>2021-03-28T10:56:24.000Z</time>
      </trkpt>
      <trkpt lat="49.15749" lon="1.60757">
        <ele>98.400001525879</ele>
        <time>2021-03-28T10:56:26.000Z</time>
      </trkpt>
      <trkpt lat="49.15766" lon="1.60721">
        <ele>98.599998474121</ele>
        <time>2021-03-28T10:56:34.000Z</time>
      </trkpt>
      <trkpt lat="49.15779" lon="1.60701">
        <ele>99.199996948242</ele>
        <time>2021-03-28T10:56:39.000Z</time>
      </trkpt>
      <trkpt lat="49.15785" lon="1.60693">
        <ele>99.400001525879</ele>
        <time>2021-03-28T10:56:41.000Z</time>
      </trkpt>
      <trkpt lat="49.15805" lon="1.60666">
        <ele>99.599998474121</ele>
        <time>2021-03-28T10:56:47.000Z</time>
      </trkpt>
      <trkpt lat="49.15808" lon="1.60662">
        <ele>99.599998474121</ele>
        <time>2021-03-28T10:56:48.000Z</time>
      </trkpt>
      <trkpt lat="49.15825" lon="1.60636">
        <ele>99.599998474121</ele>
        <time>2021-03-28T10:56:54.000Z</time>
      </trkpt>
      <trkpt lat="49.15839" lon="1.606">
        <ele>99.599998474121</ele>
        <time>2021-03-28T10:57:01.000Z</time>
      </trkpt>
      <trkpt lat="49.15846" lon="1.60563">
        <ele>99.599998474121</ele>
        <time>2021-03-28T10:57:08.000Z</time>
      </trkpt>
      <trkpt lat="49.15847" lon="1.60546">
        <ele>100.59999847412</ele>
        <time>2021-03-28T10:57:11.000Z</time>
      </trkpt>
      <trkpt lat="49.15848" lon="1.60529">
        <ele>100.80000305176</ele>
        <time>2021-03-28T10:57:14.000Z</time>
      </trkpt>
      <trkpt lat="49.15854" lon="1.60501">
        <ele>101.19999694824</ele>
        <time>2021-03-28T10:57:19.000Z</time>
      </trkpt>
      <trkpt lat="49.15856" lon="1.60496">
        <ele>101.19999694824</ele>
        <time>2021-03-28T10:57:20.000Z</time>
      </trkpt>
      <trkpt lat="49.15865" lon="1.60483">
        <ele>101.19999694824</ele>
        <time>2021-03-28T10:57:23.000Z</time>
      </trkpt>
      <trkpt lat="49.15875" lon="1.60472">
        <ele>101.40000152588</ele>
        <time>2021-03-28T10:57:26.000Z</time>
      </trkpt>
      <trkpt lat="49.15897" lon="1.60445">
        <ele>101.59999847412</ele>
        <time>2021-03-28T10:57:33.000Z</time>
      </trkpt>
      <trkpt lat="49.159" lon="1.60442">
        <ele>101.80000305176</ele>
        <time>2021-03-28T10:57:34.000Z</time>
      </trkpt>
      <trkpt lat="49.15918" lon="1.60421">
        <ele>102.40000152588</ele>
        <time>2021-03-28T10:57:40.000Z</time>
      </trkpt>
      <trkpt lat="49.15927" lon="1.60407">
        <ele>102.80000305176</ele>
        <time>2021-03-28T10:57:44.000Z</time>
      </trkpt>
      <trkpt lat="49.15932" lon="1.60398">
        <ele>102.80000305176</ele>
        <time>2021-03-28T10:57:46.000Z</time>
      </trkpt>
      <trkpt lat="49.15946" lon="1.60374">
        <ele>103.19999694824</ele>
        <time>2021-03-28T10:57:52.000Z</time>
      </trkpt>
      <trkpt lat="49.1596" lon="1.60348">
        <ele>103.59999847412</ele>
        <time>2021-03-28T10:57:58.000Z</time>
      </trkpt>
      <trkpt lat="49.15978" lon="1.6032">
        <ele>103.80000305176</ele>
        <time>2021-03-28T10:58:05.000Z</time>
      </trkpt>
      <trkpt lat="49.15992" lon="1.60299">
        <ele>104.19999694824</ele>
        <time>2021-03-28T10:58:11.000Z</time>
      </trkpt>
      <trkpt lat="49.15997" lon="1.60305">
        <ele>104.59999847412</ele>
        <time>2021-03-28T10:58:15.000Z</time>
      </trkpt>
      <trkpt lat="49.15998" lon="1.60306">
        <ele>104.80000305176</ele>
        <time>2021-03-28T10:58:16.000Z</time>
      </trkpt>
      <trkpt lat="49.15999" lon="1.60307">
        <ele>105.40000152588</ele>
        <time>2021-03-28T10:58:19.000Z</time>
      </trkpt>
      <trkpt lat="49.15996" lon="1.60307">
        <ele>105.80000305176</ele>
        <time>2021-03-28T10:59:12.000Z</time>
      </trkpt>
      <trkpt lat="49.15994" lon="1.60302">
        <ele>105.80000305176</ele>
        <time>2021-03-28T10:59:18.000Z</time>
      </trkpt>
      <trkpt lat="49.15992" lon="1.60297">
        <ele>105.80000305176</ele>
        <time>2021-03-28T10:59:23.000Z</time>
      </trkpt>
      <trkpt lat="49.15991" lon="1.60294">
        <ele>105.40000152588</ele>
        <time>2021-03-28T10:59:37.000Z</time>
      </trkpt>
      <trkpt lat="49.15985" lon="1.60282">
        <ele>105.40000152588</ele>
        <time>2021-03-28T10:59:42.000Z</time>
      </trkpt>
      <trkpt lat="49.15974" lon="1.60257">
        <ele>105.19999694824</ele>
        <time>2021-03-28T10:59:48.000Z</time>
      </trkpt>
      <trkpt lat="49.15959" lon="1.60225">
        <ele>105</ele>
        <time>2021-03-28T10:59:56.000Z</time>
      </trkpt>
      <trkpt lat="49.15942" lon="1.60205">
        <ele>105.80000305176</ele>
        <time>2021-03-28T11:00:02.000Z</time>
      </trkpt>
      <trkpt lat="49.15919" lon="1.60175">
        <ele>106.59999847412</ele>
        <time>2021-03-28T11:00:10.000Z</time>
      </trkpt>
      <trkpt lat="49.15906" lon="1.60153">
        <ele>106.80000305176</ele>
        <time>2021-03-28T11:00:15.000Z</time>
      </trkpt>
      <trkpt lat="49.15904" lon="1.60148">
        <ele>107</ele>
        <time>2021-03-28T11:00:16.000Z</time>
      </trkpt>
      <trkpt lat="49.15896" lon="1.60121">
        <ele>107</ele>
        <time>2021-03-28T11:00:22.000Z</time>
      </trkpt>
      <trkpt lat="49.15885" lon="1.60079">
        <ele>107</ele>
        <time>2021-03-28T11:00:30.000Z</time>
      </trkpt>
      <trkpt lat="49.1587" lon="1.60031">
        <ele>107.19999694824</ele>
        <time>2021-03-28T11:00:39.000Z</time>
      </trkpt>
      <trkpt lat="49.15855" lon="1.59997">
        <ele>107.80000305176</ele>
        <time>2021-03-28T11:00:46.000Z</time>
      </trkpt>
      <trkpt lat="49.15852" lon="1.59992">
        <ele>108</ele>
        <time>2021-03-28T11:00:47.000Z</time>
      </trkpt>
      <trkpt lat="49.15843" lon="1.59968">
        <ele>108</ele>
        <time>2021-03-28T11:00:52.000Z</time>
      </trkpt>
      <trkpt lat="49.15838" lon="1.5994">
        <ele>108.19999694824</ele>
        <time>2021-03-28T11:00:58.000Z</time>
      </trkpt>
      <trkpt lat="49.15846" lon="1.59919">
        <ele>108.40000152588</ele>
        <time>2021-03-28T11:01:03.000Z</time>
      </trkpt>
      <trkpt lat="49.15854" lon="1.59903">
        <ele>109</ele>
        <time>2021-03-28T11:01:07.000Z</time>
      </trkpt>
      <trkpt lat="49.15861" lon="1.59888">
        <ele>109.19999694824</ele>
        <time>2021-03-28T11:01:11.000Z</time>
      </trkpt>
      <trkpt lat="49.15866" lon="1.5987">
        <ele>110.19999694824</ele>
        <time>2021-03-28T11:01:15.000Z</time>
      </trkpt>
      <trkpt lat="49.15867" lon="1.5986">
        <ele>110.59999847412</ele>
        <time>2021-03-28T11:01:17.000Z</time>
      </trkpt>
      <trkpt lat="49.15873" lon="1.59828">
        <ele>111</ele>
        <time>2021-03-28T11:01:24.000Z</time>
      </trkpt>
      <trkpt lat="49.15874" lon="1.59819">
        <ele>111.19999694824</ele>
        <time>2021-03-28T11:01:26.000Z</time>
      </trkpt>
      <trkpt lat="49.15877" lon="1.59794">
        <ele>111.40000152588</ele>
        <time>2021-03-28T11:01:31.000Z</time>
      </trkpt>
      <trkpt lat="49.15882" lon="1.59752">
        <ele>111.80000305176</ele>
        <time>2021-03-28T11:01:39.000Z</time>
      </trkpt>
      <trkpt lat="49.15885" lon="1.59718">
        <ele>111.80000305176</ele>
        <time>2021-03-28T11:01:46.000Z</time>
      </trkpt>
      <trkpt lat="49.15889" lon="1.59684">
        <ele>112</ele>
        <time>2021-03-28T11:01:53.000Z</time>
      </trkpt>
      <trkpt lat="49.1589" lon="1.59664">
        <ele>112.19999694824</ele>
        <time>2021-03-28T11:01:57.000Z</time>
      </trkpt>
      <trkpt lat="49.15891" lon="1.59649">
        <ele>112.59999847412</ele>
        <time>2021-03-28T11:02:00.000Z</time>
      </trkpt>
      <trkpt lat="49.15894" lon="1.59618">
        <ele>113.19999694824</ele>
        <time>2021-03-28T11:02:06.000Z</time>
      </trkpt>
      <trkpt lat="49.15896" lon="1.59603">
        <ele>113.59999847412</ele>
        <time>2021-03-28T11:02:09.000Z</time>
      </trkpt>
      <trkpt lat="49.15897" lon="1.59582">
        <ele>114.40000152588</ele>
        <time>2021-03-28T11:02:13.000Z</time>
      </trkpt>
      <trkpt lat="49.15899" lon="1.59556">
        <ele>114.80000305176</ele>
        <time>2021-03-28T11:02:18.000Z</time>
      </trkpt>
      <trkpt lat="49.15901" lon="1.59508">
        <ele>115.40000152588</ele>
        <time>2021-03-28T11:02:27.000Z</time>
      </trkpt>
      <trkpt lat="49.15902" lon="1.5948">
        <ele>115.40000152588</ele>
        <time>2021-03-28T11:02:32.000Z</time>
      </trkpt>
      <trkpt lat="49.15904" lon="1.59457">
        <ele>115.59999847412</ele>
        <time>2021-03-28T11:02:36.000Z</time>
      </trkpt>
      <trkpt lat="49.15908" lon="1.59422">
        <ele>115.80000305176</ele>
        <time>2021-03-28T11:02:42.000Z</time>
      </trkpt>
      <trkpt lat="49.15909" lon="1.59409">
        <ele>115.80000305176</ele>
        <time>2021-03-28T11:02:44.000Z</time>
      </trkpt>
      <trkpt lat="49.15912" lon="1.59359">
        <ele>115.19999694824</ele>
        <time>2021-03-28T11:02:51.000Z</time>
      </trkpt>
      <trkpt lat="49.15912" lon="1.59322">
        <ele>114.59999847412</ele>
        <time>2021-03-28T11:02:56.000Z</time>
      </trkpt>
      <trkpt lat="49.15913" lon="1.59315">
        <ele>114.40000152588</ele>
        <time>2021-03-28T11:02:57.000Z</time>
      </trkpt>
      <trkpt lat="49.1592" lon="1.59258">
        <ele>113.19999694824</ele>
        <time>2021-03-28T11:03:05.000Z</time>
      </trkpt>
      <trkpt lat="49.15921" lon="1.59252">
        <ele>113.19999694824</ele>
        <time>2021-03-28T11:03:06.000Z</time>
      </trkpt>
      <trkpt lat="49.15923" lon="1.59238">
        <ele>112.80000305176</ele>
        <time>2021-03-28T11:03:08.000Z</time>
      </trkpt>
      <trkpt lat="49.15925" lon="1.59216">
        <ele>112.19999694824</ele>
        <time>2021-03-28T11:03:11.000Z</time>
      </trkpt>
      <trkpt lat="49.15925" lon="1.59209">
        <ele>111.80000305176</ele>
        <time>2021-03-28T11:03:12.000Z</time>
      </trkpt>
      <trkpt lat="49.15926" lon="1.59189">
        <ele>111.19999694824</ele>
        <time>2021-03-28T11:03:15.000Z</time>
      </trkpt>
      <trkpt lat="49.15926" lon="1.5917">
        <ele>110.80000305176</ele>
        <time>2021-03-28T11:03:19.000Z</time>
      </trkpt>
      <trkpt lat="49.15927" lon="1.5917">
        <ele>110.40000152588</ele>
        <time>2021-03-28T11:03:22.000Z</time>
      </trkpt>
      <trkpt lat="49.15927" lon="1.5917">
        <ele>110.40000152588</ele>
        <time>2021-03-28T11:03:23.000Z</time>
      </trkpt>
      <trkpt lat="49.15927" lon="1.59165">
        <ele>111.59999847412</ele>
        <time>2021-03-28T11:04:52.000Z</time>
      </trkpt>
      <trkpt lat="49.15927" lon="1.59156">
        <ele>111.59999847412</ele>
        <time>2021-03-28T11:04:54.000Z</time>
      </trkpt>
      <trkpt lat="49.15928" lon="1.59125">
        <ele>111.40000152588</ele>
        <time>2021-03-28T11:04:58.000Z</time>
      </trkpt>
      <trkpt lat="49.15925" lon="1.59082">
        <ele>110.80000305176</ele>
        <time>2021-03-28T11:05:02.000Z</time>
      </trkpt>
      <trkpt lat="49.15924" lon="1.5907">
        <ele>110.19999694824</ele>
        <time>2021-03-28T11:05:03.000Z</time>
      </trkpt>
      <trkpt lat="49.15921" lon="1.59058">
        <ele>108.80000305176</ele>
        <time>2021-03-28T11:05:04.000Z</time>
      </trkpt>
      <trkpt lat="49.15913" lon="1.59034">
        <ele>107</ele>
        <time>2021-03-28T11:05:06.000Z</time>
      </trkpt>
      <trkpt lat="49.15908" lon="1.59023">
        <ele>106</ele>
        <time>2021-03-28T11:05:07.000Z</time>
      </trkpt>
      <trkpt lat="49.15896" lon="1.59002">
        <ele>103.80000305176</ele>
        <time>2021-03-28T11:05:09.000Z</time>
      </trkpt>
      <trkpt lat="49.1589" lon="1.58991">
        <ele>102.40000152588</ele>
        <time>2021-03-28T11:05:10.000Z</time>
      </trkpt>
      <trkpt lat="49.15883" lon="1.58981">
        <ele>101.19999694824</ele>
        <time>2021-03-28T11:05:11.000Z</time>
      </trkpt>
      <trkpt lat="49.15876" lon="1.58971">
        <ele>100.19999694824</ele>
        <time>2021-03-28T11:05:12.000Z</time>
      </trkpt>
      <trkpt lat="49.1587" lon="1.58959">
        <ele>99</ele>
        <time>2021-03-28T11:05:13.000Z</time>
      </trkpt>
      <trkpt lat="49.15859" lon="1.58935">
        <ele>97.599998474121</ele>
        <time>2021-03-28T11:05:15.000Z</time>
      </trkpt>
      <trkpt lat="49.15852" lon="1.58909">
        <ele>96</ele>
        <time>2021-03-28T11:05:17.000Z</time>
      </trkpt>
      <trkpt lat="49.15849" lon="1.58895">
        <ele>95</ele>
        <time>2021-03-28T11:05:18.000Z</time>
      </trkpt>
      <trkpt lat="49.15846" lon="1.58882">
        <ele>93.400001525879</ele>
        <time>2021-03-28T11:05:19.000Z</time>
      </trkpt>
      <trkpt lat="49.15842" lon="1.58869">
        <ele>92.400001525879</ele>
        <time>2021-03-28T11:05:20.000Z</time>
      </trkpt>
      <trkpt lat="49.15839" lon="1.58856">
        <ele>91.199996948242</ele>
        <time>2021-03-28T11:05:21.000Z</time>
      </trkpt>
      <trkpt lat="49.15836" lon="1.58843">
        <ele>89.599998474121</ele>
        <time>2021-03-28T11:05:22.000Z</time>
      </trkpt>
      <trkpt lat="49.15834" lon="1.5883">
        <ele>88.199996948242</ele>
        <time>2021-03-28T11:05:23.000Z</time>
      </trkpt>
      <trkpt lat="49.15833" lon="1.58817">
        <ele>87.199996948242</ele>
        <time>2021-03-28T11:05:24.000Z</time>
      </trkpt>
      <trkpt lat="49.15832" lon="1.58805">
        <ele>86</ele>
        <time>2021-03-28T11:05:25.000Z</time>
      </trkpt>
      <trkpt lat="49.15832" lon="1.58792">
        <ele>85</ele>
        <time>2021-03-28T11:05:26.000Z</time>
      </trkpt>
      <trkpt lat="49.15831" lon="1.58779">
        <ele>83.800003051758</ele>
        <time>2021-03-28T11:05:27.000Z</time>
      </trkpt>
      <trkpt lat="49.15832" lon="1.58767">
        <ele>82.800003051758</ele>
        <time>2021-03-28T11:05:28.000Z</time>
      </trkpt>
      <trkpt lat="49.15833" lon="1.58754">
        <ele>81.400001525879</ele>
        <time>2021-03-28T11:05:29.000Z</time>
      </trkpt>
      <trkpt lat="49.15835" lon="1.58742">
        <ele>80.199996948242</ele>
        <time>2021-03-28T11:05:30.000Z</time>
      </trkpt>
      <trkpt lat="49.15838" lon="1.58731">
        <ele>78.599998474121</ele>
        <time>2021-03-28T11:05:31.000Z</time>
      </trkpt>
      <trkpt lat="49.15841" lon="1.5872">
        <ele>76.400001525879</ele>
        <time>2021-03-28T11:05:32.000Z</time>
      </trkpt>
      <trkpt lat="49.15847" lon="1.58699">
        <ele>75.199996948242</ele>
        <time>2021-03-28T11:05:34.000Z</time>
      </trkpt>
      <trkpt lat="49.15851" lon="1.58691">
        <ele>75</ele>
        <time>2021-03-28T11:05:35.000Z</time>
      </trkpt>
      <trkpt lat="49.15861" lon="1.58686">
        <ele>73.800003051758</ele>
        <time>2021-03-28T11:05:37.000Z</time>
      </trkpt>
      <trkpt lat="49.15872" lon="1.58691">
        <ele>72.199996948242</ele>
        <time>2021-03-28T11:05:39.000Z</time>
      </trkpt>
      <trkpt lat="49.15884" lon="1.58697">
        <ele>71.800003051758</ele>
        <time>2021-03-28T11:05:41.000Z</time>
      </trkpt>
      <trkpt lat="49.1592" lon="1.58708">
        <ele>71.599998474121</ele>
        <time>2021-03-28T11:05:47.000Z</time>
      </trkpt>
      <trkpt lat="49.15926" lon="1.58709">
        <ele>71.599998474121</ele>
        <time>2021-03-28T11:05:48.000Z</time>
      </trkpt>
      <trkpt lat="49.15964" lon="1.58714">
        <ele>73</ele>
        <time>2021-03-28T11:05:54.000Z</time>
      </trkpt>
      <trkpt lat="49.1597" lon="1.58715">
        <ele>73.199996948242</ele>
        <time>2021-03-28T11:05:55.000Z</time>
      </trkpt>
      <trkpt lat="49.16012" lon="1.58719">
        <ele>73.400001525879</ele>
        <time>2021-03-28T11:06:02.000Z</time>
      </trkpt>
      <trkpt lat="49.16036" lon="1.58721">
        <ele>73.400001525879</ele>
        <time>2021-03-28T11:06:07.000Z</time>
      </trkpt>
      <trkpt lat="49.16063" lon="1.5872">
        <ele>73.599998474121</ele>
        <time>2021-03-28T11:06:13.000Z</time>
      </trkpt>
      <trkpt lat="49.16106" lon="1.58711">
        <ele>73.800003051758</ele>
        <time>2021-03-28T11:06:22.000Z</time>
      </trkpt>
      <trkpt lat="49.16111" lon="1.58709">
        <ele>73.800003051758</ele>
        <time>2021-03-28T11:06:23.000Z</time>
      </trkpt>
      <trkpt lat="49.16125" lon="1.58704">
        <ele>73.800003051758</ele>
        <time>2021-03-28T11:06:26.000Z</time>
      </trkpt>
      <trkpt lat="49.16152" lon="1.58692">
        <ele>74</ele>
        <time>2021-03-28T11:06:33.000Z</time>
      </trkpt>
      <trkpt lat="49.16157" lon="1.5869">
        <ele>74</ele>
        <time>2021-03-28T11:06:35.000Z</time>
      </trkpt>
      <trkpt lat="49.1617" lon="1.58684">
        <ele>74.599998474121</ele>
        <time>2021-03-28T11:06:39.000Z</time>
      </trkpt>
      <trkpt lat="49.16184" lon="1.58678">
        <ele>74.800003051758</ele>
        <time>2021-03-28T11:06:43.000Z</time>
      </trkpt>
      <trkpt lat="49.162" lon="1.58666">
        <ele>75.199996948242</ele>
        <time>2021-03-28T11:06:48.000Z</time>
      </trkpt>
      <trkpt lat="49.16211" lon="1.58647">
        <ele>75.199996948242</ele>
        <time>2021-03-28T11:06:53.000Z</time>
      </trkpt>
      <trkpt lat="49.16228" lon="1.58616">
        <ele>75.599998474121</ele>
        <time>2021-03-28T11:07:01.000Z</time>
      </trkpt>
      <trkpt lat="49.16245" lon="1.58585">
        <ele>76</ele>
        <time>2021-03-28T11:07:09.000Z</time>
      </trkpt>
      <trkpt lat="49.16261" lon="1.58554">
        <ele>76.199996948242</ele>
        <time>2021-03-28T11:07:17.000Z</time>
      </trkpt>
      <trkpt lat="49.16267" lon="1.58542">
        <ele>76.800003051758</ele>
        <time>2021-03-28T11:07:20.000Z</time>
      </trkpt>
      <trkpt lat="49.1627" lon="1.58534">
        <ele>77</ele>
        <time>2021-03-28T11:07:22.000Z</time>
      </trkpt>
      <trkpt lat="49.16278" lon="1.58517">
        <ele>77.400001525879</ele>
        <time>2021-03-28T11:07:26.000Z</time>
      </trkpt>
      <trkpt lat="49.16291" lon="1.58484">
        <ele>78.199996948242</ele>
        <time>2021-03-28T11:07:34.000Z</time>
      </trkpt>
      <trkpt lat="49.16292" lon="1.5848">
        <ele>78.199996948242</ele>
        <time>2021-03-28T11:07:35.000Z</time>
      </trkpt>
      <trkpt lat="49.163" lon="1.5846">
        <ele>79.199996948242</ele>
        <time>2021-03-28T11:07:40.000Z</time>
      </trkpt>
      <trkpt lat="49.16307" lon="1.58442">
        <ele>79.599998474121</ele>
        <time>2021-03-28T11:07:45.000Z</time>
      </trkpt>
      <trkpt lat="49.16312" lon="1.58428">
        <ele>80.400001525879</ele>
        <time>2021-03-28T11:07:49.000Z</time>
      </trkpt>
      <trkpt lat="49.16318" lon="1.5841">
        <ele>81.400001525879</ele>
        <time>2021-03-28T11:07:54.000Z</time>
      </trkpt>
      <trkpt lat="49.1632" lon="1.58406">
        <ele>82</ele>
        <time>2021-03-28T11:07:55.000Z</time>
      </trkpt>
      <trkpt lat="49.16327" lon="1.58387">
        <ele>83.199996948242</ele>
        <time>2021-03-28T11:08:00.000Z</time>
      </trkpt>
      <trkpt lat="49.16329" lon="1.5838">
        <ele>83.599998474121</ele>
        <time>2021-03-28T11:08:02.000Z</time>
      </trkpt>
      <trkpt lat="49.16337" lon="1.58362">
        <ele>84.199996948242</ele>
        <time>2021-03-28T11:08:07.000Z</time>
      </trkpt>
      <trkpt lat="49.16345" lon="1.58344">
        <ele>85.199996948242</ele>
        <time>2021-03-28T11:08:12.000Z</time>
      </trkpt>
      <trkpt lat="49.16348" lon="1.58337">
        <ele>85.400001525879</ele>
        <time>2021-03-28T11:08:14.000Z</time>
      </trkpt>
      <trkpt lat="49.16356" lon="1.58321">
        <ele>86.400001525879</ele>
        <time>2021-03-28T11:08:19.000Z</time>
      </trkpt>
      <trkpt lat="49.16361" lon="1.58311">
        <ele>87</ele>
        <time>2021-03-28T11:08:22.000Z</time>
      </trkpt>
      <trkpt lat="49.16364" lon="1.58304">
        <ele>87.400001525879</ele>
        <time>2021-03-28T11:08:24.000Z</time>
      </trkpt>
      <trkpt lat="49.16372" lon="1.58286">
        <ele>88.599998474121</ele>
        <time>2021-03-28T11:08:29.000Z</time>
      </trkpt>
      <trkpt lat="49.16374" lon="1.58283">
        <ele>89</ele>
        <time>2021-03-28T11:08:30.000Z</time>
      </trkpt>
      <trkpt lat="49.16377" lon="1.58276">
        <ele>89.599998474121</ele>
        <time>2021-03-28T11:08:32.000Z</time>
      </trkpt>
      <trkpt lat="49.16384" lon="1.58263">
        <ele>90.800003051758</ele>
        <time>2021-03-28T11:08:36.000Z</time>
      </trkpt>
      <trkpt lat="49.16387" lon="1.58256">
        <ele>91.199996948242</ele>
        <time>2021-03-28T11:08:38.000Z</time>
      </trkpt>
      <trkpt lat="49.16395" lon="1.58238">
        <ele>92</ele>
        <time>2021-03-28T11:08:43.000Z</time>
      </trkpt>
      <trkpt lat="49.16402" lon="1.58224">
        <ele>92.800003051758</ele>
        <time>2021-03-28T11:08:47.000Z</time>
      </trkpt>
      <trkpt lat="49.16406" lon="1.58214">
        <ele>93</ele>
        <time>2021-03-28T11:08:50.000Z</time>
      </trkpt>
      <trkpt lat="49.16416" lon="1.58195">
        <ele>93.800003051758</ele>
        <time>2021-03-28T11:08:56.000Z</time>
      </trkpt>
      <trkpt lat="49.16418" lon="1.58189">
        <ele>94.199996948242</ele>
        <time>2021-03-28T11:08:58.000Z</time>
      </trkpt>
      <trkpt lat="49.16426" lon="1.5817">
        <ele>95.199996948242</ele>
        <time>2021-03-28T11:09:04.000Z</time>
      </trkpt>
      <trkpt lat="49.16429" lon="1.58164">
        <ele>95.599998474121</ele>
        <time>2021-03-28T11:09:06.000Z</time>
      </trkpt>
      <trkpt lat="49.16434" lon="1.58156">
        <ele>96.199996948242</ele>
        <time>2021-03-28T11:09:09.000Z</time>
      </trkpt>
      <trkpt lat="49.1644" lon="1.58144">
        <ele>97.199996948242</ele>
        <time>2021-03-28T11:09:13.000Z</time>
      </trkpt>
      <trkpt lat="49.16442" lon="1.5814">
        <ele>97.400001525879</ele>
        <time>2021-03-28T11:09:14.000Z</time>
      </trkpt>
      <trkpt lat="49.16449" lon="1.58123">
        <ele>98.199996948242</ele>
        <time>2021-03-28T11:09:20.000Z</time>
      </trkpt>
      <trkpt lat="49.1645" lon="1.5812">
        <ele>98.400001525879</ele>
        <time>2021-03-28T11:09:21.000Z</time>
      </trkpt>
      <trkpt lat="49.16458" lon="1.581">
        <ele>99.400001525879</ele>
        <time>2021-03-28T11:09:27.000Z</time>
      </trkpt>
      <trkpt lat="49.1646" lon="1.58097">
        <ele>99.400001525879</ele>
        <time>2021-03-28T11:09:28.000Z</time>
      </trkpt>
      <trkpt lat="49.16468" lon="1.5808">
        <ele>100.40000152588</ele>
        <time>2021-03-28T11:09:33.000Z</time>
      </trkpt>
      <trkpt lat="49.16476" lon="1.58063">
        <ele>101.19999694824</ele>
        <time>2021-03-28T11:09:38.000Z</time>
      </trkpt>
      <trkpt lat="49.16479" lon="1.58056">
        <ele>101.40000152588</ele>
        <time>2021-03-28T11:09:40.000Z</time>
      </trkpt>
      <trkpt lat="49.16492" lon="1.58031">
        <ele>102.40000152588</ele>
        <time>2021-03-28T11:09:48.000Z</time>
      </trkpt>
      <trkpt lat="49.16494" lon="1.58027">
        <ele>102.80000305176</ele>
        <time>2021-03-28T11:09:49.000Z</time>
      </trkpt>
      <trkpt lat="49.16505" lon="1.5801">
        <ele>103.80000305176</ele>
        <time>2021-03-28T11:09:54.000Z</time>
      </trkpt>
      <trkpt lat="49.16507" lon="1.58006">
        <ele>103.80000305176</ele>
        <time>2021-03-28T11:09:55.000Z</time>
      </trkpt>
      <trkpt lat="49.16517" lon="1.57989">
        <ele>104.80000305176</ele>
        <time>2021-03-28T11:10:00.000Z</time>
      </trkpt>
      <trkpt lat="49.16529" lon="1.57969">
        <ele>105.19999694824</ele>
        <time>2021-03-28T11:10:06.000Z</time>
      </trkpt>
      <trkpt lat="49.16536" lon="1.57958">
        <ele>105.80000305176</ele>
        <time>2021-03-28T11:10:09.000Z</time>
      </trkpt>
      <trkpt lat="49.16552" lon="1.57931">
        <ele>106.59999847412</ele>
        <time>2021-03-28T11:10:16.000Z</time>
      </trkpt>
      <trkpt lat="49.16559" lon="1.5792">
        <ele>107</ele>
        <time>2021-03-28T11:10:19.000Z</time>
      </trkpt>
      <trkpt lat="49.16569" lon="1.579">
        <ele>107.40000152588</ele>
        <time>2021-03-28T11:10:24.000Z</time>
      </trkpt>
      <trkpt lat="49.16584" lon="1.57872">
        <ele>108.40000152588</ele>
        <time>2021-03-28T11:10:31.000Z</time>
      </trkpt>
      <trkpt lat="49.16588" lon="1.57864">
        <ele>109</ele>
        <time>2021-03-28T11:10:33.000Z</time>
      </trkpt>
      <trkpt lat="49.1659" lon="1.5786">
        <ele>109.40000152588</ele>
        <time>2021-03-28T11:10:34.000Z</time>
      </trkpt>
      <trkpt lat="49.166" lon="1.57839">
        <ele>110.40000152588</ele>
        <time>2021-03-28T11:10:39.000Z</time>
      </trkpt>
      <trkpt lat="49.16604" lon="1.57831">
        <ele>110.40000152588</ele>
        <time>2021-03-28T11:10:41.000Z</time>
      </trkpt>
      <trkpt lat="49.16623" lon="1.57792">
        <ele>111.40000152588</ele>
        <time>2021-03-28T11:10:50.000Z</time>
      </trkpt>
      <trkpt lat="49.16626" lon="1.57787">
        <ele>111.80000305176</ele>
        <time>2021-03-28T11:10:51.000Z</time>
      </trkpt>
      <trkpt lat="49.16639" lon="1.57759">
        <ele>112.59999847412</ele>
        <time>2021-03-28T11:10:57.000Z</time>
      </trkpt>
      <trkpt lat="49.16646" lon="1.57745">
        <ele>112.80000305176</ele>
        <time>2021-03-28T11:11:00.000Z</time>
      </trkpt>
      <trkpt lat="49.16663" lon="1.57718">
        <ele>113.19999694824</ele>
        <time>2021-03-28T11:11:07.000Z</time>
      </trkpt>
      <trkpt lat="49.16673" lon="1.57707">
        <ele>113.80000305176</ele>
        <time>2021-03-28T11:11:11.000Z</time>
      </trkpt>
      <trkpt lat="49.16678" lon="1.57701">
        <ele>114</ele>
        <time>2021-03-28T11:11:13.000Z</time>
      </trkpt>
      <trkpt lat="49.16691" lon="1.57678">
        <ele>114.59999847412</ele>
        <time>2021-03-28T11:11:19.000Z</time>
      </trkpt>
      <trkpt lat="49.16693" lon="1.57674">
        <ele>114.80000305176</ele>
        <time>2021-03-28T11:11:20.000Z</time>
      </trkpt>
      <trkpt lat="49.16702" lon="1.57653">
        <ele>115</ele>
        <time>2021-03-28T11:11:25.000Z</time>
      </trkpt>
      <trkpt lat="49.16714" lon="1.57626">
        <ele>115.59999847412</ele>
        <time>2021-03-28T11:11:31.000Z</time>
      </trkpt>
      <trkpt lat="49.1672" lon="1.57612">
        <ele>115.80000305176</ele>
        <time>2021-03-28T11:11:34.000Z</time>
      </trkpt>
      <trkpt lat="49.1673" lon="1.5759">
        <ele>116.19999694824</ele>
        <time>2021-03-28T11:11:39.000Z</time>
      </trkpt>
      <trkpt lat="49.16748" lon="1.57556">
        <ele>116.80000305176</ele>
        <time>2021-03-28T11:11:47.000Z</time>
      </trkpt>
      <trkpt lat="49.1675" lon="1.57552">
        <ele>116.80000305176</ele>
        <time>2021-03-28T11:11:48.000Z</time>
      </trkpt>
      <trkpt lat="49.16763" lon="1.57526">
        <ele>117.19999694824</ele>
        <time>2021-03-28T11:11:54.000Z</time>
      </trkpt>
      <trkpt lat="49.16777" lon="1.57499">
        <ele>118</ele>
        <time>2021-03-28T11:12:00.000Z</time>
      </trkpt>
      <trkpt lat="49.16785" lon="1.57484">
        <ele>118.40000152588</ele>
        <time>2021-03-28T11:12:03.000Z</time>
      </trkpt>
      <trkpt lat="49.16799" lon="1.57455">
        <ele>118.59999847412</ele>
        <time>2021-03-28T11:12:10.000Z</time>
      </trkpt>
      <trkpt lat="49.16802" lon="1.57448">
        <ele>118.80000305176</ele>
        <time>2021-03-28T11:12:14.000Z</time>
      </trkpt>
      <trkpt lat="49.16802" lon="1.57448">
        <ele>118.80000305176</ele>
        <time>2021-03-28T11:12:16.000Z</time>
      </trkpt>
      <trkpt lat="49.16804" lon="1.57445">
        <ele>119.80000305176</ele>
        <time>2021-03-28T11:12:28.000Z</time>
      </trkpt>
      <trkpt lat="49.16804" lon="1.57444">
        <ele>119.80000305176</ele>
        <time>2021-03-28T11:12:30.000Z</time>
      </trkpt>
      <trkpt lat="49.16804" lon="1.57444">
        <ele>119.80000305176</ele>
        <time>2021-03-28T11:12:31.000Z</time>
      </trkpt>
      <trkpt lat="49.16805" lon="1.57442">
        <ele>120.80000305176</ele>
        <time>2021-03-28T11:17:08.000Z</time>
      </trkpt>
      <trkpt lat="49.16808" lon="1.57438">
        <ele>120.80000305176</ele>
        <time>2021-03-28T11:17:10.000Z</time>
      </trkpt>
      <trkpt lat="49.16817" lon="1.57418">
        <ele>120.80000305176</ele>
        <time>2021-03-28T11:17:16.000Z</time>
      </trkpt>
      <trkpt lat="49.16834" lon="1.57384">
        <ele>120.80000305176</ele>
        <time>2021-03-28T11:17:26.000Z</time>
      </trkpt>
      <trkpt lat="49.16853" lon="1.57349">
        <ele>120.80000305176</ele>
        <time>2021-03-28T11:17:35.000Z</time>
      </trkpt>
      <trkpt lat="49.16864" lon="1.57327">
        <ele>120.59999847412</ele>
        <time>2021-03-28T11:17:40.000Z</time>
      </trkpt>
      <trkpt lat="49.16877" lon="1.57301">
        <ele>120.19999694824</ele>
        <time>2021-03-28T11:17:46.000Z</time>
      </trkpt>
      <trkpt lat="49.16893" lon="1.57267">
        <ele>119.80000305176</ele>
        <time>2021-03-28T11:17:53.000Z</time>
      </trkpt>
      <trkpt lat="49.1691" lon="1.57233">
        <ele>119.59999847412</ele>
        <time>2021-03-28T11:18:00.000Z</time>
      </trkpt>
      <trkpt lat="49.16924" lon="1.57204">
        <ele>119.59999847412</ele>
        <time>2021-03-28T11:18:06.000Z</time>
      </trkpt>
      <trkpt lat="49.16944" lon="1.5716">
        <ele>119.59999847412</ele>
        <time>2021-03-28T11:18:15.000Z</time>
      </trkpt>
      <trkpt lat="49.16963" lon="1.57124">
        <ele>120.19999694824</ele>
        <time>2021-03-28T11:18:23.000Z</time>
      </trkpt>
      <trkpt lat="49.16981" lon="1.57088">
        <ele>120.59999847412</ele>
        <time>2021-03-28T11:18:31.000Z</time>
      </trkpt>
      <trkpt lat="49.17001" lon="1.57048">
        <ele>120.19999694824</ele>
        <time>2021-03-28T11:18:40.000Z</time>
      </trkpt>
      <trkpt lat="49.17009" lon="1.57032">
        <ele>120.19999694824</ele>
        <time>2021-03-28T11:18:44.000Z</time>
      </trkpt>
      <trkpt lat="49.17019" lon="1.57011">
        <ele>120.19999694824</ele>
        <time>2021-03-28T11:18:49.000Z</time>
      </trkpt>
      <trkpt lat="49.17041" lon="1.5697">
        <ele>121.59999847412</ele>
        <time>2021-03-28T11:18:59.000Z</time>
      </trkpt>
      <trkpt lat="49.17055" lon="1.5694">
        <ele>122.19999694824</ele>
        <time>2021-03-28T11:19:06.000Z</time>
      </trkpt>
      <trkpt lat="49.17074" lon="1.56903">
        <ele>122.80000305176</ele>
        <time>2021-03-28T11:19:15.000Z</time>
      </trkpt>
      <trkpt lat="49.17092" lon="1.5687">
        <ele>123.40000152588</ele>
        <time>2021-03-28T11:19:23.000Z</time>
      </trkpt>
      <trkpt lat="49.17111" lon="1.56834">
        <ele>123.80000305176</ele>
        <time>2021-03-28T11:19:31.000Z</time>
      </trkpt>
      <trkpt lat="49.17113" lon="1.56829">
        <ele>124</ele>
        <time>2021-03-28T11:19:32.000Z</time>
      </trkpt>
      <trkpt lat="49.17136" lon="1.56783">
        <ele>124.40000152588</ele>
        <time>2021-03-28T11:19:41.000Z</time>
      </trkpt>
      <trkpt lat="49.17156" lon="1.56743">
        <ele>124.80000305176</ele>
        <time>2021-03-28T11:19:49.000Z</time>
      </trkpt>
      <trkpt lat="49.17169" lon="1.56716">
        <ele>125</ele>
        <time>2021-03-28T11:19:54.000Z</time>
      </trkpt>
      <trkpt lat="49.17184" lon="1.56685">
        <ele>125.40000152588</ele>
        <time>2021-03-28T11:20:00.000Z</time>
      </trkpt>
      <trkpt lat="49.17199" lon="1.56654">
        <ele>125.40000152588</ele>
        <time>2021-03-28T11:20:06.000Z</time>
      </trkpt>
      <trkpt lat="49.17208" lon="1.56633">
        <ele>125.40000152588</ele>
        <time>2021-03-28T11:20:10.000Z</time>
      </trkpt>
      <trkpt lat="49.17224" lon="1.56596">
        <ele>125.59999847412</ele>
        <time>2021-03-28T11:20:17.000Z</time>
      </trkpt>
      <trkpt lat="49.17231" lon="1.56582">
        <ele>126.19999694824</ele>
        <time>2021-03-28T11:20:20.000Z</time>
      </trkpt>
      <trkpt lat="49.17239" lon="1.56567">
        <ele>126.40000152588</ele>
        <time>2021-03-28T11:20:23.000Z</time>
      </trkpt>
      <trkpt lat="49.17241" lon="1.56562">
        <ele>126.40000152588</ele>
        <time>2021-03-28T11:20:24.000Z</time>
      </trkpt>
      <trkpt lat="49.17259" lon="1.56527">
        <ele>126.40000152588</ele>
        <time>2021-03-28T11:20:31.000Z</time>
      </trkpt>
      <trkpt lat="49.1728" lon="1.56485">
        <ele>126.59999847412</ele>
        <time>2021-03-28T11:20:39.000Z</time>
      </trkpt>
      <trkpt lat="49.17302" lon="1.56439">
        <ele>126.80000305176</ele>
        <time>2021-03-28T11:20:48.000Z</time>
      </trkpt>
      <trkpt lat="49.17324" lon="1.56393">
        <ele>126.80000305176</ele>
        <time>2021-03-28T11:20:57.000Z</time>
      </trkpt>
      <trkpt lat="49.17347" lon="1.56348">
        <ele>127</ele>
        <time>2021-03-28T11:21:06.000Z</time>
      </trkpt>
      <trkpt lat="49.17357" lon="1.56328">
        <ele>127.19999694824</ele>
        <time>2021-03-28T11:21:10.000Z</time>
      </trkpt>
      <trkpt lat="49.17373" lon="1.56296">
        <ele>127.80000305176</ele>
        <time>2021-03-28T11:21:16.000Z</time>
      </trkpt>
      <trkpt lat="49.17396" lon="1.56247">
        <ele>128</ele>
        <time>2021-03-28T11:21:25.000Z</time>
      </trkpt>
      <trkpt lat="49.17419" lon="1.562">
        <ele>128.19999694824</ele>
        <time>2021-03-28T11:21:34.000Z</time>
      </trkpt>
      <trkpt lat="49.17437" lon="1.56164">
        <ele>128.60000610352</ele>
        <time>2021-03-28T11:21:41.000Z</time>
      </trkpt>
      <trkpt lat="49.17442" lon="1.56155">
        <ele>128.80000305176</ele>
        <time>2021-03-28T11:21:43.000Z</time>
      </trkpt>
      <trkpt lat="49.17447" lon="1.56143">
        <ele>129</ele>
        <time>2021-03-28T11:21:48.000Z</time>
      </trkpt>
      <trkpt lat="49.17447" lon="1.56143">
        <ele>129</ele>
        <time>2021-03-28T11:21:49.000Z</time>
      </trkpt>
      <trkpt lat="49.17448" lon="1.56145">
        <ele>130.60000610352</ele>
        <time>2021-03-28T11:23:46.000Z</time>
      </trkpt>
      <trkpt lat="49.17449" lon="1.56143">
        <ele>130.60000610352</ele>
        <time>2021-03-28T11:23:47.000Z</time>
      </trkpt>
      <trkpt lat="49.17448" lon="1.56138">
        <ele>130.60000610352</ele>
        <time>2021-03-28T11:23:49.000Z</time>
      </trkpt>
      <trkpt lat="49.17442" lon="1.56126">
        <ele>130.60000610352</ele>
        <time>2021-03-28T11:23:52.000Z</time>
      </trkpt>
      <trkpt lat="49.17438" lon="1.56121">
        <ele>130.39999389648</ele>
        <time>2021-03-28T11:23:53.000Z</time>
      </trkpt>
      <trkpt lat="49.17425" lon="1.56105">
        <ele>130.19999694824</ele>
        <time>2021-03-28T11:23:56.000Z</time>
      </trkpt>
      <trkpt lat="49.1741" lon="1.56087">
        <ele>129.19999694824</ele>
        <time>2021-03-28T11:23:59.000Z</time>
      </trkpt>
      <trkpt lat="49.17399" lon="1.56075">
        <ele>128</ele>
        <time>2021-03-28T11:24:01.000Z</time>
      </trkpt>
      <trkpt lat="49.1739" lon="1.56064">
        <ele>126.59999847412</ele>
        <time>2021-03-28T11:24:03.000Z</time>
      </trkpt>
      <trkpt lat="49.1738" lon="1.56053">
        <ele>125.40000152588</ele>
        <time>2021-03-28T11:24:05.000Z</time>
      </trkpt>
      <trkpt lat="49.1737" lon="1.56041">
        <ele>125</ele>
        <time>2021-03-28T11:24:07.000Z</time>
      </trkpt>
      <trkpt lat="49.17336" lon="1.56001">
        <ele>125</ele>
        <time>2021-03-28T11:24:15.000Z</time>
      </trkpt>
      <trkpt lat="49.17317" lon="1.55977">
        <ele>125.19999694824</ele>
        <time>2021-03-28T11:24:21.000Z</time>
      </trkpt>
      <trkpt lat="49.17308" lon="1.55954">
        <ele>125.19999694824</ele>
        <time>2021-03-28T11:24:25.000Z</time>
      </trkpt>
      <trkpt lat="49.17305" lon="1.55937">
        <ele>125.19999694824</ele>
        <time>2021-03-28T11:24:28.000Z</time>
      </trkpt>
      <trkpt lat="49.17307" lon="1.55933">
        <ele>125.19999694824</ele>
        <time>2021-03-28T11:24:29.000Z</time>
      </trkpt>
      <trkpt lat="49.17317" lon="1.55905">
        <ele>125.19999694824</ele>
        <time>2021-03-28T11:24:36.000Z</time>
      </trkpt>
      <trkpt lat="49.17327" lon="1.55873">
        <ele>126.19999694824</ele>
        <time>2021-03-28T11:24:43.000Z</time>
      </trkpt>
      <trkpt lat="49.17337" lon="1.55845">
        <ele>126.40000152588</ele>
        <time>2021-03-28T11:24:49.000Z</time>
      </trkpt>
      <trkpt lat="49.17338" lon="1.5584">
        <ele>126.40000152588</ele>
        <time>2021-03-28T11:24:50.000Z</time>
      </trkpt>
      <trkpt lat="49.17348" lon="1.55809">
        <ele>126.40000152588</ele>
        <time>2021-03-28T11:24:56.000Z</time>
      </trkpt>
      <trkpt lat="49.17356" lon="1.55784">
        <ele>126.40000152588</ele>
        <time>2021-03-28T11:25:01.000Z</time>
      </trkpt>
      <trkpt lat="49.17364" lon="1.55763">
        <ele>126.40000152588</ele>
        <time>2021-03-28T11:25:05.000Z</time>
      </trkpt>
      <trkpt lat="49.17377" lon="1.55726">
        <ele>126.59999847412</ele>
        <time>2021-03-28T11:25:12.000Z</time>
      </trkpt>
      <trkpt lat="49.17389" lon="1.55693">
        <ele>126.59999847412</ele>
        <time>2021-03-28T11:25:18.000Z</time>
      </trkpt>
      <trkpt lat="49.17395" lon="1.55676">
        <ele>126.80000305176</ele>
        <time>2021-03-28T11:25:21.000Z</time>
      </trkpt>
      <trkpt lat="49.17399" lon="1.55665">
        <ele>126.80000305176</ele>
        <time>2021-03-28T11:25:23.000Z</time>
      </trkpt>
      <trkpt lat="49.17408" lon="1.55643">
        <ele>127</ele>
        <time>2021-03-28T11:25:27.000Z</time>
      </trkpt>
      <trkpt lat="49.1741" lon="1.55638">
        <ele>127.19999694824</ele>
        <time>2021-03-28T11:25:28.000Z</time>
      </trkpt>
      <trkpt lat="49.17415" lon="1.55627">
        <ele>127.59999847412</ele>
        <time>2021-03-28T11:25:30.000Z</time>
      </trkpt>
      <trkpt lat="49.17417" lon="1.55622">
        <ele>127.59999847412</ele>
        <time>2021-03-28T11:25:31.000Z</time>
      </trkpt>
      <trkpt lat="49.17421" lon="1.55611">
        <ele>127.80000305176</ele>
        <time>2021-03-28T11:25:33.000Z</time>
      </trkpt>
      <trkpt lat="49.17433" lon="1.5558">
        <ele>128.19999694824</ele>
        <time>2021-03-28T11:25:39.000Z</time>
      </trkpt>
      <trkpt lat="49.1744" lon="1.55564">
        <ele>128.60000610352</ele>
        <time>2021-03-28T11:25:42.000Z</time>
      </trkpt>
      <trkpt lat="49.17444" lon="1.55554">
        <ele>128.80000305176</ele>
        <time>2021-03-28T11:25:44.000Z</time>
      </trkpt>
      <trkpt lat="49.1745" lon="1.55537">
        <ele>129</ele>
        <time>2021-03-28T11:25:47.000Z</time>
      </trkpt>
      <trkpt lat="49.17468" lon="1.55494">
        <ele>129.60000610352</ele>
        <time>2021-03-28T11:25:55.000Z</time>
      </trkpt>
      <trkpt lat="49.17471" lon="1.55488">
        <ele>129.60000610352</ele>
        <time>2021-03-28T11:25:56.000Z</time>
      </trkpt>
      <trkpt lat="49.17476" lon="1.55477">
        <ele>129.80000305176</ele>
        <time>2021-03-28T11:25:58.000Z</time>
      </trkpt>
      <trkpt lat="49.17485" lon="1.55455">
        <ele>130.39999389648</ele>
        <time>2021-03-28T11:26:02.000Z</time>
      </trkpt>
      <trkpt lat="49.17502" lon="1.55417">
        <ele>131</ele>
        <time>2021-03-28T11:26:09.000Z</time>
      </trkpt>
      <trkpt lat="49.1751" lon="1.554">
        <ele>131.19999694824</ele>
        <time>2021-03-28T11:26:12.000Z</time>
      </trkpt>
      <trkpt lat="49.17522" lon="1.55378">
        <ele>131.39999389648</ele>
        <time>2021-03-28T11:26:16.000Z</time>
      </trkpt>
      <trkpt lat="49.17531" lon="1.55361">
        <ele>131.60000610352</ele>
        <time>2021-03-28T11:26:19.000Z</time>
      </trkpt>
      <trkpt lat="49.17557" lon="1.55315">
        <ele>132</ele>
        <time>2021-03-28T11:26:27.000Z</time>
      </trkpt>
      <trkpt lat="49.17564" lon="1.55303">
        <ele>132.19999694824</ele>
        <time>2021-03-28T11:26:29.000Z</time>
      </trkpt>
      <trkpt lat="49.17593" lon="1.55251">
        <ele>132.39999389648</ele>
        <time>2021-03-28T11:26:38.000Z</time>
      </trkpt>
      <trkpt lat="49.1761" lon="1.55222">
        <ele>133</ele>
        <time>2021-03-28T11:26:43.000Z</time>
      </trkpt>
      <trkpt lat="49.17616" lon="1.55211">
        <ele>133.19999694824</ele>
        <time>2021-03-28T11:26:45.000Z</time>
      </trkpt>
      <trkpt lat="49.17619" lon="1.55205">
        <ele>133.19999694824</ele>
        <time>2021-03-28T11:26:46.000Z</time>
      </trkpt>
      <trkpt lat="49.17641" lon="1.55167">
        <ele>133.60000610352</ele>
        <time>2021-03-28T11:26:53.000Z</time>
      </trkpt>
      <trkpt lat="49.17644" lon="1.55162">
        <ele>133.80000305176</ele>
        <time>2021-03-28T11:26:54.000Z</time>
      </trkpt>
      <trkpt lat="49.17655" lon="1.5514">
        <ele>134</ele>
        <time>2021-03-28T11:26:58.000Z</time>
      </trkpt>
      <trkpt lat="49.1766" lon="1.55128">
        <ele>134</ele>
        <time>2021-03-28T11:27:00.000Z</time>
      </trkpt>
      <trkpt lat="49.17663" lon="1.55122">
        <ele>134</ele>
        <time>2021-03-28T11:27:01.000Z</time>
      </trkpt>
      <trkpt lat="49.17677" lon="1.5509">
        <ele>134.19999694824</ele>
        <time>2021-03-28T11:27:06.000Z</time>
      </trkpt>
      <trkpt lat="49.17698" lon="1.55038">
        <ele>134.19999694824</ele>
        <time>2021-03-28T11:27:14.000Z</time>
      </trkpt>
      <trkpt lat="49.17711" lon="1.55006">
        <ele>134.39999389648</ele>
        <time>2021-03-28T11:27:20.000Z</time>
      </trkpt>
      <trkpt lat="49.17727" lon="1.54962">
        <ele>134.80000305176</ele>
        <time>2021-03-28T11:27:28.000Z</time>
      </trkpt>
      <trkpt lat="49.17729" lon="1.54959">
        <ele>134.80000305176</ele>
        <time>2021-03-28T11:27:29.000Z</time>
      </trkpt>
      <trkpt lat="49.1773" lon="1.54958">
        <ele>134.80000305176</ele>
        <time>2021-03-28T11:27:31.000Z</time>
      </trkpt>
      <trkpt lat="49.1773" lon="1.54958">
        <ele>135.60000610352</ele>
        <time>2021-03-28T11:28:11.000Z</time>
      </trkpt>
      <trkpt lat="49.17732" lon="1.54952">
        <ele>135.60000610352</ele>
        <time>2021-03-28T11:28:13.000Z</time>
      </trkpt>
      <trkpt lat="49.1774" lon="1.54924">
        <ele>135.60000610352</ele>
        <time>2021-03-28T11:28:18.000Z</time>
      </trkpt>
      <trkpt lat="49.17755" lon="1.54877">
        <ele>135.19999694824</ele>
        <time>2021-03-28T11:28:26.000Z</time>
      </trkpt>
      <trkpt lat="49.17764" lon="1.54855">
        <ele>135.19999694824</ele>
        <time>2021-03-28T11:28:31.000Z</time>
      </trkpt>
      <trkpt lat="49.17773" lon="1.5486">
        <ele>135.19999694824</ele>
        <time>2021-03-28T11:28:34.000Z</time>
      </trkpt>
      <trkpt lat="49.17793" lon="1.54872">
        <ele>135.39999389648</ele>
        <time>2021-03-28T11:28:40.000Z</time>
      </trkpt>
      <trkpt lat="49.17827" lon="1.54884">
        <ele>135.39999389648</ele>
        <time>2021-03-28T11:28:48.000Z</time>
      </trkpt>
      <trkpt lat="49.17831" lon="1.54886">
        <ele>135.39999389648</ele>
        <time>2021-03-28T11:28:49.000Z</time>
      </trkpt>
      <trkpt lat="49.17835" lon="1.54888">
        <ele>135.39999389648</ele>
        <time>2021-03-28T11:28:50.000Z</time>
      </trkpt>
      <trkpt lat="49.17858" lon="1.54897">
        <ele>134.60000610352</ele>
        <time>2021-03-28T11:28:55.000Z</time>
      </trkpt>
      <trkpt lat="49.17863" lon="1.54899">
        <ele>134.39999389648</ele>
        <time>2021-03-28T11:28:56.000Z</time>
      </trkpt>
      <trkpt lat="49.17892" lon="1.54909">
        <ele>133.39999389648</ele>
        <time>2021-03-28T11:29:02.000Z</time>
      </trkpt>
      <trkpt lat="49.17903" lon="1.54912">
        <ele>133</ele>
        <time>2021-03-28T11:29:04.000Z</time>
      </trkpt>
      <trkpt lat="49.17924" lon="1.54918">
        <ele>132.39999389648</ele>
        <time>2021-03-28T11:29:08.000Z</time>
      </trkpt>
      <trkpt lat="49.17934" lon="1.5492">
        <ele>132</ele>
        <time>2021-03-28T11:29:10.000Z</time>
      </trkpt>
      <trkpt lat="49.17955" lon="1.54928">
        <ele>131.19999694824</ele>
        <time>2021-03-28T11:29:14.000Z</time>
      </trkpt>
      <trkpt lat="49.17965" lon="1.54931">
        <ele>131</ele>
        <time>2021-03-28T11:29:16.000Z</time>
      </trkpt>
      <trkpt lat="49.18002" lon="1.54942">
        <ele>131</ele>
        <time>2021-03-28T11:29:24.000Z</time>
      </trkpt>
      <trkpt lat="49.18055" lon="1.54959">
        <ele>132.39999389648</ele>
        <time>2021-03-28T11:29:36.000Z</time>
      </trkpt>
      <trkpt lat="49.18059" lon="1.5496">
        <ele>132.39999389648</ele>
        <time>2021-03-28T11:29:37.000Z</time>
      </trkpt>
      <trkpt lat="49.18068" lon="1.54962">
        <ele>132.60000610352</ele>
        <time>2021-03-28T11:29:39.000Z</time>
      </trkpt>
      <trkpt lat="49.18076" lon="1.54963">
        <ele>132.80000305176</ele>
        <time>2021-03-28T11:29:41.000Z</time>
      </trkpt>
      <trkpt lat="49.18085" lon="1.54967">
        <ele>133</ele>
        <time>2021-03-28T11:29:43.000Z</time>
      </trkpt>
      <trkpt lat="49.18124" lon="1.54979">
        <ele>133.19999694824</ele>
        <time>2021-03-28T11:29:51.000Z</time>
      </trkpt>
      <trkpt lat="49.1816" lon="1.5499">
        <ele>133</ele>
        <time>2021-03-28T11:29:58.000Z</time>
      </trkpt>
      <trkpt lat="49.18199" lon="1.55002">
        <ele>132.60000610352</ele>
        <time>2021-03-28T11:30:06.000Z</time>
      </trkpt>
      <trkpt lat="49.18204" lon="1.55004">
        <ele>132.60000610352</ele>
        <time>2021-03-28T11:30:07.000Z</time>
      </trkpt>
      <trkpt lat="49.18228" lon="1.55012">
        <ele>132.60000610352</ele>
        <time>2021-03-28T11:30:12.000Z</time>
      </trkpt>
      <trkpt lat="49.18266" lon="1.5502">
        <ele>133</ele>
        <time>2021-03-28T11:30:20.000Z</time>
      </trkpt>
      <trkpt lat="49.1827" lon="1.55021">
        <ele>133</ele>
        <time>2021-03-28T11:30:21.000Z</time>
      </trkpt>
      <trkpt lat="49.18288" lon="1.55019">
        <ele>133.60000610352</ele>
        <time>2021-03-28T11:30:26.000Z</time>
      </trkpt>
      <trkpt lat="49.18305" lon="1.55009">
        <ele>134.39999389648</ele>
        <time>2021-03-28T11:30:33.000Z</time>
      </trkpt>
      <trkpt lat="49.1831" lon="1.55008">
        <ele>134.60000610352</ele>
        <time>2021-03-28T11:30:35.000Z</time>
      </trkpt>
      <trkpt lat="49.1832" lon="1.55003">
        <ele>135.19999694824</ele>
        <time>2021-03-28T11:30:39.000Z</time>
      </trkpt>
      <trkpt lat="49.18325" lon="1.55001">
        <ele>135.80000305176</ele>
        <time>2021-03-28T11:30:41.000Z</time>
      </trkpt>
      <trkpt lat="49.18332" lon="1.54996">
        <ele>136.60000610352</ele>
        <time>2021-03-28T11:30:44.000Z</time>
      </trkpt>
      <trkpt lat="49.18348" lon="1.54987">
        <ele>136.80000305176</ele>
        <time>2021-03-28T11:30:49.000Z</time>
      </trkpt>
      <trkpt lat="49.18352" lon="1.54985">
        <ele>136.80000305176</ele>
        <time>2021-03-28T11:30:50.000Z</time>
      </trkpt>
      <trkpt lat="49.1837" lon="1.54974">
        <ele>137.19999694824</ele>
        <time>2021-03-28T11:30:55.000Z</time>
      </trkpt>
      <trkpt lat="49.18375" lon="1.54971">
        <ele>137.60000610352</ele>
        <time>2021-03-28T11:30:57.000Z</time>
      </trkpt>
      <trkpt lat="49.18386" lon="1.54967">
        <ele>138.19999694824</ele>
        <time>2021-03-28T11:31:01.000Z</time>
      </trkpt>
      <trkpt lat="49.18399" lon="1.54959">
        <ele>138.80000305176</ele>
        <time>2021-03-28T11:31:05.000Z</time>
      </trkpt>
      <trkpt lat="49.18417" lon="1.54951">
        <ele>139</ele>
        <time>2021-03-28T11:31:10.000Z</time>
      </trkpt>
      <trkpt lat="49.18429" lon="1.54944">
        <ele>139.80000305176</ele>
        <time>2021-03-28T11:31:14.000Z</time>
      </trkpt>
      <trkpt lat="49.18436" lon="1.54939">
        <ele>140.39999389648</ele>
        <time>2021-03-28T11:31:16.000Z</time>
      </trkpt>
      <trkpt lat="49.18442" lon="1.54935">
        <ele>141</ele>
        <time>2021-03-28T11:31:18.000Z</time>
      </trkpt>
      <trkpt lat="49.18453" lon="1.54927">
        <ele>141.60000610352</ele>
        <time>2021-03-28T11:31:22.000Z</time>
      </trkpt>
      <trkpt lat="49.18458" lon="1.54923">
        <ele>142</ele>
        <time>2021-03-28T11:31:24.000Z</time>
      </trkpt>
      <trkpt lat="49.18469" lon="1.54915">
        <ele>142.60000610352</ele>
        <time>2021-03-28T11:31:27.000Z</time>
      </trkpt>
      <trkpt lat="49.18476" lon="1.54909">
        <ele>143.19999694824</ele>
        <time>2021-03-28T11:31:29.000Z</time>
      </trkpt>
      <trkpt lat="49.185" lon="1.54895">
        <ele>144.39999389648</ele>
        <time>2021-03-28T11:31:35.000Z</time>
      </trkpt>
      <trkpt lat="49.18504" lon="1.54893">
        <ele>144.60000610352</ele>
        <time>2021-03-28T11:31:36.000Z</time>
      </trkpt>
      <trkpt lat="49.1852" lon="1.54883">
        <ele>145.39999389648</ele>
        <time>2021-03-28T11:31:41.000Z</time>
      </trkpt>
      <trkpt lat="49.18527" lon="1.54879">
        <ele>145.60000610352</ele>
        <time>2021-03-28T11:31:43.000Z</time>
      </trkpt>
      <trkpt lat="49.18549" lon="1.54864">
        <ele>146</ele>
        <time>2021-03-28T11:31:50.000Z</time>
      </trkpt>
      <trkpt lat="49.18563" lon="1.54856">
        <ele>146.60000610352</ele>
        <time>2021-03-28T11:31:55.000Z</time>
      </trkpt>
      <trkpt lat="49.18565" lon="1.54855">
        <ele>146.80000305176</ele>
        <time>2021-03-28T11:31:56.000Z</time>
      </trkpt>
      <trkpt lat="49.18569" lon="1.54853">
        <ele>147.60000610352</ele>
        <time>2021-03-28T11:31:59.000Z</time>
      </trkpt>
      <trkpt lat="49.18569" lon="1.54853">
        <ele>147.80000305176</ele>
        <time>2021-03-28T11:32:00.000Z</time>
      </trkpt>
      <trkpt lat="49.18572" lon="1.54851">
        <ele>148.80000305176</ele>
        <time>2021-03-28T11:34:37.000Z</time>
      </trkpt>
      <trkpt lat="49.18575" lon="1.54842">
        <ele>148.80000305176</ele>
        <time>2021-03-28T11:34:40.000Z</time>
      </trkpt>
      <trkpt lat="49.18575" lon="1.54825">
        <ele>148.80000305176</ele>
        <time>2021-03-28T11:34:43.000Z</time>
      </trkpt>
      <trkpt lat="49.18573" lon="1.54819">
        <ele>148.80000305176</ele>
        <time>2021-03-28T11:34:44.000Z</time>
      </trkpt>
      <trkpt lat="49.18567" lon="1.54793">
        <ele>148.80000305176</ele>
        <time>2021-03-28T11:34:48.000Z</time>
      </trkpt>
      <trkpt lat="49.18561" lon="1.54774">
        <ele>148.60000610352</ele>
        <time>2021-03-28T11:34:51.000Z</time>
      </trkpt>
      <trkpt lat="49.18557" lon="1.54754">
        <ele>147.80000305176</ele>
        <time>2021-03-28T11:34:54.000Z</time>
      </trkpt>
      <trkpt lat="49.18548" lon="1.54722">
        <ele>147.19999694824</ele>
        <time>2021-03-28T11:34:59.000Z</time>
      </trkpt>
      <trkpt lat="49.18543" lon="1.54702">
        <ele>146.80000305176</ele>
        <time>2021-03-28T11:35:02.000Z</time>
      </trkpt>
      <trkpt lat="49.18537" lon="1.54683">
        <ele>146.39999389648</ele>
        <time>2021-03-28T11:35:05.000Z</time>
      </trkpt>
      <trkpt lat="49.18524" lon="1.54641">
        <ele>145.60000610352</ele>
        <time>2021-03-28T11:35:11.000Z</time>
      </trkpt>
      <trkpt lat="49.18511" lon="1.54599">
        <ele>145</ele>
        <time>2021-03-28T11:35:17.000Z</time>
      </trkpt>
      <trkpt lat="49.18504" lon="1.54576">
        <ele>144.60000610352</ele>
        <time>2021-03-28T11:35:21.000Z</time>
      </trkpt>
      <trkpt lat="49.185" lon="1.54565">
        <ele>144.60000610352</ele>
        <time>2021-03-28T11:35:23.000Z</time>
      </trkpt>
      <trkpt lat="49.18497" lon="1.54552">
        <ele>144.39999389648</ele>
        <time>2021-03-28T11:35:25.000Z</time>
      </trkpt>
      <trkpt lat="49.18493" lon="1.5454">
        <ele>144.39999389648</ele>
        <time>2021-03-28T11:35:27.000Z</time>
      </trkpt>
      <trkpt lat="49.18488" lon="1.54529">
        <ele>144.39999389648</ele>
        <time>2021-03-28T11:35:29.000Z</time>
      </trkpt>
      <trkpt lat="49.18483" lon="1.54508">
        <ele>144.39999389648</ele>
        <time>2021-03-28T11:35:33.000Z</time>
      </trkpt>
      <trkpt lat="49.18483" lon="1.54502">
        <ele>144.39999389648</ele>
        <time>2021-03-28T11:35:34.000Z</time>
      </trkpt>
      <trkpt lat="49.18477" lon="1.54462">
        <ele>144.19999694824</ele>
        <time>2021-03-28T11:35:41.000Z</time>
      </trkpt>
      <trkpt lat="49.18471" lon="1.5441">
        <ele>144</ele>
        <time>2021-03-28T11:35:49.000Z</time>
      </trkpt>
      <trkpt lat="49.18468" lon="1.5435">
        <ele>143.60000610352</ele>
        <time>2021-03-28T11:35:58.000Z</time>
      </trkpt>
      <trkpt lat="49.18476" lon="1.54303">
        <ele>143.80000305176</ele>
        <time>2021-03-28T11:36:05.000Z</time>
      </trkpt>
      <trkpt lat="49.18481" lon="1.54284">
        <ele>144</ele>
        <time>2021-03-28T11:36:08.000Z</time>
      </trkpt>
      <trkpt lat="49.18488" lon="1.54267">
        <ele>144.19999694824</ele>
        <time>2021-03-28T11:36:11.000Z</time>
      </trkpt>
      <trkpt lat="49.18491" lon="1.54254">
        <ele>144.19999694824</ele>
        <time>2021-03-28T11:36:13.000Z</time>
      </trkpt>
      <trkpt lat="49.18492" lon="1.54247">
        <ele>144.19999694824</ele>
        <time>2021-03-28T11:36:14.000Z</time>
      </trkpt>
      <trkpt lat="49.18494" lon="1.54235">
        <ele>144.39999389648</ele>
        <time>2021-03-28T11:36:16.000Z</time>
      </trkpt>
      <trkpt lat="49.18496" lon="1.54202">
        <ele>144.39999389648</ele>
        <time>2021-03-28T11:36:21.000Z</time>
      </trkpt>
      <trkpt lat="49.18498" lon="1.54189">
        <ele>144.60000610352</ele>
        <time>2021-03-28T11:36:23.000Z</time>
      </trkpt>
      <trkpt lat="49.18498" lon="1.54175">
        <ele>144.60000610352</ele>
        <time>2021-03-28T11:36:25.000Z</time>
      </trkpt>
      <trkpt lat="49.18497" lon="1.54147">
        <ele>144.60000610352</ele>
        <time>2021-03-28T11:36:29.000Z</time>
      </trkpt>
      <trkpt lat="49.18496" lon="1.5414">
        <ele>144.60000610352</ele>
        <time>2021-03-28T11:36:30.000Z</time>
      </trkpt>
      <trkpt lat="49.18495" lon="1.54101">
        <ele>144.60000610352</ele>
        <time>2021-03-28T11:36:36.000Z</time>
      </trkpt>
      <trkpt lat="49.18493" lon="1.54051">
        <ele>144.80000305176</ele>
        <time>2021-03-28T11:36:43.000Z</time>
      </trkpt>
      <trkpt lat="49.18494" lon="1.53991">
        <ele>145</ele>
        <time>2021-03-28T11:36:52.000Z</time>
      </trkpt>
      <trkpt lat="49.18495" lon="1.53973">
        <ele>145</ele>
        <time>2021-03-28T11:36:55.000Z</time>
      </trkpt>
      <trkpt lat="49.18497" lon="1.53954">
        <ele>145</ele>
        <time>2021-03-28T11:36:58.000Z</time>
      </trkpt>
      <trkpt lat="49.18503" lon="1.53901">
        <ele>144.80000305176</ele>
        <time>2021-03-28T11:37:06.000Z</time>
      </trkpt>
      <trkpt lat="49.18507" lon="1.53857">
        <ele>144.39999389648</ele>
        <time>2021-03-28T11:37:13.000Z</time>
      </trkpt>
      <trkpt lat="49.18507" lon="1.53813">
        <ele>144.39999389648</ele>
        <time>2021-03-28T11:37:20.000Z</time>
      </trkpt>
      <trkpt lat="49.18502" lon="1.53772">
        <ele>144.39999389648</ele>
        <time>2021-03-28T11:37:27.000Z</time>
      </trkpt>
      <trkpt lat="49.18496" lon="1.53732">
        <ele>144.60000610352</ele>
        <time>2021-03-28T11:37:35.000Z</time>
      </trkpt>
      <trkpt lat="49.18494" lon="1.53737">
        <ele>144.80000305176</ele>
        <time>2021-03-28T11:37:37.000Z</time>
      </trkpt>
      <trkpt lat="49.18497" lon="1.53737">
        <ele>144.80000305176</ele>
        <time>2021-03-28T11:37:40.000Z</time>
      </trkpt>
      <trkpt lat="49.18496" lon="1.53728">
        <ele>145.19999694824</ele>
        <time>2021-03-28T11:37:42.000Z</time>
      </trkpt>
      <trkpt lat="49.18494" lon="1.53716">
        <ele>145.19999694824</ele>
        <time>2021-03-28T11:37:44.000Z</time>
      </trkpt>
      <trkpt lat="49.18493" lon="1.53678">
        <ele>145.39999389648</ele>
        <time>2021-03-28T11:37:51.000Z</time>
      </trkpt>
      <trkpt lat="49.18491" lon="1.53631">
        <ele>145.39999389648</ele>
        <time>2021-03-28T11:38:00.000Z</time>
      </trkpt>
      <trkpt lat="49.18491" lon="1.53627">
        <ele>145.60000610352</ele>
        <time>2021-03-28T11:38:01.000Z</time>
      </trkpt>
      <trkpt lat="49.18489" lon="1.53598">
        <ele>145.60000610352</ele>
        <time>2021-03-28T11:38:07.000Z</time>
      </trkpt>
      <trkpt lat="49.18486" lon="1.53556">
        <ele>146.19999694824</ele>
        <time>2021-03-28T11:38:15.000Z</time>
      </trkpt>
      <trkpt lat="49.18483" lon="1.53517">
        <ele>146.19999694824</ele>
        <time>2021-03-28T11:38:22.000Z</time>
      </trkpt>
      <trkpt lat="49.1848" lon="1.53476">
        <ele>146.39999389648</ele>
        <time>2021-03-28T11:38:29.000Z</time>
      </trkpt>
      <trkpt lat="49.18479" lon="1.53464">
        <ele>146.60000610352</ele>
        <time>2021-03-28T11:38:31.000Z</time>
      </trkpt>
      <trkpt lat="49.18475" lon="1.53424">
        <ele>147.19999694824</ele>
        <time>2021-03-28T11:38:38.000Z</time>
      </trkpt>
      <trkpt lat="49.18472" lon="1.53401">
        <ele>147.60000610352</ele>
        <time>2021-03-28T11:38:42.000Z</time>
      </trkpt>
      <trkpt lat="49.18469" lon="1.53379">
        <ele>148.19999694824</ele>
        <time>2021-03-28T11:38:46.000Z</time>
      </trkpt>
      <trkpt lat="49.18462" lon="1.53352">
        <ele>148.60000610352</ele>
        <time>2021-03-28T11:38:51.000Z</time>
      </trkpt>
      <trkpt lat="49.18457" lon="1.53336">
        <ele>149</ele>
        <time>2021-03-28T11:38:54.000Z</time>
      </trkpt>
      <trkpt lat="49.18437" lon="1.53289">
        <ele>149.39999389648</ele>
        <time>2021-03-28T11:39:03.000Z</time>
      </trkpt>
      <trkpt lat="49.18421" lon="1.53237">
        <ele>149.19999694824</ele>
        <time>2021-03-28T11:39:12.000Z</time>
      </trkpt>
      <trkpt lat="49.18417" lon="1.53205">
        <ele>149.19999694824</ele>
        <time>2021-03-28T11:39:18.000Z</time>
      </trkpt>
      <trkpt lat="49.18418" lon="1.53186">
        <ele>149.60000610352</ele>
        <time>2021-03-28T11:39:23.000Z</time>
      </trkpt>
      <trkpt lat="49.18419" lon="1.53175">
        <ele>150.80000305176</ele>
        <time>2021-03-28T11:39:27.000Z</time>
      </trkpt>
      <trkpt lat="49.1842" lon="1.53172">
        <ele>151</ele>
        <time>2021-03-28T11:39:29.000Z</time>
      </trkpt>
      <trkpt lat="49.18421" lon="1.53165">
        <ele>151.60000610352</ele>
        <time>2021-03-28T11:39:35.000Z</time>
      </trkpt>
      <trkpt lat="49.18421" lon="1.53161">
        <ele>151.19999694824</ele>
        <time>2021-03-28T11:39:56.000Z</time>
      </trkpt>
      <trkpt lat="49.18421" lon="1.53153">
        <ele>151.19999694824</ele>
        <time>2021-03-28T11:39:58.000Z</time>
      </trkpt>
      <trkpt lat="49.18423" lon="1.53116">
        <ele>150.80000305176</ele>
        <time>2021-03-28T11:40:04.000Z</time>
      </trkpt>
      <trkpt lat="49.18425" lon="1.53075">
        <ele>150</ele>
        <time>2021-03-28T11:40:11.000Z</time>
      </trkpt>
      <trkpt lat="49.18425" lon="1.53069">
        <ele>150</ele>
        <time>2021-03-28T11:40:12.000Z</time>
      </trkpt>
      <trkpt lat="49.18427" lon="1.53027">
        <ele>149.60000610352</ele>
        <time>2021-03-28T11:40:19.000Z</time>
      </trkpt>
      <trkpt lat="49.18429" lon="1.52976">
        <ele>149.39999389648</ele>
        <time>2021-03-28T11:40:28.000Z</time>
      </trkpt>
      <trkpt lat="49.18432" lon="1.52917">
        <ele>149.39999389648</ele>
        <time>2021-03-28T11:40:38.000Z</time>
      </trkpt>
      <trkpt lat="49.18435" lon="1.52866">
        <ele>150</ele>
        <time>2021-03-28T11:40:47.000Z</time>
      </trkpt>
      <trkpt lat="49.18436" lon="1.52829">
        <ele>150.39999389648</ele>
        <time>2021-03-28T11:40:54.000Z</time>
      </trkpt>
      <trkpt lat="49.18438" lon="1.52791">
        <ele>150.60000610352</ele>
        <time>2021-03-28T11:41:01.000Z</time>
      </trkpt>
      <trkpt lat="49.18441" lon="1.5274">
        <ele>150.60000610352</ele>
        <time>2021-03-28T11:41:10.000Z</time>
      </trkpt>
      <trkpt lat="49.18442" lon="1.52703">
        <ele>150.60000610352</ele>
        <time>2021-03-28T11:41:17.000Z</time>
      </trkpt>
      <trkpt lat="49.18444" lon="1.52667">
        <ele>150.39999389648</ele>
        <time>2021-03-28T11:41:24.000Z</time>
      </trkpt>
      <trkpt lat="49.18446" lon="1.52617">
        <ele>150</ele>
        <time>2021-03-28T11:41:33.000Z</time>
      </trkpt>
      <trkpt lat="49.18447" lon="1.52581">
        <ele>149.60000610352</ele>
        <time>2021-03-28T11:41:39.000Z</time>
      </trkpt>
      <trkpt lat="49.18449" lon="1.52545">
        <ele>149.60000610352</ele>
        <time>2021-03-28T11:41:45.000Z</time>
      </trkpt>
      <trkpt lat="49.18451" lon="1.52501">
        <ele>150</ele>
        <time>2021-03-28T11:41:52.000Z</time>
      </trkpt>
      <trkpt lat="49.18455" lon="1.52431">
        <ele>149.80000305176</ele>
        <time>2021-03-28T11:42:03.000Z</time>
      </trkpt>
      <trkpt lat="49.18459" lon="1.52394">
        <ele>149.60000610352</ele>
        <time>2021-03-28T11:42:10.000Z</time>
      </trkpt>
      <trkpt lat="49.18465" lon="1.52356">
        <ele>149.80000305176</ele>
        <time>2021-03-28T11:42:17.000Z</time>
      </trkpt>
      <trkpt lat="49.18471" lon="1.52329">
        <ele>149.80000305176</ele>
        <time>2021-03-28T11:42:22.000Z</time>
      </trkpt>
      <trkpt lat="49.1848" lon="1.52292">
        <ele>149.60000610352</ele>
        <time>2021-03-28T11:42:29.000Z</time>
      </trkpt>
      <trkpt lat="49.18491" lon="1.52249">
        <ele>149.19999694824</ele>
        <time>2021-03-28T11:42:37.000Z</time>
      </trkpt>
      <trkpt lat="49.185" lon="1.52212">
        <ele>149.19999694824</ele>
        <time>2021-03-28T11:42:44.000Z</time>
      </trkpt>
      <trkpt lat="49.18503" lon="1.52201">
        <ele>149.19999694824</ele>
        <time>2021-03-28T11:42:46.000Z</time>
      </trkpt>
      <trkpt lat="49.18504" lon="1.52195">
        <ele>149.19999694824</ele>
        <time>2021-03-28T11:42:47.000Z</time>
      </trkpt>
      <trkpt lat="49.1851" lon="1.52172">
        <ele>149</ele>
        <time>2021-03-28T11:42:51.000Z</time>
      </trkpt>
      <trkpt lat="49.18525" lon="1.52111">
        <ele>149.19999694824</ele>
        <time>2021-03-28T11:43:01.000Z</time>
      </trkpt>
      <trkpt lat="49.18541" lon="1.52049">
        <ele>150</ele>
        <time>2021-03-28T11:43:11.000Z</time>
      </trkpt>
      <trkpt lat="49.18546" lon="1.52024">
        <ele>150.19999694824</ele>
        <time>2021-03-28T11:43:15.000Z</time>
      </trkpt>
      <trkpt lat="49.18556" lon="1.51986">
        <ele>150.39999389648</ele>
        <time>2021-03-28T11:43:21.000Z</time>
      </trkpt>
      <trkpt lat="49.18559" lon="1.51974">
        <ele>150.39999389648</ele>
        <time>2021-03-28T11:43:23.000Z</time>
      </trkpt>
      <trkpt lat="49.18566" lon="1.51949">
        <ele>150.60000610352</ele>
        <time>2021-03-28T11:43:27.000Z</time>
      </trkpt>
      <trkpt lat="49.18577" lon="1.51899">
        <ele>151</ele>
        <time>2021-03-28T11:43:35.000Z</time>
      </trkpt>
      <trkpt lat="49.18586" lon="1.5186">
        <ele>151.19999694824</ele>
        <time>2021-03-28T11:43:41.000Z</time>
      </trkpt>
      <trkpt lat="49.18591" lon="1.5184">
        <ele>151.39999389648</ele>
        <time>2021-03-28T11:43:44.000Z</time>
      </trkpt>
      <trkpt lat="49.18609" lon="1.51766">
        <ele>151.60000610352</ele>
        <time>2021-03-28T11:43:55.000Z</time>
      </trkpt>
      <trkpt lat="49.18627" lon="1.51688">
        <ele>152</ele>
        <time>2021-03-28T11:44:06.000Z</time>
      </trkpt>
      <trkpt lat="49.18632" lon="1.51652">
        <ele>152.19999694824</ele>
        <time>2021-03-28T11:44:11.000Z</time>
      </trkpt>
      <trkpt lat="49.18633" lon="1.51638">
        <ele>152.39999389648</ele>
        <time>2021-03-28T11:44:13.000Z</time>
      </trkpt>
      <trkpt lat="49.18634" lon="1.5163">
        <ele>152.39999389648</ele>
        <time>2021-03-28T11:44:14.000Z</time>
      </trkpt>
      <trkpt lat="49.18638" lon="1.51579">
        <ele>152.80000305176</ele>
        <time>2021-03-28T11:44:21.000Z</time>
      </trkpt>
      <trkpt lat="49.18645" lon="1.51496">
        <ele>153.19999694824</ele>
        <time>2021-03-28T11:44:32.000Z</time>
      </trkpt>
      <trkpt lat="49.18652" lon="1.51422">
        <ele>153.19999694824</ele>
        <time>2021-03-28T11:44:42.000Z</time>
      </trkpt>
      <trkpt lat="49.18653" lon="1.51407">
        <ele>153.39999389648</ele>
        <time>2021-03-28T11:44:44.000Z</time>
      </trkpt>
      <trkpt lat="49.18659" lon="1.5134">
        <ele>153.60000610352</ele>
        <time>2021-03-28T11:44:53.000Z</time>
      </trkpt>
      <trkpt lat="49.18665" lon="1.51272">
        <ele>152.80000305176</ele>
        <time>2021-03-28T11:45:02.000Z</time>
      </trkpt>
      <trkpt lat="49.18671" lon="1.51203">
        <ele>152.19999694824</ele>
        <time>2021-03-28T11:45:11.000Z</time>
      </trkpt>
      <trkpt lat="49.18673" lon="1.51181">
        <ele>152</ele>
        <time>2021-03-28T11:45:14.000Z</time>
      </trkpt>
      <trkpt lat="49.1868" lon="1.51111">
        <ele>151.80000305176</ele>
        <time>2021-03-28T11:45:23.000Z</time>
      </trkpt>
      <trkpt lat="49.18688" lon="1.51024">
        <ele>152</ele>
        <time>2021-03-28T11:45:34.000Z</time>
      </trkpt>
      <trkpt lat="49.18689" lon="1.51009">
        <ele>152</ele>
        <time>2021-03-28T11:45:36.000Z</time>
      </trkpt>
      <trkpt lat="49.18695" lon="1.50946">
        <ele>151.39999389648</ele>
        <time>2021-03-28T11:45:44.000Z</time>
      </trkpt>
      <trkpt lat="49.18698" lon="1.50908">
        <ele>151.19999694824</ele>
        <time>2021-03-28T11:45:49.000Z</time>
      </trkpt>
      <trkpt lat="49.18699" lon="1.50893">
        <ele>151.19999694824</ele>
        <time>2021-03-28T11:45:51.000Z</time>
      </trkpt>
      <trkpt lat="49.18706" lon="1.50818">
        <ele>150.80000305176</ele>
        <time>2021-03-28T11:46:01.000Z</time>
      </trkpt>
      <trkpt lat="49.18713" lon="1.50736">
        <ele>150.80000305176</ele>
        <time>2021-03-28T11:46:12.000Z</time>
      </trkpt>
      <trkpt lat="49.18719" lon="1.50669">
        <ele>151.80000305176</ele>
        <time>2021-03-28T11:46:21.000Z</time>
      </trkpt>
      <trkpt lat="49.18725" lon="1.50602">
        <ele>152.19999694824</ele>
        <time>2021-03-28T11:46:30.000Z</time>
      </trkpt>
      <trkpt lat="49.18725" lon="1.50594">
        <ele>152.39999389648</ele>
        <time>2021-03-28T11:46:31.000Z</time>
      </trkpt>
      <trkpt lat="49.18726" lon="1.50579">
        <ele>152.60000610352</ele>
        <time>2021-03-28T11:46:33.000Z</time>
      </trkpt>
      <trkpt lat="49.18729" lon="1.50555">
        <ele>153</ele>
        <time>2021-03-28T11:46:36.000Z</time>
      </trkpt>
      <trkpt lat="49.18732" lon="1.50524">
        <ele>153.39999389648</ele>
        <time>2021-03-28T11:46:40.000Z</time>
      </trkpt>
      <trkpt lat="49.18733" lon="1.50517">
        <ele>153.39999389648</ele>
        <time>2021-03-28T11:46:41.000Z</time>
      </trkpt>
      <trkpt lat="49.18737" lon="1.50466">
        <ele>153.60000610352</ele>
        <time>2021-03-28T11:46:48.000Z</time>
      </trkpt>
      <trkpt lat="49.18744" lon="1.50389">
        <ele>153.60000610352</ele>
        <time>2021-03-28T11:46:58.000Z</time>
      </trkpt>
      <trkpt lat="49.18751" lon="1.50311">
        <ele>153.80000305176</ele>
        <time>2021-03-28T11:47:08.000Z</time>
      </trkpt>
      <trkpt lat="49.18758" lon="1.50235">
        <ele>153.80000305176</ele>
        <time>2021-03-28T11:47:18.000Z</time>
      </trkpt>
      <trkpt lat="49.18765" lon="1.50161">
        <ele>154</ele>
        <time>2021-03-28T11:47:28.000Z</time>
      </trkpt>
      <trkpt lat="49.18769" lon="1.50145">
        <ele>154.19999694824</ele>
        <time>2021-03-28T11:47:31.000Z</time>
      </trkpt>
      <trkpt lat="49.1877" lon="1.50143">
        <ele>154</ele>
        <time>2021-03-28T11:47:32.000Z</time>
      </trkpt>
      <trkpt lat="49.18771" lon="1.50141">
        <ele>154.80000305176</ele>
        <time>2021-03-28T11:47:35.000Z</time>
      </trkpt>
      <trkpt lat="49.18771" lon="1.50142">
        <ele>157.19999694824</ele>
        <time>2021-03-28T11:53:02.000Z</time>
      </trkpt>
      <trkpt lat="49.18769" lon="1.50125">
        <ele>157.19999694824</ele>
        <time>2021-03-28T11:53:06.000Z</time>
      </trkpt>
      <trkpt lat="49.18772" lon="1.50084">
        <ele>156</ele>
        <time>2021-03-28T11:53:13.000Z</time>
      </trkpt>
      <trkpt lat="49.18777" lon="1.50029">
        <ele>155.39999389648</ele>
        <time>2021-03-28T11:53:22.000Z</time>
      </trkpt>
      <trkpt lat="49.18781" lon="1.49974">
        <ele>156.19999694824</ele>
        <time>2021-03-28T11:53:31.000Z</time>
      </trkpt>
      <trkpt lat="49.18785" lon="1.4993">
        <ele>156.39999389648</ele>
        <time>2021-03-28T11:53:38.000Z</time>
      </trkpt>
      <trkpt lat="49.18791" lon="1.49869">
        <ele>156.60000610352</ele>
        <time>2021-03-28T11:53:47.000Z</time>
      </trkpt>
      <trkpt lat="49.18792" lon="1.49856">
        <ele>156.80000305176</ele>
        <time>2021-03-28T11:53:49.000Z</time>
      </trkpt>
      <trkpt lat="49.18794" lon="1.49831">
        <ele>157</ele>
        <time>2021-03-28T11:53:53.000Z</time>
      </trkpt>
      <trkpt lat="49.18795" lon="1.4982">
        <ele>157.19999694824</ele>
        <time>2021-03-28T11:53:55.000Z</time>
      </trkpt>
      <trkpt lat="49.18793" lon="1.49803">
        <ele>157.60000610352</ele>
        <time>2021-03-28T11:53:58.000Z</time>
      </trkpt>
      <trkpt lat="49.18789" lon="1.49784">
        <ele>158.19999694824</ele>
        <time>2021-03-28T11:54:01.000Z</time>
      </trkpt>
      <trkpt lat="49.18783" lon="1.49759">
        <ele>158.39999389648</ele>
        <time>2021-03-28T11:54:05.000Z</time>
      </trkpt>
      <trkpt lat="49.18773" lon="1.49713">
        <ele>158.39999389648</ele>
        <time>2021-03-28T11:54:12.000Z</time>
      </trkpt>
      <trkpt lat="49.18772" lon="1.49707">
        <ele>158.19999694824</ele>
        <time>2021-03-28T11:54:13.000Z</time>
      </trkpt>
      <trkpt lat="49.18767" lon="1.49655">
        <ele>158</ele>
        <time>2021-03-28T11:54:20.000Z</time>
      </trkpt>
      <trkpt lat="49.18765" lon="1.49628">
        <ele>158</ele>
        <time>2021-03-28T11:54:24.000Z</time>
      </trkpt>
      <trkpt lat="49.18765" lon="1.49622">
        <ele>158</ele>
        <time>2021-03-28T11:54:25.000Z</time>
      </trkpt>
      <trkpt lat="49.18762" lon="1.49595">
        <ele>158.19999694824</ele>
        <time>2021-03-28T11:54:29.000Z</time>
      </trkpt>
      <trkpt lat="49.18758" lon="1.49583">
        <ele>158.19999694824</ele>
        <time>2021-03-28T11:54:31.000Z</time>
      </trkpt>
      <trkpt lat="49.18746" lon="1.4955">
        <ele>158</ele>
        <time>2021-03-28T11:54:38.000Z</time>
      </trkpt>
      <trkpt lat="49.18739" lon="1.49534">
        <ele>158</ele>
        <time>2021-03-28T11:54:43.000Z</time>
      </trkpt>
      <trkpt lat="49.18736" lon="1.49527">
        <ele>158</ele>
        <time>2021-03-28T11:54:45.000Z</time>
      </trkpt>
      <trkpt lat="49.18734" lon="1.49517">
        <ele>157.80000305176</ele>
        <time>2021-03-28T11:54:47.000Z</time>
      </trkpt>
      <trkpt lat="49.18722" lon="1.49477">
        <ele>157.60000610352</ele>
        <time>2021-03-28T11:54:55.000Z</time>
      </trkpt>
      <trkpt lat="49.18713" lon="1.49457">
        <ele>157.19999694824</ele>
        <time>2021-03-28T11:54:59.000Z</time>
      </trkpt>
      <trkpt lat="49.18707" lon="1.49442">
        <ele>157</ele>
        <time>2021-03-28T11:55:02.000Z</time>
      </trkpt>
      <trkpt lat="49.18687" lon="1.49398">
        <ele>157</ele>
        <time>2021-03-28T11:55:10.000Z</time>
      </trkpt>
      <trkpt lat="49.18665" lon="1.49348">
        <ele>157.19999694824</ele>
        <time>2021-03-28T11:55:19.000Z</time>
      </trkpt>
      <trkpt lat="49.18646" lon="1.49302">
        <ele>157.19999694824</ele>
        <time>2021-03-28T11:55:27.000Z</time>
      </trkpt>
      <trkpt lat="49.18639" lon="1.49283">
        <ele>157.39999389648</ele>
        <time>2021-03-28T11:55:30.000Z</time>
      </trkpt>
      <trkpt lat="49.18621" lon="1.49232">
        <ele>157.39999389648</ele>
        <time>2021-03-28T11:55:38.000Z</time>
      </trkpt>
      <trkpt lat="49.18607" lon="1.49185">
        <ele>157.19999694824</ele>
        <time>2021-03-28T11:55:45.000Z</time>
      </trkpt>
      <trkpt lat="49.18601" lon="1.49166">
        <ele>156.80000305176</ele>
        <time>2021-03-28T11:55:48.000Z</time>
      </trkpt>
      <trkpt lat="49.18595" lon="1.4914">
        <ele>157</ele>
        <time>2021-03-28T11:55:52.000Z</time>
      </trkpt>
      <trkpt lat="49.18591" lon="1.4912">
        <ele>156.80000305176</ele>
        <time>2021-03-28T11:55:55.000Z</time>
      </trkpt>
      <trkpt lat="49.18593" lon="1.49107">
        <ele>156.60000610352</ele>
        <time>2021-03-28T11:55:57.000Z</time>
      </trkpt>
      <trkpt lat="49.18603" lon="1.49094">
        <ele>156.60000610352</ele>
        <time>2021-03-28T11:56:00.000Z</time>
      </trkpt>
      <trkpt lat="49.18606" lon="1.4909">
        <ele>156.60000610352</ele>
        <time>2021-03-28T11:56:01.000Z</time>
      </trkpt>
      <trkpt lat="49.18614" lon="1.49083">
        <ele>156.60000610352</ele>
        <time>2021-03-28T11:56:03.000Z</time>
      </trkpt>
      <trkpt lat="49.18629" lon="1.49079">
        <ele>156.60000610352</ele>
        <time>2021-03-28T11:56:06.000Z</time>
      </trkpt>
      <trkpt lat="49.18638" lon="1.49074">
        <ele>156.60000610352</ele>
        <time>2021-03-28T11:56:08.000Z</time>
      </trkpt>
      <trkpt lat="49.18642" lon="1.4907">
        <ele>156.60000610352</ele>
        <time>2021-03-28T11:56:09.000Z</time>
      </trkpt>
      <trkpt lat="49.18643" lon="1.49064">
        <ele>156.80000305176</ele>
        <time>2021-03-28T11:56:10.000Z</time>
      </trkpt>
      <trkpt lat="49.18636" lon="1.4905">
        <ele>157.19999694824</ele>
        <time>2021-03-28T11:56:13.000Z</time>
      </trkpt>
      <trkpt lat="49.1862" lon="1.49036">
        <ele>157.19999694824</ele>
        <time>2021-03-28T11:56:17.000Z</time>
      </trkpt>
      <trkpt lat="49.18616" lon="1.49031">
        <ele>157.19999694824</ele>
        <time>2021-03-28T11:56:18.000Z</time>
      </trkpt>
      <trkpt lat="49.1861" lon="1.49021">
        <ele>157.19999694824</ele>
        <time>2021-03-28T11:56:20.000Z</time>
      </trkpt>
      <trkpt lat="49.18608" lon="1.49007">
        <ele>157.19999694824</ele>
        <time>2021-03-28T11:56:22.000Z</time>
      </trkpt>
      <trkpt lat="49.18611" lon="1.48985">
        <ele>156.60000610352</ele>
        <time>2021-03-28T11:56:25.000Z</time>
      </trkpt>
      <trkpt lat="49.18613" lon="1.48978">
        <ele>156.39999389648</ele>
        <time>2021-03-28T11:56:26.000Z</time>
      </trkpt>
      <trkpt lat="49.18614" lon="1.48971">
        <ele>156.39999389648</ele>
        <time>2021-03-28T11:56:27.000Z</time>
      </trkpt>
      <trkpt lat="49.18624" lon="1.48919">
        <ele>155.19999694824</ele>
        <time>2021-03-28T11:56:34.000Z</time>
      </trkpt>
      <trkpt lat="49.18629" lon="1.48897">
        <ele>155.19999694824</ele>
        <time>2021-03-28T11:56:37.000Z</time>
      </trkpt>
      <trkpt lat="49.18648" lon="1.48824">
        <ele>155.19999694824</ele>
        <time>2021-03-28T11:56:47.000Z</time>
      </trkpt>
      <trkpt lat="49.18664" lon="1.48759">
        <ele>155.39999389648</ele>
        <time>2021-03-28T11:56:56.000Z</time>
      </trkpt>
      <trkpt lat="49.18677" lon="1.48705">
        <ele>155.19999694824</ele>
        <time>2021-03-28T11:57:03.000Z</time>
      </trkpt>
      <trkpt lat="49.18694" lon="1.48621">
        <ele>154.39999389648</ele>
        <time>2021-03-28T11:57:14.000Z</time>
      </trkpt>
      <trkpt lat="49.18695" lon="1.48613">
        <ele>154.19999694824</ele>
        <time>2021-03-28T11:57:15.000Z</time>
      </trkpt>
      <trkpt lat="49.18702" lon="1.4856">
        <ele>153.39999389648</ele>
        <time>2021-03-28T11:57:22.000Z</time>
      </trkpt>
      <trkpt lat="49.18703" lon="1.48546">
        <ele>153.19999694824</ele>
        <time>2021-03-28T11:57:24.000Z</time>
      </trkpt>
      <trkpt lat="49.18707" lon="1.48508">
        <ele>152.39999389648</ele>
        <time>2021-03-28T11:57:29.000Z</time>
      </trkpt>
      <trkpt lat="49.18709" lon="1.48493">
        <ele>152.19999694824</ele>
        <time>2021-03-28T11:57:31.000Z</time>
      </trkpt>
      <trkpt lat="49.18716" lon="1.48417">
        <ele>151.80000305176</ele>
        <time>2021-03-28T11:57:41.000Z</time>
      </trkpt>
      <trkpt lat="49.18724" lon="1.48347">
        <ele>152</ele>
        <time>2021-03-28T11:57:50.000Z</time>
      </trkpt>
      <trkpt lat="49.18727" lon="1.48315">
        <ele>152</ele>
        <time>2021-03-28T11:57:54.000Z</time>
      </trkpt>
      <trkpt lat="49.1873" lon="1.48281">
        <ele>152</ele>
        <time>2021-03-28T11:57:58.000Z</time>
      </trkpt>
      <trkpt lat="49.18739" lon="1.48202">
        <ele>151.80000305176</ele>
        <time>2021-03-28T11:58:07.000Z</time>
      </trkpt>
      <trkpt lat="49.18749" lon="1.48137">
        <ele>151.60000610352</ele>
        <time>2021-03-28T11:58:14.000Z</time>
      </trkpt>
      <trkpt lat="49.18762" lon="1.48082">
        <ele>151.19999694824</ele>
        <time>2021-03-28T11:58:20.000Z</time>
      </trkpt>
      <trkpt lat="49.1877" lon="1.48054">
        <ele>150.80000305176</ele>
        <time>2021-03-28T11:58:23.000Z</time>
      </trkpt>
      <trkpt lat="49.18785" lon="1.47998">
        <ele>150.19999694824</ele>
        <time>2021-03-28T11:58:29.000Z</time>
      </trkpt>
      <trkpt lat="49.18804" lon="1.47932">
        <ele>149.19999694824</ele>
        <time>2021-03-28T11:58:36.000Z</time>
      </trkpt>
      <trkpt lat="49.18809" lon="1.47913">
        <ele>149</ele>
        <time>2021-03-28T11:58:38.000Z</time>
      </trkpt>
      <trkpt lat="49.18828" lon="1.47844">
        <ele>148.80000305176</ele>
        <time>2021-03-28T11:58:45.000Z</time>
      </trkpt>
      <trkpt lat="49.1885" lon="1.4776">
        <ele>148</ele>
        <time>2021-03-28T11:58:53.000Z</time>
      </trkpt>
      <trkpt lat="49.18853" lon="1.4775">
        <ele>148</ele>
        <time>2021-03-28T11:58:54.000Z</time>
      </trkpt>
      <trkpt lat="49.18873" lon="1.47666">
        <ele>147.60000610352</ele>
        <time>2021-03-28T11:59:02.000Z</time>
      </trkpt>
      <trkpt lat="49.18879" lon="1.47589">
        <ele>147.19999694824</ele>
        <time>2021-03-28T11:59:09.000Z</time>
      </trkpt>
      <trkpt lat="49.18874" lon="1.47512">
        <ele>147.19999694824</ele>
        <time>2021-03-28T11:59:16.000Z</time>
      </trkpt>
      <trkpt lat="49.18873" lon="1.47501">
        <ele>147</ele>
        <time>2021-03-28T11:59:17.000Z</time>
      </trkpt>
      <trkpt lat="49.18864" lon="1.47427">
        <ele>146</ele>
        <time>2021-03-28T11:59:24.000Z</time>
      </trkpt>
      <trkpt lat="49.18862" lon="1.47417">
        <ele>145.80000305176</ele>
        <time>2021-03-28T11:59:25.000Z</time>
      </trkpt>
      <trkpt lat="49.18851" lon="1.47335">
        <ele>145.39999389648</ele>
        <time>2021-03-28T11:59:33.000Z</time>
      </trkpt>
      <trkpt lat="49.18848" lon="1.47288">
        <ele>144.80000305176</ele>
        <time>2021-03-28T11:59:38.000Z</time>
      </trkpt>
      <trkpt lat="49.18848" lon="1.4728">
        <ele>144.80000305176</ele>
        <time>2021-03-28T11:59:39.000Z</time>
      </trkpt>
      <trkpt lat="49.1885" lon="1.47265">
        <ele>144.60000610352</ele>
        <time>2021-03-28T11:59:41.000Z</time>
      </trkpt>
      <trkpt lat="49.18856" lon="1.47243">
        <ele>144.39999389648</ele>
        <time>2021-03-28T11:59:44.000Z</time>
      </trkpt>
      <trkpt lat="49.18874" lon="1.47206">
        <ele>144.39999389648</ele>
        <time>2021-03-28T11:59:50.000Z</time>
      </trkpt>
      <trkpt lat="49.18884" lon="1.47187">
        <ele>144.19999694824</ele>
        <time>2021-03-28T11:59:53.000Z</time>
      </trkpt>
      <trkpt lat="49.18887" lon="1.47172">
        <ele>144.19999694824</ele>
        <time>2021-03-28T11:59:55.000Z</time>
      </trkpt>
      <trkpt lat="49.18884" lon="1.47152">
        <ele>143.80000305176</ele>
        <time>2021-03-28T11:59:58.000Z</time>
      </trkpt>
      <trkpt lat="49.18881" lon="1.47147">
        <ele>143.80000305176</ele>
        <time>2021-03-28T11:59:59.000Z</time>
      </trkpt>
      <trkpt lat="49.18878" lon="1.47143">
        <ele>143.80000305176</ele>
        <time>2021-03-28T12:00:00.000Z</time>
      </trkpt>
      <trkpt lat="49.18875" lon="1.47138">
        <ele>143.80000305176</ele>
        <time>2021-03-28T12:00:01.000Z</time>
      </trkpt>
      <trkpt lat="49.18868" lon="1.4713">
        <ele>143.60000610352</ele>
        <time>2021-03-28T12:00:03.000Z</time>
      </trkpt>
      <trkpt lat="49.18854" lon="1.47112">
        <ele>142.80000305176</ele>
        <time>2021-03-28T12:00:07.000Z</time>
      </trkpt>
      <trkpt lat="49.18833" lon="1.47087">
        <ele>142.39999389648</ele>
        <time>2021-03-28T12:00:12.000Z</time>
      </trkpt>
      <trkpt lat="49.18821" lon="1.47072">
        <ele>141.80000305176</ele>
        <time>2021-03-28T12:00:15.000Z</time>
      </trkpt>
      <trkpt lat="49.18813" lon="1.47063">
        <ele>141.80000305176</ele>
        <time>2021-03-28T12:00:17.000Z</time>
      </trkpt>
      <trkpt lat="49.18806" lon="1.47054">
        <ele>141.60000610352</ele>
        <time>2021-03-28T12:00:19.000Z</time>
      </trkpt>
      <trkpt lat="49.18793" lon="1.47033">
        <ele>141.39999389648</ele>
        <time>2021-03-28T12:00:24.000Z</time>
      </trkpt>
      <trkpt lat="49.18793" lon="1.47012">
        <ele>141.39999389648</ele>
        <time>2021-03-28T12:00:28.000Z</time>
      </trkpt>
      <trkpt lat="49.18807" lon="1.46985">
        <ele>141.80000305176</ele>
        <time>2021-03-28T12:00:34.000Z</time>
      </trkpt>
      <trkpt lat="49.1882" lon="1.46963">
        <ele>142.60000610352</ele>
        <time>2021-03-28T12:00:39.000Z</time>
      </trkpt>
      <trkpt lat="49.1883" lon="1.46944">
        <ele>143.39999389648</ele>
        <time>2021-03-28T12:00:43.000Z</time>
      </trkpt>
      <trkpt lat="49.18833" lon="1.4694">
        <ele>143.80000305176</ele>
        <time>2021-03-28T12:00:44.000Z</time>
      </trkpt>
      <trkpt lat="49.18854" lon="1.46907">
        <ele>144.80000305176</ele>
        <time>2021-03-28T12:00:51.000Z</time>
      </trkpt>
      <trkpt lat="49.18857" lon="1.46903">
        <ele>144.80000305176</ele>
        <time>2021-03-28T12:00:52.000Z</time>
      </trkpt>
      <trkpt lat="49.18881" lon="1.46873">
        <ele>146</ele>
        <time>2021-03-28T12:00:59.000Z</time>
      </trkpt>
      <trkpt lat="49.18885" lon="1.46869">
        <ele>146.39999389648</ele>
        <time>2021-03-28T12:01:00.000Z</time>
      </trkpt>
      <trkpt lat="49.18892" lon="1.46862">
        <ele>147</ele>
        <time>2021-03-28T12:01:02.000Z</time>
      </trkpt>
      <trkpt lat="49.18917" lon="1.46839">
        <ele>147.60000610352</ele>
        <time>2021-03-28T12:01:08.000Z</time>
      </trkpt>
      <trkpt lat="49.18943" lon="1.46814">
        <ele>148</ele>
        <time>2021-03-28T12:01:14.000Z</time>
      </trkpt>
      <trkpt lat="49.18959" lon="1.46796">
        <ele>148.39999389648</ele>
        <time>2021-03-28T12:01:18.000Z</time>
      </trkpt>
      <trkpt lat="49.18981" lon="1.46769">
        <ele>148.60000610352</ele>
        <time>2021-03-28T12:01:24.000Z</time>
      </trkpt>
      <trkpt lat="49.18987" lon="1.4676">
        <ele>148.60000610352</ele>
        <time>2021-03-28T12:01:26.000Z</time>
      </trkpt>
      <trkpt lat="49.18997" lon="1.46737">
        <ele>149</ele>
        <time>2021-03-28T12:01:30.000Z</time>
      </trkpt>
      <trkpt lat="49.19" lon="1.46731">
        <ele>149.19999694824</ele>
        <time>2021-03-28T12:01:31.000Z</time>
      </trkpt>
      <trkpt lat="49.19011" lon="1.46694">
        <ele>149.80000305176</ele>
        <time>2021-03-28T12:01:37.000Z</time>
      </trkpt>
      <trkpt lat="49.19025" lon="1.46652">
        <ele>149.80000305176</ele>
        <time>2021-03-28T12:01:44.000Z</time>
      </trkpt>
      <trkpt lat="49.19037" lon="1.4661">
        <ele>149.39999389648</ele>
        <time>2021-03-28T12:01:51.000Z</time>
      </trkpt>
      <trkpt lat="49.19047" lon="1.46571">
        <ele>149.39999389648</ele>
        <time>2021-03-28T12:01:58.000Z</time>
      </trkpt>
      <trkpt lat="49.19053" lon="1.46539">
        <ele>149.19999694824</ele>
        <time>2021-03-28T12:02:04.000Z</time>
      </trkpt>
      <trkpt lat="49.19062" lon="1.46499">
        <ele>148.80000305176</ele>
        <time>2021-03-28T12:02:11.000Z</time>
      </trkpt>
      <trkpt lat="49.19063" lon="1.46494">
        <ele>148.80000305176</ele>
        <time>2021-03-28T12:02:15.000Z</time>
      </trkpt>
      <trkpt lat="49.19061" lon="1.46493">
        <ele>150.19999694824</ele>
        <time>2021-03-28T12:06:57.000Z</time>
      </trkpt>
      <trkpt lat="49.19063" lon="1.46485">
        <ele>150</ele>
        <time>2021-03-28T12:07:00.000Z</time>
      </trkpt>
      <trkpt lat="49.19063" lon="1.46477">
        <ele>149.80000305176</ele>
        <time>2021-03-28T12:07:02.000Z</time>
      </trkpt>
      <trkpt lat="49.19061" lon="1.46473">
        <ele>149.80000305176</ele>
        <time>2021-03-28T12:07:03.000Z</time>
      </trkpt>
      <trkpt lat="49.19047" lon="1.46468">
        <ele>149.80000305176</ele>
        <time>2021-03-28T12:07:07.000Z</time>
      </trkpt>
      <trkpt lat="49.19043" lon="1.46467">
        <ele>149.80000305176</ele>
        <time>2021-03-28T12:07:08.000Z</time>
      </trkpt>
      <trkpt lat="49.19027" lon="1.46463">
        <ele>149.80000305176</ele>
        <time>2021-03-28T12:07:13.000Z</time>
      </trkpt>
      <trkpt lat="49.19003" lon="1.46454">
        <ele>150</ele>
        <time>2021-03-28T12:07:19.000Z</time>
      </trkpt>
      <trkpt lat="49.18989" lon="1.46447">
        <ele>149.80000305176</ele>
        <time>2021-03-28T12:07:23.000Z</time>
      </trkpt>
      <trkpt lat="49.18961" lon="1.46438">
        <ele>149.80000305176</ele>
        <time>2021-03-28T12:07:30.000Z</time>
      </trkpt>
      <trkpt lat="49.18957" lon="1.46436">
        <ele>149.80000305176</ele>
        <time>2021-03-28T12:07:31.000Z</time>
      </trkpt>
      <trkpt lat="49.18926" lon="1.46424">
        <ele>149.39999389648</ele>
        <time>2021-03-28T12:07:39.000Z</time>
      </trkpt>
      <trkpt lat="49.18907" lon="1.46416">
        <ele>149</ele>
        <time>2021-03-28T12:07:44.000Z</time>
      </trkpt>
      <trkpt lat="49.189" lon="1.46414">
        <ele>148.60000610352</ele>
        <time>2021-03-28T12:07:46.000Z</time>
      </trkpt>
      <trkpt lat="49.18881" lon="1.46405">
        <ele>148.39999389648</ele>
        <time>2021-03-28T12:07:52.000Z</time>
      </trkpt>
      <trkpt lat="49.18875" lon="1.46392">
        <ele>148</ele>
        <time>2021-03-28T12:07:56.000Z</time>
      </trkpt>
      <trkpt lat="49.18875" lon="1.46387">
        <ele>148</ele>
        <time>2021-03-28T12:07:57.000Z</time>
      </trkpt>
      <trkpt lat="49.18877" lon="1.46364">
        <ele>147.80000305176</ele>
        <time>2021-03-28T12:08:03.000Z</time>
      </trkpt>
      <trkpt lat="49.1888" lon="1.46338">
        <ele>147.80000305176</ele>
        <time>2021-03-28T12:08:10.000Z</time>
      </trkpt>
      <trkpt lat="49.18885" lon="1.46305">
        <ele>147.80000305176</ele>
        <time>2021-03-28T12:08:17.000Z</time>
      </trkpt>
      <trkpt lat="49.18887" lon="1.46285">
        <ele>147</ele>
        <time>2021-03-28T12:08:21.000Z</time>
      </trkpt>
      <trkpt lat="49.18889" lon="1.46274">
        <ele>146.80000305176</ele>
        <time>2021-03-28T12:08:23.000Z</time>
      </trkpt>
      <trkpt lat="49.18893" lon="1.46238">
        <ele>146.60000610352</ele>
        <time>2021-03-28T12:08:30.000Z</time>
      </trkpt>
      <trkpt lat="49.189" lon="1.46187">
        <ele>146.19999694824</ele>
        <time>2021-03-28T12:08:39.000Z</time>
      </trkpt>
      <trkpt lat="49.18905" lon="1.46144">
        <ele>146</ele>
        <time>2021-03-28T12:08:46.000Z</time>
      </trkpt>
      <trkpt lat="49.18906" lon="1.46137">
        <ele>145.60000610352</ele>
        <time>2021-03-28T12:08:47.000Z</time>
      </trkpt>
      <trkpt lat="49.18907" lon="1.4613">
        <ele>145.60000610352</ele>
        <time>2021-03-28T12:08:48.000Z</time>
      </trkpt>
      <trkpt lat="49.18909" lon="1.46116">
        <ele>145.60000610352</ele>
        <time>2021-03-28T12:08:50.000Z</time>
      </trkpt>
      <trkpt lat="49.18911" lon="1.46102">
        <ele>145.39999389648</ele>
        <time>2021-03-28T12:08:52.000Z</time>
      </trkpt>
      <trkpt lat="49.18914" lon="1.4608">
        <ele>145</ele>
        <time>2021-03-28T12:08:55.000Z</time>
      </trkpt>
      <trkpt lat="49.18915" lon="1.46073">
        <ele>145</ele>
        <time>2021-03-28T12:08:56.000Z</time>
      </trkpt>
      <trkpt lat="49.18916" lon="1.46059">
        <ele>144.80000305176</ele>
        <time>2021-03-28T12:08:58.000Z</time>
      </trkpt>
      <trkpt lat="49.18919" lon="1.46045">
        <ele>144.60000610352</ele>
        <time>2021-03-28T12:09:00.000Z</time>
      </trkpt>
      <trkpt lat="49.18923" lon="1.46025">
        <ele>144.19999694824</ele>
        <time>2021-03-28T12:09:03.000Z</time>
      </trkpt>
      <trkpt lat="49.18926" lon="1.46019">
        <ele>144</ele>
        <time>2021-03-28T12:09:04.000Z</time>
      </trkpt>
      <trkpt lat="49.18934" lon="1.45993">
        <ele>143.80000305176</ele>
        <time>2021-03-28T12:09:08.000Z</time>
      </trkpt>
      <trkpt lat="49.1894" lon="1.45981">
        <ele>143.80000305176</ele>
        <time>2021-03-28T12:09:10.000Z</time>
      </trkpt>
      <trkpt lat="49.18947" lon="1.45962">
        <ele>143.60000610352</ele>
        <time>2021-03-28T12:09:13.000Z</time>
      </trkpt>
      <trkpt lat="49.18958" lon="1.45938">
        <ele>143.60000610352</ele>
        <time>2021-03-28T12:09:17.000Z</time>
      </trkpt>
      <trkpt lat="49.18974" lon="1.45901">
        <ele>142.80000305176</ele>
        <time>2021-03-28T12:09:23.000Z</time>
      </trkpt>
      <trkpt lat="49.18976" lon="1.45895">
        <ele>142.80000305176</ele>
        <time>2021-03-28T12:09:24.000Z</time>
      </trkpt>
      <trkpt lat="49.18979" lon="1.45889">
        <ele>142.60000610352</ele>
        <time>2021-03-28T12:09:25.000Z</time>
      </trkpt>
      <trkpt lat="49.18992" lon="1.4586">
        <ele>142.60000610352</ele>
        <time>2021-03-28T12:09:30.000Z</time>
      </trkpt>
      <trkpt lat="49.18997" lon="1.45849">
        <ele>142.39999389648</ele>
        <time>2021-03-28T12:09:32.000Z</time>
      </trkpt>
      <trkpt lat="49.1901" lon="1.45819">
        <ele>142.19999694824</ele>
        <time>2021-03-28T12:09:38.000Z</time>
      </trkpt>
      <trkpt lat="49.19013" lon="1.45813">
        <ele>142.19999694824</ele>
        <time>2021-03-28T12:09:39.000Z</time>
      </trkpt>
      <trkpt lat="49.19024" lon="1.45787">
        <ele>141.80000305176</ele>
        <time>2021-03-28T12:09:44.000Z</time>
      </trkpt>
      <trkpt lat="49.1904" lon="1.45748">
        <ele>141.60000610352</ele>
        <time>2021-03-28T12:09:51.000Z</time>
      </trkpt>
      <trkpt lat="49.19056" lon="1.4571">
        <ele>141.39999389648</ele>
        <time>2021-03-28T12:09:58.000Z</time>
      </trkpt>
      <trkpt lat="49.19069" lon="1.45673">
        <ele>141.39999389648</ele>
        <time>2021-03-28T12:10:05.000Z</time>
      </trkpt>
      <trkpt lat="49.19078" lon="1.45644">
        <ele>141.19999694824</ele>
        <time>2021-03-28T12:10:11.000Z</time>
      </trkpt>
      <trkpt lat="49.19084" lon="1.45627">
        <ele>141.19999694824</ele>
        <time>2021-03-28T12:10:16.000Z</time>
      </trkpt>
      <trkpt lat="49.19086" lon="1.45624">
        <ele>141.19999694824</ele>
        <time>2021-03-28T12:10:20.000Z</time>
      </trkpt>
      <trkpt lat="49.19085" lon="1.45623">
        <ele>141.39999389648</ele>
        <time>2021-03-28T12:11:53.000Z</time>
      </trkpt>
      <trkpt lat="49.19085" lon="1.45621">
        <ele>141.39999389648</ele>
        <time>2021-03-28T12:11:54.000Z</time>
      </trkpt>
      <trkpt lat="49.19084" lon="1.45618">
        <ele>141.19999694824</ele>
        <time>2021-03-28T12:11:56.000Z</time>
      </trkpt>
      <trkpt lat="49.19084" lon="1.45611">
        <ele>141.19999694824</ele>
        <time>2021-03-28T12:11:59.000Z</time>
      </trkpt>
      <trkpt lat="49.19083" lon="1.45598">
        <ele>141</ele>
        <time>2021-03-28T12:12:04.000Z</time>
      </trkpt>
      <trkpt lat="49.19083" lon="1.45591">
        <ele>141</ele>
        <time>2021-03-28T12:12:05.000Z</time>
      </trkpt>
      <trkpt lat="49.19081" lon="1.4556">
        <ele>140.80000305176</ele>
        <time>2021-03-28T12:12:09.000Z</time>
      </trkpt>
      <trkpt lat="49.19077" lon="1.45508">
        <ele>139.80000305176</ele>
        <time>2021-03-28T12:12:15.000Z</time>
      </trkpt>
      <trkpt lat="49.19074" lon="1.4548">
        <ele>138.60000610352</ele>
        <time>2021-03-28T12:12:18.000Z</time>
      </trkpt>
      <trkpt lat="49.19064" lon="1.45402">
        <ele>137.60000610352</ele>
        <time>2021-03-28T12:12:27.000Z</time>
      </trkpt>
      <trkpt lat="49.19048" lon="1.45316">
        <ele>137.80000305176</ele>
        <time>2021-03-28T12:12:37.000Z</time>
      </trkpt>
      <trkpt lat="49.19032" lon="1.45231">
        <ele>137.80000305176</ele>
        <time>2021-03-28T12:12:47.000Z</time>
      </trkpt>
      <trkpt lat="49.19029" lon="1.45205">
        <ele>137.60000610352</ele>
        <time>2021-03-28T12:12:50.000Z</time>
      </trkpt>
      <trkpt lat="49.19023" lon="1.45154">
        <ele>137.19999694824</ele>
        <time>2021-03-28T12:12:56.000Z</time>
      </trkpt>
      <trkpt lat="49.19018" lon="1.45096">
        <ele>136.60000610352</ele>
        <time>2021-03-28T12:13:03.000Z</time>
      </trkpt>
      <trkpt lat="49.19012" lon="1.45018">
        <ele>136.60000610352</ele>
        <time>2021-03-28T12:13:13.000Z</time>
      </trkpt>
      <trkpt lat="49.19006" lon="1.44939">
        <ele>137</ele>
        <time>2021-03-28T12:13:23.000Z</time>
      </trkpt>
      <trkpt lat="49.18999" lon="1.44863">
        <ele>137.39999389648</ele>
        <time>2021-03-28T12:13:32.000Z</time>
      </trkpt>
      <trkpt lat="49.18992" lon="1.44779">
        <ele>137.60000610352</ele>
        <time>2021-03-28T12:13:41.000Z</time>
      </trkpt>
      <trkpt lat="49.18989" lon="1.4475">
        <ele>137.60000610352</ele>
        <time>2021-03-28T12:13:44.000Z</time>
      </trkpt>
      <trkpt lat="49.18985" lon="1.44701">
        <ele>137.39999389648</ele>
        <time>2021-03-28T12:13:49.000Z</time>
      </trkpt>
      <trkpt lat="49.18976" lon="1.44634">
        <ele>136.80000305176</ele>
        <time>2021-03-28T12:13:56.000Z</time>
      </trkpt>
      <trkpt lat="49.18969" lon="1.44585">
        <ele>136.39999389648</ele>
        <time>2021-03-28T12:14:01.000Z</time>
      </trkpt>
      <trkpt lat="49.18964" lon="1.44544">
        <ele>136.19999694824</ele>
        <time>2021-03-28T12:14:05.000Z</time>
      </trkpt>
      <trkpt lat="49.18951" lon="1.44463">
        <ele>135.60000610352</ele>
        <time>2021-03-28T12:14:13.000Z</time>
      </trkpt>
      <trkpt lat="49.1895" lon="1.44452">
        <ele>135.19999694824</ele>
        <time>2021-03-28T12:14:14.000Z</time>
      </trkpt>
      <trkpt lat="49.18944" lon="1.44412">
        <ele>134.19999694824</ele>
        <time>2021-03-28T12:14:18.000Z</time>
      </trkpt>
      <trkpt lat="49.18938" lon="1.44372">
        <ele>133.60000610352</ele>
        <time>2021-03-28T12:14:22.000Z</time>
      </trkpt>
      <trkpt lat="49.18929" lon="1.44302">
        <ele>133.19999694824</ele>
        <time>2021-03-28T12:14:29.000Z</time>
      </trkpt>
      <trkpt lat="49.18926" lon="1.44281">
        <ele>133</ele>
        <time>2021-03-28T12:14:31.000Z</time>
      </trkpt>
      <trkpt lat="49.18924" lon="1.4424">
        <ele>133</ele>
        <time>2021-03-28T12:14:35.000Z</time>
      </trkpt>
      <trkpt lat="49.18929" lon="1.44177">
        <ele>133</ele>
        <time>2021-03-28T12:14:41.000Z</time>
      </trkpt>
      <trkpt lat="49.18944" lon="1.44113">
        <ele>132.80000305176</ele>
        <time>2021-03-28T12:14:47.000Z</time>
      </trkpt>
      <trkpt lat="49.18966" lon="1.44052">
        <ele>132.39999389648</ele>
        <time>2021-03-28T12:14:53.000Z</time>
      </trkpt>
      <trkpt lat="49.18984" lon="1.44013">
        <ele>132</ele>
        <time>2021-03-28T12:14:57.000Z</time>
      </trkpt>
      <trkpt lat="49.19007" lon="1.43962">
        <ele>131.60000610352</ele>
        <time>2021-03-28T12:15:02.000Z</time>
      </trkpt>
      <trkpt lat="49.19031" lon="1.43911">
        <ele>130.80000305176</ele>
        <time>2021-03-28T12:15:07.000Z</time>
      </trkpt>
      <trkpt lat="49.19054" lon="1.43861">
        <ele>130</ele>
        <time>2021-03-28T12:15:12.000Z</time>
      </trkpt>
      <trkpt lat="49.19059" lon="1.43851">
        <ele>129.80000305176</ele>
        <time>2021-03-28T12:15:13.000Z</time>
      </trkpt>
      <trkpt lat="49.19092" lon="1.43779">
        <ele>128.80000305176</ele>
        <time>2021-03-28T12:15:20.000Z</time>
      </trkpt>
      <trkpt lat="49.19107" lon="1.43747">
        <ele>128.19999694824</ele>
        <time>2021-03-28T12:15:23.000Z</time>
      </trkpt>
      <trkpt lat="49.19133" lon="1.4369">
        <ele>127.80000305176</ele>
        <time>2021-03-28T12:15:28.000Z</time>
      </trkpt>
      <trkpt lat="49.19148" lon="1.43655">
        <ele>127.19999694824</ele>
        <time>2021-03-28T12:15:31.000Z</time>
      </trkpt>
      <trkpt lat="49.19168" lon="1.43603">
        <ele>126.59999847412</ele>
        <time>2021-03-28T12:15:35.000Z</time>
      </trkpt>
      <trkpt lat="49.19176" lon="1.43576">
        <ele>125.40000152588</ele>
        <time>2021-03-28T12:15:37.000Z</time>
      </trkpt>
      <trkpt lat="49.19186" lon="1.43535">
        <ele>124.19999694824</ele>
        <time>2021-03-28T12:15:40.000Z</time>
      </trkpt>
      <trkpt lat="49.19194" lon="1.43493">
        <ele>122.80000305176</ele>
        <time>2021-03-28T12:15:43.000Z</time>
      </trkpt>
      <trkpt lat="49.19199" lon="1.43465">
        <ele>121.19999694824</ele>
        <time>2021-03-28T12:15:45.000Z</time>
      </trkpt>
      <trkpt lat="49.19207" lon="1.43406">
        <ele>120</ele>
        <time>2021-03-28T12:15:49.000Z</time>
      </trkpt>
      <trkpt lat="49.1921" lon="1.43375">
        <ele>119</ele>
        <time>2021-03-28T12:15:51.000Z</time>
      </trkpt>
      <trkpt lat="49.19215" lon="1.43328">
        <ele>117.59999847412</ele>
        <time>2021-03-28T12:15:54.000Z</time>
      </trkpt>
      <trkpt lat="49.19216" lon="1.43312">
        <ele>117.19999694824</ele>
        <time>2021-03-28T12:15:55.000Z</time>
      </trkpt>
      <trkpt lat="49.19218" lon="1.43296">
        <ele>116.40000152588</ele>
        <time>2021-03-28T12:15:56.000Z</time>
      </trkpt>
      <trkpt lat="49.19223" lon="1.43267">
        <ele>115.19999694824</ele>
        <time>2021-03-28T12:15:58.000Z</time>
      </trkpt>
      <trkpt lat="49.19228" lon="1.43238">
        <ele>114.40000152588</ele>
        <time>2021-03-28T12:16:00.000Z</time>
      </trkpt>
      <trkpt lat="49.19231" lon="1.43224">
        <ele>114</ele>
        <time>2021-03-28T12:16:01.000Z</time>
      </trkpt>
      <trkpt lat="49.19241" lon="1.43166">
        <ele>112.40000152588</ele>
        <time>2021-03-28T12:16:05.000Z</time>
      </trkpt>
      <trkpt lat="49.1924" lon="1.43151">
        <ele>112</ele>
        <time>2021-03-28T12:16:06.000Z</time>
      </trkpt>
      <trkpt lat="49.19238" lon="1.43136">
        <ele>111.19999694824</ele>
        <time>2021-03-28T12:16:07.000Z</time>
      </trkpt>
      <trkpt lat="49.1923" lon="1.43107">
        <ele>109.40000152588</ele>
        <time>2021-03-28T12:16:09.000Z</time>
      </trkpt>
      <trkpt lat="49.1922" lon="1.43082">
        <ele>108</ele>
        <time>2021-03-28T12:16:11.000Z</time>
      </trkpt>
      <trkpt lat="49.19208" lon="1.43056">
        <ele>106.80000305176</ele>
        <time>2021-03-28T12:16:13.000Z</time>
      </trkpt>
      <trkpt lat="49.19202" lon="1.43043">
        <ele>106.40000152588</ele>
        <time>2021-03-28T12:16:14.000Z</time>
      </trkpt>
      <trkpt lat="49.19191" lon="1.43016">
        <ele>105.80000305176</ele>
        <time>2021-03-28T12:16:16.000Z</time>
      </trkpt>
      <trkpt lat="49.19174" lon="1.42977">
        <ele>104.80000305176</ele>
        <time>2021-03-28T12:16:19.000Z</time>
      </trkpt>
      <trkpt lat="49.19169" lon="1.42963">
        <ele>104.19999694824</ele>
        <time>2021-03-28T12:16:20.000Z</time>
      </trkpt>
      <trkpt lat="49.19164" lon="1.4295">
        <ele>103.59999847412</ele>
        <time>2021-03-28T12:16:21.000Z</time>
      </trkpt>
      <trkpt lat="49.19158" lon="1.42938">
        <ele>103</ele>
        <time>2021-03-28T12:16:22.000Z</time>
      </trkpt>
      <trkpt lat="49.19151" lon="1.42926">
        <ele>102.59999847412</ele>
        <time>2021-03-28T12:16:23.000Z</time>
      </trkpt>
      <trkpt lat="49.19142" lon="1.42915">
        <ele>101.80000305176</ele>
        <time>2021-03-28T12:16:24.000Z</time>
      </trkpt>
      <trkpt lat="49.19125" lon="1.42897">
        <ele>100.19999694824</ele>
        <time>2021-03-28T12:16:26.000Z</time>
      </trkpt>
      <trkpt lat="49.19116" lon="1.42889">
        <ele>99.400001525879</ele>
        <time>2021-03-28T12:16:27.000Z</time>
      </trkpt>
      <trkpt lat="49.19107" lon="1.42881">
        <ele>98.599998474121</ele>
        <time>2021-03-28T12:16:28.000Z</time>
      </trkpt>
      <trkpt lat="49.19088" lon="1.42867">
        <ele>97.199996948242</ele>
        <time>2021-03-28T12:16:30.000Z</time>
      </trkpt>
      <trkpt lat="49.1907" lon="1.42851">
        <ele>95</ele>
        <time>2021-03-28T12:16:32.000Z</time>
      </trkpt>
      <trkpt lat="49.19061" lon="1.42844">
        <ele>94</ele>
        <time>2021-03-28T12:16:33.000Z</time>
      </trkpt>
      <trkpt lat="49.19052" lon="1.42836">
        <ele>92</ele>
        <time>2021-03-28T12:16:34.000Z</time>
      </trkpt>
      <trkpt lat="49.19033" lon="1.42823">
        <ele>90.599998474121</ele>
        <time>2021-03-28T12:16:36.000Z</time>
      </trkpt>
      <trkpt lat="49.19014" lon="1.42814">
        <ele>90.199996948242</ele>
        <time>2021-03-28T12:16:38.000Z</time>
      </trkpt>
      <trkpt lat="49.19004" lon="1.4281">
        <ele>89.800003051758</ele>
        <time>2021-03-28T12:16:39.000Z</time>
      </trkpt>
      <trkpt lat="49.18994" lon="1.42809">
        <ele>89.599998474121</ele>
        <time>2021-03-28T12:16:40.000Z</time>
      </trkpt>
      <trkpt lat="49.18973" lon="1.42809">
        <ele>89</ele>
        <time>2021-03-28T12:16:42.000Z</time>
      </trkpt>
      <trkpt lat="49.18963" lon="1.4281">
        <ele>88.599998474121</ele>
        <time>2021-03-28T12:16:43.000Z</time>
      </trkpt>
      <trkpt lat="49.18952" lon="1.4281">
        <ele>88</ele>
        <time>2021-03-28T12:16:44.000Z</time>
      </trkpt>
      <trkpt lat="49.18931" lon="1.42811">
        <ele>86.800003051758</ele>
        <time>2021-03-28T12:16:46.000Z</time>
      </trkpt>
      <trkpt lat="49.1891" lon="1.42807">
        <ele>85.800003051758</ele>
        <time>2021-03-28T12:16:48.000Z</time>
      </trkpt>
      <trkpt lat="49.189" lon="1.42803">
        <ele>85</ele>
        <time>2021-03-28T12:16:49.000Z</time>
      </trkpt>
      <trkpt lat="49.1889" lon="1.42798">
        <ele>84.599998474121</ele>
        <time>2021-03-28T12:16:50.000Z</time>
      </trkpt>
      <trkpt lat="49.18879" lon="1.42791">
        <ele>84.400001525879</ele>
        <time>2021-03-28T12:16:51.000Z</time>
      </trkpt>
      <trkpt lat="49.1885" lon="1.4277">
        <ele>83.199996948242</ele>
        <time>2021-03-28T12:16:54.000Z</time>
      </trkpt>
      <trkpt lat="49.1883" lon="1.42755">
        <ele>82.199996948242</ele>
        <time>2021-03-28T12:16:56.000Z</time>
      </trkpt>
      <trkpt lat="49.18821" lon="1.42747">
        <ele>81.599998474121</ele>
        <time>2021-03-28T12:16:57.000Z</time>
      </trkpt>
      <trkpt lat="49.18803" lon="1.42731">
        <ele>80.800003051758</ele>
        <time>2021-03-28T12:16:59.000Z</time>
      </trkpt>
      <trkpt lat="49.18785" lon="1.42715">
        <ele>79.599998474121</ele>
        <time>2021-03-28T12:17:01.000Z</time>
      </trkpt>
      <trkpt lat="49.18766" lon="1.42701">
        <ele>76.800003051758</ele>
        <time>2021-03-28T12:17:03.000Z</time>
      </trkpt>
      <trkpt lat="49.18747" lon="1.42691">
        <ele>75.400001525879</ele>
        <time>2021-03-28T12:17:05.000Z</time>
      </trkpt>
      <trkpt lat="49.18736" lon="1.4269">
        <ele>74.400001525879</ele>
        <time>2021-03-28T12:17:06.000Z</time>
      </trkpt>
      <trkpt lat="49.18726" lon="1.42692">
        <ele>73.400001525879</ele>
        <time>2021-03-28T12:17:07.000Z</time>
      </trkpt>
      <trkpt lat="49.18706" lon="1.42693">
        <ele>72</ele>
        <time>2021-03-28T12:17:09.000Z</time>
      </trkpt>
      <trkpt lat="49.18697" lon="1.42689">
        <ele>71.800003051758</ele>
        <time>2021-03-28T12:17:10.000Z</time>
      </trkpt>
      <trkpt lat="49.18674" lon="1.42658">
        <ele>71</ele>
        <time>2021-03-28T12:17:13.000Z</time>
      </trkpt>
      <trkpt lat="49.18665" lon="1.4263">
        <ele>69.199996948242</ele>
        <time>2021-03-28T12:17:15.000Z</time>
      </trkpt>
      <trkpt lat="49.1866" lon="1.42616">
        <ele>68.199996948242</ele>
        <time>2021-03-28T12:17:16.000Z</time>
      </trkpt>
      <trkpt lat="49.18655" lon="1.42603">
        <ele>67.800003051758</ele>
        <time>2021-03-28T12:17:17.000Z</time>
      </trkpt>
      <trkpt lat="49.18643" lon="1.42577">
        <ele>67.199996948242</ele>
        <time>2021-03-28T12:17:19.000Z</time>
      </trkpt>
      <trkpt lat="49.18636" lon="1.42565">
        <ele>67.199996948242</ele>
        <time>2021-03-28T12:17:20.000Z</time>
      </trkpt>
      <trkpt lat="49.18622" lon="1.42542">
        <ele>66</ele>
        <time>2021-03-28T12:17:22.000Z</time>
      </trkpt>
      <trkpt lat="49.18606" lon="1.42522">
        <ele>65</ele>
        <time>2021-03-28T12:17:24.000Z</time>
      </trkpt>
      <trkpt lat="49.18599" lon="1.42511">
        <ele>64.800003051758</ele>
        <time>2021-03-28T12:17:25.000Z</time>
      </trkpt>
      <trkpt lat="49.18575" lon="1.4248">
        <ele>63.400001525879</ele>
        <time>2021-03-28T12:17:28.000Z</time>
      </trkpt>
      <trkpt lat="49.18558" lon="1.42458">
        <ele>61.599998474121</ele>
        <time>2021-03-28T12:17:30.000Z</time>
      </trkpt>
      <trkpt lat="49.1855" lon="1.42447">
        <ele>60.400001525879</ele>
        <time>2021-03-28T12:17:31.000Z</time>
      </trkpt>
      <trkpt lat="49.18542" lon="1.42434">
        <ele>59.200000762939</ele>
        <time>2021-03-28T12:17:32.000Z</time>
      </trkpt>
      <trkpt lat="49.1852" lon="1.42399">
        <ele>58.200000762939</ele>
        <time>2021-03-28T12:17:35.000Z</time>
      </trkpt>
      <trkpt lat="49.18513" lon="1.42388">
        <ele>57.599998474121</ele>
        <time>2021-03-28T12:17:36.000Z</time>
      </trkpt>
      <trkpt lat="49.18499" lon="1.42367">
        <ele>56.799999237061</ele>
        <time>2021-03-28T12:17:38.000Z</time>
      </trkpt>
      <trkpt lat="49.18486" lon="1.42347">
        <ele>55.200000762939</ele>
        <time>2021-03-28T12:17:40.000Z</time>
      </trkpt>
      <trkpt lat="49.18478" lon="1.42337">
        <ele>54.400001525879</ele>
        <time>2021-03-28T12:17:41.000Z</time>
      </trkpt>
      <trkpt lat="49.18471" lon="1.42327">
        <ele>53.400001525879</ele>
        <time>2021-03-28T12:17:42.000Z</time>
      </trkpt>
      <trkpt lat="49.18454" lon="1.42309">
        <ele>52.200000762939</ele>
        <time>2021-03-28T12:17:44.000Z</time>
      </trkpt>
      <trkpt lat="49.18438" lon="1.4229">
        <ele>52</ele>
        <time>2021-03-28T12:17:46.000Z</time>
      </trkpt>
      <trkpt lat="49.18421" lon="1.4227">
        <ele>51.599998474121</ele>
        <time>2021-03-28T12:17:48.000Z</time>
      </trkpt>
      <trkpt lat="49.18414" lon="1.42258">
        <ele>50.799999237061</ele>
        <time>2021-03-28T12:17:49.000Z</time>
      </trkpt>
      <trkpt lat="49.18408" lon="1.42244">
        <ele>50</ele>
        <time>2021-03-28T12:17:50.000Z</time>
      </trkpt>
      <trkpt lat="49.18403" lon="1.42231">
        <ele>49.200000762939</ele>
        <time>2021-03-28T12:17:51.000Z</time>
      </trkpt>
      <trkpt lat="49.18399" lon="1.42216">
        <ele>48.400001525879</ele>
        <time>2021-03-28T12:17:52.000Z</time>
      </trkpt>
      <trkpt lat="49.18395" lon="1.42202">
        <ele>48</ele>
        <time>2021-03-28T12:17:53.000Z</time>
      </trkpt>
      <trkpt lat="49.18391" lon="1.42188">
        <ele>47.400001525879</ele>
        <time>2021-03-28T12:17:54.000Z</time>
      </trkpt>
      <trkpt lat="49.18386" lon="1.42175">
        <ele>46.599998474121</ele>
        <time>2021-03-28T12:17:55.000Z</time>
      </trkpt>
      <trkpt lat="49.18381" lon="1.42162">
        <ele>45.799999237061</ele>
        <time>2021-03-28T12:17:56.000Z</time>
      </trkpt>
      <trkpt lat="49.18375" lon="1.42153">
        <ele>45</ele>
        <time>2021-03-28T12:17:57.000Z</time>
      </trkpt>
      <trkpt lat="49.18369" lon="1.42145">
        <ele>44.400001525879</ele>
        <time>2021-03-28T12:17:58.000Z</time>
      </trkpt>
      <trkpt lat="49.18363" lon="1.42137">
        <ele>43.400001525879</ele>
        <time>2021-03-28T12:17:59.000Z</time>
      </trkpt>
      <trkpt lat="49.18356" lon="1.42129">
        <ele>42.599998474121</ele>
        <time>2021-03-28T12:18:00.000Z</time>
      </trkpt>
      <trkpt lat="49.1835" lon="1.42122">
        <ele>42.400001525879</ele>
        <time>2021-03-28T12:18:01.000Z</time>
      </trkpt>
      <trkpt lat="49.18335" lon="1.4211">
        <ele>42</ele>
        <time>2021-03-28T12:18:03.000Z</time>
      </trkpt>
      <trkpt lat="49.18298" lon="1.42071">
        <ele>41.400001525879</ele>
        <time>2021-03-28T12:18:09.000Z</time>
      </trkpt>
      <trkpt lat="49.18266" lon="1.42035">
        <ele>41</ele>
        <time>2021-03-28T12:18:14.000Z</time>
      </trkpt>
      <trkpt lat="49.1826" lon="1.42028">
        <ele>41</ele>
        <time>2021-03-28T12:18:15.000Z</time>
      </trkpt>
      <trkpt lat="49.18217" lon="1.41986">
        <ele>40.599998474121</ele>
        <time>2021-03-28T12:18:22.000Z</time>
      </trkpt>
      <trkpt lat="49.18182" lon="1.41943">
        <ele>40.599998474121</ele>
        <time>2021-03-28T12:18:28.000Z</time>
      </trkpt>
      <trkpt lat="49.18146" lon="1.41893">
        <ele>40.599998474121</ele>
        <time>2021-03-28T12:18:34.000Z</time>
      </trkpt>
      <trkpt lat="49.18109" lon="1.4183">
        <ele>39.799999237061</ele>
        <time>2021-03-28T12:18:41.000Z</time>
      </trkpt>
      <trkpt lat="49.18103" lon="1.4182">
        <ele>39.799999237061</ele>
        <time>2021-03-28T12:18:42.000Z</time>
      </trkpt>
      <trkpt lat="49.18098" lon="1.41811">
        <ele>39.799999237061</ele>
        <time>2021-03-28T12:18:43.000Z</time>
      </trkpt>
      <trkpt lat="49.18077" lon="1.41766">
        <ele>39.599998474121</ele>
        <time>2021-03-28T12:18:48.000Z</time>
      </trkpt>
      <trkpt lat="49.1807" lon="1.41748">
        <ele>39.400001525879</ele>
        <time>2021-03-28T12:18:50.000Z</time>
      </trkpt>
      <trkpt lat="49.18062" lon="1.41722">
        <ele>39</ele>
        <time>2021-03-28T12:18:53.000Z</time>
      </trkpt>
      <trkpt lat="49.18057" lon="1.41705">
        <ele>38.799999237061</ele>
        <time>2021-03-28T12:18:55.000Z</time>
      </trkpt>
      <trkpt lat="49.18052" lon="1.41676">
        <ele>38.200000762939</ele>
        <time>2021-03-28T12:18:58.000Z</time>
      </trkpt>
      <trkpt lat="49.18042" lon="1.41617">
        <ele>37.599998474121</ele>
        <time>2021-03-28T12:19:04.000Z</time>
      </trkpt>
      <trkpt lat="49.1804" lon="1.41596">
        <ele>37.400001525879</ele>
        <time>2021-03-28T12:19:06.000Z</time>
      </trkpt>
      <trkpt lat="49.18034" lon="1.41541">
        <ele>36.200000762939</ele>
        <time>2021-03-28T12:19:11.000Z</time>
      </trkpt>
      <trkpt lat="49.18025" lon="1.41454">
        <ele>35.200000762939</ele>
        <time>2021-03-28T12:19:19.000Z</time>
      </trkpt>
      <trkpt lat="49.18023" lon="1.41421">
        <ele>35</ele>
        <time>2021-03-28T12:19:22.000Z</time>
      </trkpt>
      <trkpt lat="49.18021" lon="1.41365">
        <ele>34.599998474121</ele>
        <time>2021-03-28T12:19:27.000Z</time>
      </trkpt>
      <trkpt lat="49.18019" lon="1.41289">
        <ele>34.200000762939</ele>
        <time>2021-03-28T12:19:34.000Z</time>
      </trkpt>
      <trkpt lat="49.18017" lon="1.41269">
        <ele>34</ele>
        <time>2021-03-28T12:19:36.000Z</time>
      </trkpt>
      <trkpt lat="49.18017" lon="1.41258">
        <ele>33.799999237061</ele>
        <time>2021-03-28T12:19:37.000Z</time>
      </trkpt>
      <trkpt lat="49.18016" lon="1.41191">
        <ele>33</ele>
        <time>2021-03-28T12:19:43.000Z</time>
      </trkpt>
      <trkpt lat="49.18013" lon="1.41123">
        <ele>32.599998474121</ele>
        <time>2021-03-28T12:19:49.000Z</time>
      </trkpt>
      <trkpt lat="49.18013" lon="1.41077">
        <ele>31.60000038147</ele>
        <time>2021-03-28T12:19:53.000Z</time>
      </trkpt>
      <trkpt lat="49.18012" lon="1.41053">
        <ele>30.60000038147</ele>
        <time>2021-03-28T12:19:55.000Z</time>
      </trkpt>
      <trkpt lat="49.18012" lon="1.41041">
        <ele>30.200000762939</ele>
        <time>2021-03-28T12:19:56.000Z</time>
      </trkpt>
      <trkpt lat="49.18011" lon="1.41006">
        <ele>30</ele>
        <time>2021-03-28T12:19:59.000Z</time>
      </trkpt>
      <trkpt lat="49.18011" lon="1.40935">
        <ele>29.39999961853</ele>
        <time>2021-03-28T12:20:05.000Z</time>
      </trkpt>
      <trkpt lat="49.1801" lon="1.40899">
        <ele>29.200000762939</ele>
        <time>2021-03-28T12:20:08.000Z</time>
      </trkpt>
      <trkpt lat="49.1801" lon="1.40863">
        <ele>29</ele>
        <time>2021-03-28T12:20:11.000Z</time>
      </trkpt>
      <trkpt lat="49.18008" lon="1.40814">
        <ele>28.200000762939</ele>
        <time>2021-03-28T12:20:15.000Z</time>
      </trkpt>
      <trkpt lat="49.18007" lon="1.40764">
        <ele>28</ele>
        <time>2021-03-28T12:20:19.000Z</time>
      </trkpt>
      <trkpt lat="49.18004" lon="1.40678">
        <ele>27.39999961853</ele>
        <time>2021-03-28T12:20:26.000Z</time>
      </trkpt>
      <trkpt lat="49.18002" lon="1.40653">
        <ele>26.799999237061</ele>
        <time>2021-03-28T12:20:28.000Z</time>
      </trkpt>
      <trkpt lat="49.17999" lon="1.40608">
        <ele>25.799999237061</ele>
        <time>2021-03-28T12:20:32.000Z</time>
      </trkpt>
      <trkpt lat="49.17997" lon="1.40587">
        <ele>25.60000038147</ele>
        <time>2021-03-28T12:20:34.000Z</time>
      </trkpt>
      <trkpt lat="49.17994" lon="1.40568">
        <ele>25.39999961853</ele>
        <time>2021-03-28T12:20:36.000Z</time>
      </trkpt>
      <trkpt lat="49.17994" lon="1.40558">
        <ele>25.200000762939</ele>
        <time>2021-03-28T12:20:37.000Z</time>
      </trkpt>
      <trkpt lat="49.17993" lon="1.4054">
        <ele>25</ele>
        <time>2021-03-28T12:20:39.000Z</time>
      </trkpt>
      <trkpt lat="49.17992" lon="1.40511">
        <ele>24.60000038147</ele>
        <time>2021-03-28T12:20:42.000Z</time>
      </trkpt>
      <trkpt lat="49.17987" lon="1.4048">
        <ele>24</ele>
        <time>2021-03-28T12:20:45.000Z</time>
      </trkpt>
      <trkpt lat="49.17982" lon="1.4046">
        <ele>23.799999237061</ele>
        <time>2021-03-28T12:20:47.000Z</time>
      </trkpt>
      <trkpt lat="49.17966" lon="1.40413">
        <ele>23.39999961853</ele>
        <time>2021-03-28T12:20:52.000Z</time>
      </trkpt>
      <trkpt lat="49.17942" lon="1.40351">
        <ele>22.200000762939</ele>
        <time>2021-03-28T12:20:59.000Z</time>
      </trkpt>
      <trkpt lat="49.17933" lon="1.40326">
        <ele>21.39999961853</ele>
        <time>2021-03-28T12:21:02.000Z</time>
      </trkpt>
      <trkpt lat="49.17925" lon="1.4031">
        <ele>21</ele>
        <time>2021-03-28T12:21:04.000Z</time>
      </trkpt>
      <trkpt lat="49.17916" lon="1.40294">
        <ele>21</ele>
        <time>2021-03-28T12:21:06.000Z</time>
      </trkpt>
      <trkpt lat="49.17894" lon="1.40262">
        <ele>20.799999237061</ele>
        <time>2021-03-28T12:21:11.000Z</time>
      </trkpt>
      <trkpt lat="49.17887" lon="1.40248">
        <ele>20.799999237061</ele>
        <time>2021-03-28T12:21:13.000Z</time>
      </trkpt>
      <trkpt lat="49.1788" lon="1.40233">
        <ele>20.60000038147</ele>
        <time>2021-03-28T12:21:15.000Z</time>
      </trkpt>
      <trkpt lat="49.1787" lon="1.40219">
        <ele>20.39999961853</ele>
        <time>2021-03-28T12:21:17.000Z</time>
      </trkpt>
      <trkpt lat="49.17866" lon="1.40212">
        <ele>20.39999961853</ele>
        <time>2021-03-28T12:21:18.000Z</time>
      </trkpt>
      <trkpt lat="49.17858" lon="1.40196">
        <ele>20.39999961853</ele>
        <time>2021-03-28T12:21:20.000Z</time>
      </trkpt>
      <trkpt lat="49.17835" lon="1.40158">
        <ele>20</ele>
        <time>2021-03-28T12:21:25.000Z</time>
      </trkpt>
      <trkpt lat="49.17831" lon="1.4015">
        <ele>19.799999237061</ele>
        <time>2021-03-28T12:21:26.000Z</time>
      </trkpt>
      <trkpt lat="49.17807" lon="1.40108">
        <ele>19.200000762939</ele>
        <time>2021-03-28T12:21:31.000Z</time>
      </trkpt>
      <trkpt lat="49.17797" lon="1.40092">
        <ele>18.799999237061</ele>
        <time>2021-03-28T12:21:33.000Z</time>
      </trkpt>
      <trkpt lat="49.17792" lon="1.40085">
        <ele>18.799999237061</ele>
        <time>2021-03-28T12:21:34.000Z</time>
      </trkpt>
      <trkpt lat="49.17787" lon="1.40077">
        <ele>18.60000038147</ele>
        <time>2021-03-28T12:21:35.000Z</time>
      </trkpt>
      <trkpt lat="49.17772" lon="1.40055">
        <ele>18.60000038147</ele>
        <time>2021-03-28T12:21:38.000Z</time>
      </trkpt>
      <trkpt lat="49.17762" lon="1.40041">
        <ele>18.39999961853</ele>
        <time>2021-03-28T12:21:40.000Z</time>
      </trkpt>
      <trkpt lat="49.17736" lon="1.40012">
        <ele>18</ele>
        <time>2021-03-28T12:21:45.000Z</time>
      </trkpt>
      <trkpt lat="49.17731" lon="1.40007">
        <ele>17.60000038147</ele>
        <time>2021-03-28T12:21:46.000Z</time>
      </trkpt>
      <trkpt lat="49.17726" lon="1.40003">
        <ele>17.200000762939</ele>
        <time>2021-03-28T12:21:47.000Z</time>
      </trkpt>
      <trkpt lat="49.17707" lon="1.39991">
        <ele>16.799999237061</ele>
        <time>2021-03-28T12:21:50.000Z</time>
      </trkpt>
      <trkpt lat="49.17688" lon="1.3998">
        <ele>16.60000038147</ele>
        <time>2021-03-28T12:21:53.000Z</time>
      </trkpt>
      <trkpt lat="49.17676" lon="1.39974">
        <ele>16.200000762939</ele>
        <time>2021-03-28T12:21:55.000Z</time>
      </trkpt>
      <trkpt lat="49.17656" lon="1.39967">
        <ele>16</ele>
        <time>2021-03-28T12:21:58.000Z</time>
      </trkpt>
      <trkpt lat="49.1765" lon="1.39963">
        <ele>15.800000190735</ele>
        <time>2021-03-28T12:21:59.000Z</time>
      </trkpt>
      <trkpt lat="49.17624" lon="1.3995">
        <ele>15.60000038147</ele>
        <time>2021-03-28T12:22:03.000Z</time>
      </trkpt>
      <trkpt lat="49.17569" lon="1.39927">
        <ele>15</ele>
        <time>2021-03-28T12:22:11.000Z</time>
      </trkpt>
      <trkpt lat="49.17562" lon="1.39924">
        <ele>15</ele>
        <time>2021-03-28T12:22:12.000Z</time>
      </trkpt>
      <trkpt lat="49.17555" lon="1.39923">
        <ele>15</ele>
        <time>2021-03-28T12:22:13.000Z</time>
      </trkpt>
      <trkpt lat="49.17536" lon="1.39917">
        <ele>14.800000190735</ele>
        <time>2021-03-28T12:22:16.000Z</time>
      </trkpt>
      <trkpt lat="49.17504" lon="1.39904">
        <ele>13.800000190735</ele>
        <time>2021-03-28T12:22:21.000Z</time>
      </trkpt>
      <trkpt lat="49.17492" lon="1.399">
        <ele>13.60000038147</ele>
        <time>2021-03-28T12:22:23.000Z</time>
      </trkpt>
      <trkpt lat="49.17455" lon="1.39884">
        <ele>13</ele>
        <time>2021-03-28T12:22:29.000Z</time>
      </trkpt>
      <trkpt lat="49.17417" lon="1.39871">
        <ele>12.800000190735</ele>
        <time>2021-03-28T12:22:35.000Z</time>
      </trkpt>
      <trkpt lat="49.17378" lon="1.39854">
        <ele>12.800000190735</ele>
        <time>2021-03-28T12:22:41.000Z</time>
      </trkpt>
      <trkpt lat="49.17372" lon="1.3985">
        <ele>12.800000190735</ele>
        <time>2021-03-28T12:22:42.000Z</time>
      </trkpt>
      <trkpt lat="49.1736" lon="1.39843">
        <ele>12.60000038147</ele>
        <time>2021-03-28T12:22:44.000Z</time>
      </trkpt>
      <trkpt lat="49.17355" lon="1.39839">
        <ele>12.60000038147</ele>
        <time>2021-03-28T12:22:45.000Z</time>
      </trkpt>
      <trkpt lat="49.1734" lon="1.39826">
        <ele>12.60000038147</ele>
        <time>2021-03-28T12:22:48.000Z</time>
      </trkpt>
      <trkpt lat="49.17301" lon="1.39799">
        <ele>12.60000038147</ele>
        <time>2021-03-28T12:22:55.000Z</time>
      </trkpt>
      <trkpt lat="49.17273" lon="1.39787">
        <ele>12.60000038147</ele>
        <time>2021-03-28T12:23:00.000Z</time>
      </trkpt>
      <trkpt lat="49.17269" lon="1.39781">
        <ele>12.60000038147</ele>
        <time>2021-03-28T12:23:01.000Z</time>
      </trkpt>
      <trkpt lat="49.17268" lon="1.39766">
        <ele>12.60000038147</ele>
        <time>2021-03-28T12:23:03.000Z</time>
      </trkpt>
      <trkpt lat="49.17277" lon="1.39748">
        <ele>12.800000190735</ele>
        <time>2021-03-28T12:23:06.000Z</time>
      </trkpt>
      <trkpt lat="49.17302" lon="1.39703">
        <ele>13.800000190735</ele>
        <time>2021-03-28T12:23:14.000Z</time>
      </trkpt>
      <trkpt lat="49.17309" lon="1.39693">
        <ele>14.60000038147</ele>
        <time>2021-03-28T12:23:16.000Z</time>
      </trkpt>
      <trkpt lat="49.17316" lon="1.39684">
        <ele>15</ele>
        <time>2021-03-28T12:23:18.000Z</time>
      </trkpt>
      <trkpt lat="49.17339" lon="1.39655">
        <ele>16</ele>
        <time>2021-03-28T12:23:25.000Z</time>
      </trkpt>
      <trkpt lat="49.17345" lon="1.39646">
        <ele>16.39999961853</ele>
        <time>2021-03-28T12:23:27.000Z</time>
      </trkpt>
      <trkpt lat="49.17353" lon="1.3963">
        <ele>17</ele>
        <time>2021-03-28T12:23:30.000Z</time>
      </trkpt>
      <trkpt lat="49.17359" lon="1.39621">
        <ele>17.60000038147</ele>
        <time>2021-03-28T12:23:32.000Z</time>
      </trkpt>
      <trkpt lat="49.17366" lon="1.39613">
        <ele>18.200000762939</ele>
        <time>2021-03-28T12:23:34.000Z</time>
      </trkpt>
      <trkpt lat="49.17377" lon="1.39603">
        <ele>18.60000038147</ele>
        <time>2021-03-28T12:23:37.000Z</time>
      </trkpt>
      <trkpt lat="49.17387" lon="1.39592">
        <ele>19.200000762939</ele>
        <time>2021-03-28T12:23:40.000Z</time>
      </trkpt>
      <trkpt lat="49.17399" lon="1.39577">
        <ele>19.799999237061</ele>
        <time>2021-03-28T12:23:44.000Z</time>
      </trkpt>
      <trkpt lat="49.17401" lon="1.39573">
        <ele>20.39999961853</ele>
        <time>2021-03-28T12:23:45.000Z</time>
      </trkpt>
      <trkpt lat="49.17415" lon="1.39556">
        <ele>21.39999961853</ele>
        <time>2021-03-28T12:23:50.000Z</time>
      </trkpt>
      <trkpt lat="49.17423" lon="1.39544">
        <ele>21.799999237061</ele>
        <time>2021-03-28T12:23:53.000Z</time>
      </trkpt>
      <trkpt lat="49.1743" lon="1.39532">
        <ele>22.39999961853</ele>
        <time>2021-03-28T12:23:56.000Z</time>
      </trkpt>
      <trkpt lat="49.17439" lon="1.39518">
        <ele>23.200000762939</ele>
        <time>2021-03-28T12:24:00.000Z</time>
      </trkpt>
      <trkpt lat="49.17443" lon="1.39511">
        <ele>23.60000038147</ele>
        <time>2021-03-28T12:24:02.000Z</time>
      </trkpt>
      <trkpt lat="49.17457" lon="1.39487">
        <ele>24.60000038147</ele>
        <time>2021-03-28T12:24:09.000Z</time>
      </trkpt>
      <trkpt lat="49.17458" lon="1.39484">
        <ele>24.799999237061</ele>
        <time>2021-03-28T12:24:10.000Z</time>
      </trkpt>
      <trkpt lat="49.17467" lon="1.39469">
        <ele>26.200000762939</ele>
        <time>2021-03-28T12:24:15.000Z</time>
      </trkpt>
      <trkpt lat="49.17468" lon="1.39466">
        <ele>26.200000762939</ele>
        <time>2021-03-28T12:24:16.000Z</time>
      </trkpt>
      <trkpt lat="49.17475" lon="1.39451">
        <ele>27.200000762939</ele>
        <time>2021-03-28T12:24:21.000Z</time>
      </trkpt>
      <trkpt lat="49.1748" lon="1.39444">
        <ele>27.60000038147</ele>
        <time>2021-03-28T12:24:24.000Z</time>
      </trkpt>
      <trkpt lat="49.17484" lon="1.39436">
        <ele>28.200000762939</ele>
        <time>2021-03-28T12:24:27.000Z</time>
      </trkpt>
      <trkpt lat="49.17491" lon="1.39421">
        <ele>29.200000762939</ele>
        <time>2021-03-28T12:24:33.000Z</time>
      </trkpt>
      <trkpt lat="49.17493" lon="1.39418">
        <ele>29.39999961853</ele>
        <time>2021-03-28T12:24:34.000Z</time>
      </trkpt>
      <trkpt lat="49.175" lon="1.39404">
        <ele>30.200000762939</ele>
        <time>2021-03-28T12:24:40.000Z</time>
      </trkpt>
      <trkpt lat="49.17504" lon="1.39398">
        <ele>31.200000762939</ele>
        <time>2021-03-28T12:24:43.000Z</time>
      </trkpt>
      <trkpt lat="49.17506" lon="1.39394">
        <ele>31.39999961853</ele>
        <time>2021-03-28T12:24:45.000Z</time>
      </trkpt>
      <trkpt lat="49.17514" lon="1.3938">
        <ele>32.400001525879</ele>
        <time>2021-03-28T12:24:52.000Z</time>
      </trkpt>
      <trkpt lat="49.17515" lon="1.39378">
        <ele>32.599998474121</ele>
        <time>2021-03-28T12:24:53.000Z</time>
      </trkpt>
      <trkpt lat="49.17521" lon="1.39366">
        <ele>33.599998474121</ele>
        <time>2021-03-28T12:24:59.000Z</time>
      </trkpt>
      <trkpt lat="49.17525" lon="1.39358">
        <ele>34.799999237061</ele>
        <time>2021-03-28T12:25:03.000Z</time>
      </trkpt>
      <trkpt lat="49.17529" lon="1.39352">
        <ele>35.200000762939</ele>
        <time>2021-03-28T12:25:06.000Z</time>
      </trkpt>
      <trkpt lat="49.17531" lon="1.39349">
        <ele>35.599998474121</ele>
        <time>2021-03-28T12:25:08.000Z</time>
      </trkpt>
      <trkpt lat="49.17532" lon="1.3935">
        <ele>36</ele>
        <time>2021-03-28T12:25:09.000Z</time>
      </trkpt>
      <trkpt lat="49.17534" lon="1.39351">
        <ele>36.200000762939</ele>
        <time>2021-03-28T12:25:10.000Z</time>
      </trkpt>
      <trkpt lat="49.17537" lon="1.39355">
        <ele>37</ele>
        <time>2021-03-28T12:25:12.000Z</time>
      </trkpt>
      <trkpt lat="49.17538" lon="1.39356">
        <ele>37.599998474121</ele>
        <time>2021-03-28T12:25:14.000Z</time>
      </trkpt>
      <trkpt lat="49.1754" lon="1.39355">
        <ele>37.599998474121</ele>
        <time>2021-03-28T12:25:15.000Z</time>
      </trkpt>
      <trkpt lat="49.1754" lon="1.39353">
        <ele>37.799999237061</ele>
        <time>2021-03-28T12:25:16.000Z</time>
      </trkpt>
      <trkpt lat="49.17539" lon="1.39343">
        <ele>38.599998474121</ele>
        <time>2021-03-28T12:25:19.000Z</time>
      </trkpt>
      <trkpt lat="49.17537" lon="1.39332">
        <ele>38.799999237061</ele>
        <time>2021-03-28T12:25:22.000Z</time>
      </trkpt>
      <trkpt lat="49.17534" lon="1.39319">
        <ele>39</ele>
        <time>2021-03-28T12:25:26.000Z</time>
      </trkpt>
      <trkpt lat="49.17533" lon="1.39315">
        <ele>39</ele>
        <time>2021-03-28T12:25:27.000Z</time>
      </trkpt>
      <trkpt lat="49.17527" lon="1.39286">
        <ele>39.400001525879</ele>
        <time>2021-03-28T12:25:34.000Z</time>
      </trkpt>
      <trkpt lat="49.17521" lon="1.39257">
        <ele>40.200000762939</ele>
        <time>2021-03-28T12:25:41.000Z</time>
      </trkpt>
      <trkpt lat="49.1752" lon="1.39248">
        <ele>40.200000762939</ele>
        <time>2021-03-28T12:25:43.000Z</time>
      </trkpt>
      <trkpt lat="49.17517" lon="1.39227">
        <ele>41.400001525879</ele>
        <time>2021-03-28T12:25:48.000Z</time>
      </trkpt>
      <trkpt lat="49.17515" lon="1.39205">
        <ele>42</ele>
        <time>2021-03-28T12:25:53.000Z</time>
      </trkpt>
      <trkpt lat="49.17515" lon="1.39196">
        <ele>42.599998474121</ele>
        <time>2021-03-28T12:25:55.000Z</time>
      </trkpt>
      <trkpt lat="49.17515" lon="1.39158">
        <ele>43.400001525879</ele>
        <time>2021-03-28T12:26:03.000Z</time>
      </trkpt>
      <trkpt lat="49.17516" lon="1.39148">
        <ele>43.599998474121</ele>
        <time>2021-03-28T12:26:05.000Z</time>
      </trkpt>
      <trkpt lat="49.17521" lon="1.39111">
        <ele>44.799999237061</ele>
        <time>2021-03-28T12:26:13.000Z</time>
      </trkpt>
      <trkpt lat="49.17526" lon="1.39084">
        <ele>45.799999237061</ele>
        <time>2021-03-28T12:26:19.000Z</time>
      </trkpt>
      <trkpt lat="49.17532" lon="1.39062">
        <ele>46.599998474121</ele>
        <time>2021-03-28T12:26:24.000Z</time>
      </trkpt>
      <trkpt lat="49.17533" lon="1.39053">
        <ele>46.799999237061</ele>
        <time>2021-03-28T12:26:26.000Z</time>
      </trkpt>
      <trkpt lat="49.17533" lon="1.39048">
        <ele>47</ele>
        <time>2021-03-28T12:26:27.000Z</time>
      </trkpt>
      <trkpt lat="49.17532" lon="1.39043">
        <ele>47.200000762939</ele>
        <time>2021-03-28T12:26:28.000Z</time>
      </trkpt>
      <trkpt lat="49.17529" lon="1.39004">
        <ele>47.200000762939</ele>
        <time>2021-03-28T12:26:34.000Z</time>
      </trkpt>
      <trkpt lat="49.17526" lon="1.38962">
        <ele>46.799999237061</ele>
        <time>2021-03-28T12:26:40.000Z</time>
      </trkpt>
      <trkpt lat="49.1752" lon="1.38916">
        <ele>46.400001525879</ele>
        <time>2021-03-28T12:26:46.000Z</time>
      </trkpt>
      <trkpt lat="49.17519" lon="1.38909">
        <ele>46.200000762939</ele>
        <time>2021-03-28T12:26:47.000Z</time>
      </trkpt>
      <trkpt lat="49.17516" lon="1.38894">
        <ele>45.799999237061</ele>
        <time>2021-03-28T12:26:49.000Z</time>
      </trkpt>
      <trkpt lat="49.17513" lon="1.38878">
        <ele>45.599998474121</ele>
        <time>2021-03-28T12:26:51.000Z</time>
      </trkpt>
      <trkpt lat="49.17511" lon="1.3887">
        <ele>45.400001525879</ele>
        <time>2021-03-28T12:26:52.000Z</time>
      </trkpt>
      <trkpt lat="49.17503" lon="1.3884">
        <ele>45</ele>
        <time>2021-03-28T12:26:55.000Z</time>
      </trkpt>
      <trkpt lat="49.17499" lon="1.3883">
        <ele>44.799999237061</ele>
        <time>2021-03-28T12:26:56.000Z</time>
      </trkpt>
      <trkpt lat="49.17472" lon="1.38767">
        <ele>43.400001525879</ele>
        <time>2021-03-28T12:27:02.000Z</time>
      </trkpt>
      <trkpt lat="49.17462" lon="1.38746">
        <ele>41.599998474121</ele>
        <time>2021-03-28T12:27:04.000Z</time>
      </trkpt>
      <trkpt lat="49.17454" lon="1.38725">
        <ele>39.799999237061</ele>
        <time>2021-03-28T12:27:06.000Z</time>
      </trkpt>
      <trkpt lat="49.17443" lon="1.38692">
        <ele>39</ele>
        <time>2021-03-28T12:27:09.000Z</time>
      </trkpt>
      <trkpt lat="49.17439" lon="1.3868">
        <ele>38.799999237061</ele>
        <time>2021-03-28T12:27:10.000Z</time>
      </trkpt>
      <trkpt lat="49.17424" lon="1.38644">
        <ele>38</ele>
        <time>2021-03-28T12:27:13.000Z</time>
      </trkpt>
      <trkpt lat="49.17408" lon="1.3863">
        <ele>37.599998474121</ele>
        <time>2021-03-28T12:27:15.000Z</time>
      </trkpt>
      <trkpt lat="49.17395" lon="1.3862">
        <ele>37.400001525879</ele>
        <time>2021-03-28T12:27:17.000Z</time>
      </trkpt>
      <trkpt lat="49.17397" lon="1.38605">
        <ele>35.599998474121</ele>
        <time>2021-03-28T12:27:19.000Z</time>
      </trkpt>
      <trkpt lat="49.17402" lon="1.38599">
        <ele>34.200000762939</ele>
        <time>2021-03-28T12:27:20.000Z</time>
      </trkpt>
      <trkpt lat="49.17407" lon="1.38591">
        <ele>33</ele>
        <time>2021-03-28T12:27:21.000Z</time>
      </trkpt>
      <trkpt lat="49.1741" lon="1.38581">
        <ele>32</ele>
        <time>2021-03-28T12:27:22.000Z</time>
      </trkpt>
      <trkpt lat="49.1741" lon="1.3857">
        <ele>30.799999237061</ele>
        <time>2021-03-28T12:27:23.000Z</time>
      </trkpt>
      <trkpt lat="49.17408" lon="1.38557">
        <ele>30.200000762939</ele>
        <time>2021-03-28T12:27:24.000Z</time>
      </trkpt>
      <trkpt lat="49.17401" lon="1.38531">
        <ele>29.60000038147</ele>
        <time>2021-03-28T12:27:26.000Z</time>
      </trkpt>
      <trkpt lat="49.17396" lon="1.38518">
        <ele>29.200000762939</ele>
        <time>2021-03-28T12:27:27.000Z</time>
      </trkpt>
      <trkpt lat="49.17385" lon="1.38492">
        <ele>28.39999961853</ele>
        <time>2021-03-28T12:27:29.000Z</time>
      </trkpt>
      <trkpt lat="49.17378" lon="1.38469">
        <ele>26.39999961853</ele>
        <time>2021-03-28T12:27:31.000Z</time>
      </trkpt>
      <trkpt lat="49.17378" lon="1.38458">
        <ele>25.60000038147</ele>
        <time>2021-03-28T12:27:32.000Z</time>
      </trkpt>
      <trkpt lat="49.1738" lon="1.38448">
        <ele>24.200000762939</ele>
        <time>2021-03-28T12:27:33.000Z</time>
      </trkpt>
      <trkpt lat="49.17381" lon="1.3844">
        <ele>23</ele>
        <time>2021-03-28T12:27:34.000Z</time>
      </trkpt>
      <trkpt lat="49.17379" lon="1.38433">
        <ele>20.200000762939</ele>
        <time>2021-03-28T12:27:35.000Z</time>
      </trkpt>
      <trkpt lat="49.17374" lon="1.38429">
        <ele>18.799999237061</ele>
        <time>2021-03-28T12:27:36.000Z</time>
      </trkpt>
      <trkpt lat="49.17368" lon="1.38425">
        <ele>17.39999961853</ele>
        <time>2021-03-28T12:27:37.000Z</time>
      </trkpt>
      <trkpt lat="49.17361" lon="1.38421">
        <ele>16.39999961853</ele>
        <time>2021-03-28T12:27:38.000Z</time>
      </trkpt>
      <trkpt lat="49.17354" lon="1.38417">
        <ele>16.200000762939</ele>
        <time>2021-03-28T12:27:39.000Z</time>
      </trkpt>
      <trkpt lat="49.1734" lon="1.3841">
        <ele>15.39999961853</ele>
        <time>2021-03-28T12:27:41.000Z</time>
      </trkpt>
      <trkpt lat="49.17335" lon="1.38409">
        <ele>15.39999961853</ele>
        <time>2021-03-28T12:27:42.000Z</time>
      </trkpt>
      <trkpt lat="49.17331" lon="1.38405">
        <ele>15.39999961853</ele>
        <time>2021-03-28T12:27:43.000Z</time>
      </trkpt>
      <trkpt lat="49.17329" lon="1.38401">
        <ele>15.199999809265</ele>
        <time>2021-03-28T12:27:44.000Z</time>
      </trkpt>
      <trkpt lat="49.17328" lon="1.38395">
        <ele>14.60000038147</ele>
        <time>2021-03-28T12:27:45.000Z</time>
      </trkpt>
      <trkpt lat="49.17328" lon="1.38389">
        <ele>13.800000190735</ele>
        <time>2021-03-28T12:27:46.000Z</time>
      </trkpt>
      <trkpt lat="49.17328" lon="1.38381">
        <ele>12.800000190735</ele>
        <time>2021-03-28T12:27:47.000Z</time>
      </trkpt>
      <trkpt lat="49.17331" lon="1.38366">
        <ele>11.60000038147</ele>
        <time>2021-03-28T12:27:49.000Z</time>
      </trkpt>
      <trkpt lat="49.17334" lon="1.38358">
        <ele>11.199999809265</ele>
        <time>2021-03-28T12:27:50.000Z</time>
      </trkpt>
      <trkpt lat="49.17356" lon="1.38305">
        <ele>10.60000038147</ele>
        <time>2021-03-28T12:27:57.000Z</time>
      </trkpt>
      <trkpt lat="49.17376" lon="1.38258">
        <ele>10.60000038147</ele>
        <time>2021-03-28T12:28:03.000Z</time>
      </trkpt>
      <trkpt lat="49.17379" lon="1.3825">
        <ele>10.39999961853</ele>
        <time>2021-03-28T12:28:04.000Z</time>
      </trkpt>
      <trkpt lat="49.17408" lon="1.38183">
        <ele>10</ele>
        <time>2021-03-28T12:28:12.000Z</time>
      </trkpt>
      <trkpt lat="49.17437" lon="1.38115">
        <ele>9.8000001907349</ele>
        <time>2021-03-28T12:28:20.000Z</time>
      </trkpt>
      <trkpt lat="49.17445" lon="1.38091">
        <ele>9.6000003814697</ele>
        <time>2021-03-28T12:28:24.000Z</time>
      </trkpt>
      <trkpt lat="49.17451" lon="1.38077">
        <ele>9.6000003814697</ele>
        <time>2021-03-28T12:28:27.000Z</time>
      </trkpt>
      <trkpt lat="49.17456" lon="1.38065">
        <ele>9.6000003814697</ele>
        <time>2021-03-28T12:28:29.000Z</time>
      </trkpt>
      <trkpt lat="49.17459" lon="1.38059">
        <ele>9.6000003814697</ele>
        <time>2021-03-28T12:28:30.000Z</time>
      </trkpt>
      <trkpt lat="49.17466" lon="1.38038">
        <ele>9.6000003814697</ele>
        <time>2021-03-28T12:28:33.000Z</time>
      </trkpt>
      <trkpt lat="49.17469" lon="1.38032">
        <ele>9.3999996185303</ele>
        <time>2021-03-28T12:28:34.000Z</time>
      </trkpt>
      <trkpt lat="49.17476" lon="1.38018">
        <ele>9.3999996185303</ele>
        <time>2021-03-28T12:28:36.000Z</time>
      </trkpt>
      <trkpt lat="49.17481" lon="1.38002">
        <ele>9.3999996185303</ele>
        <time>2021-03-28T12:28:38.000Z</time>
      </trkpt>
      <trkpt lat="49.17498" lon="1.37958">
        <ele>9.3999996185303</ele>
        <time>2021-03-28T12:28:44.000Z</time>
      </trkpt>
      <trkpt lat="49.17512" lon="1.37913">
        <ele>9.3999996185303</ele>
        <time>2021-03-28T12:28:50.000Z</time>
      </trkpt>
      <trkpt lat="49.17528" lon="1.3784">
        <ele>10.199999809265</ele>
        <time>2021-03-28T12:28:59.000Z</time>
      </trkpt>
      <trkpt lat="49.17537" lon="1.37794">
        <ele>10.60000038147</ele>
        <time>2021-03-28T12:29:05.000Z</time>
      </trkpt>
      <trkpt lat="49.17553" lon="1.37742">
        <ele>10.800000190735</ele>
        <time>2021-03-28T12:29:12.000Z</time>
      </trkpt>
      <trkpt lat="49.17558" lon="1.37727">
        <ele>11</ele>
        <time>2021-03-28T12:29:14.000Z</time>
      </trkpt>
      <trkpt lat="49.17569" lon="1.37708">
        <ele>11</ele>
        <time>2021-03-28T12:29:17.000Z</time>
      </trkpt>
      <trkpt lat="49.17582" lon="1.37682">
        <ele>11</ele>
        <time>2021-03-28T12:29:21.000Z</time>
      </trkpt>
      <trkpt lat="49.17587" lon="1.37667">
        <ele>11</ele>
        <time>2021-03-28T12:29:23.000Z</time>
      </trkpt>
      <trkpt lat="49.17603" lon="1.37623">
        <ele>10.60000038147</ele>
        <time>2021-03-28T12:29:29.000Z</time>
      </trkpt>
      <trkpt lat="49.17609" lon="1.37607">
        <ele>10.39999961853</ele>
        <time>2021-03-28T12:29:31.000Z</time>
      </trkpt>
      <trkpt lat="49.17632" lon="1.37553">
        <ele>10</ele>
        <time>2021-03-28T12:29:38.000Z</time>
      </trkpt>
      <trkpt lat="49.17654" lon="1.37497">
        <ele>10</ele>
        <time>2021-03-28T12:29:45.000Z</time>
      </trkpt>
      <trkpt lat="49.17674" lon="1.37439">
        <ele>9.8000001907349</ele>
        <time>2021-03-28T12:29:52.000Z</time>
      </trkpt>
      <trkpt lat="49.17695" lon="1.37373">
        <ele>9.3999996185303</ele>
        <time>2021-03-28T12:30:00.000Z</time>
      </trkpt>
      <trkpt lat="49.17697" lon="1.37365">
        <ele>9.3999996185303</ele>
        <time>2021-03-28T12:30:01.000Z</time>
      </trkpt>
      <trkpt lat="49.17702" lon="1.37341">
        <ele>9</ele>
        <time>2021-03-28T12:30:04.000Z</time>
      </trkpt>
      <trkpt lat="49.17707" lon="1.37326">
        <ele>8.8000001907349</ele>
        <time>2021-03-28T12:30:06.000Z</time>
      </trkpt>
      <trkpt lat="49.17718" lon="1.37273">
        <ele>8.8000001907349</ele>
        <time>2021-03-28T12:30:13.000Z</time>
      </trkpt>
      <trkpt lat="49.17735" lon="1.37213">
        <ele>8.8000001907349</ele>
        <time>2021-03-28T12:30:21.000Z</time>
      </trkpt>
      <trkpt lat="49.17749" lon="1.37158">
        <ele>9.3999996185303</ele>
        <time>2021-03-28T12:30:28.000Z</time>
      </trkpt>
      <trkpt lat="49.17754" lon="1.37142">
        <ele>9.3999996185303</ele>
        <time>2021-03-28T12:30:30.000Z</time>
      </trkpt>
      <trkpt lat="49.17761" lon="1.37119">
        <ele>9.3999996185303</ele>
        <time>2021-03-28T12:30:33.000Z</time>
      </trkpt>
      <trkpt lat="49.17779" lon="1.37054">
        <ele>9.3999996185303</ele>
        <time>2021-03-28T12:30:41.000Z</time>
      </trkpt>
      <trkpt lat="49.17797" lon="1.36987">
        <ele>9.6000003814697</ele>
        <time>2021-03-28T12:30:49.000Z</time>
      </trkpt>
      <trkpt lat="49.17812" lon="1.36936">
        <ele>10</ele>
        <time>2021-03-28T12:30:55.000Z</time>
      </trkpt>
      <trkpt lat="49.17827" lon="1.36877">
        <ele>10</ele>
        <time>2021-03-28T12:31:02.000Z</time>
      </trkpt>
      <trkpt lat="49.1783" lon="1.36869">
        <ele>10</ele>
        <time>2021-03-28T12:31:03.000Z</time>
      </trkpt>
      <trkpt lat="49.17839" lon="1.36835">
        <ele>10.199999809265</ele>
        <time>2021-03-28T12:31:07.000Z</time>
      </trkpt>
      <trkpt lat="49.17845" lon="1.3681">
        <ele>10.199999809265</ele>
        <time>2021-03-28T12:31:10.000Z</time>
      </trkpt>
      <trkpt lat="49.17863" lon="1.36739">
        <ele>10.199999809265</ele>
        <time>2021-03-28T12:31:19.000Z</time>
      </trkpt>
      <trkpt lat="49.17875" lon="1.36691">
        <ele>11</ele>
        <time>2021-03-28T12:31:25.000Z</time>
      </trkpt>
      <trkpt lat="49.17878" lon="1.36674">
        <ele>11.39999961853</ele>
        <time>2021-03-28T12:31:27.000Z</time>
      </trkpt>
      <trkpt lat="49.17879" lon="1.36665">
        <ele>11.39999961853</ele>
        <time>2021-03-28T12:31:28.000Z</time>
      </trkpt>
      <trkpt lat="49.17887" lon="1.36616">
        <ele>11.39999961853</ele>
        <time>2021-03-28T12:31:33.000Z</time>
      </trkpt>
      <trkpt lat="49.17901" lon="1.36532">
        <ele>10.60000038147</ele>
        <time>2021-03-28T12:31:41.000Z</time>
      </trkpt>
      <trkpt lat="49.17905" lon="1.36511">
        <ele>10.39999961853</ele>
        <time>2021-03-28T12:31:43.000Z</time>
      </trkpt>
      <trkpt lat="49.17913" lon="1.36459">
        <ele>10</ele>
        <time>2021-03-28T12:31:48.000Z</time>
      </trkpt>
      <trkpt lat="49.17921" lon="1.36418">
        <ele>10.199999809265</ele>
        <time>2021-03-28T12:31:52.000Z</time>
      </trkpt>
      <trkpt lat="49.17934" lon="1.36342">
        <ele>9.8000001907349</ele>
        <time>2021-03-28T12:32:00.000Z</time>
      </trkpt>
      <trkpt lat="49.17943" lon="1.3629">
        <ele>9.8000001907349</ele>
        <time>2021-03-28T12:32:06.000Z</time>
      </trkpt>
      <trkpt lat="49.17944" lon="1.36281">
        <ele>9.8000001907349</ele>
        <time>2021-03-28T12:32:07.000Z</time>
      </trkpt>
      <trkpt lat="49.17946" lon="1.36255">
        <ele>9.8000001907349</ele>
        <time>2021-03-28T12:32:10.000Z</time>
      </trkpt>
      <trkpt lat="49.17957" lon="1.36195">
        <ele>9.8000001907349</ele>
        <time>2021-03-28T12:32:17.000Z</time>
      </trkpt>
      <trkpt lat="49.1796" lon="1.36179">
        <ele>9.6000003814697</ele>
        <time>2021-03-28T12:32:19.000Z</time>
      </trkpt>
      <trkpt lat="49.17962" lon="1.36162">
        <ele>9.8000001907349</ele>
        <time>2021-03-28T12:32:21.000Z</time>
      </trkpt>
      <trkpt lat="49.17971" lon="1.36111">
        <ele>9.8000001907349</ele>
        <time>2021-03-28T12:32:27.000Z</time>
      </trkpt>
      <trkpt lat="49.17972" lon="1.36103">
        <ele>10</ele>
        <time>2021-03-28T12:32:28.000Z</time>
      </trkpt>
      <trkpt lat="49.17988" lon="1.36056">
        <ele>10.199999809265</ele>
        <time>2021-03-28T12:32:34.000Z</time>
      </trkpt>
      <trkpt lat="49.17994" lon="1.36041">
        <ele>10.199999809265</ele>
        <time>2021-03-28T12:32:36.000Z</time>
      </trkpt>
      <trkpt lat="49.18001" lon="1.36017">
        <ele>10.39999961853</ele>
        <time>2021-03-28T12:32:39.000Z</time>
      </trkpt>
      <trkpt lat="49.18014" lon="1.35972">
        <ele>10.39999961853</ele>
        <time>2021-03-28T12:32:45.000Z</time>
      </trkpt>
      <trkpt lat="49.18025" lon="1.35924">
        <ele>10</ele>
        <time>2021-03-28T12:32:51.000Z</time>
      </trkpt>
      <trkpt lat="49.1804" lon="1.35846">
        <ele>9.8000001907349</ele>
        <time>2021-03-28T12:33:00.000Z</time>
      </trkpt>
      <trkpt lat="49.18056" lon="1.35793">
        <ele>9.8000001907349</ele>
        <time>2021-03-28T12:33:07.000Z</time>
      </trkpt>
      <trkpt lat="49.18069" lon="1.35768">
        <ele>9.8000001907349</ele>
        <time>2021-03-28T12:33:11.000Z</time>
      </trkpt>
      <trkpt lat="49.18071" lon="1.35762">
        <ele>9.8000001907349</ele>
        <time>2021-03-28T12:33:12.000Z</time>
      </trkpt>
      <trkpt lat="49.18079" lon="1.35744">
        <ele>10.199999809265</ele>
        <time>2021-03-28T12:33:15.000Z</time>
      </trkpt>
      <trkpt lat="49.18084" lon="1.35731">
        <ele>10.39999961853</ele>
        <time>2021-03-28T12:33:17.000Z</time>
      </trkpt>
      <trkpt lat="49.181" lon="1.35687">
        <ele>10.60000038147</ele>
        <time>2021-03-28T12:33:23.000Z</time>
      </trkpt>
      <trkpt lat="49.18122" lon="1.35618">
        <ele>10.60000038147</ele>
        <time>2021-03-28T12:33:32.000Z</time>
      </trkpt>
      <trkpt lat="49.18123" lon="1.3561">
        <ele>10.60000038147</ele>
        <time>2021-03-28T12:33:33.000Z</time>
      </trkpt>
      <trkpt lat="49.18124" lon="1.35588">
        <ele>11</ele>
        <time>2021-03-28T12:33:37.000Z</time>
      </trkpt>
      <trkpt lat="49.18125" lon="1.35584">
        <ele>11.199999809265</ele>
        <time>2021-03-28T12:33:38.000Z</time>
      </trkpt>
      <trkpt lat="49.18129" lon="1.35579">
        <ele>11.39999961853</ele>
        <time>2021-03-28T12:33:40.000Z</time>
      </trkpt>
      <trkpt lat="49.1813" lon="1.35577">
        <ele>11.60000038147</ele>
        <time>2021-03-28T12:33:41.000Z</time>
      </trkpt>
      <trkpt lat="49.18124" lon="1.3557">
        <ele>12.199999809265</ele>
        <time>2021-03-28T12:33:44.000Z</time>
      </trkpt>
      <trkpt lat="49.18122" lon="1.35568">
        <ele>12.60000038147</ele>
        <time>2021-03-28T12:33:45.000Z</time>
      </trkpt>
      <trkpt lat="49.18117" lon="1.35561">
        <ele>13.60000038147</ele>
        <time>2021-03-28T12:33:47.000Z</time>
      </trkpt>
      <trkpt lat="49.18116" lon="1.35556">
        <ele>13.800000190735</ele>
        <time>2021-03-28T12:33:48.000Z</time>
      </trkpt>
      <trkpt lat="49.18115" lon="1.35549">
        <ele>14.800000190735</ele>
        <time>2021-03-28T12:33:50.000Z</time>
      </trkpt>
      <trkpt lat="49.18116" lon="1.35542">
        <ele>15.199999809265</ele>
        <time>2021-03-28T12:33:52.000Z</time>
      </trkpt>
      <trkpt lat="49.18114" lon="1.35535">
        <ele>15.199999809265</ele>
        <time>2021-03-28T12:33:54.000Z</time>
      </trkpt>
      <trkpt lat="49.1811" lon="1.35528">
        <ele>15.199999809265</ele>
        <time>2021-03-28T12:33:56.000Z</time>
      </trkpt>
      <trkpt lat="49.18097" lon="1.35514">
        <ele>16</ele>
        <time>2021-03-28T12:34:01.000Z</time>
      </trkpt>
      <trkpt lat="49.18095" lon="1.35511">
        <ele>16</ele>
        <time>2021-03-28T12:34:02.000Z</time>
      </trkpt>
      <trkpt lat="49.18076" lon="1.35493">
        <ele>16.39999961853</ele>
        <time>2021-03-28T12:34:08.000Z</time>
      </trkpt>
      <trkpt lat="49.18051" lon="1.35471">
        <ele>16.60000038147</ele>
        <time>2021-03-28T12:34:16.000Z</time>
      </trkpt>
      <trkpt lat="49.18041" lon="1.35463">
        <ele>17</ele>
        <time>2021-03-28T12:34:19.000Z</time>
      </trkpt>
      <trkpt lat="49.18015" lon="1.35442">
        <ele>18.200000762939</ele>
        <time>2021-03-28T12:34:27.000Z</time>
      </trkpt>
      <trkpt lat="49.17989" lon="1.35424">
        <ele>19.39999961853</ele>
        <time>2021-03-28T12:34:35.000Z</time>
      </trkpt>
      <trkpt lat="49.17971" lon="1.35411">
        <ele>19.60000038147</ele>
        <time>2021-03-28T12:34:40.000Z</time>
      </trkpt>
      <trkpt lat="49.17963" lon="1.35406">
        <ele>20</ele>
        <time>2021-03-28T12:34:42.000Z</time>
      </trkpt>
      <trkpt lat="49.17956" lon="1.35401">
        <ele>20</ele>
        <time>2021-03-28T12:34:44.000Z</time>
      </trkpt>
      <trkpt lat="49.17945" lon="1.35393">
        <ele>20.200000762939</ele>
        <time>2021-03-28T12:34:47.000Z</time>
      </trkpt>
      <trkpt lat="49.17941" lon="1.35391">
        <ele>20.200000762939</ele>
        <time>2021-03-28T12:34:48.000Z</time>
      </trkpt>
      <trkpt lat="49.17932" lon="1.35385">
        <ele>20.200000762939</ele>
        <time>2021-03-28T12:34:50.000Z</time>
      </trkpt>
      <trkpt lat="49.17886" lon="1.35349">
        <ele>20</ele>
        <time>2021-03-28T12:35:01.000Z</time>
      </trkpt>
      <trkpt lat="49.17858" lon="1.35328">
        <ele>20</ele>
        <time>2021-03-28T12:35:07.000Z</time>
      </trkpt>
      <trkpt lat="49.17807" lon="1.35289">
        <ele>20</ele>
        <time>2021-03-28T12:35:16.000Z</time>
      </trkpt>
      <trkpt lat="49.17764" lon="1.35257">
        <ele>19.39999961853</ele>
        <time>2021-03-28T12:35:23.000Z</time>
      </trkpt>
      <trkpt lat="49.17746" lon="1.35242">
        <ele>18.799999237061</ele>
        <time>2021-03-28T12:35:26.000Z</time>
      </trkpt>
      <trkpt lat="49.17722" lon="1.35224">
        <ele>17.60000038147</ele>
        <time>2021-03-28T12:35:30.000Z</time>
      </trkpt>
      <trkpt lat="49.17698" lon="1.35207">
        <ele>16.60000038147</ele>
        <time>2021-03-28T12:35:34.000Z</time>
      </trkpt>
      <trkpt lat="49.1768" lon="1.35196">
        <ele>16</ele>
        <time>2021-03-28T12:35:37.000Z</time>
      </trkpt>
      <trkpt lat="49.17635" lon="1.35172">
        <ele>16</ele>
        <time>2021-03-28T12:35:45.000Z</time>
      </trkpt>
      <trkpt lat="49.17595" lon="1.35154">
        <ele>17.799999237061</ele>
        <time>2021-03-28T12:35:53.000Z</time>
      </trkpt>
      <trkpt lat="49.17571" lon="1.35145">
        <ele>19.200000762939</ele>
        <time>2021-03-28T12:35:58.000Z</time>
      </trkpt>
      <trkpt lat="49.17552" lon="1.35139">
        <ele>20.200000762939</ele>
        <time>2021-03-28T12:36:02.000Z</time>
      </trkpt>
      <trkpt lat="49.1753" lon="1.35131">
        <ele>21.39999961853</ele>
        <time>2021-03-28T12:36:07.000Z</time>
      </trkpt>
      <trkpt lat="49.17512" lon="1.35125">
        <ele>22.200000762939</ele>
        <time>2021-03-28T12:36:11.000Z</time>
      </trkpt>
      <trkpt lat="49.17485" lon="1.35117">
        <ele>22.39999961853</ele>
        <time>2021-03-28T12:36:17.000Z</time>
      </trkpt>
      <trkpt lat="49.1744" lon="1.35107">
        <ele>22.39999961853</ele>
        <time>2021-03-28T12:36:25.000Z</time>
      </trkpt>
      <trkpt lat="49.17398" lon="1.35098">
        <ele>21.60000038147</ele>
        <time>2021-03-28T12:36:32.000Z</time>
      </trkpt>
      <trkpt lat="49.17392" lon="1.35098">
        <ele>21</ele>
        <time>2021-03-28T12:36:33.000Z</time>
      </trkpt>
      <trkpt lat="49.17386" lon="1.35097">
        <ele>20.799999237061</ele>
        <time>2021-03-28T12:36:34.000Z</time>
      </trkpt>
      <trkpt lat="49.17362" lon="1.35094">
        <ele>20</ele>
        <time>2021-03-28T12:36:38.000Z</time>
      </trkpt>
      <trkpt lat="49.17356" lon="1.35093">
        <ele>19.799999237061</ele>
        <time>2021-03-28T12:36:39.000Z</time>
      </trkpt>
      <trkpt lat="49.1735" lon="1.35092">
        <ele>19.39999961853</ele>
        <time>2021-03-28T12:36:40.000Z</time>
      </trkpt>
      <trkpt lat="49.1734" lon="1.35081">
        <ele>19</ele>
        <time>2021-03-28T12:36:42.000Z</time>
      </trkpt>
      <trkpt lat="49.17331" lon="1.35069">
        <ele>18.60000038147</ele>
        <time>2021-03-28T12:36:44.000Z</time>
      </trkpt>
      <trkpt lat="49.17325" lon="1.35065">
        <ele>18.39999961853</ele>
        <time>2021-03-28T12:36:45.000Z</time>
      </trkpt>
      <trkpt lat="49.17308" lon="1.35071">
        <ele>17.799999237061</ele>
        <time>2021-03-28T12:36:48.000Z</time>
      </trkpt>
      <trkpt lat="49.17303" lon="1.35076">
        <ele>17.60000038147</ele>
        <time>2021-03-28T12:36:49.000Z</time>
      </trkpt>
      <trkpt lat="49.17297" lon="1.3508">
        <ele>17</ele>
        <time>2021-03-28T12:36:50.000Z</time>
      </trkpt>
      <trkpt lat="49.17291" lon="1.35081">
        <ele>16.39999961853</ele>
        <time>2021-03-28T12:36:51.000Z</time>
      </trkpt>
      <trkpt lat="49.17285" lon="1.35082">
        <ele>16</ele>
        <time>2021-03-28T12:36:52.000Z</time>
      </trkpt>
      <trkpt lat="49.17253" lon="1.35087">
        <ele>15.800000190735</ele>
        <time>2021-03-28T12:36:57.000Z</time>
      </trkpt>
      <trkpt lat="49.17241" lon="1.3509">
        <ele>15.60000038147</ele>
        <time>2021-03-28T12:36:59.000Z</time>
      </trkpt>
      <trkpt lat="49.17214" lon="1.35086">
        <ele>15.39999961853</ele>
        <time>2021-03-28T12:37:03.000Z</time>
      </trkpt>
      <trkpt lat="49.17189" lon="1.35079">
        <ele>15.39999961853</ele>
        <time>2021-03-28T12:37:07.000Z</time>
      </trkpt>
      <trkpt lat="49.17157" lon="1.35068">
        <ele>14.39999961853</ele>
        <time>2021-03-28T12:37:12.000Z</time>
      </trkpt>
      <trkpt lat="49.17144" lon="1.35063">
        <ele>14.199999809265</ele>
        <time>2021-03-28T12:37:14.000Z</time>
      </trkpt>
      <trkpt lat="49.171" lon="1.3504">
        <ele>14</ele>
        <time>2021-03-28T12:37:21.000Z</time>
      </trkpt>
      <trkpt lat="49.17056" lon="1.35013">
        <ele>14</ele>
        <time>2021-03-28T12:37:28.000Z</time>
      </trkpt>
      <trkpt lat="49.17019" lon="1.34989">
        <ele>13.800000190735</ele>
        <time>2021-03-28T12:37:35.000Z</time>
      </trkpt>
      <trkpt lat="49.17005" lon="1.34981">
        <ele>14</ele>
        <time>2021-03-28T12:37:38.000Z</time>
      </trkpt>
      <trkpt lat="49.17" lon="1.3497">
        <ele>14</ele>
        <time>2021-03-28T12:37:40.000Z</time>
      </trkpt>
      <trkpt lat="49.16993" lon="1.34938">
        <ele>13.800000190735</ele>
        <time>2021-03-28T12:37:45.000Z</time>
      </trkpt>
      <trkpt lat="49.16978" lon="1.34934">
        <ele>13.60000038147</ele>
        <time>2021-03-28T12:37:48.000Z</time>
      </trkpt>
      <trkpt lat="49.16956" lon="1.34942">
        <ele>14</ele>
        <time>2021-03-28T12:37:52.000Z</time>
      </trkpt>
      <trkpt lat="49.1694" lon="1.34935">
        <ele>13.800000190735</ele>
        <time>2021-03-28T12:37:55.000Z</time>
      </trkpt>
      <trkpt lat="49.16934" lon="1.34932">
        <ele>13.800000190735</ele>
        <time>2021-03-28T12:37:56.000Z</time>
      </trkpt>
      <trkpt lat="49.16894" lon="1.34904">
        <ele>13.60000038147</ele>
        <time>2021-03-28T12:38:04.000Z</time>
      </trkpt>
      <trkpt lat="49.16857" lon="1.34881">
        <ele>14</ele>
        <time>2021-03-28T12:38:11.000Z</time>
      </trkpt>
      <trkpt lat="49.16847" lon="1.34876">
        <ele>14.199999809265</ele>
        <time>2021-03-28T12:38:13.000Z</time>
      </trkpt>
      <trkpt lat="49.16837" lon="1.34871">
        <ele>14.39999961853</ele>
        <time>2021-03-28T12:38:15.000Z</time>
      </trkpt>
      <trkpt lat="49.16823" lon="1.34861">
        <ele>14.60000038147</ele>
        <time>2021-03-28T12:38:18.000Z</time>
      </trkpt>
      <trkpt lat="49.16818" lon="1.34857">
        <ele>14.60000038147</ele>
        <time>2021-03-28T12:38:19.000Z</time>
      </trkpt>
      <trkpt lat="49.16783" lon="1.3484">
        <ele>15</ele>
        <time>2021-03-28T12:38:26.000Z</time>
      </trkpt>
      <trkpt lat="49.16738" lon="1.34836">
        <ele>15.199999809265</ele>
        <time>2021-03-28T12:38:34.000Z</time>
      </trkpt>
      <trkpt lat="49.16692" lon="1.34838">
        <ele>15.199999809265</ele>
        <time>2021-03-28T12:38:42.000Z</time>
      </trkpt>
      <trkpt lat="49.16636" lon="1.34841">
        <ele>15.199999809265</ele>
        <time>2021-03-28T12:38:51.000Z</time>
      </trkpt>
      <trkpt lat="49.16624" lon="1.34842">
        <ele>15.199999809265</ele>
        <time>2021-03-28T12:38:53.000Z</time>
      </trkpt>
      <trkpt lat="49.16566" lon="1.34846">
        <ele>14.800000190735</ele>
        <time>2021-03-28T12:39:02.000Z</time>
      </trkpt>
      <trkpt lat="49.16553" lon="1.34847">
        <ele>14.60000038147</ele>
        <time>2021-03-28T12:39:04.000Z</time>
      </trkpt>
      <trkpt lat="49.16496" lon="1.34851">
        <ele>14.39999961853</ele>
        <time>2021-03-28T12:39:13.000Z</time>
      </trkpt>
      <trkpt lat="49.16483" lon="1.34852">
        <ele>14.199999809265</ele>
        <time>2021-03-28T12:39:15.000Z</time>
      </trkpt>
      <trkpt lat="49.16432" lon="1.34856">
        <ele>14.199999809265</ele>
        <time>2021-03-28T12:39:23.000Z</time>
      </trkpt>
      <trkpt lat="49.16389" lon="1.34859">
        <ele>14.39999961853</ele>
        <time>2021-03-28T12:39:30.000Z</time>
      </trkpt>
      <trkpt lat="49.16345" lon="1.34861">
        <ele>14.39999961853</ele>
        <time>2021-03-28T12:39:37.000Z</time>
      </trkpt>
      <trkpt lat="49.1634" lon="1.3486">
        <ele>14.39999961853</ele>
        <time>2021-03-28T12:39:38.000Z</time>
      </trkpt>
      <trkpt lat="49.16328" lon="1.34853">
        <ele>14.199999809265</ele>
        <time>2021-03-28T12:39:40.000Z</time>
      </trkpt>
      <trkpt lat="49.16311" lon="1.34849">
        <ele>14.199999809265</ele>
        <time>2021-03-28T12:39:43.000Z</time>
      </trkpt>
      <trkpt lat="49.163" lon="1.34857">
        <ele>14.199999809265</ele>
        <time>2021-03-28T12:39:45.000Z</time>
      </trkpt>
      <trkpt lat="49.16295" lon="1.34861">
        <ele>14.199999809265</ele>
        <time>2021-03-28T12:39:46.000Z</time>
      </trkpt>
      <trkpt lat="49.16289" lon="1.34864">
        <ele>14.199999809265</ele>
        <time>2021-03-28T12:39:47.000Z</time>
      </trkpt>
      <trkpt lat="49.16266" lon="1.34867">
        <ele>14</ele>
        <time>2021-03-28T12:39:51.000Z</time>
      </trkpt>
      <trkpt lat="49.16254" lon="1.34868">
        <ele>14.199999809265</ele>
        <time>2021-03-28T12:39:53.000Z</time>
      </trkpt>
      <trkpt lat="49.16212" lon="1.34869">
        <ele>14.39999961853</ele>
        <time>2021-03-28T12:40:00.000Z</time>
      </trkpt>
      <trkpt lat="49.1616" lon="1.34873">
        <ele>14.60000038147</ele>
        <time>2021-03-28T12:40:09.000Z</time>
      </trkpt>
      <trkpt lat="49.16115" lon="1.34875">
        <ele>15.199999809265</ele>
        <time>2021-03-28T12:40:17.000Z</time>
      </trkpt>
      <trkpt lat="49.16076" lon="1.34877">
        <ele>15</ele>
        <time>2021-03-28T12:40:24.000Z</time>
      </trkpt>
      <trkpt lat="49.16026" lon="1.3488">
        <ele>14</ele>
        <time>2021-03-28T12:40:33.000Z</time>
      </trkpt>
      <trkpt lat="49.15998" lon="1.34883">
        <ele>13.800000190735</ele>
        <time>2021-03-28T12:40:38.000Z</time>
      </trkpt>
      <trkpt lat="49.15987" lon="1.34884">
        <ele>13.800000190735</ele>
        <time>2021-03-28T12:40:40.000Z</time>
      </trkpt>
      <trkpt lat="49.15943" lon="1.34886">
        <ele>14.39999961853</ele>
        <time>2021-03-28T12:40:48.000Z</time>
      </trkpt>
      <trkpt lat="49.15898" lon="1.34889">
        <ele>15</ele>
        <time>2021-03-28T12:40:56.000Z</time>
      </trkpt>
      <trkpt lat="49.15854" lon="1.34893">
        <ele>15.199999809265</ele>
        <time>2021-03-28T12:41:04.000Z</time>
      </trkpt>
      <trkpt lat="49.15803" lon="1.34898">
        <ele>15.800000190735</ele>
        <time>2021-03-28T12:41:13.000Z</time>
      </trkpt>
      <trkpt lat="49.15775" lon="1.34906">
        <ele>15.800000190735</ele>
        <time>2021-03-28T12:41:18.000Z</time>
      </trkpt>
      <trkpt lat="49.15769" lon="1.34905">
        <ele>15.800000190735</ele>
        <time>2021-03-28T12:41:19.000Z</time>
      </trkpt>
      <trkpt lat="49.15758" lon="1.34891">
        <ele>15.800000190735</ele>
        <time>2021-03-28T12:41:22.000Z</time>
      </trkpt>
      <trkpt lat="49.1574" lon="1.34866">
        <ele>15.199999809265</ele>
        <time>2021-03-28T12:41:27.000Z</time>
      </trkpt>
      <trkpt lat="49.15725" lon="1.34861">
        <ele>15.199999809265</ele>
        <time>2021-03-28T12:41:30.000Z</time>
      </trkpt>
      <trkpt lat="49.15715" lon="1.34856">
        <ele>15.199999809265</ele>
        <time>2021-03-28T12:41:32.000Z</time>
      </trkpt>
      <trkpt lat="49.15702" lon="1.34831">
        <ele>15.199999809265</ele>
        <time>2021-03-28T12:41:36.000Z</time>
      </trkpt>
      <trkpt lat="49.15682" lon="1.34815">
        <ele>15.199999809265</ele>
        <time>2021-03-28T12:41:40.000Z</time>
      </trkpt>
      <trkpt lat="49.15667" lon="1.3482">
        <ele>15.199999809265</ele>
        <time>2021-03-28T12:41:43.000Z</time>
      </trkpt>
      <trkpt lat="49.15654" lon="1.34835">
        <ele>15.199999809265</ele>
        <time>2021-03-28T12:41:46.000Z</time>
      </trkpt>
      <trkpt lat="49.1565" lon="1.34841">
        <ele>15.199999809265</ele>
        <time>2021-03-28T12:41:47.000Z</time>
      </trkpt>
      <trkpt lat="49.15625" lon="1.34873">
        <ele>15.199999809265</ele>
        <time>2021-03-28T12:41:53.000Z</time>
      </trkpt>
      <trkpt lat="49.15621" lon="1.34876">
        <ele>15.199999809265</ele>
        <time>2021-03-28T12:41:54.000Z</time>
      </trkpt>
      <trkpt lat="49.15612" lon="1.34881">
        <ele>16</ele>
        <time>2021-03-28T12:41:56.000Z</time>
      </trkpt>
      <trkpt lat="49.15607" lon="1.34882">
        <ele>16</ele>
        <time>2021-03-28T12:41:57.000Z</time>
      </trkpt>
      <trkpt lat="49.15575" lon="1.34884">
        <ele>17</ele>
        <time>2021-03-28T12:42:03.000Z</time>
      </trkpt>
      <trkpt lat="49.15569" lon="1.34884">
        <ele>17</ele>
        <time>2021-03-28T12:42:04.000Z</time>
      </trkpt>
      <trkpt lat="49.15528" lon="1.3488">
        <ele>16.799999237061</ele>
        <time>2021-03-28T12:42:12.000Z</time>
      </trkpt>
      <trkpt lat="49.15479" lon="1.34863">
        <ele>17.39999961853</ele>
        <time>2021-03-28T12:42:22.000Z</time>
      </trkpt>
      <trkpt lat="49.15456" lon="1.3485">
        <ele>17.799999237061</ele>
        <time>2021-03-28T12:42:27.000Z</time>
      </trkpt>
      <trkpt lat="49.15444" lon="1.34839">
        <ele>18</ele>
        <time>2021-03-28T12:42:30.000Z</time>
      </trkpt>
      <trkpt lat="49.1544" lon="1.34834">
        <ele>18</ele>
        <time>2021-03-28T12:42:31.000Z</time>
      </trkpt>
      <trkpt lat="49.15433" lon="1.34826">
        <ele>18.200000762939</ele>
        <time>2021-03-28T12:42:33.000Z</time>
      </trkpt>
      <trkpt lat="49.15423" lon="1.34823">
        <ele>18.200000762939</ele>
        <time>2021-03-28T12:42:35.000Z</time>
      </trkpt>
      <trkpt lat="49.1541" lon="1.34833">
        <ele>18.60000038147</ele>
        <time>2021-03-28T12:42:38.000Z</time>
      </trkpt>
      <trkpt lat="49.15403" lon="1.34858">
        <ele>18.60000038147</ele>
        <time>2021-03-28T12:42:41.000Z</time>
      </trkpt>
      <trkpt lat="49.15387" lon="1.34909">
        <ele>18.60000038147</ele>
        <time>2021-03-28T12:42:47.000Z</time>
      </trkpt>
      <trkpt lat="49.15377" lon="1.34939">
        <ele>18</ele>
        <time>2021-03-28T12:42:51.000Z</time>
      </trkpt>
      <trkpt lat="49.15376" lon="1.34947">
        <ele>18</ele>
        <time>2021-03-28T12:42:52.000Z</time>
      </trkpt>
      <trkpt lat="49.15374" lon="1.34962">
        <ele>18</ele>
        <time>2021-03-28T12:42:54.000Z</time>
      </trkpt>
      <trkpt lat="49.15367" lon="1.34972">
        <ele>18</ele>
        <time>2021-03-28T12:42:56.000Z</time>
      </trkpt>
      <trkpt lat="49.15353" lon="1.34977">
        <ele>18.60000038147</ele>
        <time>2021-03-28T12:42:59.000Z</time>
      </trkpt>
      <trkpt lat="49.15343" lon="1.34979">
        <ele>19.200000762939</ele>
        <time>2021-03-28T12:43:01.000Z</time>
      </trkpt>
      <trkpt lat="49.15338" lon="1.34981">
        <ele>19.200000762939</ele>
        <time>2021-03-28T12:43:02.000Z</time>
      </trkpt>
    </trkseg>
  </trk>
</gpx>